<?xml version="1.0" encoding="UTF-8" standalone="no" ?>
<gpx xmlns="http://www.topografix.com/GPX/1/1" xmlns:xsi="http://www.w3.org/2001/XMLSchema-instance" xsi:schemaLocation="http://www.topografix.com/GPX/1/1 http://www.topografix.com/GPX/1/1/gpx.xsd" version="1.1" creator="VisuGPX - https://www.visugpx.com">
  <metadata>
    <name>2017-07-20 Bike ride VTT-Amberieux-Saone O Quincieux O</name>
    <desc><![CDATA[2017-07-20 Bike ride VTT-Amberieux-Saone O Quincieux O]]></desc>
  </metadata>
  <wpt lat="45.92457" lon="4.73713">
    <ele>174</ele>
    <name><![CDATA[2017-07-20 10:34 (Start)]]></name>
  </wpt>
  <wpt lat="45.92461" lon="4.73699">
    <ele>174</ele>
    <name><![CDATA[2017-07-20 10:34 (End)]]></name>
    <desc><![CDATA[Created by Google My Tracks on Android  Name: 2017-07-20 10:34 Activity type: biking Description: - Total distance: 21.13 km (13.1 mi) Total time: 1:28:01 Moving time: 1:16:27 Average speed: 14.40 km/h (9.0 mi/h) Average moving speed: 16.59 km/h (10.3 mi/h) Max speed: 25.61 km/h (15.9 mi/h) Average pace: 4:10 min/km (6:42 min/mi) Average moving pace: 3:37 min/km (5:49 min/mi) Fastest pace: 2:21 min/km (3:46 min/mi) Max elevation: 226 m (740 ft) Min elevation: 159 m (523 ft) Elevation gain: 498 m (1634 ft) Max grade: 15 % Min grade: -28 % Recorded: 20/07/2017 10:34]]></desc>
  </wpt>
  <trk>
    <name><![CDATA[2017-07-20 10:34]]></name>
    <trkseg>
      <trkpt lat="45.92457" lon="4.73713">
        <ele>174</ele>
        <time>2017-07-20T08:34:53.787Z</time>
      </trkpt>
      <trkpt lat="45.92458" lon="4.73713">
        <ele>174</ele>
        <time>2017-07-20T08:35:32Z</time>
      </trkpt>
      <trkpt lat="45.92451" lon="4.7371">
        <ele>174</ele>
        <time>2017-07-20T08:35:58Z</time>
      </trkpt>
      <trkpt lat="45.9245" lon="4.7371">
        <ele>174</ele>
        <time>2017-07-20T08:35:59Z</time>
      </trkpt>
      <trkpt lat="45.92455" lon="4.7372">
        <ele>174</ele>
        <time>2017-07-20T08:36:22Z</time>
      </trkpt>
      <trkpt lat="45.92455" lon="4.73722">
        <ele>174</ele>
        <time>2017-07-20T08:36:23Z</time>
      </trkpt>
      <trkpt lat="45.92456" lon="4.73732">
        <ele>174</ele>
        <time>2017-07-20T08:36:27Z</time>
      </trkpt>
      <trkpt lat="45.92458" lon="4.73736">
        <ele>174</ele>
        <time>2017-07-20T08:36:28Z</time>
      </trkpt>
      <trkpt lat="45.92461" lon="4.73748">
        <ele>174</ele>
        <time>2017-07-20T08:36:30Z</time>
      </trkpt>
      <trkpt lat="45.92461" lon="4.73753">
        <ele>173</ele>
        <time>2017-07-20T08:36:31Z</time>
      </trkpt>
      <trkpt lat="45.92461" lon="4.73765">
        <ele>173</ele>
        <time>2017-07-20T08:36:33Z</time>
      </trkpt>
      <trkpt lat="45.92461" lon="4.73772">
        <ele>173</ele>
        <time>2017-07-20T08:36:34Z</time>
      </trkpt>
      <trkpt lat="45.92461" lon="4.73779">
        <ele>172</ele>
        <time>2017-07-20T08:36:35Z</time>
      </trkpt>
      <trkpt lat="45.92461" lon="4.73787">
        <ele>172</ele>
        <time>2017-07-20T08:36:36Z</time>
      </trkpt>
      <trkpt lat="45.92461" lon="4.73795">
        <ele>172</ele>
        <time>2017-07-20T08:36:37Z</time>
      </trkpt>
      <trkpt lat="45.92461" lon="4.73802">
        <ele>172</ele>
        <time>2017-07-20T08:36:38Z</time>
      </trkpt>
      <trkpt lat="45.92462" lon="4.7381">
        <ele>172</ele>
        <time>2017-07-20T08:36:39Z</time>
      </trkpt>
      <trkpt lat="45.92462" lon="4.73817">
        <ele>172</ele>
        <time>2017-07-20T08:36:40Z</time>
      </trkpt>
      <trkpt lat="45.92461" lon="4.7383">
        <ele>172</ele>
        <time>2017-07-20T08:36:42Z</time>
      </trkpt>
      <trkpt lat="45.92461" lon="4.73836">
        <ele>171</ele>
        <time>2017-07-20T08:36:43Z</time>
      </trkpt>
      <trkpt lat="45.92461" lon="4.73842">
        <ele>171</ele>
        <time>2017-07-20T08:36:44Z</time>
      </trkpt>
      <trkpt lat="45.92462" lon="4.73849">
        <ele>171</ele>
        <time>2017-07-20T08:36:45Z</time>
      </trkpt>
      <trkpt lat="45.92461" lon="4.73861">
        <ele>171</ele>
        <time>2017-07-20T08:36:47Z</time>
      </trkpt>
      <trkpt lat="45.92461" lon="4.73868">
        <ele>171</ele>
        <time>2017-07-20T08:36:48Z</time>
      </trkpt>
      <trkpt lat="45.92461" lon="4.73875">
        <ele>171</ele>
        <time>2017-07-20T08:36:49Z</time>
      </trkpt>
      <trkpt lat="45.92461" lon="4.73883">
        <ele>171</ele>
        <time>2017-07-20T08:36:50Z</time>
      </trkpt>
      <trkpt lat="45.9246" lon="4.7389">
        <ele>171</ele>
        <time>2017-07-20T08:36:51Z</time>
      </trkpt>
      <trkpt lat="45.9246" lon="4.73897">
        <ele>171</ele>
        <time>2017-07-20T08:36:52Z</time>
      </trkpt>
      <trkpt lat="45.92459" lon="4.73904">
        <ele>171</ele>
        <time>2017-07-20T08:36:53Z</time>
      </trkpt>
      <trkpt lat="45.92459" lon="4.7391">
        <ele>172</ele>
        <time>2017-07-20T08:36:54Z</time>
      </trkpt>
      <trkpt lat="45.92458" lon="4.73923">
        <ele>172</ele>
        <time>2017-07-20T08:36:56Z</time>
      </trkpt>
      <trkpt lat="45.92458" lon="4.73929">
        <ele>172</ele>
        <time>2017-07-20T08:36:57Z</time>
      </trkpt>
      <trkpt lat="45.92459" lon="4.73941">
        <ele>172</ele>
        <time>2017-07-20T08:36:59Z</time>
      </trkpt>
      <trkpt lat="45.92461" lon="4.73947">
        <ele>172</ele>
        <time>2017-07-20T08:37:00Z</time>
      </trkpt>
      <trkpt lat="45.92466" lon="4.73956">
        <ele>172</ele>
        <time>2017-07-20T08:37:02Z</time>
      </trkpt>
      <trkpt lat="45.92473" lon="4.73957">
        <ele>172</ele>
        <time>2017-07-20T08:37:03Z</time>
      </trkpt>
      <trkpt lat="45.92478" lon="4.73961">
        <ele>172</ele>
        <time>2017-07-20T08:37:04Z</time>
      </trkpt>
      <trkpt lat="45.92483" lon="4.73964">
        <ele>172</ele>
        <time>2017-07-20T08:37:05Z</time>
      </trkpt>
      <trkpt lat="45.92488" lon="4.73965">
        <ele>172</ele>
        <time>2017-07-20T08:37:06Z</time>
      </trkpt>
      <trkpt lat="45.92493" lon="4.73968">
        <ele>172</ele>
        <time>2017-07-20T08:37:07Z</time>
      </trkpt>
      <trkpt lat="45.92498" lon="4.7397">
        <ele>172</ele>
        <time>2017-07-20T08:37:08Z</time>
      </trkpt>
      <trkpt lat="45.92503" lon="4.73973">
        <ele>172</ele>
        <time>2017-07-20T08:37:09Z</time>
      </trkpt>
      <trkpt lat="45.92508" lon="4.73977">
        <ele>172</ele>
        <time>2017-07-20T08:37:10Z</time>
      </trkpt>
      <trkpt lat="45.92513" lon="4.73982">
        <ele>172</ele>
        <time>2017-07-20T08:37:11Z</time>
      </trkpt>
      <trkpt lat="45.92518" lon="4.73986">
        <ele>172</ele>
        <time>2017-07-20T08:37:12Z</time>
      </trkpt>
      <trkpt lat="45.92524" lon="4.73989">
        <ele>172</ele>
        <time>2017-07-20T08:37:13Z</time>
      </trkpt>
      <trkpt lat="45.92529" lon="4.73992">
        <ele>172</ele>
        <time>2017-07-20T08:37:14Z</time>
      </trkpt>
      <trkpt lat="45.92534" lon="4.73995">
        <ele>172</ele>
        <time>2017-07-20T08:37:15Z</time>
      </trkpt>
      <trkpt lat="45.92539" lon="4.73999">
        <ele>172</ele>
        <time>2017-07-20T08:37:16Z</time>
      </trkpt>
      <trkpt lat="45.92543" lon="4.74003">
        <ele>172</ele>
        <time>2017-07-20T08:37:17Z</time>
      </trkpt>
      <trkpt lat="45.92547" lon="4.74008">
        <ele>172</ele>
        <time>2017-07-20T08:37:18Z</time>
      </trkpt>
      <trkpt lat="45.9255" lon="4.74014">
        <ele>172</ele>
        <time>2017-07-20T08:37:19Z</time>
      </trkpt>
      <trkpt lat="45.92549" lon="4.74022">
        <ele>172</ele>
        <time>2017-07-20T08:37:21Z</time>
      </trkpt>
      <trkpt lat="45.92547" lon="4.74026">
        <ele>172</ele>
        <time>2017-07-20T08:37:22Z</time>
      </trkpt>
      <trkpt lat="45.92541" lon="4.74034">
        <ele>172</ele>
        <time>2017-07-20T08:37:24Z</time>
      </trkpt>
      <trkpt lat="45.92537" lon="4.74038">
        <ele>172</ele>
        <time>2017-07-20T08:37:25Z</time>
      </trkpt>
      <trkpt lat="45.9253" lon="4.74046">
        <ele>172</ele>
        <time>2017-07-20T08:37:27Z</time>
      </trkpt>
      <trkpt lat="45.92527" lon="4.74051">
        <ele>172</ele>
        <time>2017-07-20T08:37:28Z</time>
      </trkpt>
      <trkpt lat="45.92521" lon="4.74059">
        <ele>172</ele>
        <time>2017-07-20T08:37:30Z</time>
      </trkpt>
      <trkpt lat="45.92517" lon="4.74063">
        <ele>172</ele>
        <time>2017-07-20T08:37:31Z</time>
      </trkpt>
      <trkpt lat="45.92513" lon="4.74068">
        <ele>172</ele>
        <time>2017-07-20T08:37:32Z</time>
      </trkpt>
      <trkpt lat="45.92509" lon="4.74073">
        <ele>172</ele>
        <time>2017-07-20T08:37:33Z</time>
      </trkpt>
      <trkpt lat="45.92505" lon="4.74078">
        <ele>172</ele>
        <time>2017-07-20T08:37:34Z</time>
      </trkpt>
      <trkpt lat="45.92501" lon="4.74082">
        <ele>172</ele>
        <time>2017-07-20T08:37:35Z</time>
      </trkpt>
      <trkpt lat="45.92498" lon="4.74086">
        <ele>172</ele>
        <time>2017-07-20T08:37:36Z</time>
      </trkpt>
      <trkpt lat="45.92494" lon="4.74091">
        <ele>172</ele>
        <time>2017-07-20T08:37:37Z</time>
      </trkpt>
      <trkpt lat="45.92488" lon="4.74099">
        <ele>172</ele>
        <time>2017-07-20T08:37:39Z</time>
      </trkpt>
      <trkpt lat="45.92485" lon="4.74105">
        <ele>172</ele>
        <time>2017-07-20T08:37:40Z</time>
      </trkpt>
      <trkpt lat="45.92483" lon="4.7411">
        <ele>172</ele>
        <time>2017-07-20T08:37:41Z</time>
      </trkpt>
      <trkpt lat="45.9248" lon="4.74116">
        <ele>172</ele>
        <time>2017-07-20T08:37:42Z</time>
      </trkpt>
      <trkpt lat="45.92478" lon="4.74122">
        <ele>172</ele>
        <time>2017-07-20T08:37:43Z</time>
      </trkpt>
      <trkpt lat="45.92476" lon="4.74129">
        <ele>171</ele>
        <time>2017-07-20T08:37:44Z</time>
      </trkpt>
      <trkpt lat="45.92474" lon="4.74137">
        <ele>171</ele>
        <time>2017-07-20T08:37:45Z</time>
      </trkpt>
      <trkpt lat="45.92471" lon="4.74144">
        <ele>171</ele>
        <time>2017-07-20T08:37:46Z</time>
      </trkpt>
      <trkpt lat="45.92469" lon="4.74151">
        <ele>171</ele>
        <time>2017-07-20T08:37:47Z</time>
      </trkpt>
      <trkpt lat="45.92466" lon="4.74157">
        <ele>171</ele>
        <time>2017-07-20T08:37:48Z</time>
      </trkpt>
      <trkpt lat="45.92464" lon="4.74165">
        <ele>171</ele>
        <time>2017-07-20T08:37:49Z</time>
      </trkpt>
      <trkpt lat="45.92463" lon="4.74173">
        <ele>171</ele>
        <time>2017-07-20T08:37:50Z</time>
      </trkpt>
      <trkpt lat="45.9246" lon="4.74181">
        <ele>171</ele>
        <time>2017-07-20T08:37:51Z</time>
      </trkpt>
      <trkpt lat="45.92457" lon="4.74189">
        <ele>171</ele>
        <time>2017-07-20T08:37:52Z</time>
      </trkpt>
      <trkpt lat="45.92455" lon="4.74195">
        <ele>171</ele>
        <time>2017-07-20T08:37:53Z</time>
      </trkpt>
      <trkpt lat="45.92452" lon="4.74202">
        <ele>171</ele>
        <time>2017-07-20T08:37:54Z</time>
      </trkpt>
      <trkpt lat="45.9245" lon="4.74209">
        <ele>171</ele>
        <time>2017-07-20T08:37:55Z</time>
      </trkpt>
      <trkpt lat="45.92448" lon="4.74215">
        <ele>171</ele>
        <time>2017-07-20T08:37:56Z</time>
      </trkpt>
      <trkpt lat="45.92445" lon="4.74222">
        <ele>171</ele>
        <time>2017-07-20T08:37:57Z</time>
      </trkpt>
      <trkpt lat="45.92442" lon="4.74228">
        <ele>171</ele>
        <time>2017-07-20T08:37:58Z</time>
      </trkpt>
      <trkpt lat="45.92439" lon="4.74234">
        <ele>171</ele>
        <time>2017-07-20T08:37:59Z</time>
      </trkpt>
      <trkpt lat="45.92437" lon="4.74241">
        <ele>171</ele>
        <time>2017-07-20T08:38:00Z</time>
      </trkpt>
      <trkpt lat="45.92434" lon="4.74248">
        <ele>171</ele>
        <time>2017-07-20T08:38:01Z</time>
      </trkpt>
      <trkpt lat="45.92431" lon="4.74254">
        <ele>171</ele>
        <time>2017-07-20T08:38:02Z</time>
      </trkpt>
      <trkpt lat="45.92428" lon="4.74261">
        <ele>171</ele>
        <time>2017-07-20T08:38:03Z</time>
      </trkpt>
      <trkpt lat="45.92425" lon="4.74267">
        <ele>170</ele>
        <time>2017-07-20T08:38:04Z</time>
      </trkpt>
      <trkpt lat="45.92422" lon="4.74273">
        <ele>170</ele>
        <time>2017-07-20T08:38:05Z</time>
      </trkpt>
      <trkpt lat="45.92419" lon="4.74279">
        <ele>170</ele>
        <time>2017-07-20T08:38:06Z</time>
      </trkpt>
      <trkpt lat="45.92415" lon="4.74286">
        <ele>170</ele>
        <time>2017-07-20T08:38:07Z</time>
      </trkpt>
      <trkpt lat="45.92412" lon="4.74292">
        <ele>170</ele>
        <time>2017-07-20T08:38:08Z</time>
      </trkpt>
      <trkpt lat="45.92408" lon="4.74297">
        <ele>170</ele>
        <time>2017-07-20T08:38:09Z</time>
      </trkpt>
      <trkpt lat="45.92405" lon="4.74303">
        <ele>170</ele>
        <time>2017-07-20T08:38:10Z</time>
      </trkpt>
      <trkpt lat="45.92401" lon="4.74307">
        <ele>170</ele>
        <time>2017-07-20T08:38:11Z</time>
      </trkpt>
      <trkpt lat="45.92397" lon="4.74311">
        <ele>170</ele>
        <time>2017-07-20T08:38:12Z</time>
      </trkpt>
      <trkpt lat="45.9239" lon="4.74315">
        <ele>170</ele>
        <time>2017-07-20T08:38:14Z</time>
      </trkpt>
      <trkpt lat="45.92385" lon="4.74314">
        <ele>170</ele>
        <time>2017-07-20T08:38:15Z</time>
      </trkpt>
      <trkpt lat="45.92381" lon="4.74311">
        <ele>170</ele>
        <time>2017-07-20T08:38:16Z</time>
      </trkpt>
      <trkpt lat="45.92377" lon="4.74309">
        <ele>170</ele>
        <time>2017-07-20T08:38:17Z</time>
      </trkpt>
      <trkpt lat="45.92373" lon="4.74307">
        <ele>170</ele>
        <time>2017-07-20T08:38:18Z</time>
      </trkpt>
      <trkpt lat="45.92368" lon="4.74305">
        <ele>170</ele>
        <time>2017-07-20T08:38:19Z</time>
      </trkpt>
      <trkpt lat="45.92363" lon="4.74303">
        <ele>170</ele>
        <time>2017-07-20T08:38:20Z</time>
      </trkpt>
      <trkpt lat="45.92358" lon="4.743">
        <ele>170</ele>
        <time>2017-07-20T08:38:21Z</time>
      </trkpt>
      <trkpt lat="45.92353" lon="4.74299">
        <ele>170</ele>
        <time>2017-07-20T08:38:22Z</time>
      </trkpt>
      <trkpt lat="45.92347" lon="4.74297">
        <ele>170</ele>
        <time>2017-07-20T08:38:23Z</time>
      </trkpt>
      <trkpt lat="45.92342" lon="4.74297">
        <ele>170</ele>
        <time>2017-07-20T08:38:24Z</time>
      </trkpt>
      <trkpt lat="45.92337" lon="4.74297">
        <ele>170</ele>
        <time>2017-07-20T08:38:25Z</time>
      </trkpt>
      <trkpt lat="45.92331" lon="4.74299">
        <ele>170</ele>
        <time>2017-07-20T08:38:26Z</time>
      </trkpt>
      <trkpt lat="45.92326" lon="4.74302">
        <ele>170</ele>
        <time>2017-07-20T08:38:27Z</time>
      </trkpt>
      <trkpt lat="45.92321" lon="4.74304">
        <ele>170</ele>
        <time>2017-07-20T08:38:28Z</time>
      </trkpt>
      <trkpt lat="45.92316" lon="4.74308">
        <ele>170</ele>
        <time>2017-07-20T08:38:29Z</time>
      </trkpt>
      <trkpt lat="45.92312" lon="4.74312">
        <ele>170</ele>
        <time>2017-07-20T08:38:30Z</time>
      </trkpt>
      <trkpt lat="45.92307" lon="4.74316">
        <ele>170</ele>
        <time>2017-07-20T08:38:31Z</time>
      </trkpt>
      <trkpt lat="45.92303" lon="4.7432">
        <ele>170</ele>
        <time>2017-07-20T08:38:32Z</time>
      </trkpt>
      <trkpt lat="45.92298" lon="4.74324">
        <ele>170</ele>
        <time>2017-07-20T08:38:33Z</time>
      </trkpt>
      <trkpt lat="45.92294" lon="4.74329">
        <ele>170</ele>
        <time>2017-07-20T08:38:34Z</time>
      </trkpt>
      <trkpt lat="45.9229" lon="4.74333">
        <ele>170</ele>
        <time>2017-07-20T08:38:35Z</time>
      </trkpt>
      <trkpt lat="45.92286" lon="4.74337">
        <ele>171</ele>
        <time>2017-07-20T08:38:36Z</time>
      </trkpt>
      <trkpt lat="45.92283" lon="4.74341">
        <ele>171</ele>
        <time>2017-07-20T08:38:37Z</time>
      </trkpt>
      <trkpt lat="45.92276" lon="4.74349">
        <ele>171</ele>
        <time>2017-07-20T08:38:39Z</time>
      </trkpt>
      <trkpt lat="45.92272" lon="4.74354">
        <ele>171</ele>
        <time>2017-07-20T08:38:40Z</time>
      </trkpt>
      <trkpt lat="45.92269" lon="4.74359">
        <ele>171</ele>
        <time>2017-07-20T08:38:41Z</time>
      </trkpt>
      <trkpt lat="45.92266" lon="4.74364">
        <ele>171</ele>
        <time>2017-07-20T08:38:42Z</time>
      </trkpt>
      <trkpt lat="45.92264" lon="4.74369">
        <ele>171</ele>
        <time>2017-07-20T08:38:43Z</time>
      </trkpt>
      <trkpt lat="45.92261" lon="4.74375">
        <ele>171</ele>
        <time>2017-07-20T08:38:44Z</time>
      </trkpt>
      <trkpt lat="45.92259" lon="4.7438">
        <ele>171</ele>
        <time>2017-07-20T08:38:45Z</time>
      </trkpt>
      <trkpt lat="45.92257" lon="4.74386">
        <ele>171</ele>
        <time>2017-07-20T08:38:46Z</time>
      </trkpt>
      <trkpt lat="45.92254" lon="4.74392">
        <ele>171</ele>
        <time>2017-07-20T08:38:47Z</time>
      </trkpt>
      <trkpt lat="45.92252" lon="4.74399">
        <ele>171</ele>
        <time>2017-07-20T08:38:48Z</time>
      </trkpt>
      <trkpt lat="45.9225" lon="4.74405">
        <ele>171</ele>
        <time>2017-07-20T08:38:49Z</time>
      </trkpt>
      <trkpt lat="45.92248" lon="4.74412">
        <ele>171</ele>
        <time>2017-07-20T08:38:50Z</time>
      </trkpt>
      <trkpt lat="45.92245" lon="4.74423">
        <ele>171</ele>
        <time>2017-07-20T08:38:52Z</time>
      </trkpt>
      <trkpt lat="45.92244" lon="4.74428">
        <ele>171</ele>
        <time>2017-07-20T08:38:53Z</time>
      </trkpt>
      <trkpt lat="45.92241" lon="4.74439">
        <ele>171</ele>
        <time>2017-07-20T08:38:55Z</time>
      </trkpt>
      <trkpt lat="45.9224" lon="4.74445">
        <ele>171</ele>
        <time>2017-07-20T08:38:56Z</time>
      </trkpt>
      <trkpt lat="45.92239" lon="4.74452">
        <ele>171</ele>
        <time>2017-07-20T08:38:57Z</time>
      </trkpt>
      <trkpt lat="45.9224" lon="4.74458">
        <ele>171</ele>
        <time>2017-07-20T08:38:58Z</time>
      </trkpt>
      <trkpt lat="45.92245" lon="4.74468">
        <ele>171</ele>
        <time>2017-07-20T08:39:00Z</time>
      </trkpt>
      <trkpt lat="45.92249" lon="4.74472">
        <ele>171</ele>
        <time>2017-07-20T08:39:01Z</time>
      </trkpt>
      <trkpt lat="45.92256" lon="4.74479">
        <ele>171</ele>
        <time>2017-07-20T08:39:03Z</time>
      </trkpt>
      <trkpt lat="45.9226" lon="4.74482">
        <ele>171</ele>
        <time>2017-07-20T08:39:04Z</time>
      </trkpt>
      <trkpt lat="45.92264" lon="4.74485">
        <ele>171</ele>
        <time>2017-07-20T08:39:05Z</time>
      </trkpt>
      <trkpt lat="45.92268" lon="4.74488">
        <ele>171</ele>
        <time>2017-07-20T08:39:06Z</time>
      </trkpt>
      <trkpt lat="45.92273" lon="4.74491">
        <ele>171</ele>
        <time>2017-07-20T08:39:07Z</time>
      </trkpt>
      <trkpt lat="45.92277" lon="4.74494">
        <ele>171</ele>
        <time>2017-07-20T08:39:08Z</time>
      </trkpt>
      <trkpt lat="45.92282" lon="4.74497">
        <ele>171</ele>
        <time>2017-07-20T08:39:09Z</time>
      </trkpt>
      <trkpt lat="45.92287" lon="4.745">
        <ele>171</ele>
        <time>2017-07-20T08:39:10Z</time>
      </trkpt>
      <trkpt lat="45.92291" lon="4.74503">
        <ele>171</ele>
        <time>2017-07-20T08:39:11Z</time>
      </trkpt>
      <trkpt lat="45.92296" lon="4.74506">
        <ele>171</ele>
        <time>2017-07-20T08:39:12Z</time>
      </trkpt>
      <trkpt lat="45.923" lon="4.74509">
        <ele>171</ele>
        <time>2017-07-20T08:39:13Z</time>
      </trkpt>
      <trkpt lat="45.92305" lon="4.74512">
        <ele>171</ele>
        <time>2017-07-20T08:39:14Z</time>
      </trkpt>
      <trkpt lat="45.92312" lon="4.74518">
        <ele>171</ele>
        <time>2017-07-20T08:39:16Z</time>
      </trkpt>
      <trkpt lat="45.92317" lon="4.74521">
        <ele>171</ele>
        <time>2017-07-20T08:39:17Z</time>
      </trkpt>
      <trkpt lat="45.92325" lon="4.74525">
        <ele>171</ele>
        <time>2017-07-20T08:39:19Z</time>
      </trkpt>
      <trkpt lat="45.92329" lon="4.74527">
        <ele>171</ele>
        <time>2017-07-20T08:39:20Z</time>
      </trkpt>
      <trkpt lat="45.92334" lon="4.7453">
        <ele>171</ele>
        <time>2017-07-20T08:39:21Z</time>
      </trkpt>
      <trkpt lat="45.92338" lon="4.74532">
        <ele>171</ele>
        <time>2017-07-20T08:39:22Z</time>
      </trkpt>
      <trkpt lat="45.92343" lon="4.74536">
        <ele>171</ele>
        <time>2017-07-20T08:39:23Z</time>
      </trkpt>
      <trkpt lat="45.92347" lon="4.74539">
        <ele>171</ele>
        <time>2017-07-20T08:39:24Z</time>
      </trkpt>
      <trkpt lat="45.92352" lon="4.74542">
        <ele>171</ele>
        <time>2017-07-20T08:39:25Z</time>
      </trkpt>
      <trkpt lat="45.92357" lon="4.74545">
        <ele>170</ele>
        <time>2017-07-20T08:39:26Z</time>
      </trkpt>
      <trkpt lat="45.92361" lon="4.74548">
        <ele>170</ele>
        <time>2017-07-20T08:39:27Z</time>
      </trkpt>
      <trkpt lat="45.92366" lon="4.74551">
        <ele>170</ele>
        <time>2017-07-20T08:39:28Z</time>
      </trkpt>
      <trkpt lat="45.9237" lon="4.74553">
        <ele>170</ele>
        <time>2017-07-20T08:39:29Z</time>
      </trkpt>
      <trkpt lat="45.92374" lon="4.74556">
        <ele>170</ele>
        <time>2017-07-20T08:39:30Z</time>
      </trkpt>
      <trkpt lat="45.92382" lon="4.74561">
        <ele>171</ele>
        <time>2017-07-20T08:39:32Z</time>
      </trkpt>
      <trkpt lat="45.92386" lon="4.74563">
        <ele>171</ele>
        <time>2017-07-20T08:39:33Z</time>
      </trkpt>
      <trkpt lat="45.92393" lon="4.74568">
        <ele>171</ele>
        <time>2017-07-20T08:39:35Z</time>
      </trkpt>
      <trkpt lat="45.92398" lon="4.7457">
        <ele>171</ele>
        <time>2017-07-20T08:39:36Z</time>
      </trkpt>
      <trkpt lat="45.92402" lon="4.74573">
        <ele>171</ele>
        <time>2017-07-20T08:39:37Z</time>
      </trkpt>
      <trkpt lat="45.92407" lon="4.74576">
        <ele>171</ele>
        <time>2017-07-20T08:39:38Z</time>
      </trkpt>
      <trkpt lat="45.92411" lon="4.74579">
        <ele>171</ele>
        <time>2017-07-20T08:39:39Z</time>
      </trkpt>
      <trkpt lat="45.92416" lon="4.74582">
        <ele>171</ele>
        <time>2017-07-20T08:39:40Z</time>
      </trkpt>
      <trkpt lat="45.9242" lon="4.74586">
        <ele>171</ele>
        <time>2017-07-20T08:39:41Z</time>
      </trkpt>
      <trkpt lat="45.92424" lon="4.7459">
        <ele>171</ele>
        <time>2017-07-20T08:39:42Z</time>
      </trkpt>
      <trkpt lat="45.92427" lon="4.74601">
        <ele>171</ele>
        <time>2017-07-20T08:39:44Z</time>
      </trkpt>
      <trkpt lat="45.92428" lon="4.74606">
        <ele>171</ele>
        <time>2017-07-20T08:39:45Z</time>
      </trkpt>
      <trkpt lat="45.92427" lon="4.74617">
        <ele>171</ele>
        <time>2017-07-20T08:39:47Z</time>
      </trkpt>
      <trkpt lat="45.92425" lon="4.74622">
        <ele>171</ele>
        <time>2017-07-20T08:39:48Z</time>
      </trkpt>
      <trkpt lat="45.92421" lon="4.74631">
        <ele>171</ele>
        <time>2017-07-20T08:39:50Z</time>
      </trkpt>
      <trkpt lat="45.92419" lon="4.74635">
        <ele>171</ele>
        <time>2017-07-20T08:39:51Z</time>
      </trkpt>
      <trkpt lat="45.92415" lon="4.74646">
        <ele>171</ele>
        <time>2017-07-20T08:39:53Z</time>
      </trkpt>
      <trkpt lat="45.92412" lon="4.74651">
        <ele>171</ele>
        <time>2017-07-20T08:39:54Z</time>
      </trkpt>
      <trkpt lat="45.92409" lon="4.74657">
        <ele>171</ele>
        <time>2017-07-20T08:39:55Z</time>
      </trkpt>
      <trkpt lat="45.92404" lon="4.7466">
        <ele>171</ele>
        <time>2017-07-20T08:39:56Z</time>
      </trkpt>
      <trkpt lat="45.924" lon="4.74665">
        <ele>171</ele>
        <time>2017-07-20T08:39:57Z</time>
      </trkpt>
      <trkpt lat="45.92397" lon="4.7467">
        <ele>171</ele>
        <time>2017-07-20T08:39:58Z</time>
      </trkpt>
      <trkpt lat="45.92393" lon="4.74675">
        <ele>171</ele>
        <time>2017-07-20T08:39:59Z</time>
      </trkpt>
      <trkpt lat="45.9239" lon="4.74681">
        <ele>171</ele>
        <time>2017-07-20T08:40:00Z</time>
      </trkpt>
      <trkpt lat="45.92385" lon="4.74691">
        <ele>171</ele>
        <time>2017-07-20T08:40:02Z</time>
      </trkpt>
      <trkpt lat="45.92382" lon="4.74696">
        <ele>171</ele>
        <time>2017-07-20T08:40:03Z</time>
      </trkpt>
      <trkpt lat="45.92377" lon="4.74706">
        <ele>171</ele>
        <time>2017-07-20T08:40:05Z</time>
      </trkpt>
      <trkpt lat="45.92374" lon="4.74711">
        <ele>171</ele>
        <time>2017-07-20T08:40:06Z</time>
      </trkpt>
      <trkpt lat="45.92372" lon="4.74716">
        <ele>171</ele>
        <time>2017-07-20T08:40:07Z</time>
      </trkpt>
      <trkpt lat="45.92369" lon="4.74722">
        <ele>171</ele>
        <time>2017-07-20T08:40:08Z</time>
      </trkpt>
      <trkpt lat="45.92367" lon="4.74728">
        <ele>171</ele>
        <time>2017-07-20T08:40:09Z</time>
      </trkpt>
      <trkpt lat="45.92364" lon="4.74733">
        <ele>171</ele>
        <time>2017-07-20T08:40:10Z</time>
      </trkpt>
      <trkpt lat="45.92361" lon="4.74738">
        <ele>171</ele>
        <time>2017-07-20T08:40:11Z</time>
      </trkpt>
      <trkpt lat="45.92358" lon="4.74744">
        <ele>171</ele>
        <time>2017-07-20T08:40:12Z</time>
      </trkpt>
      <trkpt lat="45.92355" lon="4.7475">
        <ele>170</ele>
        <time>2017-07-20T08:40:13Z</time>
      </trkpt>
      <trkpt lat="45.92352" lon="4.74755">
        <ele>171</ele>
        <time>2017-07-20T08:40:14Z</time>
      </trkpt>
      <trkpt lat="45.92349" lon="4.74761">
        <ele>171</ele>
        <time>2017-07-20T08:40:15Z</time>
      </trkpt>
      <trkpt lat="45.92346" lon="4.74766">
        <ele>171</ele>
        <time>2017-07-20T08:40:16Z</time>
      </trkpt>
      <trkpt lat="45.92341" lon="4.74774">
        <ele>171</ele>
        <time>2017-07-20T08:40:18Z</time>
      </trkpt>
      <trkpt lat="45.92338" lon="4.74778">
        <ele>171</ele>
        <time>2017-07-20T08:40:19Z</time>
      </trkpt>
      <trkpt lat="45.92333" lon="4.74788">
        <ele>171</ele>
        <time>2017-07-20T08:40:21Z</time>
      </trkpt>
      <trkpt lat="45.92329" lon="4.74792">
        <ele>171</ele>
        <time>2017-07-20T08:40:22Z</time>
      </trkpt>
      <trkpt lat="45.92324" lon="4.74802">
        <ele>171</ele>
        <time>2017-07-20T08:40:24Z</time>
      </trkpt>
      <trkpt lat="45.92322" lon="4.74807">
        <ele>171</ele>
        <time>2017-07-20T08:40:25Z</time>
      </trkpt>
      <trkpt lat="45.92316" lon="4.74817">
        <ele>171</ele>
        <time>2017-07-20T08:40:27Z</time>
      </trkpt>
      <trkpt lat="45.92313" lon="4.74823">
        <ele>171</ele>
        <time>2017-07-20T08:40:28Z</time>
      </trkpt>
      <trkpt lat="45.92308" lon="4.74832">
        <ele>171</ele>
        <time>2017-07-20T08:40:30Z</time>
      </trkpt>
      <trkpt lat="45.92305" lon="4.74837">
        <ele>172</ele>
        <time>2017-07-20T08:40:31Z</time>
      </trkpt>
      <trkpt lat="45.92301" lon="4.74845">
        <ele>172</ele>
        <time>2017-07-20T08:40:33Z</time>
      </trkpt>
      <trkpt lat="45.92299" lon="4.74849">
        <ele>172</ele>
        <time>2017-07-20T08:40:34Z</time>
      </trkpt>
      <trkpt lat="45.92295" lon="4.74856">
        <ele>172</ele>
        <time>2017-07-20T08:40:36Z</time>
      </trkpt>
      <trkpt lat="45.92292" lon="4.7486">
        <ele>172</ele>
        <time>2017-07-20T08:40:37Z</time>
      </trkpt>
      <trkpt lat="45.92286" lon="4.74869">
        <ele>171</ele>
        <time>2017-07-20T08:40:39Z</time>
      </trkpt>
      <trkpt lat="45.92283" lon="4.74873">
        <ele>171</ele>
        <time>2017-07-20T08:40:40Z</time>
      </trkpt>
      <trkpt lat="45.9228" lon="4.74878">
        <ele>172</ele>
        <time>2017-07-20T08:40:41Z</time>
      </trkpt>
      <trkpt lat="45.92278" lon="4.74884">
        <ele>172</ele>
        <time>2017-07-20T08:40:42Z</time>
      </trkpt>
      <trkpt lat="45.92272" lon="4.74893">
        <ele>172</ele>
        <time>2017-07-20T08:40:44Z</time>
      </trkpt>
      <trkpt lat="45.9227" lon="4.74898">
        <ele>172</ele>
        <time>2017-07-20T08:40:45Z</time>
      </trkpt>
      <trkpt lat="45.92264" lon="4.74906">
        <ele>172</ele>
        <time>2017-07-20T08:40:47Z</time>
      </trkpt>
      <trkpt lat="45.92261" lon="4.7491">
        <ele>172</ele>
        <time>2017-07-20T08:40:48Z</time>
      </trkpt>
      <trkpt lat="45.92258" lon="4.74915">
        <ele>172</ele>
        <time>2017-07-20T08:40:49Z</time>
      </trkpt>
      <trkpt lat="45.92255" lon="4.7492">
        <ele>172</ele>
        <time>2017-07-20T08:40:50Z</time>
      </trkpt>
      <trkpt lat="45.92253" lon="4.74927">
        <ele>172</ele>
        <time>2017-07-20T08:40:51Z</time>
      </trkpt>
      <trkpt lat="45.92252" lon="4.74933">
        <ele>172</ele>
        <time>2017-07-20T08:40:52Z</time>
      </trkpt>
      <trkpt lat="45.92251" lon="4.74939">
        <ele>172</ele>
        <time>2017-07-20T08:40:53Z</time>
      </trkpt>
      <trkpt lat="45.92249" lon="4.74945">
        <ele>172</ele>
        <time>2017-07-20T08:40:54Z</time>
      </trkpt>
      <trkpt lat="45.92245" lon="4.74955">
        <ele>172</ele>
        <time>2017-07-20T08:40:56Z</time>
      </trkpt>
      <trkpt lat="45.92242" lon="4.74958">
        <ele>172</ele>
        <time>2017-07-20T08:40:57Z</time>
      </trkpt>
      <trkpt lat="45.92236" lon="4.74957">
        <ele>171</ele>
        <time>2017-07-20T08:40:59Z</time>
      </trkpt>
      <trkpt lat="45.92232" lon="4.74956">
        <ele>171</ele>
        <time>2017-07-20T08:41:00Z</time>
      </trkpt>
      <trkpt lat="45.92228" lon="4.74955">
        <ele>171</ele>
        <time>2017-07-20T08:41:01Z</time>
      </trkpt>
      <trkpt lat="45.92223" lon="4.74952">
        <ele>171</ele>
        <time>2017-07-20T08:41:02Z</time>
      </trkpt>
      <trkpt lat="45.92218" lon="4.7495">
        <ele>171</ele>
        <time>2017-07-20T08:41:03Z</time>
      </trkpt>
      <trkpt lat="45.92213" lon="4.74948">
        <ele>171</ele>
        <time>2017-07-20T08:41:04Z</time>
      </trkpt>
      <trkpt lat="45.92208" lon="4.74946">
        <ele>171</ele>
        <time>2017-07-20T08:41:05Z</time>
      </trkpt>
      <trkpt lat="45.92202" lon="4.74944">
        <ele>171</ele>
        <time>2017-07-20T08:41:06Z</time>
      </trkpt>
      <trkpt lat="45.92197" lon="4.74942">
        <ele>171</ele>
        <time>2017-07-20T08:41:07Z</time>
      </trkpt>
      <trkpt lat="45.92193" lon="4.74939">
        <ele>171</ele>
        <time>2017-07-20T08:41:08Z</time>
      </trkpt>
      <trkpt lat="45.92188" lon="4.74937">
        <ele>171</ele>
        <time>2017-07-20T08:41:09Z</time>
      </trkpt>
      <trkpt lat="45.92183" lon="4.74935">
        <ele>171</ele>
        <time>2017-07-20T08:41:10Z</time>
      </trkpt>
      <trkpt lat="45.92178" lon="4.74933">
        <ele>171</ele>
        <time>2017-07-20T08:41:11Z</time>
      </trkpt>
      <trkpt lat="45.92173" lon="4.7493">
        <ele>171</ele>
        <time>2017-07-20T08:41:12Z</time>
      </trkpt>
      <trkpt lat="45.92168" lon="4.74927">
        <ele>170</ele>
        <time>2017-07-20T08:41:13Z</time>
      </trkpt>
      <trkpt lat="45.92162" lon="4.74924">
        <ele>170</ele>
        <time>2017-07-20T08:41:14Z</time>
      </trkpt>
      <trkpt lat="45.92157" lon="4.74922">
        <ele>170</ele>
        <time>2017-07-20T08:41:15Z</time>
      </trkpt>
      <trkpt lat="45.92152" lon="4.74919">
        <ele>170</ele>
        <time>2017-07-20T08:41:16Z</time>
      </trkpt>
      <trkpt lat="45.92147" lon="4.74916">
        <ele>170</ele>
        <time>2017-07-20T08:41:17Z</time>
      </trkpt>
      <trkpt lat="45.92141" lon="4.74913">
        <ele>170</ele>
        <time>2017-07-20T08:41:18Z</time>
      </trkpt>
      <trkpt lat="45.92136" lon="4.7491">
        <ele>170</ele>
        <time>2017-07-20T08:41:19Z</time>
      </trkpt>
      <trkpt lat="45.92131" lon="4.74907">
        <ele>170</ele>
        <time>2017-07-20T08:41:20Z</time>
      </trkpt>
      <trkpt lat="45.92127" lon="4.74905">
        <ele>170</ele>
        <time>2017-07-20T08:41:21Z</time>
      </trkpt>
      <trkpt lat="45.92122" lon="4.74903">
        <ele>170</ele>
        <time>2017-07-20T08:41:22Z</time>
      </trkpt>
      <trkpt lat="45.92117" lon="4.74901">
        <ele>170</ele>
        <time>2017-07-20T08:41:23Z</time>
      </trkpt>
      <trkpt lat="45.92113" lon="4.74899">
        <ele>170</ele>
        <time>2017-07-20T08:41:24Z</time>
      </trkpt>
      <trkpt lat="45.92108" lon="4.74896">
        <ele>170</ele>
        <time>2017-07-20T08:41:25Z</time>
      </trkpt>
      <trkpt lat="45.92103" lon="4.74893">
        <ele>170</ele>
        <time>2017-07-20T08:41:26Z</time>
      </trkpt>
      <trkpt lat="45.92097" lon="4.7489">
        <ele>170</ele>
        <time>2017-07-20T08:41:27Z</time>
      </trkpt>
      <trkpt lat="45.92092" lon="4.74887">
        <ele>170</ele>
        <time>2017-07-20T08:41:28Z</time>
      </trkpt>
      <trkpt lat="45.92088" lon="4.74884">
        <ele>170</ele>
        <time>2017-07-20T08:41:29Z</time>
      </trkpt>
      <trkpt lat="45.92083" lon="4.74881">
        <ele>169</ele>
        <time>2017-07-20T08:41:30Z</time>
      </trkpt>
      <trkpt lat="45.92079" lon="4.74878">
        <ele>169</ele>
        <time>2017-07-20T08:41:31Z</time>
      </trkpt>
      <trkpt lat="45.92074" lon="4.74876">
        <ele>169</ele>
        <time>2017-07-20T08:41:32Z</time>
      </trkpt>
      <trkpt lat="45.92068" lon="4.74873">
        <ele>169</ele>
        <time>2017-07-20T08:41:33Z</time>
      </trkpt>
      <trkpt lat="45.92063" lon="4.7487">
        <ele>169</ele>
        <time>2017-07-20T08:41:34Z</time>
      </trkpt>
      <trkpt lat="45.92058" lon="4.74867">
        <ele>169</ele>
        <time>2017-07-20T08:41:35Z</time>
      </trkpt>
      <trkpt lat="45.92052" lon="4.74864">
        <ele>169</ele>
        <time>2017-07-20T08:41:36Z</time>
      </trkpt>
      <trkpt lat="45.92047" lon="4.74861">
        <ele>169</ele>
        <time>2017-07-20T08:41:37Z</time>
      </trkpt>
      <trkpt lat="45.92041" lon="4.74858">
        <ele>169</ele>
        <time>2017-07-20T08:41:38Z</time>
      </trkpt>
      <trkpt lat="45.92036" lon="4.74855">
        <ele>169</ele>
        <time>2017-07-20T08:41:39Z</time>
      </trkpt>
      <trkpt lat="45.9203" lon="4.74852">
        <ele>169</ele>
        <time>2017-07-20T08:41:40Z</time>
      </trkpt>
      <trkpt lat="45.92025" lon="4.74849">
        <ele>169</ele>
        <time>2017-07-20T08:41:41Z</time>
      </trkpt>
      <trkpt lat="45.9202" lon="4.74847">
        <ele>169</ele>
        <time>2017-07-20T08:41:42Z</time>
      </trkpt>
      <trkpt lat="45.92015" lon="4.74844">
        <ele>169</ele>
        <time>2017-07-20T08:41:43Z</time>
      </trkpt>
      <trkpt lat="45.92011" lon="4.74841">
        <ele>168</ele>
        <time>2017-07-20T08:41:44Z</time>
      </trkpt>
      <trkpt lat="45.92006" lon="4.74839">
        <ele>168</ele>
        <time>2017-07-20T08:41:45Z</time>
      </trkpt>
      <trkpt lat="45.92002" lon="4.74836">
        <ele>168</ele>
        <time>2017-07-20T08:41:46Z</time>
      </trkpt>
      <trkpt lat="45.91997" lon="4.74834">
        <ele>168</ele>
        <time>2017-07-20T08:41:47Z</time>
      </trkpt>
      <trkpt lat="45.91993" lon="4.74831">
        <ele>169</ele>
        <time>2017-07-20T08:41:48Z</time>
      </trkpt>
      <trkpt lat="45.91988" lon="4.74828">
        <ele>169</ele>
        <time>2017-07-20T08:41:49Z</time>
      </trkpt>
      <trkpt lat="45.91984" lon="4.74825">
        <ele>169</ele>
        <time>2017-07-20T08:41:50Z</time>
      </trkpt>
      <trkpt lat="45.91979" lon="4.74823">
        <ele>169</ele>
        <time>2017-07-20T08:41:51Z</time>
      </trkpt>
      <trkpt lat="45.91974" lon="4.74821">
        <ele>169</ele>
        <time>2017-07-20T08:41:52Z</time>
      </trkpt>
      <trkpt lat="45.91968" lon="4.74818">
        <ele>170</ele>
        <time>2017-07-20T08:41:53Z</time>
      </trkpt>
      <trkpt lat="45.91963" lon="4.74815">
        <ele>170</ele>
        <time>2017-07-20T08:41:54Z</time>
      </trkpt>
      <trkpt lat="45.91958" lon="4.74812">
        <ele>170</ele>
        <time>2017-07-20T08:41:55Z</time>
      </trkpt>
      <trkpt lat="45.91953" lon="4.74809">
        <ele>170</ele>
        <time>2017-07-20T08:41:56Z</time>
      </trkpt>
      <trkpt lat="45.91948" lon="4.74806">
        <ele>170</ele>
        <time>2017-07-20T08:41:57Z</time>
      </trkpt>
      <trkpt lat="45.91943" lon="4.74803">
        <ele>170</ele>
        <time>2017-07-20T08:41:58Z</time>
      </trkpt>
      <trkpt lat="45.91939" lon="4.74801">
        <ele>170</ele>
        <time>2017-07-20T08:41:59Z</time>
      </trkpt>
      <trkpt lat="45.91934" lon="4.74798">
        <ele>170</ele>
        <time>2017-07-20T08:42:00Z</time>
      </trkpt>
      <trkpt lat="45.9193" lon="4.74796">
        <ele>170</ele>
        <time>2017-07-20T08:42:01Z</time>
      </trkpt>
      <trkpt lat="45.91925" lon="4.74793">
        <ele>170</ele>
        <time>2017-07-20T08:42:02Z</time>
      </trkpt>
      <trkpt lat="45.91921" lon="4.7479">
        <ele>171</ele>
        <time>2017-07-20T08:42:03Z</time>
      </trkpt>
      <trkpt lat="45.91916" lon="4.74788">
        <ele>172</ele>
        <time>2017-07-20T08:42:04Z</time>
      </trkpt>
      <trkpt lat="45.91911" lon="4.74785">
        <ele>172</ele>
        <time>2017-07-20T08:42:05Z</time>
      </trkpt>
      <trkpt lat="45.91906" lon="4.74782">
        <ele>172</ele>
        <time>2017-07-20T08:42:06Z</time>
      </trkpt>
      <trkpt lat="45.91901" lon="4.74779">
        <ele>172</ele>
        <time>2017-07-20T08:42:07Z</time>
      </trkpt>
      <trkpt lat="45.91896" lon="4.74776">
        <ele>172</ele>
        <time>2017-07-20T08:42:08Z</time>
      </trkpt>
      <trkpt lat="45.9189" lon="4.74773">
        <ele>172</ele>
        <time>2017-07-20T08:42:09Z</time>
      </trkpt>
      <trkpt lat="45.91885" lon="4.74769">
        <ele>172</ele>
        <time>2017-07-20T08:42:10Z</time>
      </trkpt>
      <trkpt lat="45.9188" lon="4.74767">
        <ele>172</ele>
        <time>2017-07-20T08:42:11Z</time>
      </trkpt>
      <trkpt lat="45.91876" lon="4.74764">
        <ele>172</ele>
        <time>2017-07-20T08:42:12Z</time>
      </trkpt>
      <trkpt lat="45.91871" lon="4.74762">
        <ele>171</ele>
        <time>2017-07-20T08:42:13Z</time>
      </trkpt>
      <trkpt lat="45.91866" lon="4.74761">
        <ele>171</ele>
        <time>2017-07-20T08:42:14Z</time>
      </trkpt>
      <trkpt lat="45.91861" lon="4.74762">
        <ele>171</ele>
        <time>2017-07-20T08:42:15Z</time>
      </trkpt>
      <trkpt lat="45.91857" lon="4.74765">
        <ele>171</ele>
        <time>2017-07-20T08:42:16Z</time>
      </trkpt>
      <trkpt lat="45.91852" lon="4.74769">
        <ele>171</ele>
        <time>2017-07-20T08:42:17Z</time>
      </trkpt>
      <trkpt lat="45.91848" lon="4.74773">
        <ele>171</ele>
        <time>2017-07-20T08:42:18Z</time>
      </trkpt>
      <trkpt lat="45.91844" lon="4.74778">
        <ele>171</ele>
        <time>2017-07-20T08:42:19Z</time>
      </trkpt>
      <trkpt lat="45.9184" lon="4.74784">
        <ele>171</ele>
        <time>2017-07-20T08:42:20Z</time>
      </trkpt>
      <trkpt lat="45.91837" lon="4.7479">
        <ele>171</ele>
        <time>2017-07-20T08:42:21Z</time>
      </trkpt>
      <trkpt lat="45.91833" lon="4.74796">
        <ele>172</ele>
        <time>2017-07-20T08:42:22Z</time>
      </trkpt>
      <trkpt lat="45.91829" lon="4.74801">
        <ele>172</ele>
        <time>2017-07-20T08:42:23Z</time>
      </trkpt>
      <trkpt lat="45.91825" lon="4.74807">
        <ele>172</ele>
        <time>2017-07-20T08:42:24Z</time>
      </trkpt>
      <trkpt lat="45.91822" lon="4.74812">
        <ele>172</ele>
        <time>2017-07-20T08:42:25Z</time>
      </trkpt>
      <trkpt lat="45.91819" lon="4.74817">
        <ele>172</ele>
        <time>2017-07-20T08:42:26Z</time>
      </trkpt>
      <trkpt lat="45.91814" lon="4.74826">
        <ele>172</ele>
        <time>2017-07-20T08:42:28Z</time>
      </trkpt>
      <trkpt lat="45.91811" lon="4.74831">
        <ele>172</ele>
        <time>2017-07-20T08:42:29Z</time>
      </trkpt>
      <trkpt lat="45.91806" lon="4.74841">
        <ele>172</ele>
        <time>2017-07-20T08:42:31Z</time>
      </trkpt>
      <trkpt lat="45.91803" lon="4.74846">
        <ele>173</ele>
        <time>2017-07-20T08:42:32Z</time>
      </trkpt>
      <trkpt lat="45.918" lon="4.74852">
        <ele>173</ele>
        <time>2017-07-20T08:42:33Z</time>
      </trkpt>
      <trkpt lat="45.91797" lon="4.74858">
        <ele>173</ele>
        <time>2017-07-20T08:42:34Z</time>
      </trkpt>
      <trkpt lat="45.91794" lon="4.74863">
        <ele>173</ele>
        <time>2017-07-20T08:42:35Z</time>
      </trkpt>
      <trkpt lat="45.91791" lon="4.74869">
        <ele>173</ele>
        <time>2017-07-20T08:42:36Z</time>
      </trkpt>
      <trkpt lat="45.91788" lon="4.74875">
        <ele>173</ele>
        <time>2017-07-20T08:42:37Z</time>
      </trkpt>
      <trkpt lat="45.91785" lon="4.74881">
        <ele>173</ele>
        <time>2017-07-20T08:42:38Z</time>
      </trkpt>
      <trkpt lat="45.91782" lon="4.74887">
        <ele>173</ele>
        <time>2017-07-20T08:42:39Z</time>
      </trkpt>
      <trkpt lat="45.91779" lon="4.74893">
        <ele>173</ele>
        <time>2017-07-20T08:42:40Z</time>
      </trkpt>
      <trkpt lat="45.91777" lon="4.74898">
        <ele>173</ele>
        <time>2017-07-20T08:42:41Z</time>
      </trkpt>
      <trkpt lat="45.91774" lon="4.74904">
        <ele>173</ele>
        <time>2017-07-20T08:42:42Z</time>
      </trkpt>
      <trkpt lat="45.91768" lon="4.74913">
        <ele>173</ele>
        <time>2017-07-20T08:42:44Z</time>
      </trkpt>
      <trkpt lat="45.91764" lon="4.74917">
        <ele>174</ele>
        <time>2017-07-20T08:42:45Z</time>
      </trkpt>
      <trkpt lat="45.91758" lon="4.74926">
        <ele>174</ele>
        <time>2017-07-20T08:42:47Z</time>
      </trkpt>
      <trkpt lat="45.91755" lon="4.7493">
        <ele>174</ele>
        <time>2017-07-20T08:42:48Z</time>
      </trkpt>
      <trkpt lat="45.91748" lon="4.74936">
        <ele>174</ele>
        <time>2017-07-20T08:42:50Z</time>
      </trkpt>
      <trkpt lat="45.91745" lon="4.74939">
        <ele>174</ele>
        <time>2017-07-20T08:42:51Z</time>
      </trkpt>
      <trkpt lat="45.91739" lon="4.74945">
        <ele>174</ele>
        <time>2017-07-20T08:42:53Z</time>
      </trkpt>
      <trkpt lat="45.91737" lon="4.74946">
        <ele>174</ele>
        <time>2017-07-20T08:42:54Z</time>
      </trkpt>
      <trkpt lat="45.91731" lon="4.74951">
        <ele>175</ele>
        <time>2017-07-20T08:42:56Z</time>
      </trkpt>
      <trkpt lat="45.91728" lon="4.74954">
        <ele>175</ele>
        <time>2017-07-20T08:42:57Z</time>
      </trkpt>
      <trkpt lat="45.91721" lon="4.74959">
        <ele>175</ele>
        <time>2017-07-20T08:42:59Z</time>
      </trkpt>
      <trkpt lat="45.91718" lon="4.7496">
        <ele>175</ele>
        <time>2017-07-20T08:43:00Z</time>
      </trkpt>
      <trkpt lat="45.91712" lon="4.74965">
        <ele>175</ele>
        <time>2017-07-20T08:43:02Z</time>
      </trkpt>
      <trkpt lat="45.91709" lon="4.74967">
        <ele>175</ele>
        <time>2017-07-20T08:43:03Z</time>
      </trkpt>
      <trkpt lat="45.91705" lon="4.74971">
        <ele>175</ele>
        <time>2017-07-20T08:43:04Z</time>
      </trkpt>
      <trkpt lat="45.917" lon="4.74973">
        <ele>175</ele>
        <time>2017-07-20T08:43:05Z</time>
      </trkpt>
      <trkpt lat="45.91696" lon="4.74976">
        <ele>175</ele>
        <time>2017-07-20T08:43:06Z</time>
      </trkpt>
      <trkpt lat="45.91691" lon="4.74977">
        <ele>175</ele>
        <time>2017-07-20T08:43:07Z</time>
      </trkpt>
      <trkpt lat="45.91683" lon="4.74979">
        <ele>175</ele>
        <time>2017-07-20T08:43:09Z</time>
      </trkpt>
      <trkpt lat="45.91678" lon="4.74978">
        <ele>175</ele>
        <time>2017-07-20T08:43:10Z</time>
      </trkpt>
      <trkpt lat="45.91671" lon="4.74976">
        <ele>175</ele>
        <time>2017-07-20T08:43:12Z</time>
      </trkpt>
      <trkpt lat="45.91667" lon="4.74975">
        <ele>175</ele>
        <time>2017-07-20T08:43:13Z</time>
      </trkpt>
      <trkpt lat="45.9166" lon="4.74971">
        <ele>176</ele>
        <time>2017-07-20T08:43:15Z</time>
      </trkpt>
      <trkpt lat="45.91656" lon="4.74969">
        <ele>176</ele>
        <time>2017-07-20T08:43:16Z</time>
      </trkpt>
      <trkpt lat="45.91648" lon="4.74966">
        <ele>176</ele>
        <time>2017-07-20T08:43:18Z</time>
      </trkpt>
      <trkpt lat="45.91643" lon="4.74964">
        <ele>176</ele>
        <time>2017-07-20T08:43:19Z</time>
      </trkpt>
      <trkpt lat="45.91635" lon="4.7496">
        <ele>176</ele>
        <time>2017-07-20T08:43:21Z</time>
      </trkpt>
      <trkpt lat="45.91631" lon="4.74957">
        <ele>176</ele>
        <time>2017-07-20T08:43:22Z</time>
      </trkpt>
      <trkpt lat="45.91623" lon="4.74954">
        <ele>176</ele>
        <time>2017-07-20T08:43:24Z</time>
      </trkpt>
      <trkpt lat="45.91619" lon="4.74952">
        <ele>177</ele>
        <time>2017-07-20T08:43:25Z</time>
      </trkpt>
      <trkpt lat="45.91611" lon="4.74949">
        <ele>177</ele>
        <time>2017-07-20T08:43:27Z</time>
      </trkpt>
      <trkpt lat="45.91607" lon="4.74948">
        <ele>177</ele>
        <time>2017-07-20T08:43:28Z</time>
      </trkpt>
      <trkpt lat="45.91603" lon="4.74945">
        <ele>177</ele>
        <time>2017-07-20T08:43:29Z</time>
      </trkpt>
      <trkpt lat="45.91599" lon="4.74943">
        <ele>177</ele>
        <time>2017-07-20T08:43:30Z</time>
      </trkpt>
      <trkpt lat="45.91594" lon="4.74941">
        <ele>177</ele>
        <time>2017-07-20T08:43:31Z</time>
      </trkpt>
      <trkpt lat="45.9159" lon="4.74939">
        <ele>177</ele>
        <time>2017-07-20T08:43:32Z</time>
      </trkpt>
      <trkpt lat="45.91585" lon="4.74937">
        <ele>177</ele>
        <time>2017-07-20T08:43:33Z</time>
      </trkpt>
      <trkpt lat="45.91581" lon="4.74936">
        <ele>177</ele>
        <time>2017-07-20T08:43:34Z</time>
      </trkpt>
      <trkpt lat="45.91575" lon="4.74935">
        <ele>177</ele>
        <time>2017-07-20T08:43:35Z</time>
      </trkpt>
      <trkpt lat="45.9157" lon="4.74935">
        <ele>177</ele>
        <time>2017-07-20T08:43:36Z</time>
      </trkpt>
      <trkpt lat="45.91565" lon="4.74934">
        <ele>178</ele>
        <time>2017-07-20T08:43:37Z</time>
      </trkpt>
      <trkpt lat="45.9156" lon="4.74933">
        <ele>178</ele>
        <time>2017-07-20T08:43:38Z</time>
      </trkpt>
      <trkpt lat="45.91555" lon="4.74932">
        <ele>178</ele>
        <time>2017-07-20T08:43:39Z</time>
      </trkpt>
      <trkpt lat="45.9155" lon="4.74931">
        <ele>178</ele>
        <time>2017-07-20T08:43:40Z</time>
      </trkpt>
      <trkpt lat="45.91544" lon="4.74931">
        <ele>178</ele>
        <time>2017-07-20T08:43:41Z</time>
      </trkpt>
      <trkpt lat="45.91539" lon="4.7493">
        <ele>178</ele>
        <time>2017-07-20T08:43:42Z</time>
      </trkpt>
      <trkpt lat="45.91534" lon="4.7493">
        <ele>178</ele>
        <time>2017-07-20T08:43:43Z</time>
      </trkpt>
      <trkpt lat="45.91529" lon="4.74929">
        <ele>177</ele>
        <time>2017-07-20T08:43:44Z</time>
      </trkpt>
      <trkpt lat="45.91525" lon="4.74929">
        <ele>177</ele>
        <time>2017-07-20T08:43:45Z</time>
      </trkpt>
      <trkpt lat="45.9152" lon="4.74928">
        <ele>177</ele>
        <time>2017-07-20T08:43:46Z</time>
      </trkpt>
      <trkpt lat="45.91515" lon="4.74927">
        <ele>177</ele>
        <time>2017-07-20T08:43:47Z</time>
      </trkpt>
      <trkpt lat="45.91511" lon="4.74926">
        <ele>177</ele>
        <time>2017-07-20T08:43:48Z</time>
      </trkpt>
      <trkpt lat="45.91502" lon="4.74926">
        <ele>177</ele>
        <time>2017-07-20T08:43:50Z</time>
      </trkpt>
      <trkpt lat="45.91498" lon="4.74926">
        <ele>177</ele>
        <time>2017-07-20T08:43:51Z</time>
      </trkpt>
      <trkpt lat="45.91494" lon="4.74926">
        <ele>177</ele>
        <time>2017-07-20T08:43:52Z</time>
      </trkpt>
      <trkpt lat="45.91487" lon="4.74922">
        <ele>178</ele>
        <time>2017-07-20T08:43:53Z</time>
      </trkpt>
      <trkpt lat="45.91481" lon="4.74922">
        <ele>178</ele>
        <time>2017-07-20T08:43:54Z</time>
      </trkpt>
      <trkpt lat="45.91476" lon="4.7492">
        <ele>178</ele>
        <time>2017-07-20T08:43:55Z</time>
      </trkpt>
      <trkpt lat="45.91468" lon="4.74921">
        <ele>178</ele>
        <time>2017-07-20T08:43:57Z</time>
      </trkpt>
      <trkpt lat="45.91465" lon="4.74921">
        <ele>178</ele>
        <time>2017-07-20T08:43:58Z</time>
      </trkpt>
      <trkpt lat="45.91461" lon="4.74921">
        <ele>178</ele>
        <time>2017-07-20T08:43:59Z</time>
      </trkpt>
      <trkpt lat="45.91454" lon="4.74919">
        <ele>178</ele>
        <time>2017-07-20T08:44:00Z</time>
      </trkpt>
      <trkpt lat="45.91447" lon="4.74917">
        <ele>178</ele>
        <time>2017-07-20T08:44:01Z</time>
      </trkpt>
      <trkpt lat="45.91441" lon="4.74915">
        <ele>177</ele>
        <time>2017-07-20T08:44:02Z</time>
      </trkpt>
      <trkpt lat="45.91435" lon="4.74913">
        <ele>177</ele>
        <time>2017-07-20T08:44:03Z</time>
      </trkpt>
      <trkpt lat="45.9143" lon="4.74911">
        <ele>177</ele>
        <time>2017-07-20T08:44:04Z</time>
      </trkpt>
      <trkpt lat="45.91425" lon="4.7491">
        <ele>177</ele>
        <time>2017-07-20T08:44:05Z</time>
      </trkpt>
      <trkpt lat="45.9142" lon="4.74909">
        <ele>178</ele>
        <time>2017-07-20T08:44:06Z</time>
      </trkpt>
      <trkpt lat="45.91415" lon="4.74908">
        <ele>177</ele>
        <time>2017-07-20T08:44:07Z</time>
      </trkpt>
      <trkpt lat="45.9141" lon="4.74907">
        <ele>177</ele>
        <time>2017-07-20T08:44:08Z</time>
      </trkpt>
      <trkpt lat="45.91405" lon="4.74908">
        <ele>177</ele>
        <time>2017-07-20T08:44:09Z</time>
      </trkpt>
      <trkpt lat="45.914" lon="4.74908">
        <ele>177</ele>
        <time>2017-07-20T08:44:10Z</time>
      </trkpt>
      <trkpt lat="45.91393" lon="4.74905">
        <ele>177</ele>
        <time>2017-07-20T08:44:12Z</time>
      </trkpt>
      <trkpt lat="45.91391" lon="4.74904">
        <ele>177</ele>
        <time>2017-07-20T08:44:13Z</time>
      </trkpt>
      <trkpt lat="45.91385" lon="4.74901">
        <ele>177</ele>
        <time>2017-07-20T08:44:15Z</time>
      </trkpt>
      <trkpt lat="45.91381" lon="4.749">
        <ele>177</ele>
        <time>2017-07-20T08:44:16Z</time>
      </trkpt>
      <trkpt lat="45.91377" lon="4.74895">
        <ele>177</ele>
        <time>2017-07-20T08:44:17Z</time>
      </trkpt>
      <trkpt lat="45.91371" lon="4.74894">
        <ele>176</ele>
        <time>2017-07-20T08:44:18Z</time>
      </trkpt>
      <trkpt lat="45.91363" lon="4.7489">
        <ele>176</ele>
        <time>2017-07-20T08:44:20Z</time>
      </trkpt>
      <trkpt lat="45.91359" lon="4.74889">
        <ele>176</ele>
        <time>2017-07-20T08:44:21Z</time>
      </trkpt>
      <trkpt lat="45.91354" lon="4.74889">
        <ele>176</ele>
        <time>2017-07-20T08:44:22Z</time>
      </trkpt>
      <trkpt lat="45.91349" lon="4.74888">
        <ele>176</ele>
        <time>2017-07-20T08:44:23Z</time>
      </trkpt>
      <trkpt lat="45.91344" lon="4.74889">
        <ele>176</ele>
        <time>2017-07-20T08:44:24Z</time>
      </trkpt>
      <trkpt lat="45.91339" lon="4.74888">
        <ele>176</ele>
        <time>2017-07-20T08:44:25Z</time>
      </trkpt>
      <trkpt lat="45.91332" lon="4.74884">
        <ele>176</ele>
        <time>2017-07-20T08:44:27Z</time>
      </trkpt>
      <trkpt lat="45.9133" lon="4.74883">
        <ele>176</ele>
        <time>2017-07-20T08:44:28Z</time>
      </trkpt>
      <trkpt lat="45.91321" lon="4.74879">
        <ele>176</ele>
        <time>2017-07-20T08:44:30Z</time>
      </trkpt>
      <trkpt lat="45.91318" lon="4.74878">
        <ele>176</ele>
        <time>2017-07-20T08:44:31Z</time>
      </trkpt>
      <trkpt lat="45.91315" lon="4.7489">
        <ele>176</ele>
        <time>2017-07-20T08:44:34Z</time>
      </trkpt>
      <trkpt lat="45.91313" lon="4.74896">
        <ele>176</ele>
        <time>2017-07-20T08:44:35Z</time>
      </trkpt>
      <trkpt lat="45.91312" lon="4.74901">
        <ele>176</ele>
        <time>2017-07-20T08:44:36Z</time>
      </trkpt>
      <trkpt lat="45.9131" lon="4.74908">
        <ele>176</ele>
        <time>2017-07-20T08:44:37Z</time>
      </trkpt>
      <trkpt lat="45.91309" lon="4.74916">
        <ele>176</ele>
        <time>2017-07-20T08:44:38Z</time>
      </trkpt>
      <trkpt lat="45.91308" lon="4.74924">
        <ele>177</ele>
        <time>2017-07-20T08:44:39Z</time>
      </trkpt>
      <trkpt lat="45.91307" lon="4.74932">
        <ele>177</ele>
        <time>2017-07-20T08:44:40Z</time>
      </trkpt>
      <trkpt lat="45.91306" lon="4.74939">
        <ele>177</ele>
        <time>2017-07-20T08:44:41Z</time>
      </trkpt>
      <trkpt lat="45.91305" lon="4.74946">
        <ele>177</ele>
        <time>2017-07-20T08:44:42Z</time>
      </trkpt>
      <trkpt lat="45.91304" lon="4.74952">
        <ele>177</ele>
        <time>2017-07-20T08:44:43Z</time>
      </trkpt>
      <trkpt lat="45.91303" lon="4.74964">
        <ele>177</ele>
        <time>2017-07-20T08:44:45Z</time>
      </trkpt>
      <trkpt lat="45.91302" lon="4.7497">
        <ele>177</ele>
        <time>2017-07-20T08:44:46Z</time>
      </trkpt>
      <trkpt lat="45.91301" lon="4.74981">
        <ele>177</ele>
        <time>2017-07-20T08:44:48Z</time>
      </trkpt>
      <trkpt lat="45.913" lon="4.7499">
        <ele>177</ele>
        <time>2017-07-20T08:44:49Z</time>
      </trkpt>
      <trkpt lat="45.913" lon="4.74998">
        <ele>177</ele>
        <time>2017-07-20T08:44:50Z</time>
      </trkpt>
      <trkpt lat="45.913" lon="4.75004">
        <ele>177</ele>
        <time>2017-07-20T08:44:51Z</time>
      </trkpt>
      <trkpt lat="45.913" lon="4.75013">
        <ele>177</ele>
        <time>2017-07-20T08:44:52Z</time>
      </trkpt>
      <trkpt lat="45.91299" lon="4.75021">
        <ele>177</ele>
        <time>2017-07-20T08:44:53Z</time>
      </trkpt>
      <trkpt lat="45.91299" lon="4.75033">
        <ele>177</ele>
        <time>2017-07-20T08:44:55Z</time>
      </trkpt>
      <trkpt lat="45.91299" lon="4.7504">
        <ele>177</ele>
        <time>2017-07-20T08:44:56Z</time>
      </trkpt>
      <trkpt lat="45.913" lon="4.75046">
        <ele>177</ele>
        <time>2017-07-20T08:44:57Z</time>
      </trkpt>
      <trkpt lat="45.913" lon="4.75053">
        <ele>177</ele>
        <time>2017-07-20T08:44:58Z</time>
      </trkpt>
      <trkpt lat="45.91301" lon="4.75061">
        <ele>177</ele>
        <time>2017-07-20T08:44:59Z</time>
      </trkpt>
      <trkpt lat="45.91301" lon="4.75069">
        <ele>177</ele>
        <time>2017-07-20T08:45:00Z</time>
      </trkpt>
      <trkpt lat="45.91301" lon="4.75077">
        <ele>177</ele>
        <time>2017-07-20T08:45:01Z</time>
      </trkpt>
      <trkpt lat="45.91302" lon="4.75085">
        <ele>177</ele>
        <time>2017-07-20T08:45:02Z</time>
      </trkpt>
      <trkpt lat="45.91303" lon="4.75093">
        <ele>177</ele>
        <time>2017-07-20T08:45:03Z</time>
      </trkpt>
      <trkpt lat="45.91304" lon="4.751">
        <ele>177</ele>
        <time>2017-07-20T08:45:04Z</time>
      </trkpt>
      <trkpt lat="45.91304" lon="4.75108">
        <ele>177</ele>
        <time>2017-07-20T08:45:05Z</time>
      </trkpt>
      <trkpt lat="45.91304" lon="4.75116">
        <ele>177</ele>
        <time>2017-07-20T08:45:06Z</time>
      </trkpt>
      <trkpt lat="45.91305" lon="4.75123">
        <ele>177</ele>
        <time>2017-07-20T08:45:07Z</time>
      </trkpt>
      <trkpt lat="45.91306" lon="4.75129">
        <ele>177</ele>
        <time>2017-07-20T08:45:08Z</time>
      </trkpt>
      <trkpt lat="45.91306" lon="4.75136">
        <ele>177</ele>
        <time>2017-07-20T08:45:09Z</time>
      </trkpt>
      <trkpt lat="45.91307" lon="4.75143">
        <ele>177</ele>
        <time>2017-07-20T08:45:10Z</time>
      </trkpt>
      <trkpt lat="45.91304" lon="4.75151">
        <ele>177</ele>
        <time>2017-07-20T08:45:12Z</time>
      </trkpt>
      <trkpt lat="45.913" lon="4.75153">
        <ele>177</ele>
        <time>2017-07-20T08:45:13Z</time>
      </trkpt>
      <trkpt lat="45.91296" lon="4.75154">
        <ele>177</ele>
        <time>2017-07-20T08:45:14Z</time>
      </trkpt>
      <trkpt lat="45.91291" lon="4.75154">
        <ele>177</ele>
        <time>2017-07-20T08:45:15Z</time>
      </trkpt>
      <trkpt lat="45.91282" lon="4.75153">
        <ele>177</ele>
        <time>2017-07-20T08:45:17Z</time>
      </trkpt>
      <trkpt lat="45.91278" lon="4.75151">
        <ele>177</ele>
        <time>2017-07-20T08:45:18Z</time>
      </trkpt>
      <trkpt lat="45.91273" lon="4.7515">
        <ele>177</ele>
        <time>2017-07-20T08:45:19Z</time>
      </trkpt>
      <trkpt lat="45.91269" lon="4.75148">
        <ele>177</ele>
        <time>2017-07-20T08:45:20Z</time>
      </trkpt>
      <trkpt lat="45.91264" lon="4.75147">
        <ele>177</ele>
        <time>2017-07-20T08:45:21Z</time>
      </trkpt>
      <trkpt lat="45.9126" lon="4.75145">
        <ele>177</ele>
        <time>2017-07-20T08:45:22Z</time>
      </trkpt>
      <trkpt lat="45.91255" lon="4.75144">
        <ele>177</ele>
        <time>2017-07-20T08:45:23Z</time>
      </trkpt>
      <trkpt lat="45.91251" lon="4.75141">
        <ele>177</ele>
        <time>2017-07-20T08:45:24Z</time>
      </trkpt>
      <trkpt lat="45.91246" lon="4.75138">
        <ele>177</ele>
        <time>2017-07-20T08:45:25Z</time>
      </trkpt>
      <trkpt lat="45.91242" lon="4.75134">
        <ele>177</ele>
        <time>2017-07-20T08:45:26Z</time>
      </trkpt>
      <trkpt lat="45.91237" lon="4.7513">
        <ele>177</ele>
        <time>2017-07-20T08:45:27Z</time>
      </trkpt>
      <trkpt lat="45.91232" lon="4.75127">
        <ele>177</ele>
        <time>2017-07-20T08:45:28Z</time>
      </trkpt>
      <trkpt lat="45.91226" lon="4.75126">
        <ele>177</ele>
        <time>2017-07-20T08:45:29Z</time>
      </trkpt>
      <trkpt lat="45.91221" lon="4.75124">
        <ele>177</ele>
        <time>2017-07-20T08:45:30Z</time>
      </trkpt>
      <trkpt lat="45.91216" lon="4.75122">
        <ele>177</ele>
        <time>2017-07-20T08:45:31Z</time>
      </trkpt>
      <trkpt lat="45.91211" lon="4.7512">
        <ele>177</ele>
        <time>2017-07-20T08:45:32Z</time>
      </trkpt>
      <trkpt lat="45.91205" lon="4.75119">
        <ele>178</ele>
        <time>2017-07-20T08:45:33Z</time>
      </trkpt>
      <trkpt lat="45.91201" lon="4.75118">
        <ele>178</ele>
        <time>2017-07-20T08:45:34Z</time>
      </trkpt>
      <trkpt lat="45.91192" lon="4.75116">
        <ele>178</ele>
        <time>2017-07-20T08:45:36Z</time>
      </trkpt>
      <trkpt lat="45.91188" lon="4.75115">
        <ele>178</ele>
        <time>2017-07-20T08:45:37Z</time>
      </trkpt>
      <trkpt lat="45.91183" lon="4.75115">
        <ele>178</ele>
        <time>2017-07-20T08:45:38Z</time>
      </trkpt>
      <trkpt lat="45.91179" lon="4.75114">
        <ele>178</ele>
        <time>2017-07-20T08:45:39Z</time>
      </trkpt>
      <trkpt lat="45.91174" lon="4.75113">
        <ele>178</ele>
        <time>2017-07-20T08:45:40Z</time>
      </trkpt>
      <trkpt lat="45.9117" lon="4.75111">
        <ele>178</ele>
        <time>2017-07-20T08:45:41Z</time>
      </trkpt>
      <trkpt lat="45.91165" lon="4.7511">
        <ele>179</ele>
        <time>2017-07-20T08:45:42Z</time>
      </trkpt>
      <trkpt lat="45.9116" lon="4.75108">
        <ele>179</ele>
        <time>2017-07-20T08:45:43Z</time>
      </trkpt>
      <trkpt lat="45.91156" lon="4.75106">
        <ele>179</ele>
        <time>2017-07-20T08:45:44Z</time>
      </trkpt>
      <trkpt lat="45.91151" lon="4.75105">
        <ele>179</ele>
        <time>2017-07-20T08:45:45Z</time>
      </trkpt>
      <trkpt lat="45.91143" lon="4.75102">
        <ele>179</ele>
        <time>2017-07-20T08:45:47Z</time>
      </trkpt>
      <trkpt lat="45.91138" lon="4.751">
        <ele>179</ele>
        <time>2017-07-20T08:45:48Z</time>
      </trkpt>
      <trkpt lat="45.9113" lon="4.75096">
        <ele>179</ele>
        <time>2017-07-20T08:45:50Z</time>
      </trkpt>
      <trkpt lat="45.91126" lon="4.75095">
        <ele>179</ele>
        <time>2017-07-20T08:45:51Z</time>
      </trkpt>
      <trkpt lat="45.91121" lon="4.75093">
        <ele>179</ele>
        <time>2017-07-20T08:45:52Z</time>
      </trkpt>
      <trkpt lat="45.91116" lon="4.75091">
        <ele>179</ele>
        <time>2017-07-20T08:45:53Z</time>
      </trkpt>
      <trkpt lat="45.91111" lon="4.75089">
        <ele>179</ele>
        <time>2017-07-20T08:45:54Z</time>
      </trkpt>
      <trkpt lat="45.91107" lon="4.75087">
        <ele>180</ele>
        <time>2017-07-20T08:45:55Z</time>
      </trkpt>
      <trkpt lat="45.91102" lon="4.75085">
        <ele>180</ele>
        <time>2017-07-20T08:45:56Z</time>
      </trkpt>
      <trkpt lat="45.91096" lon="4.75084">
        <ele>180</ele>
        <time>2017-07-20T08:45:57Z</time>
      </trkpt>
      <trkpt lat="45.9109" lon="4.75082">
        <ele>180</ele>
        <time>2017-07-20T08:45:58Z</time>
      </trkpt>
      <trkpt lat="45.91085" lon="4.7508">
        <ele>180</ele>
        <time>2017-07-20T08:45:59Z</time>
      </trkpt>
      <trkpt lat="45.9108" lon="4.75079">
        <ele>180</ele>
        <time>2017-07-20T08:46:00Z</time>
      </trkpt>
      <trkpt lat="45.91076" lon="4.75077">
        <ele>180</ele>
        <time>2017-07-20T08:46:01Z</time>
      </trkpt>
      <trkpt lat="45.91068" lon="4.75073">
        <ele>179</ele>
        <time>2017-07-20T08:46:03Z</time>
      </trkpt>
      <trkpt lat="45.91064" lon="4.75071">
        <ele>179</ele>
        <time>2017-07-20T08:46:04Z</time>
      </trkpt>
      <trkpt lat="45.9106" lon="4.7507">
        <ele>179</ele>
        <time>2017-07-20T08:46:05Z</time>
      </trkpt>
      <trkpt lat="45.91055" lon="4.75069">
        <ele>179</ele>
        <time>2017-07-20T08:46:06Z</time>
      </trkpt>
      <trkpt lat="45.9105" lon="4.75067">
        <ele>179</ele>
        <time>2017-07-20T08:46:07Z</time>
      </trkpt>
      <trkpt lat="45.91046" lon="4.75065">
        <ele>179</ele>
        <time>2017-07-20T08:46:08Z</time>
      </trkpt>
      <trkpt lat="45.91041" lon="4.75064">
        <ele>179</ele>
        <time>2017-07-20T08:46:09Z</time>
      </trkpt>
      <trkpt lat="45.91036" lon="4.75062">
        <ele>179</ele>
        <time>2017-07-20T08:46:10Z</time>
      </trkpt>
      <trkpt lat="45.91028" lon="4.75059">
        <ele>179</ele>
        <time>2017-07-20T08:46:12Z</time>
      </trkpt>
      <trkpt lat="45.91024" lon="4.75058">
        <ele>179</ele>
        <time>2017-07-20T08:46:13Z</time>
      </trkpt>
      <trkpt lat="45.91016" lon="4.75055">
        <ele>179</ele>
        <time>2017-07-20T08:46:15Z</time>
      </trkpt>
      <trkpt lat="45.91012" lon="4.75054">
        <ele>179</ele>
        <time>2017-07-20T08:46:16Z</time>
      </trkpt>
      <trkpt lat="45.91004" lon="4.75051">
        <ele>178</ele>
        <time>2017-07-20T08:46:18Z</time>
      </trkpt>
      <trkpt lat="45.91" lon="4.75049">
        <ele>179</ele>
        <time>2017-07-20T08:46:19Z</time>
      </trkpt>
      <trkpt lat="45.90992" lon="4.75046">
        <ele>179</ele>
        <time>2017-07-20T08:46:21Z</time>
      </trkpt>
      <trkpt lat="45.90988" lon="4.75044">
        <ele>179</ele>
        <time>2017-07-20T08:46:22Z</time>
      </trkpt>
      <trkpt lat="45.90981" lon="4.75041">
        <ele>179</ele>
        <time>2017-07-20T08:46:24Z</time>
      </trkpt>
      <trkpt lat="45.90977" lon="4.75039">
        <ele>179</ele>
        <time>2017-07-20T08:46:25Z</time>
      </trkpt>
      <trkpt lat="45.9097" lon="4.75037">
        <ele>179</ele>
        <time>2017-07-20T08:46:27Z</time>
      </trkpt>
      <trkpt lat="45.90967" lon="4.75036">
        <ele>179</ele>
        <time>2017-07-20T08:46:28Z</time>
      </trkpt>
      <trkpt lat="45.90961" lon="4.75037">
        <ele>179</ele>
        <time>2017-07-20T08:46:30Z</time>
      </trkpt>
      <trkpt lat="45.90958" lon="4.75039">
        <ele>179</ele>
        <time>2017-07-20T08:46:31Z</time>
      </trkpt>
      <trkpt lat="45.90957" lon="4.75047">
        <ele>179</ele>
        <time>2017-07-20T08:46:33Z</time>
      </trkpt>
      <trkpt lat="45.90956" lon="4.75052">
        <ele>179</ele>
        <time>2017-07-20T08:46:34Z</time>
      </trkpt>
      <trkpt lat="45.90955" lon="4.7506">
        <ele>179</ele>
        <time>2017-07-20T08:46:36Z</time>
      </trkpt>
      <trkpt lat="45.90955" lon="4.75064">
        <ele>179</ele>
        <time>2017-07-20T08:46:37Z</time>
      </trkpt>
      <trkpt lat="45.90954" lon="4.75074">
        <ele>179</ele>
        <time>2017-07-20T08:46:39Z</time>
      </trkpt>
      <trkpt lat="45.90953" lon="4.75079">
        <ele>179</ele>
        <time>2017-07-20T08:46:40Z</time>
      </trkpt>
      <trkpt lat="45.90953" lon="4.75089">
        <ele>181</ele>
        <time>2017-07-20T08:46:42Z</time>
      </trkpt>
      <trkpt lat="45.90952" lon="4.75094">
        <ele>181</ele>
        <time>2017-07-20T08:46:43Z</time>
      </trkpt>
      <trkpt lat="45.90951" lon="4.75104">
        <ele>181</ele>
        <time>2017-07-20T08:46:45Z</time>
      </trkpt>
      <trkpt lat="45.90951" lon="4.75109">
        <ele>181</ele>
        <time>2017-07-20T08:46:46Z</time>
      </trkpt>
      <trkpt lat="45.9095" lon="4.75119">
        <ele>181</ele>
        <time>2017-07-20T08:46:48Z</time>
      </trkpt>
      <trkpt lat="45.9095" lon="4.75125">
        <ele>181</ele>
        <time>2017-07-20T08:46:49Z</time>
      </trkpt>
      <trkpt lat="45.90948" lon="4.75135">
        <ele>181</ele>
        <time>2017-07-20T08:46:51Z</time>
      </trkpt>
      <trkpt lat="45.90948" lon="4.7514">
        <ele>182</ele>
        <time>2017-07-20T08:46:52Z</time>
      </trkpt>
      <trkpt lat="45.90946" lon="4.7515">
        <ele>182</ele>
        <time>2017-07-20T08:46:54Z</time>
      </trkpt>
      <trkpt lat="45.90946" lon="4.75154">
        <ele>182</ele>
        <time>2017-07-20T08:46:55Z</time>
      </trkpt>
      <trkpt lat="45.90944" lon="4.75164">
        <ele>182</ele>
        <time>2017-07-20T08:46:57Z</time>
      </trkpt>
      <trkpt lat="45.90944" lon="4.75169">
        <ele>183</ele>
        <time>2017-07-20T08:46:58Z</time>
      </trkpt>
      <trkpt lat="45.90942" lon="4.75178">
        <ele>183</ele>
        <time>2017-07-20T08:47:00Z</time>
      </trkpt>
      <trkpt lat="45.90942" lon="4.75183">
        <ele>183</ele>
        <time>2017-07-20T08:47:01Z</time>
      </trkpt>
      <trkpt lat="45.90941" lon="4.75193">
        <ele>183</ele>
        <time>2017-07-20T08:47:03Z</time>
      </trkpt>
      <trkpt lat="45.9094" lon="4.75197">
        <ele>183</ele>
        <time>2017-07-20T08:47:04Z</time>
      </trkpt>
      <trkpt lat="45.9094" lon="4.75207">
        <ele>184</ele>
        <time>2017-07-20T08:47:06Z</time>
      </trkpt>
      <trkpt lat="45.90939" lon="4.75212">
        <ele>184</ele>
        <time>2017-07-20T08:47:07Z</time>
      </trkpt>
      <trkpt lat="45.90938" lon="4.75221">
        <ele>184</ele>
        <time>2017-07-20T08:47:09Z</time>
      </trkpt>
      <trkpt lat="45.90937" lon="4.75226">
        <ele>184</ele>
        <time>2017-07-20T08:47:10Z</time>
      </trkpt>
      <trkpt lat="45.90936" lon="4.75236">
        <ele>184</ele>
        <time>2017-07-20T08:47:12Z</time>
      </trkpt>
      <trkpt lat="45.90936" lon="4.75242">
        <ele>184</ele>
        <time>2017-07-20T08:47:13Z</time>
      </trkpt>
      <trkpt lat="45.90934" lon="4.75253">
        <ele>185</ele>
        <time>2017-07-20T08:47:15Z</time>
      </trkpt>
      <trkpt lat="45.90933" lon="4.75258">
        <ele>185</ele>
        <time>2017-07-20T08:47:16Z</time>
      </trkpt>
      <trkpt lat="45.90932" lon="4.75267">
        <ele>185</ele>
        <time>2017-07-20T08:47:18Z</time>
      </trkpt>
      <trkpt lat="45.90931" lon="4.75272">
        <ele>185</ele>
        <time>2017-07-20T08:47:19Z</time>
      </trkpt>
      <trkpt lat="45.9093" lon="4.75281">
        <ele>185</ele>
        <time>2017-07-20T08:47:21Z</time>
      </trkpt>
      <trkpt lat="45.9093" lon="4.75286">
        <ele>185</ele>
        <time>2017-07-20T08:47:22Z</time>
      </trkpt>
      <trkpt lat="45.90929" lon="4.75297">
        <ele>185</ele>
        <time>2017-07-20T08:47:24Z</time>
      </trkpt>
      <trkpt lat="45.90929" lon="4.75302">
        <ele>185</ele>
        <time>2017-07-20T08:47:25Z</time>
      </trkpt>
      <trkpt lat="45.90928" lon="4.75312">
        <ele>185</ele>
        <time>2017-07-20T08:47:27Z</time>
      </trkpt>
      <trkpt lat="45.90928" lon="4.75316">
        <ele>185</ele>
        <time>2017-07-20T08:47:28Z</time>
      </trkpt>
      <trkpt lat="45.90927" lon="4.75326">
        <ele>185</ele>
        <time>2017-07-20T08:47:30Z</time>
      </trkpt>
      <trkpt lat="45.90927" lon="4.75331">
        <ele>186</ele>
        <time>2017-07-20T08:47:31Z</time>
      </trkpt>
      <trkpt lat="45.90926" lon="4.75343">
        <ele>186</ele>
        <time>2017-07-20T08:47:33Z</time>
      </trkpt>
      <trkpt lat="45.90925" lon="4.75348">
        <ele>185</ele>
        <time>2017-07-20T08:47:34Z</time>
      </trkpt>
      <trkpt lat="45.90924" lon="4.75359">
        <ele>185</ele>
        <time>2017-07-20T08:47:36Z</time>
      </trkpt>
      <trkpt lat="45.90923" lon="4.75363">
        <ele>185</ele>
        <time>2017-07-20T08:47:37Z</time>
      </trkpt>
      <trkpt lat="45.90922" lon="4.75372">
        <ele>185</ele>
        <time>2017-07-20T08:47:39Z</time>
      </trkpt>
      <trkpt lat="45.90922" lon="4.75376">
        <ele>185</ele>
        <time>2017-07-20T08:47:40Z</time>
      </trkpt>
      <trkpt lat="45.90921" lon="4.75386">
        <ele>185</ele>
        <time>2017-07-20T08:47:42Z</time>
      </trkpt>
      <trkpt lat="45.9092" lon="4.75392">
        <ele>185</ele>
        <time>2017-07-20T08:47:43Z</time>
      </trkpt>
      <trkpt lat="45.90919" lon="4.75402">
        <ele>185</ele>
        <time>2017-07-20T08:47:45Z</time>
      </trkpt>
      <trkpt lat="45.90919" lon="4.75408">
        <ele>185</ele>
        <time>2017-07-20T08:47:46Z</time>
      </trkpt>
      <trkpt lat="45.90918" lon="4.75417">
        <ele>185</ele>
        <time>2017-07-20T08:47:48Z</time>
      </trkpt>
      <trkpt lat="45.90917" lon="4.75421">
        <ele>185</ele>
        <time>2017-07-20T08:47:49Z</time>
      </trkpt>
      <trkpt lat="45.90916" lon="4.7543">
        <ele>185</ele>
        <time>2017-07-20T08:47:51Z</time>
      </trkpt>
      <trkpt lat="45.90916" lon="4.75435">
        <ele>185</ele>
        <time>2017-07-20T08:47:52Z</time>
      </trkpt>
      <trkpt lat="45.90914" lon="4.75446">
        <ele>186</ele>
        <time>2017-07-20T08:47:54Z</time>
      </trkpt>
      <trkpt lat="45.90913" lon="4.75452">
        <ele>186</ele>
        <time>2017-07-20T08:47:55Z</time>
      </trkpt>
      <trkpt lat="45.90912" lon="4.75461">
        <ele>186</ele>
        <time>2017-07-20T08:47:57Z</time>
      </trkpt>
      <trkpt lat="45.90912" lon="4.75465">
        <ele>186</ele>
        <time>2017-07-20T08:47:58Z</time>
      </trkpt>
      <trkpt lat="45.90911" lon="4.75475">
        <ele>186</ele>
        <time>2017-07-20T08:48:00Z</time>
      </trkpt>
      <trkpt lat="45.90911" lon="4.75481">
        <ele>186</ele>
        <time>2017-07-20T08:48:01Z</time>
      </trkpt>
      <trkpt lat="45.9091" lon="4.75493">
        <ele>186</ele>
        <time>2017-07-20T08:48:03Z</time>
      </trkpt>
      <trkpt lat="45.90909" lon="4.755">
        <ele>186</ele>
        <time>2017-07-20T08:48:04Z</time>
      </trkpt>
      <trkpt lat="45.90908" lon="4.75511">
        <ele>186</ele>
        <time>2017-07-20T08:48:06Z</time>
      </trkpt>
      <trkpt lat="45.90908" lon="4.75516">
        <ele>186</ele>
        <time>2017-07-20T08:48:07Z</time>
      </trkpt>
      <trkpt lat="45.90907" lon="4.75526">
        <ele>186</ele>
        <time>2017-07-20T08:48:09Z</time>
      </trkpt>
      <trkpt lat="45.90906" lon="4.7553">
        <ele>186</ele>
        <time>2017-07-20T08:48:10Z</time>
      </trkpt>
      <trkpt lat="45.90904" lon="4.7554">
        <ele>186</ele>
        <time>2017-07-20T08:48:12Z</time>
      </trkpt>
      <trkpt lat="45.90903" lon="4.75545">
        <ele>186</ele>
        <time>2017-07-20T08:48:13Z</time>
      </trkpt>
      <trkpt lat="45.90902" lon="4.75557">
        <ele>186</ele>
        <time>2017-07-20T08:48:15Z</time>
      </trkpt>
      <trkpt lat="45.90902" lon="4.75564">
        <ele>186</ele>
        <time>2017-07-20T08:48:16Z</time>
      </trkpt>
      <trkpt lat="45.909" lon="4.75576">
        <ele>186</ele>
        <time>2017-07-20T08:48:18Z</time>
      </trkpt>
      <trkpt lat="45.909" lon="4.75582">
        <ele>186</ele>
        <time>2017-07-20T08:48:19Z</time>
      </trkpt>
      <trkpt lat="45.90899" lon="4.75593">
        <ele>185</ele>
        <time>2017-07-20T08:48:21Z</time>
      </trkpt>
      <trkpt lat="45.90898" lon="4.75598">
        <ele>185</ele>
        <time>2017-07-20T08:48:22Z</time>
      </trkpt>
      <trkpt lat="45.90898" lon="4.75609">
        <ele>185</ele>
        <time>2017-07-20T08:48:24Z</time>
      </trkpt>
      <trkpt lat="45.90897" lon="4.75614">
        <ele>185</ele>
        <time>2017-07-20T08:48:25Z</time>
      </trkpt>
      <trkpt lat="45.90897" lon="4.75624">
        <ele>185</ele>
        <time>2017-07-20T08:48:27Z</time>
      </trkpt>
      <trkpt lat="45.90897" lon="4.75629">
        <ele>185</ele>
        <time>2017-07-20T08:48:28Z</time>
      </trkpt>
      <trkpt lat="45.90897" lon="4.75642">
        <ele>185</ele>
        <time>2017-07-20T08:48:30Z</time>
      </trkpt>
      <trkpt lat="45.90897" lon="4.75648">
        <ele>185</ele>
        <time>2017-07-20T08:48:31Z</time>
      </trkpt>
      <trkpt lat="45.90897" lon="4.75658">
        <ele>184</ele>
        <time>2017-07-20T08:48:33Z</time>
      </trkpt>
      <trkpt lat="45.90897" lon="4.75664">
        <ele>184</ele>
        <time>2017-07-20T08:48:34Z</time>
      </trkpt>
      <trkpt lat="45.90898" lon="4.75674">
        <ele>184</ele>
        <time>2017-07-20T08:48:36Z</time>
      </trkpt>
      <trkpt lat="45.90898" lon="4.75679">
        <ele>184</ele>
        <time>2017-07-20T08:48:37Z</time>
      </trkpt>
      <trkpt lat="45.90898" lon="4.7569">
        <ele>184</ele>
        <time>2017-07-20T08:48:39Z</time>
      </trkpt>
      <trkpt lat="45.90898" lon="4.75696">
        <ele>184</ele>
        <time>2017-07-20T08:48:40Z</time>
      </trkpt>
      <trkpt lat="45.90897" lon="4.75702">
        <ele>184</ele>
        <time>2017-07-20T08:48:41Z</time>
      </trkpt>
      <trkpt lat="45.90895" lon="4.75709">
        <ele>184</ele>
        <time>2017-07-20T08:48:42Z</time>
      </trkpt>
      <trkpt lat="45.90894" lon="4.75721">
        <ele>185</ele>
        <time>2017-07-20T08:48:44Z</time>
      </trkpt>
      <trkpt lat="45.90894" lon="4.75727">
        <ele>185</ele>
        <time>2017-07-20T08:48:45Z</time>
      </trkpt>
      <trkpt lat="45.90894" lon="4.75737">
        <ele>185</ele>
        <time>2017-07-20T08:48:47Z</time>
      </trkpt>
      <trkpt lat="45.90893" lon="4.75742">
        <ele>185</ele>
        <time>2017-07-20T08:48:48Z</time>
      </trkpt>
      <trkpt lat="45.90892" lon="4.75752">
        <ele>185</ele>
        <time>2017-07-20T08:48:50Z</time>
      </trkpt>
      <trkpt lat="45.90892" lon="4.75757">
        <ele>185</ele>
        <time>2017-07-20T08:48:51Z</time>
      </trkpt>
      <trkpt lat="45.90891" lon="4.75766">
        <ele>185</ele>
        <time>2017-07-20T08:48:53Z</time>
      </trkpt>
      <trkpt lat="45.90891" lon="4.75771">
        <ele>185</ele>
        <time>2017-07-20T08:48:54Z</time>
      </trkpt>
      <trkpt lat="45.90892" lon="4.75779">
        <ele>185</ele>
        <time>2017-07-20T08:48:56Z</time>
      </trkpt>
      <trkpt lat="45.90892" lon="4.75784">
        <ele>185</ele>
        <time>2017-07-20T08:48:57Z</time>
      </trkpt>
      <trkpt lat="45.90892" lon="4.75795">
        <ele>184</ele>
        <time>2017-07-20T08:48:59Z</time>
      </trkpt>
      <trkpt lat="45.90891" lon="4.758">
        <ele>184</ele>
        <time>2017-07-20T08:49:00Z</time>
      </trkpt>
      <trkpt lat="45.90891" lon="4.75811">
        <ele>184</ele>
        <time>2017-07-20T08:49:02Z</time>
      </trkpt>
      <trkpt lat="45.90891" lon="4.7582">
        <ele>184</ele>
        <time>2017-07-20T08:49:03Z</time>
      </trkpt>
      <trkpt lat="45.90891" lon="4.75827">
        <ele>184</ele>
        <time>2017-07-20T08:49:04Z</time>
      </trkpt>
      <trkpt lat="45.90891" lon="4.75833">
        <ele>184</ele>
        <time>2017-07-20T08:49:05Z</time>
      </trkpt>
      <trkpt lat="45.90891" lon="4.75846">
        <ele>184</ele>
        <time>2017-07-20T08:49:08Z</time>
      </trkpt>
      <trkpt lat="45.9089" lon="4.75849">
        <ele>184</ele>
        <time>2017-07-20T08:49:09Z</time>
      </trkpt>
      <trkpt lat="45.90884" lon="4.75856">
        <ele>184</ele>
        <time>2017-07-20T08:49:11Z</time>
      </trkpt>
      <trkpt lat="45.9088" lon="4.75859">
        <ele>184</ele>
        <time>2017-07-20T08:49:12Z</time>
      </trkpt>
      <trkpt lat="45.90873" lon="4.75864">
        <ele>184</ele>
        <time>2017-07-20T08:49:14Z</time>
      </trkpt>
      <trkpt lat="45.90869" lon="4.75865">
        <ele>184</ele>
        <time>2017-07-20T08:49:15Z</time>
      </trkpt>
      <trkpt lat="45.90864" lon="4.75865">
        <ele>184</ele>
        <time>2017-07-20T08:49:16Z</time>
      </trkpt>
      <trkpt lat="45.90859" lon="4.75866">
        <ele>184</ele>
        <time>2017-07-20T08:49:17Z</time>
      </trkpt>
      <trkpt lat="45.90854" lon="4.75866">
        <ele>184</ele>
        <time>2017-07-20T08:49:18Z</time>
      </trkpt>
      <trkpt lat="45.90847" lon="4.75866">
        <ele>184</ele>
        <time>2017-07-20T08:49:19Z</time>
      </trkpt>
      <trkpt lat="45.90842" lon="4.75864">
        <ele>184</ele>
        <time>2017-07-20T08:49:20Z</time>
      </trkpt>
      <trkpt lat="45.90838" lon="4.75862">
        <ele>184</ele>
        <time>2017-07-20T08:49:21Z</time>
      </trkpt>
      <trkpt lat="45.90829" lon="4.75862">
        <ele>185</ele>
        <time>2017-07-20T08:49:23Z</time>
      </trkpt>
      <trkpt lat="45.90825" lon="4.75862">
        <ele>185</ele>
        <time>2017-07-20T08:49:24Z</time>
      </trkpt>
      <trkpt lat="45.90817" lon="4.75863">
        <ele>185</ele>
        <time>2017-07-20T08:49:26Z</time>
      </trkpt>
      <trkpt lat="45.90813" lon="4.75863">
        <ele>185</ele>
        <time>2017-07-20T08:49:27Z</time>
      </trkpt>
      <trkpt lat="45.90808" lon="4.75862">
        <ele>185</ele>
        <time>2017-07-20T08:49:28Z</time>
      </trkpt>
      <trkpt lat="45.90804" lon="4.75862">
        <ele>185</ele>
        <time>2017-07-20T08:49:29Z</time>
      </trkpt>
      <trkpt lat="45.90799" lon="4.75863">
        <ele>185</ele>
        <time>2017-07-20T08:49:30Z</time>
      </trkpt>
      <trkpt lat="45.90794" lon="4.75862">
        <ele>185</ele>
        <time>2017-07-20T08:49:31Z</time>
      </trkpt>
      <trkpt lat="45.90789" lon="4.75862">
        <ele>185</ele>
        <time>2017-07-20T08:49:32Z</time>
      </trkpt>
      <trkpt lat="45.90784" lon="4.75862">
        <ele>185</ele>
        <time>2017-07-20T08:49:33Z</time>
      </trkpt>
      <trkpt lat="45.90778" lon="4.75861">
        <ele>185</ele>
        <time>2017-07-20T08:49:34Z</time>
      </trkpt>
      <trkpt lat="45.90773" lon="4.75859">
        <ele>185</ele>
        <time>2017-07-20T08:49:35Z</time>
      </trkpt>
      <trkpt lat="45.90768" lon="4.75858">
        <ele>185</ele>
        <time>2017-07-20T08:49:36Z</time>
      </trkpt>
      <trkpt lat="45.90763" lon="4.75857">
        <ele>186</ele>
        <time>2017-07-20T08:49:37Z</time>
      </trkpt>
      <trkpt lat="45.90755" lon="4.75858">
        <ele>186</ele>
        <time>2017-07-20T08:49:39Z</time>
      </trkpt>
      <trkpt lat="45.90751" lon="4.75859">
        <ele>186</ele>
        <time>2017-07-20T08:49:40Z</time>
      </trkpt>
      <trkpt lat="45.90746" lon="4.75859">
        <ele>186</ele>
        <time>2017-07-20T08:49:41Z</time>
      </trkpt>
      <trkpt lat="45.90741" lon="4.75858">
        <ele>186</ele>
        <time>2017-07-20T08:49:42Z</time>
      </trkpt>
      <trkpt lat="45.90736" lon="4.75858">
        <ele>186</ele>
        <time>2017-07-20T08:49:43Z</time>
      </trkpt>
      <trkpt lat="45.90731" lon="4.75858">
        <ele>186</ele>
        <time>2017-07-20T08:49:44Z</time>
      </trkpt>
      <trkpt lat="45.90723" lon="4.75858">
        <ele>186</ele>
        <time>2017-07-20T08:49:46Z</time>
      </trkpt>
      <trkpt lat="45.90719" lon="4.75858">
        <ele>186</ele>
        <time>2017-07-20T08:49:47Z</time>
      </trkpt>
      <trkpt lat="45.90711" lon="4.75857">
        <ele>187</ele>
        <time>2017-07-20T08:49:49Z</time>
      </trkpt>
      <trkpt lat="45.90707" lon="4.75856">
        <ele>187</ele>
        <time>2017-07-20T08:49:50Z</time>
      </trkpt>
      <trkpt lat="45.90699" lon="4.75856">
        <ele>187</ele>
        <time>2017-07-20T08:49:52Z</time>
      </trkpt>
      <trkpt lat="45.90695" lon="4.75856">
        <ele>187</ele>
        <time>2017-07-20T08:49:53Z</time>
      </trkpt>
      <trkpt lat="45.90688" lon="4.75858">
        <ele>187</ele>
        <time>2017-07-20T08:49:55Z</time>
      </trkpt>
      <trkpt lat="45.90685" lon="4.75859">
        <ele>187</ele>
        <time>2017-07-20T08:49:56Z</time>
      </trkpt>
      <trkpt lat="45.90677" lon="4.75864">
        <ele>187</ele>
        <time>2017-07-20T08:49:58Z</time>
      </trkpt>
      <trkpt lat="45.90673" lon="4.75867">
        <ele>187</ele>
        <time>2017-07-20T08:49:59Z</time>
      </trkpt>
      <trkpt lat="45.90666" lon="4.75873">
        <ele>187</ele>
        <time>2017-07-20T08:50:01Z</time>
      </trkpt>
      <trkpt lat="45.90663" lon="4.75877">
        <ele>187</ele>
        <time>2017-07-20T08:50:02Z</time>
      </trkpt>
      <trkpt lat="45.90658" lon="4.75887">
        <ele>187</ele>
        <time>2017-07-20T08:50:04Z</time>
      </trkpt>
      <trkpt lat="45.90656" lon="4.75891">
        <ele>187</ele>
        <time>2017-07-20T08:50:05Z</time>
      </trkpt>
      <trkpt lat="45.90654" lon="4.759">
        <ele>187</ele>
        <time>2017-07-20T08:50:07Z</time>
      </trkpt>
      <trkpt lat="45.90652" lon="4.75904">
        <ele>187</ele>
        <time>2017-07-20T08:50:08Z</time>
      </trkpt>
      <trkpt lat="45.90647" lon="4.75912">
        <ele>187</ele>
        <time>2017-07-20T08:50:10Z</time>
      </trkpt>
      <trkpt lat="45.90645" lon="4.75918">
        <ele>187</ele>
        <time>2017-07-20T08:50:11Z</time>
      </trkpt>
      <trkpt lat="45.90644" lon="4.75924">
        <ele>187</ele>
        <time>2017-07-20T08:50:12Z</time>
      </trkpt>
      <trkpt lat="45.90641" lon="4.7593">
        <ele>186</ele>
        <time>2017-07-20T08:50:13Z</time>
      </trkpt>
      <trkpt lat="45.90636" lon="4.75935">
        <ele>186</ele>
        <time>2017-07-20T08:50:14Z</time>
      </trkpt>
      <trkpt lat="45.90633" lon="4.75939">
        <ele>186</ele>
        <time>2017-07-20T08:50:15Z</time>
      </trkpt>
      <trkpt lat="45.9063" lon="4.75944">
        <ele>186</ele>
        <time>2017-07-20T08:50:16Z</time>
      </trkpt>
      <trkpt lat="45.90627" lon="4.75949">
        <ele>186</ele>
        <time>2017-07-20T08:50:17Z</time>
      </trkpt>
      <trkpt lat="45.90624" lon="4.75954">
        <ele>186</ele>
        <time>2017-07-20T08:50:18Z</time>
      </trkpt>
      <trkpt lat="45.90621" lon="4.7596">
        <ele>186</ele>
        <time>2017-07-20T08:50:19Z</time>
      </trkpt>
      <trkpt lat="45.90618" lon="4.75965">
        <ele>186</ele>
        <time>2017-07-20T08:50:20Z</time>
      </trkpt>
      <trkpt lat="45.90615" lon="4.75971">
        <ele>186</ele>
        <time>2017-07-20T08:50:21Z</time>
      </trkpt>
      <trkpt lat="45.90608" lon="4.75978">
        <ele>186</ele>
        <time>2017-07-20T08:50:23Z</time>
      </trkpt>
      <trkpt lat="45.90604" lon="4.75978">
        <ele>186</ele>
        <time>2017-07-20T08:50:24Z</time>
      </trkpt>
      <trkpt lat="45.90595" lon="4.75977">
        <ele>186</ele>
        <time>2017-07-20T08:50:26Z</time>
      </trkpt>
      <trkpt lat="45.90591" lon="4.75975">
        <ele>186</ele>
        <time>2017-07-20T08:50:27Z</time>
      </trkpt>
      <trkpt lat="45.90588" lon="4.75972">
        <ele>186</ele>
        <time>2017-07-20T08:50:28Z</time>
      </trkpt>
      <trkpt lat="45.90583" lon="4.75968">
        <ele>186</ele>
        <time>2017-07-20T08:50:29Z</time>
      </trkpt>
      <trkpt lat="45.90578" lon="4.75965">
        <ele>186</ele>
        <time>2017-07-20T08:50:30Z</time>
      </trkpt>
      <trkpt lat="45.90573" lon="4.75962">
        <ele>186</ele>
        <time>2017-07-20T08:50:31Z</time>
      </trkpt>
      <trkpt lat="45.9057" lon="4.75958">
        <ele>186</ele>
        <time>2017-07-20T08:50:32Z</time>
      </trkpt>
      <trkpt lat="45.90565" lon="4.75956">
        <ele>186</ele>
        <time>2017-07-20T08:50:33Z</time>
      </trkpt>
      <trkpt lat="45.90558" lon="4.75951">
        <ele>186</ele>
        <time>2017-07-20T08:50:35Z</time>
      </trkpt>
      <trkpt lat="45.90555" lon="4.75949">
        <ele>186</ele>
        <time>2017-07-20T08:50:36Z</time>
      </trkpt>
      <trkpt lat="45.9055" lon="4.75951">
        <ele>186</ele>
        <time>2017-07-20T08:50:38Z</time>
      </trkpt>
      <trkpt lat="45.90546" lon="4.75952">
        <ele>186</ele>
        <time>2017-07-20T08:50:39Z</time>
      </trkpt>
      <trkpt lat="45.90538" lon="4.75956">
        <ele>186</ele>
        <time>2017-07-20T08:50:41Z</time>
      </trkpt>
      <trkpt lat="45.90534" lon="4.75959">
        <ele>186</ele>
        <time>2017-07-20T08:50:42Z</time>
      </trkpt>
      <trkpt lat="45.90529" lon="4.75966">
        <ele>186</ele>
        <time>2017-07-20T08:50:44Z</time>
      </trkpt>
      <trkpt lat="45.90527" lon="4.75971">
        <ele>186</ele>
        <time>2017-07-20T08:50:45Z</time>
      </trkpt>
      <trkpt lat="45.90523" lon="4.75982">
        <ele>186</ele>
        <time>2017-07-20T08:50:47Z</time>
      </trkpt>
      <trkpt lat="45.9052" lon="4.75988">
        <ele>186</ele>
        <time>2017-07-20T08:50:48Z</time>
      </trkpt>
      <trkpt lat="45.90516" lon="4.75998">
        <ele>186</ele>
        <time>2017-07-20T08:50:50Z</time>
      </trkpt>
      <trkpt lat="45.90515" lon="4.76003">
        <ele>186</ele>
        <time>2017-07-20T08:50:51Z</time>
      </trkpt>
      <trkpt lat="45.90512" lon="4.76015">
        <ele>186</ele>
        <time>2017-07-20T08:50:53Z</time>
      </trkpt>
      <trkpt lat="45.90511" lon="4.76021">
        <ele>186</ele>
        <time>2017-07-20T08:50:54Z</time>
      </trkpt>
      <trkpt lat="45.90511" lon="4.76027">
        <ele>185</ele>
        <time>2017-07-20T08:50:55Z</time>
      </trkpt>
      <trkpt lat="45.90508" lon="4.76035">
        <ele>185</ele>
        <time>2017-07-20T08:50:56Z</time>
      </trkpt>
      <trkpt lat="45.90504" lon="4.76046">
        <ele>185</ele>
        <time>2017-07-20T08:50:58Z</time>
      </trkpt>
      <trkpt lat="45.90502" lon="4.76049">
        <ele>185</ele>
        <time>2017-07-20T08:50:59Z</time>
      </trkpt>
      <trkpt lat="45.90499" lon="4.76058">
        <ele>185</ele>
        <time>2017-07-20T08:51:01Z</time>
      </trkpt>
      <trkpt lat="45.90497" lon="4.76063">
        <ele>185</ele>
        <time>2017-07-20T08:51:02Z</time>
      </trkpt>
      <trkpt lat="45.90492" lon="4.76073">
        <ele>185</ele>
        <time>2017-07-20T08:51:04Z</time>
      </trkpt>
      <trkpt lat="45.9049" lon="4.76078">
        <ele>185</ele>
        <time>2017-07-20T08:51:05Z</time>
      </trkpt>
      <trkpt lat="45.90487" lon="4.76085">
        <ele>185</ele>
        <time>2017-07-20T08:51:06Z</time>
      </trkpt>
      <trkpt lat="45.90484" lon="4.76091">
        <ele>185</ele>
        <time>2017-07-20T08:51:07Z</time>
      </trkpt>
      <trkpt lat="45.90482" lon="4.76097">
        <ele>185</ele>
        <time>2017-07-20T08:51:08Z</time>
      </trkpt>
      <trkpt lat="45.9048" lon="4.76104">
        <ele>185</ele>
        <time>2017-07-20T08:51:09Z</time>
      </trkpt>
      <trkpt lat="45.90477" lon="4.76111">
        <ele>185</ele>
        <time>2017-07-20T08:51:10Z</time>
      </trkpt>
      <trkpt lat="45.90473" lon="4.76116">
        <ele>185</ele>
        <time>2017-07-20T08:51:11Z</time>
      </trkpt>
      <trkpt lat="45.9047" lon="4.76121">
        <ele>185</ele>
        <time>2017-07-20T08:51:12Z</time>
      </trkpt>
      <trkpt lat="45.90467" lon="4.76125">
        <ele>185</ele>
        <time>2017-07-20T08:51:13Z</time>
      </trkpt>
      <trkpt lat="45.90461" lon="4.76134">
        <ele>185</ele>
        <time>2017-07-20T08:51:15Z</time>
      </trkpt>
      <trkpt lat="45.90457" lon="4.76139">
        <ele>186</ele>
        <time>2017-07-20T08:51:16Z</time>
      </trkpt>
      <trkpt lat="45.90453" lon="4.76144">
        <ele>186</ele>
        <time>2017-07-20T08:51:17Z</time>
      </trkpt>
      <trkpt lat="45.90449" lon="4.76149">
        <ele>186</ele>
        <time>2017-07-20T08:51:18Z</time>
      </trkpt>
      <trkpt lat="45.90445" lon="4.76154">
        <ele>186</ele>
        <time>2017-07-20T08:51:19Z</time>
      </trkpt>
      <trkpt lat="45.90442" lon="4.76158">
        <ele>186</ele>
        <time>2017-07-20T08:51:20Z</time>
      </trkpt>
      <trkpt lat="45.90438" lon="4.76163">
        <ele>186</ele>
        <time>2017-07-20T08:51:21Z</time>
      </trkpt>
      <trkpt lat="45.90434" lon="4.76167">
        <ele>186</ele>
        <time>2017-07-20T08:51:22Z</time>
      </trkpt>
      <trkpt lat="45.90429" lon="4.76173">
        <ele>186</ele>
        <time>2017-07-20T08:51:24Z</time>
      </trkpt>
      <trkpt lat="45.90426" lon="4.76176">
        <ele>186</ele>
        <time>2017-07-20T08:51:25Z</time>
      </trkpt>
      <trkpt lat="45.90424" lon="4.76187">
        <ele>186</ele>
        <time>2017-07-20T08:51:28Z</time>
      </trkpt>
      <trkpt lat="45.90425" lon="4.7619">
        <ele>186</ele>
        <time>2017-07-20T08:51:29Z</time>
      </trkpt>
      <trkpt lat="45.9043" lon="4.76196">
        <ele>186</ele>
        <time>2017-07-20T08:51:31Z</time>
      </trkpt>
      <trkpt lat="45.90433" lon="4.762">
        <ele>186</ele>
        <time>2017-07-20T08:51:32Z</time>
      </trkpt>
      <trkpt lat="45.90437" lon="4.76203">
        <ele>186</ele>
        <time>2017-07-20T08:51:33Z</time>
      </trkpt>
      <trkpt lat="45.90441" lon="4.76206">
        <ele>186</ele>
        <time>2017-07-20T08:51:34Z</time>
      </trkpt>
      <trkpt lat="45.90449" lon="4.76212">
        <ele>186</ele>
        <time>2017-07-20T08:51:36Z</time>
      </trkpt>
      <trkpt lat="45.90453" lon="4.76214">
        <ele>186</ele>
        <time>2017-07-20T08:51:37Z</time>
      </trkpt>
      <trkpt lat="45.9046" lon="4.7622">
        <ele>185</ele>
        <time>2017-07-20T08:51:39Z</time>
      </trkpt>
      <trkpt lat="45.90463" lon="4.76223">
        <ele>185</ele>
        <time>2017-07-20T08:51:40Z</time>
      </trkpt>
      <trkpt lat="45.90471" lon="4.76229">
        <ele>185</ele>
        <time>2017-07-20T08:51:42Z</time>
      </trkpt>
      <trkpt lat="45.90475" lon="4.76231">
        <ele>185</ele>
        <time>2017-07-20T08:51:43Z</time>
      </trkpt>
      <trkpt lat="45.90483" lon="4.76237">
        <ele>185</ele>
        <time>2017-07-20T08:51:45Z</time>
      </trkpt>
      <trkpt lat="45.90486" lon="4.76241">
        <ele>185</ele>
        <time>2017-07-20T08:51:46Z</time>
      </trkpt>
      <trkpt lat="45.9049" lon="4.76251">
        <ele>185</ele>
        <time>2017-07-20T08:51:48Z</time>
      </trkpt>
      <trkpt lat="45.90491" lon="4.76257">
        <ele>185</ele>
        <time>2017-07-20T08:51:49Z</time>
      </trkpt>
      <trkpt lat="45.90488" lon="4.76269">
        <ele>186</ele>
        <time>2017-07-20T08:51:51Z</time>
      </trkpt>
      <trkpt lat="45.90487" lon="4.76273">
        <ele>186</ele>
        <time>2017-07-20T08:51:52Z</time>
      </trkpt>
      <trkpt lat="45.90482" lon="4.76284">
        <ele>186</ele>
        <time>2017-07-20T08:51:54Z</time>
      </trkpt>
      <trkpt lat="45.9048" lon="4.7629">
        <ele>186</ele>
        <time>2017-07-20T08:51:55Z</time>
      </trkpt>
      <trkpt lat="45.90478" lon="4.76296">
        <ele>186</ele>
        <time>2017-07-20T08:51:56Z</time>
      </trkpt>
      <trkpt lat="45.90476" lon="4.76302">
        <ele>186</ele>
        <time>2017-07-20T08:51:57Z</time>
      </trkpt>
      <trkpt lat="45.90473" lon="4.76313">
        <ele>186</ele>
        <time>2017-07-20T08:51:59Z</time>
      </trkpt>
      <trkpt lat="45.90471" lon="4.76318">
        <ele>186</ele>
        <time>2017-07-20T08:52:00Z</time>
      </trkpt>
      <trkpt lat="45.90468" lon="4.76327">
        <ele>186</ele>
        <time>2017-07-20T08:52:02Z</time>
      </trkpt>
      <trkpt lat="45.90467" lon="4.76331">
        <ele>186</ele>
        <time>2017-07-20T08:52:03Z</time>
      </trkpt>
      <trkpt lat="45.90463" lon="4.76342">
        <ele>186</ele>
        <time>2017-07-20T08:52:05Z</time>
      </trkpt>
      <trkpt lat="45.90462" lon="4.76348">
        <ele>186</ele>
        <time>2017-07-20T08:52:06Z</time>
      </trkpt>
      <trkpt lat="45.9046" lon="4.76354">
        <ele>186</ele>
        <time>2017-07-20T08:52:07Z</time>
      </trkpt>
      <trkpt lat="45.90458" lon="4.76361">
        <ele>186</ele>
        <time>2017-07-20T08:52:08Z</time>
      </trkpt>
      <trkpt lat="45.90457" lon="4.76367">
        <ele>186</ele>
        <time>2017-07-20T08:52:09Z</time>
      </trkpt>
      <trkpt lat="45.90455" lon="4.76373">
        <ele>186</ele>
        <time>2017-07-20T08:52:10Z</time>
      </trkpt>
      <trkpt lat="45.90451" lon="4.76383">
        <ele>186</ele>
        <time>2017-07-20T08:52:12Z</time>
      </trkpt>
      <trkpt lat="45.90449" lon="4.76388">
        <ele>187</ele>
        <time>2017-07-20T08:52:13Z</time>
      </trkpt>
      <trkpt lat="45.90446" lon="4.76398">
        <ele>187</ele>
        <time>2017-07-20T08:52:15Z</time>
      </trkpt>
      <trkpt lat="45.90444" lon="4.76404">
        <ele>187</ele>
        <time>2017-07-20T08:52:16Z</time>
      </trkpt>
      <trkpt lat="45.90439" lon="4.76414">
        <ele>187</ele>
        <time>2017-07-20T08:52:18Z</time>
      </trkpt>
      <trkpt lat="45.90438" lon="4.7642">
        <ele>187</ele>
        <time>2017-07-20T08:52:19Z</time>
      </trkpt>
      <trkpt lat="45.90434" lon="4.7643">
        <ele>187</ele>
        <time>2017-07-20T08:52:21Z</time>
      </trkpt>
      <trkpt lat="45.90431" lon="4.76435">
        <ele>187</ele>
        <time>2017-07-20T08:52:22Z</time>
      </trkpt>
      <trkpt lat="45.90428" lon="4.76444">
        <ele>186</ele>
        <time>2017-07-20T08:52:24Z</time>
      </trkpt>
      <trkpt lat="45.90426" lon="4.76448">
        <ele>186</ele>
        <time>2017-07-20T08:52:25Z</time>
      </trkpt>
      <trkpt lat="45.90422" lon="4.76458">
        <ele>186</ele>
        <time>2017-07-20T08:52:27Z</time>
      </trkpt>
      <trkpt lat="45.9042" lon="4.76462">
        <ele>186</ele>
        <time>2017-07-20T08:52:28Z</time>
      </trkpt>
      <trkpt lat="45.90415" lon="4.76471">
        <ele>188</ele>
        <time>2017-07-20T08:52:30Z</time>
      </trkpt>
      <trkpt lat="45.90413" lon="4.76473">
        <ele>188</ele>
        <time>2017-07-20T08:52:31Z</time>
      </trkpt>
      <trkpt lat="45.90405" lon="4.76478">
        <ele>187</ele>
        <time>2017-07-20T08:52:33Z</time>
      </trkpt>
      <trkpt lat="45.90401" lon="4.76478">
        <ele>188</ele>
        <time>2017-07-20T08:52:34Z</time>
      </trkpt>
      <trkpt lat="45.90393" lon="4.76478">
        <ele>188</ele>
        <time>2017-07-20T08:52:36Z</time>
      </trkpt>
      <trkpt lat="45.90388" lon="4.76478">
        <ele>188</ele>
        <time>2017-07-20T08:52:37Z</time>
      </trkpt>
      <trkpt lat="45.9038" lon="4.76478">
        <ele>188</ele>
        <time>2017-07-20T08:52:39Z</time>
      </trkpt>
      <trkpt lat="45.90376" lon="4.76479">
        <ele>188</ele>
        <time>2017-07-20T08:52:40Z</time>
      </trkpt>
      <trkpt lat="45.90368" lon="4.76483">
        <ele>188</ele>
        <time>2017-07-20T08:52:42Z</time>
      </trkpt>
      <trkpt lat="45.90366" lon="4.76486">
        <ele>188</ele>
        <time>2017-07-20T08:52:43Z</time>
      </trkpt>
      <trkpt lat="45.9036" lon="4.76492">
        <ele>188</ele>
        <time>2017-07-20T08:52:45Z</time>
      </trkpt>
      <trkpt lat="45.90358" lon="4.76495">
        <ele>188</ele>
        <time>2017-07-20T08:52:46Z</time>
      </trkpt>
      <trkpt lat="45.90352" lon="4.76503">
        <ele>187</ele>
        <time>2017-07-20T08:52:48Z</time>
      </trkpt>
      <trkpt lat="45.9035" lon="4.76508">
        <ele>187</ele>
        <time>2017-07-20T08:52:49Z</time>
      </trkpt>
      <trkpt lat="45.90346" lon="4.76518">
        <ele>186</ele>
        <time>2017-07-20T08:52:51Z</time>
      </trkpt>
      <trkpt lat="45.90345" lon="4.76524">
        <ele>186</ele>
        <time>2017-07-20T08:52:52Z</time>
      </trkpt>
      <trkpt lat="45.90343" lon="4.76535">
        <ele>186</ele>
        <time>2017-07-20T08:52:54Z</time>
      </trkpt>
      <trkpt lat="45.90342" lon="4.76541">
        <ele>186</ele>
        <time>2017-07-20T08:52:55Z</time>
      </trkpt>
      <trkpt lat="45.90341" lon="4.76553">
        <ele>185</ele>
        <time>2017-07-20T08:52:57Z</time>
      </trkpt>
      <trkpt lat="45.90341" lon="4.7656">
        <ele>185</ele>
        <time>2017-07-20T08:52:58Z</time>
      </trkpt>
      <trkpt lat="45.90341" lon="4.76567">
        <ele>185</ele>
        <time>2017-07-20T08:52:59Z</time>
      </trkpt>
      <trkpt lat="45.90341" lon="4.76574">
        <ele>185</ele>
        <time>2017-07-20T08:53:00Z</time>
      </trkpt>
      <trkpt lat="45.90341" lon="4.76582">
        <ele>185</ele>
        <time>2017-07-20T08:53:01Z</time>
      </trkpt>
      <trkpt lat="45.9034" lon="4.7659">
        <ele>184</ele>
        <time>2017-07-20T08:53:02Z</time>
      </trkpt>
      <trkpt lat="45.9034" lon="4.76598">
        <ele>184</ele>
        <time>2017-07-20T08:53:03Z</time>
      </trkpt>
      <trkpt lat="45.9034" lon="4.76606">
        <ele>184</ele>
        <time>2017-07-20T08:53:04Z</time>
      </trkpt>
      <trkpt lat="45.9034" lon="4.76615">
        <ele>184</ele>
        <time>2017-07-20T08:53:05Z</time>
      </trkpt>
      <trkpt lat="45.9034" lon="4.76624">
        <ele>184</ele>
        <time>2017-07-20T08:53:06Z</time>
      </trkpt>
      <trkpt lat="45.9034" lon="4.76633">
        <ele>184</ele>
        <time>2017-07-20T08:53:07Z</time>
      </trkpt>
      <trkpt lat="45.90339" lon="4.76642">
        <ele>184</ele>
        <time>2017-07-20T08:53:08Z</time>
      </trkpt>
      <trkpt lat="45.90339" lon="4.76651">
        <ele>184</ele>
        <time>2017-07-20T08:53:09Z</time>
      </trkpt>
      <trkpt lat="45.90339" lon="4.7666">
        <ele>184</ele>
        <time>2017-07-20T08:53:10Z</time>
      </trkpt>
      <trkpt lat="45.90339" lon="4.7667">
        <ele>184</ele>
        <time>2017-07-20T08:53:11Z</time>
      </trkpt>
      <trkpt lat="45.90339" lon="4.76679">
        <ele>183</ele>
        <time>2017-07-20T08:53:12Z</time>
      </trkpt>
      <trkpt lat="45.90339" lon="4.76688">
        <ele>183</ele>
        <time>2017-07-20T08:53:13Z</time>
      </trkpt>
      <trkpt lat="45.90339" lon="4.76697">
        <ele>183</ele>
        <time>2017-07-20T08:53:14Z</time>
      </trkpt>
      <trkpt lat="45.90339" lon="4.76706">
        <ele>183</ele>
        <time>2017-07-20T08:53:15Z</time>
      </trkpt>
      <trkpt lat="45.90339" lon="4.76714">
        <ele>183</ele>
        <time>2017-07-20T08:53:16Z</time>
      </trkpt>
      <trkpt lat="45.90339" lon="4.76722">
        <ele>183</ele>
        <time>2017-07-20T08:53:17Z</time>
      </trkpt>
      <trkpt lat="45.90339" lon="4.7673">
        <ele>183</ele>
        <time>2017-07-20T08:53:18Z</time>
      </trkpt>
      <trkpt lat="45.90339" lon="4.76738">
        <ele>183</ele>
        <time>2017-07-20T08:53:19Z</time>
      </trkpt>
      <trkpt lat="45.90339" lon="4.76745">
        <ele>183</ele>
        <time>2017-07-20T08:53:20Z</time>
      </trkpt>
      <trkpt lat="45.90338" lon="4.76752">
        <ele>183</ele>
        <time>2017-07-20T08:53:21Z</time>
      </trkpt>
      <trkpt lat="45.90338" lon="4.76759">
        <ele>183</ele>
        <time>2017-07-20T08:53:22Z</time>
      </trkpt>
      <trkpt lat="45.90338" lon="4.76766">
        <ele>182</ele>
        <time>2017-07-20T08:53:23Z</time>
      </trkpt>
      <trkpt lat="45.90337" lon="4.76773">
        <ele>182</ele>
        <time>2017-07-20T08:53:24Z</time>
      </trkpt>
      <trkpt lat="45.90337" lon="4.76785">
        <ele>182</ele>
        <time>2017-07-20T08:53:26Z</time>
      </trkpt>
      <trkpt lat="45.90337" lon="4.76791">
        <ele>182</ele>
        <time>2017-07-20T08:53:27Z</time>
      </trkpt>
      <trkpt lat="45.90336" lon="4.76803">
        <ele>182</ele>
        <time>2017-07-20T08:53:29Z</time>
      </trkpt>
      <trkpt lat="45.90336" lon="4.76809">
        <ele>182</ele>
        <time>2017-07-20T08:53:30Z</time>
      </trkpt>
      <trkpt lat="45.90335" lon="4.76816">
        <ele>182</ele>
        <time>2017-07-20T08:53:31Z</time>
      </trkpt>
      <trkpt lat="45.90334" lon="4.76823">
        <ele>182</ele>
        <time>2017-07-20T08:53:32Z</time>
      </trkpt>
      <trkpt lat="45.90334" lon="4.7683">
        <ele>182</ele>
        <time>2017-07-20T08:53:33Z</time>
      </trkpt>
      <trkpt lat="45.90334" lon="4.76836">
        <ele>182</ele>
        <time>2017-07-20T08:53:34Z</time>
      </trkpt>
      <trkpt lat="45.90335" lon="4.76848">
        <ele>182</ele>
        <time>2017-07-20T08:53:36Z</time>
      </trkpt>
      <trkpt lat="45.90337" lon="4.76852">
        <ele>182</ele>
        <time>2017-07-20T08:53:37Z</time>
      </trkpt>
      <trkpt lat="45.90343" lon="4.76859">
        <ele>182</ele>
        <time>2017-07-20T08:53:39Z</time>
      </trkpt>
      <trkpt lat="45.90346" lon="4.7686">
        <ele>182</ele>
        <time>2017-07-20T08:53:40Z</time>
      </trkpt>
      <trkpt lat="45.90353" lon="4.76861">
        <ele>182</ele>
        <time>2017-07-20T08:53:42Z</time>
      </trkpt>
      <trkpt lat="45.90356" lon="4.7686">
        <ele>182</ele>
        <time>2017-07-20T08:53:43Z</time>
      </trkpt>
      <trkpt lat="45.90363" lon="4.7686">
        <ele>182</ele>
        <time>2017-07-20T08:53:45Z</time>
      </trkpt>
      <trkpt lat="45.90367" lon="4.7686">
        <ele>182</ele>
        <time>2017-07-20T08:53:46Z</time>
      </trkpt>
      <trkpt lat="45.90374" lon="4.7686">
        <ele>182</ele>
        <time>2017-07-20T08:53:48Z</time>
      </trkpt>
      <trkpt lat="45.90377" lon="4.7686">
        <ele>182</ele>
        <time>2017-07-20T08:53:49Z</time>
      </trkpt>
      <trkpt lat="45.90385" lon="4.76861">
        <ele>182</ele>
        <time>2017-07-20T08:53:51Z</time>
      </trkpt>
      <trkpt lat="45.9039" lon="4.76862">
        <ele>182</ele>
        <time>2017-07-20T08:53:52Z</time>
      </trkpt>
      <trkpt lat="45.90396" lon="4.76862">
        <ele>182</ele>
        <time>2017-07-20T08:53:53Z</time>
      </trkpt>
      <trkpt lat="45.90401" lon="4.76863">
        <ele>182</ele>
        <time>2017-07-20T08:53:54Z</time>
      </trkpt>
      <trkpt lat="45.90406" lon="4.76863">
        <ele>182</ele>
        <time>2017-07-20T08:53:55Z</time>
      </trkpt>
      <trkpt lat="45.90411" lon="4.76864">
        <ele>182</ele>
        <time>2017-07-20T08:53:56Z</time>
      </trkpt>
      <trkpt lat="45.90415" lon="4.76864">
        <ele>182</ele>
        <time>2017-07-20T08:53:57Z</time>
      </trkpt>
      <trkpt lat="45.9042" lon="4.76865">
        <ele>181</ele>
        <time>2017-07-20T08:53:58Z</time>
      </trkpt>
      <trkpt lat="45.90425" lon="4.76865">
        <ele>181</ele>
        <time>2017-07-20T08:53:59Z</time>
      </trkpt>
      <trkpt lat="45.90429" lon="4.76866">
        <ele>181</ele>
        <time>2017-07-20T08:54:00Z</time>
      </trkpt>
      <trkpt lat="45.90437" lon="4.76867">
        <ele>181</ele>
        <time>2017-07-20T08:54:02Z</time>
      </trkpt>
      <trkpt lat="45.90442" lon="4.76868">
        <ele>181</ele>
        <time>2017-07-20T08:54:03Z</time>
      </trkpt>
      <trkpt lat="45.90449" lon="4.76871">
        <ele>181</ele>
        <time>2017-07-20T08:54:05Z</time>
      </trkpt>
      <trkpt lat="45.90453" lon="4.76873">
        <ele>181</ele>
        <time>2017-07-20T08:54:06Z</time>
      </trkpt>
      <trkpt lat="45.90458" lon="4.76874">
        <ele>181</ele>
        <time>2017-07-20T08:54:07Z</time>
      </trkpt>
      <trkpt lat="45.90463" lon="4.76876">
        <ele>181</ele>
        <time>2017-07-20T08:54:08Z</time>
      </trkpt>
      <trkpt lat="45.90468" lon="4.76877">
        <ele>181</ele>
        <time>2017-07-20T08:54:09Z</time>
      </trkpt>
      <trkpt lat="45.90474" lon="4.76878">
        <ele>181</ele>
        <time>2017-07-20T08:54:10Z</time>
      </trkpt>
      <trkpt lat="45.90478" lon="4.76879">
        <ele>181</ele>
        <time>2017-07-20T08:54:11Z</time>
      </trkpt>
      <trkpt lat="45.90483" lon="4.7688">
        <ele>181</ele>
        <time>2017-07-20T08:54:12Z</time>
      </trkpt>
      <trkpt lat="45.90488" lon="4.76882">
        <ele>181</ele>
        <time>2017-07-20T08:54:13Z</time>
      </trkpt>
      <trkpt lat="45.90492" lon="4.76882">
        <ele>181</ele>
        <time>2017-07-20T08:54:14Z</time>
      </trkpt>
      <trkpt lat="45.90501" lon="4.76884">
        <ele>180</ele>
        <time>2017-07-20T08:54:16Z</time>
      </trkpt>
      <trkpt lat="45.90505" lon="4.76884">
        <ele>180</ele>
        <time>2017-07-20T08:54:17Z</time>
      </trkpt>
      <trkpt lat="45.90513" lon="4.76887">
        <ele>180</ele>
        <time>2017-07-20T08:54:19Z</time>
      </trkpt>
      <trkpt lat="45.90518" lon="4.76889">
        <ele>180</ele>
        <time>2017-07-20T08:54:20Z</time>
      </trkpt>
      <trkpt lat="45.90526" lon="4.76891">
        <ele>180</ele>
        <time>2017-07-20T08:54:22Z</time>
      </trkpt>
      <trkpt lat="45.90531" lon="4.76893">
        <ele>180</ele>
        <time>2017-07-20T08:54:23Z</time>
      </trkpt>
      <trkpt lat="45.90539" lon="4.76895">
        <ele>180</ele>
        <time>2017-07-20T08:54:25Z</time>
      </trkpt>
      <trkpt lat="45.90543" lon="4.76896">
        <ele>180</ele>
        <time>2017-07-20T08:54:26Z</time>
      </trkpt>
      <trkpt lat="45.90551" lon="4.76899">
        <ele>180</ele>
        <time>2017-07-20T08:54:28Z</time>
      </trkpt>
      <trkpt lat="45.90555" lon="4.769">
        <ele>180</ele>
        <time>2017-07-20T08:54:29Z</time>
      </trkpt>
      <trkpt lat="45.90562" lon="4.76902">
        <ele>180</ele>
        <time>2017-07-20T08:54:31Z</time>
      </trkpt>
      <trkpt lat="45.90566" lon="4.76903">
        <ele>180</ele>
        <time>2017-07-20T08:54:32Z</time>
      </trkpt>
      <trkpt lat="45.90575" lon="4.76905">
        <ele>180</ele>
        <time>2017-07-20T08:54:34Z</time>
      </trkpt>
      <trkpt lat="45.90579" lon="4.76906">
        <ele>180</ele>
        <time>2017-07-20T08:54:35Z</time>
      </trkpt>
      <trkpt lat="45.90584" lon="4.76908">
        <ele>180</ele>
        <time>2017-07-20T08:54:36Z</time>
      </trkpt>
      <trkpt lat="45.90589" lon="4.7691">
        <ele>180</ele>
        <time>2017-07-20T08:54:37Z</time>
      </trkpt>
      <trkpt lat="45.90594" lon="4.76911">
        <ele>180</ele>
        <time>2017-07-20T08:54:38Z</time>
      </trkpt>
      <trkpt lat="45.90599" lon="4.76912">
        <ele>180</ele>
        <time>2017-07-20T08:54:39Z</time>
      </trkpt>
      <trkpt lat="45.90603" lon="4.76913">
        <ele>179</ele>
        <time>2017-07-20T08:54:40Z</time>
      </trkpt>
      <trkpt lat="45.90608" lon="4.76914">
        <ele>179</ele>
        <time>2017-07-20T08:54:41Z</time>
      </trkpt>
      <trkpt lat="45.90616" lon="4.76917">
        <ele>179</ele>
        <time>2017-07-20T08:54:43Z</time>
      </trkpt>
      <trkpt lat="45.9062" lon="4.76918">
        <ele>180</ele>
        <time>2017-07-20T08:54:44Z</time>
      </trkpt>
      <trkpt lat="45.90627" lon="4.76921">
        <ele>180</ele>
        <time>2017-07-20T08:54:46Z</time>
      </trkpt>
      <trkpt lat="45.90631" lon="4.76923">
        <ele>180</ele>
        <time>2017-07-20T08:54:47Z</time>
      </trkpt>
      <trkpt lat="45.90639" lon="4.76925">
        <ele>180</ele>
        <time>2017-07-20T08:54:49Z</time>
      </trkpt>
      <trkpt lat="45.90643" lon="4.76926">
        <ele>180</ele>
        <time>2017-07-20T08:54:50Z</time>
      </trkpt>
      <trkpt lat="45.9065" lon="4.76928">
        <ele>179</ele>
        <time>2017-07-20T08:54:52Z</time>
      </trkpt>
      <trkpt lat="45.90654" lon="4.76929">
        <ele>179</ele>
        <time>2017-07-20T08:54:53Z</time>
      </trkpt>
      <trkpt lat="45.90662" lon="4.76931">
        <ele>179</ele>
        <time>2017-07-20T08:54:55Z</time>
      </trkpt>
      <trkpt lat="45.90666" lon="4.76933">
        <ele>179</ele>
        <time>2017-07-20T08:54:56Z</time>
      </trkpt>
      <trkpt lat="45.90672" lon="4.76935">
        <ele>179</ele>
        <time>2017-07-20T08:54:58Z</time>
      </trkpt>
      <trkpt lat="45.90675" lon="4.76936">
        <ele>179</ele>
        <time>2017-07-20T08:54:59Z</time>
      </trkpt>
      <trkpt lat="45.90682" lon="4.7694">
        <ele>179</ele>
        <time>2017-07-20T08:55:01Z</time>
      </trkpt>
      <trkpt lat="45.90687" lon="4.76941">
        <ele>179</ele>
        <time>2017-07-20T08:55:02Z</time>
      </trkpt>
      <trkpt lat="45.90692" lon="4.76943">
        <ele>179</ele>
        <time>2017-07-20T08:55:03Z</time>
      </trkpt>
      <trkpt lat="45.90696" lon="4.76945">
        <ele>179</ele>
        <time>2017-07-20T08:55:04Z</time>
      </trkpt>
      <trkpt lat="45.90704" lon="4.7695">
        <ele>179</ele>
        <time>2017-07-20T08:55:06Z</time>
      </trkpt>
      <trkpt lat="45.90707" lon="4.76952">
        <ele>179</ele>
        <time>2017-07-20T08:55:07Z</time>
      </trkpt>
      <trkpt lat="45.90714" lon="4.76956">
        <ele>179</ele>
        <time>2017-07-20T08:55:09Z</time>
      </trkpt>
      <trkpt lat="45.90718" lon="4.76958">
        <ele>179</ele>
        <time>2017-07-20T08:55:10Z</time>
      </trkpt>
      <trkpt lat="45.90725" lon="4.76962">
        <ele>179</ele>
        <time>2017-07-20T08:55:12Z</time>
      </trkpt>
      <trkpt lat="45.90729" lon="4.76965">
        <ele>179</ele>
        <time>2017-07-20T08:55:13Z</time>
      </trkpt>
      <trkpt lat="45.90738" lon="4.76969">
        <ele>179</ele>
        <time>2017-07-20T08:55:15Z</time>
      </trkpt>
      <trkpt lat="45.90742" lon="4.76971">
        <ele>179</ele>
        <time>2017-07-20T08:55:16Z</time>
      </trkpt>
      <trkpt lat="45.90747" lon="4.76973">
        <ele>179</ele>
        <time>2017-07-20T08:55:17Z</time>
      </trkpt>
      <trkpt lat="45.90751" lon="4.76975">
        <ele>178</ele>
        <time>2017-07-20T08:55:18Z</time>
      </trkpt>
      <trkpt lat="45.90758" lon="4.76978">
        <ele>178</ele>
        <time>2017-07-20T08:55:20Z</time>
      </trkpt>
      <trkpt lat="45.90761" lon="4.7698">
        <ele>178</ele>
        <time>2017-07-20T08:55:21Z</time>
      </trkpt>
      <trkpt lat="45.90769" lon="4.76986">
        <ele>178</ele>
        <time>2017-07-20T08:55:23Z</time>
      </trkpt>
      <trkpt lat="45.90772" lon="4.7699">
        <ele>178</ele>
        <time>2017-07-20T08:55:24Z</time>
      </trkpt>
      <trkpt lat="45.90776" lon="4.76994">
        <ele>178</ele>
        <time>2017-07-20T08:55:25Z</time>
      </trkpt>
      <trkpt lat="45.9078" lon="4.76999">
        <ele>178</ele>
        <time>2017-07-20T08:55:26Z</time>
      </trkpt>
      <trkpt lat="45.90784" lon="4.77004">
        <ele>178</ele>
        <time>2017-07-20T08:55:27Z</time>
      </trkpt>
      <trkpt lat="45.90788" lon="4.77009">
        <ele>178</ele>
        <time>2017-07-20T08:55:28Z</time>
      </trkpt>
      <trkpt lat="45.90793" lon="4.77013">
        <ele>177</ele>
        <time>2017-07-20T08:55:29Z</time>
      </trkpt>
      <trkpt lat="45.90797" lon="4.77018">
        <ele>177</ele>
        <time>2017-07-20T08:55:30Z</time>
      </trkpt>
      <trkpt lat="45.90801" lon="4.77023">
        <ele>177</ele>
        <time>2017-07-20T08:55:31Z</time>
      </trkpt>
      <trkpt lat="45.90806" lon="4.77027">
        <ele>177</ele>
        <time>2017-07-20T08:55:32Z</time>
      </trkpt>
      <trkpt lat="45.90811" lon="4.77031">
        <ele>177</ele>
        <time>2017-07-20T08:55:33Z</time>
      </trkpt>
      <trkpt lat="45.90815" lon="4.77035">
        <ele>177</ele>
        <time>2017-07-20T08:55:34Z</time>
      </trkpt>
      <trkpt lat="45.9082" lon="4.77039">
        <ele>177</ele>
        <time>2017-07-20T08:55:35Z</time>
      </trkpt>
      <trkpt lat="45.90824" lon="4.77043">
        <ele>177</ele>
        <time>2017-07-20T08:55:36Z</time>
      </trkpt>
      <trkpt lat="45.90828" lon="4.77047">
        <ele>177</ele>
        <time>2017-07-20T08:55:37Z</time>
      </trkpt>
      <trkpt lat="45.90832" lon="4.77051">
        <ele>177</ele>
        <time>2017-07-20T08:55:38Z</time>
      </trkpt>
      <trkpt lat="45.90836" lon="4.77055">
        <ele>177</ele>
        <time>2017-07-20T08:55:39Z</time>
      </trkpt>
      <trkpt lat="45.9084" lon="4.77059">
        <ele>177</ele>
        <time>2017-07-20T08:55:40Z</time>
      </trkpt>
      <trkpt lat="45.90843" lon="4.77063">
        <ele>177</ele>
        <time>2017-07-20T08:55:41Z</time>
      </trkpt>
      <trkpt lat="45.90847" lon="4.77066">
        <ele>177</ele>
        <time>2017-07-20T08:55:42Z</time>
      </trkpt>
      <trkpt lat="45.90851" lon="4.7707">
        <ele>177</ele>
        <time>2017-07-20T08:55:43Z</time>
      </trkpt>
      <trkpt lat="45.90855" lon="4.77074">
        <ele>177</ele>
        <time>2017-07-20T08:55:44Z</time>
      </trkpt>
      <trkpt lat="45.90859" lon="4.77077">
        <ele>177</ele>
        <time>2017-07-20T08:55:45Z</time>
      </trkpt>
      <trkpt lat="45.90863" lon="4.77081">
        <ele>177</ele>
        <time>2017-07-20T08:55:46Z</time>
      </trkpt>
      <trkpt lat="45.90868" lon="4.77086">
        <ele>176</ele>
        <time>2017-07-20T08:55:47Z</time>
      </trkpt>
      <trkpt lat="45.90872" lon="4.7709">
        <ele>176</ele>
        <time>2017-07-20T08:55:48Z</time>
      </trkpt>
      <trkpt lat="45.90876" lon="4.77094">
        <ele>176</ele>
        <time>2017-07-20T08:55:49Z</time>
      </trkpt>
      <trkpt lat="45.90881" lon="4.77099">
        <ele>176</ele>
        <time>2017-07-20T08:55:50Z</time>
      </trkpt>
      <trkpt lat="45.90884" lon="4.77103">
        <ele>176</ele>
        <time>2017-07-20T08:55:51Z</time>
      </trkpt>
      <trkpt lat="45.90888" lon="4.77108">
        <ele>176</ele>
        <time>2017-07-20T08:55:52Z</time>
      </trkpt>
      <trkpt lat="45.90891" lon="4.77113">
        <ele>176</ele>
        <time>2017-07-20T08:55:53Z</time>
      </trkpt>
      <trkpt lat="45.90895" lon="4.77117">
        <ele>176</ele>
        <time>2017-07-20T08:55:54Z</time>
      </trkpt>
      <trkpt lat="45.90902" lon="4.77125">
        <ele>176</ele>
        <time>2017-07-20T08:55:56Z</time>
      </trkpt>
      <trkpt lat="45.90905" lon="4.7713">
        <ele>176</ele>
        <time>2017-07-20T08:55:57Z</time>
      </trkpt>
      <trkpt lat="45.90908" lon="4.77135">
        <ele>176</ele>
        <time>2017-07-20T08:55:58Z</time>
      </trkpt>
      <trkpt lat="45.90911" lon="4.7714">
        <ele>176</ele>
        <time>2017-07-20T08:55:59Z</time>
      </trkpt>
      <trkpt lat="45.90915" lon="4.77144">
        <ele>176</ele>
        <time>2017-07-20T08:56:00Z</time>
      </trkpt>
      <trkpt lat="45.90918" lon="4.77149">
        <ele>176</ele>
        <time>2017-07-20T08:56:01Z</time>
      </trkpt>
      <trkpt lat="45.90921" lon="4.77155">
        <ele>176</ele>
        <time>2017-07-20T08:56:02Z</time>
      </trkpt>
      <trkpt lat="45.90924" lon="4.7716">
        <ele>175</ele>
        <time>2017-07-20T08:56:03Z</time>
      </trkpt>
      <trkpt lat="45.90928" lon="4.77165">
        <ele>175</ele>
        <time>2017-07-20T08:56:04Z</time>
      </trkpt>
      <trkpt lat="45.90932" lon="4.77171">
        <ele>176</ele>
        <time>2017-07-20T08:56:05Z</time>
      </trkpt>
      <trkpt lat="45.90936" lon="4.77177">
        <ele>176</ele>
        <time>2017-07-20T08:56:06Z</time>
      </trkpt>
      <trkpt lat="45.90938" lon="4.77183">
        <ele>176</ele>
        <time>2017-07-20T08:56:07Z</time>
      </trkpt>
      <trkpt lat="45.90941" lon="4.77189">
        <ele>176</ele>
        <time>2017-07-20T08:56:08Z</time>
      </trkpt>
      <trkpt lat="45.90944" lon="4.77194">
        <ele>176</ele>
        <time>2017-07-20T08:56:09Z</time>
      </trkpt>
      <trkpt lat="45.90947" lon="4.772">
        <ele>177</ele>
        <time>2017-07-20T08:56:10Z</time>
      </trkpt>
      <trkpt lat="45.9095" lon="4.77204">
        <ele>177</ele>
        <time>2017-07-20T08:56:11Z</time>
      </trkpt>
      <trkpt lat="45.90956" lon="4.77213">
        <ele>177</ele>
        <time>2017-07-20T08:56:13Z</time>
      </trkpt>
      <trkpt lat="45.90959" lon="4.77218">
        <ele>177</ele>
        <time>2017-07-20T08:56:14Z</time>
      </trkpt>
      <trkpt lat="45.90964" lon="4.77225">
        <ele>177</ele>
        <time>2017-07-20T08:56:16Z</time>
      </trkpt>
      <trkpt lat="45.90967" lon="4.7723">
        <ele>177</ele>
        <time>2017-07-20T08:56:17Z</time>
      </trkpt>
      <trkpt lat="45.90969" lon="4.77235">
        <ele>177</ele>
        <time>2017-07-20T08:56:18Z</time>
      </trkpt>
      <trkpt lat="45.90972" lon="4.7724">
        <ele>177</ele>
        <time>2017-07-20T08:56:19Z</time>
      </trkpt>
      <trkpt lat="45.90974" lon="4.77247">
        <ele>178</ele>
        <time>2017-07-20T08:56:20Z</time>
      </trkpt>
      <trkpt lat="45.90976" lon="4.77254">
        <ele>178</ele>
        <time>2017-07-20T08:56:21Z</time>
      </trkpt>
      <trkpt lat="45.90976" lon="4.77261">
        <ele>178</ele>
        <time>2017-07-20T08:56:22Z</time>
      </trkpt>
      <trkpt lat="45.90975" lon="4.77268">
        <ele>178</ele>
        <time>2017-07-20T08:56:23Z</time>
      </trkpt>
      <trkpt lat="45.90973" lon="4.77275">
        <ele>178</ele>
        <time>2017-07-20T08:56:24Z</time>
      </trkpt>
      <trkpt lat="45.90971" lon="4.77281">
        <ele>178</ele>
        <time>2017-07-20T08:56:25Z</time>
      </trkpt>
      <trkpt lat="45.90968" lon="4.77287">
        <ele>178</ele>
        <time>2017-07-20T08:56:26Z</time>
      </trkpt>
      <trkpt lat="45.90966" lon="4.77293">
        <ele>178</ele>
        <time>2017-07-20T08:56:27Z</time>
      </trkpt>
      <trkpt lat="45.90964" lon="4.77298">
        <ele>178</ele>
        <time>2017-07-20T08:56:28Z</time>
      </trkpt>
      <trkpt lat="45.90961" lon="4.77303">
        <ele>178</ele>
        <time>2017-07-20T08:56:29Z</time>
      </trkpt>
      <trkpt lat="45.90955" lon="4.77313">
        <ele>178</ele>
        <time>2017-07-20T08:56:31Z</time>
      </trkpt>
      <trkpt lat="45.90953" lon="4.77317">
        <ele>178</ele>
        <time>2017-07-20T08:56:32Z</time>
      </trkpt>
      <trkpt lat="45.9095" lon="4.77322">
        <ele>178</ele>
        <time>2017-07-20T08:56:33Z</time>
      </trkpt>
      <trkpt lat="45.90947" lon="4.77327">
        <ele>178</ele>
        <time>2017-07-20T08:56:34Z</time>
      </trkpt>
      <trkpt lat="45.90944" lon="4.77332">
        <ele>177</ele>
        <time>2017-07-20T08:56:35Z</time>
      </trkpt>
      <trkpt lat="45.90941" lon="4.77338">
        <ele>177</ele>
        <time>2017-07-20T08:56:36Z</time>
      </trkpt>
      <trkpt lat="45.90937" lon="4.77343">
        <ele>177</ele>
        <time>2017-07-20T08:56:37Z</time>
      </trkpt>
      <trkpt lat="45.90934" lon="4.77349">
        <ele>177</ele>
        <time>2017-07-20T08:56:38Z</time>
      </trkpt>
      <trkpt lat="45.90931" lon="4.77355">
        <ele>177</ele>
        <time>2017-07-20T08:56:39Z</time>
      </trkpt>
      <trkpt lat="45.90928" lon="4.77362">
        <ele>177</ele>
        <time>2017-07-20T08:56:40Z</time>
      </trkpt>
      <trkpt lat="45.90925" lon="4.77368">
        <ele>177</ele>
        <time>2017-07-20T08:56:41Z</time>
      </trkpt>
      <trkpt lat="45.90922" lon="4.77373">
        <ele>177</ele>
        <time>2017-07-20T08:56:42Z</time>
      </trkpt>
      <trkpt lat="45.90918" lon="4.77383">
        <ele>176</ele>
        <time>2017-07-20T08:56:44Z</time>
      </trkpt>
      <trkpt lat="45.90915" lon="4.77387">
        <ele>177</ele>
        <time>2017-07-20T08:56:45Z</time>
      </trkpt>
      <trkpt lat="45.90911" lon="4.77397">
        <ele>177</ele>
        <time>2017-07-20T08:56:47Z</time>
      </trkpt>
      <trkpt lat="45.90907" lon="4.77401">
        <ele>177</ele>
        <time>2017-07-20T08:56:48Z</time>
      </trkpt>
      <trkpt lat="45.90905" lon="4.77406">
        <ele>177</ele>
        <time>2017-07-20T08:56:49Z</time>
      </trkpt>
      <trkpt lat="45.90902" lon="4.77412">
        <ele>177</ele>
        <time>2017-07-20T08:56:50Z</time>
      </trkpt>
      <trkpt lat="45.90898" lon="4.77418">
        <ele>177</ele>
        <time>2017-07-20T08:56:51Z</time>
      </trkpt>
      <trkpt lat="45.90895" lon="4.77423">
        <ele>177</ele>
        <time>2017-07-20T08:56:52Z</time>
      </trkpt>
      <trkpt lat="45.90892" lon="4.77429">
        <ele>177</ele>
        <time>2017-07-20T08:56:53Z</time>
      </trkpt>
      <trkpt lat="45.90889" lon="4.77435">
        <ele>177</ele>
        <time>2017-07-20T08:56:54Z</time>
      </trkpt>
      <trkpt lat="45.90886" lon="4.77441">
        <ele>177</ele>
        <time>2017-07-20T08:56:55Z</time>
      </trkpt>
      <trkpt lat="45.90883" lon="4.77447">
        <ele>178</ele>
        <time>2017-07-20T08:56:56Z</time>
      </trkpt>
      <trkpt lat="45.90877" lon="4.77455">
        <ele>178</ele>
        <time>2017-07-20T08:56:58Z</time>
      </trkpt>
      <trkpt lat="45.90874" lon="4.77459">
        <ele>178</ele>
        <time>2017-07-20T08:56:59Z</time>
      </trkpt>
      <trkpt lat="45.90868" lon="4.77467">
        <ele>178</ele>
        <time>2017-07-20T08:57:01Z</time>
      </trkpt>
      <trkpt lat="45.90866" lon="4.77472">
        <ele>178</ele>
        <time>2017-07-20T08:57:02Z</time>
      </trkpt>
      <trkpt lat="45.90861" lon="4.7748">
        <ele>178</ele>
        <time>2017-07-20T08:57:04Z</time>
      </trkpt>
      <trkpt lat="45.90858" lon="4.77484">
        <ele>178</ele>
        <time>2017-07-20T08:57:05Z</time>
      </trkpt>
      <trkpt lat="45.90852" lon="4.77493">
        <ele>178</ele>
        <time>2017-07-20T08:57:07Z</time>
      </trkpt>
      <trkpt lat="45.9085" lon="4.77498">
        <ele>178</ele>
        <time>2017-07-20T08:57:08Z</time>
      </trkpt>
      <trkpt lat="45.90844" lon="4.77506">
        <ele>179</ele>
        <time>2017-07-20T08:57:10Z</time>
      </trkpt>
      <trkpt lat="45.90841" lon="4.77509">
        <ele>179</ele>
        <time>2017-07-20T08:57:11Z</time>
      </trkpt>
      <trkpt lat="45.90835" lon="4.77517">
        <ele>179</ele>
        <time>2017-07-20T08:57:13Z</time>
      </trkpt>
      <trkpt lat="45.90831" lon="4.77522">
        <ele>178</ele>
        <time>2017-07-20T08:57:14Z</time>
      </trkpt>
      <trkpt lat="45.90827" lon="4.77527">
        <ele>178</ele>
        <time>2017-07-20T08:57:15Z</time>
      </trkpt>
      <trkpt lat="45.90824" lon="4.77531">
        <ele>178</ele>
        <time>2017-07-20T08:57:16Z</time>
      </trkpt>
      <trkpt lat="45.9082" lon="4.77535">
        <ele>178</ele>
        <time>2017-07-20T08:57:17Z</time>
      </trkpt>
      <trkpt lat="45.90817" lon="4.77539">
        <ele>178</ele>
        <time>2017-07-20T08:57:18Z</time>
      </trkpt>
      <trkpt lat="45.90812" lon="4.77547">
        <ele>178</ele>
        <time>2017-07-20T08:57:20Z</time>
      </trkpt>
      <trkpt lat="45.9081" lon="4.77551">
        <ele>178</ele>
        <time>2017-07-20T08:57:21Z</time>
      </trkpt>
      <trkpt lat="45.90805" lon="4.77561">
        <ele>178</ele>
        <time>2017-07-20T08:57:23Z</time>
      </trkpt>
      <trkpt lat="45.90802" lon="4.77566">
        <ele>178</ele>
        <time>2017-07-20T08:57:24Z</time>
      </trkpt>
      <trkpt lat="45.90798" lon="4.77571">
        <ele>178</ele>
        <time>2017-07-20T08:57:25Z</time>
      </trkpt>
      <trkpt lat="45.90794" lon="4.77576">
        <ele>178</ele>
        <time>2017-07-20T08:57:26Z</time>
      </trkpt>
      <trkpt lat="45.90791" lon="4.7758">
        <ele>178</ele>
        <time>2017-07-20T08:57:27Z</time>
      </trkpt>
      <trkpt lat="45.90787" lon="4.77585">
        <ele>179</ele>
        <time>2017-07-20T08:57:28Z</time>
      </trkpt>
      <trkpt lat="45.90784" lon="4.77588">
        <ele>179</ele>
        <time>2017-07-20T08:57:29Z</time>
      </trkpt>
      <trkpt lat="45.9078" lon="4.77592">
        <ele>179</ele>
        <time>2017-07-20T08:57:30Z</time>
      </trkpt>
      <trkpt lat="45.90775" lon="4.77599">
        <ele>179</ele>
        <time>2017-07-20T08:57:32Z</time>
      </trkpt>
      <trkpt lat="45.90772" lon="4.77603">
        <ele>179</ele>
        <time>2017-07-20T08:57:33Z</time>
      </trkpt>
      <trkpt lat="45.9077" lon="4.77608">
        <ele>179</ele>
        <time>2017-07-20T08:57:34Z</time>
      </trkpt>
      <trkpt lat="45.90766" lon="4.77613">
        <ele>179</ele>
        <time>2017-07-20T08:57:35Z</time>
      </trkpt>
      <trkpt lat="45.90764" lon="4.7762">
        <ele>179</ele>
        <time>2017-07-20T08:57:36Z</time>
      </trkpt>
      <trkpt lat="45.90763" lon="4.77626">
        <ele>179</ele>
        <time>2017-07-20T08:57:37Z</time>
      </trkpt>
      <trkpt lat="45.90758" lon="4.77634">
        <ele>179</ele>
        <time>2017-07-20T08:57:39Z</time>
      </trkpt>
      <trkpt lat="45.90756" lon="4.77637">
        <ele>180</ele>
        <time>2017-07-20T08:57:40Z</time>
      </trkpt>
      <trkpt lat="45.90751" lon="4.77646">
        <ele>180</ele>
        <time>2017-07-20T08:57:42Z</time>
      </trkpt>
      <trkpt lat="45.90751" lon="4.7765">
        <ele>180</ele>
        <time>2017-07-20T08:57:43Z</time>
      </trkpt>
      <trkpt lat="45.90755" lon="4.7766">
        <ele>180</ele>
        <time>2017-07-20T08:57:46Z</time>
      </trkpt>
      <trkpt lat="45.90758" lon="4.77659">
        <ele>180</ele>
        <time>2017-07-20T08:57:47Z</time>
      </trkpt>
      <trkpt lat="45.90763" lon="4.77658">
        <ele>180</ele>
        <time>2017-07-20T08:57:49Z</time>
      </trkpt>
      <trkpt lat="45.90767" lon="4.77659">
        <ele>180</ele>
        <time>2017-07-20T08:57:50Z</time>
      </trkpt>
      <trkpt lat="45.90772" lon="4.77662">
        <ele>180</ele>
        <time>2017-07-20T08:57:51Z</time>
      </trkpt>
      <trkpt lat="45.90776" lon="4.77664">
        <ele>180</ele>
        <time>2017-07-20T08:57:52Z</time>
      </trkpt>
      <trkpt lat="45.90784" lon="4.77668">
        <ele>180</ele>
        <time>2017-07-20T08:57:54Z</time>
      </trkpt>
      <trkpt lat="45.90788" lon="4.7767">
        <ele>180</ele>
        <time>2017-07-20T08:57:55Z</time>
      </trkpt>
      <trkpt lat="45.90795" lon="4.77672">
        <ele>179</ele>
        <time>2017-07-20T08:57:57Z</time>
      </trkpt>
      <trkpt lat="45.90798" lon="4.77673">
        <ele>179</ele>
        <time>2017-07-20T08:57:58Z</time>
      </trkpt>
      <trkpt lat="45.90805" lon="4.77675">
        <ele>179</ele>
        <time>2017-07-20T08:58:00Z</time>
      </trkpt>
      <trkpt lat="45.90809" lon="4.77675">
        <ele>179</ele>
        <time>2017-07-20T08:58:01Z</time>
      </trkpt>
      <trkpt lat="45.90815" lon="4.77677">
        <ele>179</ele>
        <time>2017-07-20T08:58:03Z</time>
      </trkpt>
      <trkpt lat="45.90818" lon="4.77678">
        <ele>179</ele>
        <time>2017-07-20T08:58:04Z</time>
      </trkpt>
      <trkpt lat="45.90825" lon="4.7768">
        <ele>179</ele>
        <time>2017-07-20T08:58:06Z</time>
      </trkpt>
      <trkpt lat="45.9083" lon="4.77681">
        <ele>179</ele>
        <time>2017-07-20T08:58:07Z</time>
      </trkpt>
      <trkpt lat="45.90835" lon="4.77681">
        <ele>178</ele>
        <time>2017-07-20T08:58:08Z</time>
      </trkpt>
      <trkpt lat="45.9084" lon="4.77684">
        <ele>178</ele>
        <time>2017-07-20T08:58:09Z</time>
      </trkpt>
      <trkpt lat="45.90844" lon="4.77687">
        <ele>178</ele>
        <time>2017-07-20T08:58:10Z</time>
      </trkpt>
      <trkpt lat="45.90848" lon="4.77691">
        <ele>178</ele>
        <time>2017-07-20T08:58:11Z</time>
      </trkpt>
      <trkpt lat="45.90853" lon="4.77696">
        <ele>178</ele>
        <time>2017-07-20T08:58:12Z</time>
      </trkpt>
      <trkpt lat="45.90857" lon="4.777">
        <ele>178</ele>
        <time>2017-07-20T08:58:13Z</time>
      </trkpt>
      <trkpt lat="45.90862" lon="4.77704">
        <ele>178</ele>
        <time>2017-07-20T08:58:14Z</time>
      </trkpt>
      <trkpt lat="45.90866" lon="4.77708">
        <ele>178</ele>
        <time>2017-07-20T08:58:15Z</time>
      </trkpt>
      <trkpt lat="45.90872" lon="4.77713">
        <ele>178</ele>
        <time>2017-07-20T08:58:16Z</time>
      </trkpt>
      <trkpt lat="45.90878" lon="4.77719">
        <ele>177</ele>
        <time>2017-07-20T08:58:17Z</time>
      </trkpt>
      <trkpt lat="45.90884" lon="4.77726">
        <ele>177</ele>
        <time>2017-07-20T08:58:18Z</time>
      </trkpt>
      <trkpt lat="45.9089" lon="4.77733">
        <ele>177</ele>
        <time>2017-07-20T08:58:19Z</time>
      </trkpt>
      <trkpt lat="45.90896" lon="4.7774">
        <ele>177</ele>
        <time>2017-07-20T08:58:20Z</time>
      </trkpt>
      <trkpt lat="45.90903" lon="4.77746">
        <ele>177</ele>
        <time>2017-07-20T08:58:21Z</time>
      </trkpt>
      <trkpt lat="45.90908" lon="4.77754">
        <ele>176</ele>
        <time>2017-07-20T08:58:22Z</time>
      </trkpt>
      <trkpt lat="45.90913" lon="4.77761">
        <ele>176</ele>
        <time>2017-07-20T08:58:23Z</time>
      </trkpt>
      <trkpt lat="45.90918" lon="4.77768">
        <ele>177</ele>
        <time>2017-07-20T08:58:24Z</time>
      </trkpt>
      <trkpt lat="45.90924" lon="4.77773">
        <ele>177</ele>
        <time>2017-07-20T08:58:25Z</time>
      </trkpt>
      <trkpt lat="45.90929" lon="4.7778">
        <ele>177</ele>
        <time>2017-07-20T08:58:26Z</time>
      </trkpt>
      <trkpt lat="45.90936" lon="4.77786">
        <ele>177</ele>
        <time>2017-07-20T08:58:27Z</time>
      </trkpt>
      <trkpt lat="45.90943" lon="4.7779">
        <ele>177</ele>
        <time>2017-07-20T08:58:28Z</time>
      </trkpt>
      <trkpt lat="45.9095" lon="4.77792">
        <ele>177</ele>
        <time>2017-07-20T08:58:29Z</time>
      </trkpt>
      <trkpt lat="45.90957" lon="4.77791">
        <ele>177</ele>
        <time>2017-07-20T08:58:30Z</time>
      </trkpt>
      <trkpt lat="45.90963" lon="4.77791">
        <ele>177</ele>
        <time>2017-07-20T08:58:31Z</time>
      </trkpt>
      <trkpt lat="45.90969" lon="4.77791">
        <ele>177</ele>
        <time>2017-07-20T08:58:32Z</time>
      </trkpt>
      <trkpt lat="45.90975" lon="4.7779">
        <ele>177</ele>
        <time>2017-07-20T08:58:33Z</time>
      </trkpt>
      <trkpt lat="45.90982" lon="4.77789">
        <ele>177</ele>
        <time>2017-07-20T08:58:34Z</time>
      </trkpt>
      <trkpt lat="45.90987" lon="4.77788">
        <ele>177</ele>
        <time>2017-07-20T08:58:35Z</time>
      </trkpt>
      <trkpt lat="45.90994" lon="4.77787">
        <ele>177</ele>
        <time>2017-07-20T08:58:36Z</time>
      </trkpt>
      <trkpt lat="45.90999" lon="4.77786">
        <ele>177</ele>
        <time>2017-07-20T08:58:37Z</time>
      </trkpt>
      <trkpt lat="45.91004" lon="4.77785">
        <ele>178</ele>
        <time>2017-07-20T08:58:38Z</time>
      </trkpt>
      <trkpt lat="45.91009" lon="4.77784">
        <ele>178</ele>
        <time>2017-07-20T08:58:39Z</time>
      </trkpt>
      <trkpt lat="45.91014" lon="4.77782">
        <ele>178</ele>
        <time>2017-07-20T08:58:40Z</time>
      </trkpt>
      <trkpt lat="45.91019" lon="4.7778">
        <ele>178</ele>
        <time>2017-07-20T08:58:41Z</time>
      </trkpt>
      <trkpt lat="45.91023" lon="4.77778">
        <ele>178</ele>
        <time>2017-07-20T08:58:42Z</time>
      </trkpt>
      <trkpt lat="45.91029" lon="4.77776">
        <ele>178</ele>
        <time>2017-07-20T08:58:43Z</time>
      </trkpt>
      <trkpt lat="45.91035" lon="4.77773">
        <ele>178</ele>
        <time>2017-07-20T08:58:44Z</time>
      </trkpt>
      <trkpt lat="45.9104" lon="4.7777">
        <ele>178</ele>
        <time>2017-07-20T08:58:45Z</time>
      </trkpt>
      <trkpt lat="45.91045" lon="4.77768">
        <ele>178</ele>
        <time>2017-07-20T08:58:46Z</time>
      </trkpt>
      <trkpt lat="45.91051" lon="4.77765">
        <ele>178</ele>
        <time>2017-07-20T08:58:47Z</time>
      </trkpt>
      <trkpt lat="45.91056" lon="4.77762">
        <ele>178</ele>
        <time>2017-07-20T08:58:48Z</time>
      </trkpt>
      <trkpt lat="45.91062" lon="4.77761">
        <ele>178</ele>
        <time>2017-07-20T08:58:49Z</time>
      </trkpt>
      <trkpt lat="45.91068" lon="4.7776">
        <ele>178</ele>
        <time>2017-07-20T08:58:50Z</time>
      </trkpt>
      <trkpt lat="45.91074" lon="4.77758">
        <ele>179</ele>
        <time>2017-07-20T08:58:51Z</time>
      </trkpt>
      <trkpt lat="45.91079" lon="4.77755">
        <ele>179</ele>
        <time>2017-07-20T08:58:52Z</time>
      </trkpt>
      <trkpt lat="45.91084" lon="4.77751">
        <ele>179</ele>
        <time>2017-07-20T08:58:53Z</time>
      </trkpt>
      <trkpt lat="45.91088" lon="4.77747">
        <ele>179</ele>
        <time>2017-07-20T08:58:54Z</time>
      </trkpt>
      <trkpt lat="45.91094" lon="4.77744">
        <ele>178</ele>
        <time>2017-07-20T08:58:55Z</time>
      </trkpt>
      <trkpt lat="45.91099" lon="4.77742">
        <ele>178</ele>
        <time>2017-07-20T08:58:56Z</time>
      </trkpt>
      <trkpt lat="45.91104" lon="4.77739">
        <ele>178</ele>
        <time>2017-07-20T08:58:57Z</time>
      </trkpt>
      <trkpt lat="45.91109" lon="4.77737">
        <ele>178</ele>
        <time>2017-07-20T08:58:58Z</time>
      </trkpt>
      <trkpt lat="45.91113" lon="4.77733">
        <ele>178</ele>
        <time>2017-07-20T08:58:59Z</time>
      </trkpt>
      <trkpt lat="45.91118" lon="4.77731">
        <ele>178</ele>
        <time>2017-07-20T08:59:00Z</time>
      </trkpt>
      <trkpt lat="45.91124" lon="4.77728">
        <ele>178</ele>
        <time>2017-07-20T08:59:01Z</time>
      </trkpt>
      <trkpt lat="45.9113" lon="4.77725">
        <ele>177</ele>
        <time>2017-07-20T08:59:02Z</time>
      </trkpt>
      <trkpt lat="45.91135" lon="4.77723">
        <ele>177</ele>
        <time>2017-07-20T08:59:03Z</time>
      </trkpt>
      <trkpt lat="45.91141" lon="4.77721">
        <ele>177</ele>
        <time>2017-07-20T08:59:04Z</time>
      </trkpt>
      <trkpt lat="45.91145" lon="4.7772">
        <ele>177</ele>
        <time>2017-07-20T08:59:05Z</time>
      </trkpt>
      <trkpt lat="45.9115" lon="4.77717">
        <ele>177</ele>
        <time>2017-07-20T08:59:06Z</time>
      </trkpt>
      <trkpt lat="45.91155" lon="4.77714">
        <ele>177</ele>
        <time>2017-07-20T08:59:07Z</time>
      </trkpt>
      <trkpt lat="45.91161" lon="4.77714">
        <ele>177</ele>
        <time>2017-07-20T08:59:08Z</time>
      </trkpt>
      <trkpt lat="45.91166" lon="4.77711">
        <ele>177</ele>
        <time>2017-07-20T08:59:09Z</time>
      </trkpt>
      <trkpt lat="45.91171" lon="4.77709">
        <ele>177</ele>
        <time>2017-07-20T08:59:10Z</time>
      </trkpt>
      <trkpt lat="45.91177" lon="4.77707">
        <ele>176</ele>
        <time>2017-07-20T08:59:11Z</time>
      </trkpt>
      <trkpt lat="45.91182" lon="4.77705">
        <ele>176</ele>
        <time>2017-07-20T08:59:12Z</time>
      </trkpt>
      <trkpt lat="45.91188" lon="4.77703">
        <ele>176</ele>
        <time>2017-07-20T08:59:13Z</time>
      </trkpt>
      <trkpt lat="45.91193" lon="4.77701">
        <ele>176</ele>
        <time>2017-07-20T08:59:14Z</time>
      </trkpt>
      <trkpt lat="45.91198" lon="4.77698">
        <ele>176</ele>
        <time>2017-07-20T08:59:15Z</time>
      </trkpt>
      <trkpt lat="45.91204" lon="4.77697">
        <ele>176</ele>
        <time>2017-07-20T08:59:16Z</time>
      </trkpt>
      <trkpt lat="45.91209" lon="4.77695">
        <ele>176</ele>
        <time>2017-07-20T08:59:17Z</time>
      </trkpt>
      <trkpt lat="45.91214" lon="4.77693">
        <ele>176</ele>
        <time>2017-07-20T08:59:18Z</time>
      </trkpt>
      <trkpt lat="45.91218" lon="4.77692">
        <ele>176</ele>
        <time>2017-07-20T08:59:19Z</time>
      </trkpt>
      <trkpt lat="45.91224" lon="4.7769">
        <ele>176</ele>
        <time>2017-07-20T08:59:20Z</time>
      </trkpt>
      <trkpt lat="45.91229" lon="4.77689">
        <ele>176</ele>
        <time>2017-07-20T08:59:21Z</time>
      </trkpt>
      <trkpt lat="45.91234" lon="4.77688">
        <ele>176</ele>
        <time>2017-07-20T08:59:22Z</time>
      </trkpt>
      <trkpt lat="45.91239" lon="4.77686">
        <ele>176</ele>
        <time>2017-07-20T08:59:23Z</time>
      </trkpt>
      <trkpt lat="45.91245" lon="4.77684">
        <ele>176</ele>
        <time>2017-07-20T08:59:24Z</time>
      </trkpt>
      <trkpt lat="45.91251" lon="4.77684">
        <ele>176</ele>
        <time>2017-07-20T08:59:25Z</time>
      </trkpt>
      <trkpt lat="45.91257" lon="4.77685">
        <ele>176</ele>
        <time>2017-07-20T08:59:26Z</time>
      </trkpt>
      <trkpt lat="45.91262" lon="4.77686">
        <ele>176</ele>
        <time>2017-07-20T08:59:27Z</time>
      </trkpt>
      <trkpt lat="45.91266" lon="4.77688">
        <ele>176</ele>
        <time>2017-07-20T08:59:28Z</time>
      </trkpt>
      <trkpt lat="45.9127" lon="4.7769">
        <ele>176</ele>
        <time>2017-07-20T08:59:29Z</time>
      </trkpt>
      <trkpt lat="45.91274" lon="4.77693">
        <ele>176</ele>
        <time>2017-07-20T08:59:30Z</time>
      </trkpt>
      <trkpt lat="45.91279" lon="4.77698">
        <ele>176</ele>
        <time>2017-07-20T08:59:31Z</time>
      </trkpt>
      <trkpt lat="45.91284" lon="4.77702">
        <ele>176</ele>
        <time>2017-07-20T08:59:32Z</time>
      </trkpt>
      <trkpt lat="45.91289" lon="4.77706">
        <ele>176</ele>
        <time>2017-07-20T08:59:33Z</time>
      </trkpt>
      <trkpt lat="45.91294" lon="4.77709">
        <ele>176</ele>
        <time>2017-07-20T08:59:34Z</time>
      </trkpt>
      <trkpt lat="45.913" lon="4.77712">
        <ele>176</ele>
        <time>2017-07-20T08:59:35Z</time>
      </trkpt>
      <trkpt lat="45.91305" lon="4.77715">
        <ele>176</ele>
        <time>2017-07-20T08:59:36Z</time>
      </trkpt>
      <trkpt lat="45.91311" lon="4.77717">
        <ele>176</ele>
        <time>2017-07-20T08:59:37Z</time>
      </trkpt>
      <trkpt lat="45.91316" lon="4.77719">
        <ele>176</ele>
        <time>2017-07-20T08:59:38Z</time>
      </trkpt>
      <trkpt lat="45.9132" lon="4.7772">
        <ele>176</ele>
        <time>2017-07-20T08:59:39Z</time>
      </trkpt>
      <trkpt lat="45.91326" lon="4.77722">
        <ele>176</ele>
        <time>2017-07-20T08:59:40Z</time>
      </trkpt>
      <trkpt lat="45.91331" lon="4.77724">
        <ele>176</ele>
        <time>2017-07-20T08:59:41Z</time>
      </trkpt>
      <trkpt lat="45.91336" lon="4.77725">
        <ele>176</ele>
        <time>2017-07-20T08:59:42Z</time>
      </trkpt>
      <trkpt lat="45.91341" lon="4.77725">
        <ele>176</ele>
        <time>2017-07-20T08:59:43Z</time>
      </trkpt>
      <trkpt lat="45.91346" lon="4.77725">
        <ele>176</ele>
        <time>2017-07-20T08:59:44Z</time>
      </trkpt>
      <trkpt lat="45.91352" lon="4.77726">
        <ele>176</ele>
        <time>2017-07-20T08:59:45Z</time>
      </trkpt>
      <trkpt lat="45.91357" lon="4.77725">
        <ele>176</ele>
        <time>2017-07-20T08:59:46Z</time>
      </trkpt>
      <trkpt lat="45.91362" lon="4.77725">
        <ele>176</ele>
        <time>2017-07-20T08:59:47Z</time>
      </trkpt>
      <trkpt lat="45.91367" lon="4.77725">
        <ele>176</ele>
        <time>2017-07-20T08:59:48Z</time>
      </trkpt>
      <trkpt lat="45.91371" lon="4.77725">
        <ele>176</ele>
        <time>2017-07-20T08:59:49Z</time>
      </trkpt>
      <trkpt lat="45.91376" lon="4.77725">
        <ele>176</ele>
        <time>2017-07-20T08:59:50Z</time>
      </trkpt>
      <trkpt lat="45.91381" lon="4.77723">
        <ele>177</ele>
        <time>2017-07-20T08:59:51Z</time>
      </trkpt>
      <trkpt lat="45.91386" lon="4.77721">
        <ele>177</ele>
        <time>2017-07-20T08:59:52Z</time>
      </trkpt>
      <trkpt lat="45.91391" lon="4.7772">
        <ele>177</ele>
        <time>2017-07-20T08:59:53Z</time>
      </trkpt>
      <trkpt lat="45.91396" lon="4.7772">
        <ele>177</ele>
        <time>2017-07-20T08:59:55Z</time>
      </trkpt>
      <trkpt lat="45.91399" lon="4.77717">
        <ele>177</ele>
        <time>2017-07-20T08:59:56Z</time>
      </trkpt>
      <trkpt lat="45.91403" lon="4.77715">
        <ele>177</ele>
        <time>2017-07-20T08:59:57Z</time>
      </trkpt>
      <trkpt lat="45.91408" lon="4.77711">
        <ele>177</ele>
        <time>2017-07-20T08:59:58Z</time>
      </trkpt>
      <trkpt lat="45.91414" lon="4.77703">
        <ele>176</ele>
        <time>2017-07-20T09:00:01Z</time>
      </trkpt>
      <trkpt lat="45.91416" lon="4.77698">
        <ele>176</ele>
        <time>2017-07-20T09:00:02Z</time>
      </trkpt>
      <trkpt lat="45.91417" lon="4.77689">
        <ele>176</ele>
        <time>2017-07-20T09:00:04Z</time>
      </trkpt>
      <trkpt lat="45.91417" lon="4.77684">
        <ele>177</ele>
        <time>2017-07-20T09:00:05Z</time>
      </trkpt>
      <trkpt lat="45.91416" lon="4.77674">
        <ele>176</ele>
        <time>2017-07-20T09:00:07Z</time>
      </trkpt>
      <trkpt lat="45.91413" lon="4.77669">
        <ele>176</ele>
        <time>2017-07-20T09:00:08Z</time>
      </trkpt>
      <trkpt lat="45.91413" lon="4.77657">
        <ele>175</ele>
        <time>2017-07-20T09:00:10Z</time>
      </trkpt>
      <trkpt lat="45.91412" lon="4.7765">
        <ele>175</ele>
        <time>2017-07-20T09:00:11Z</time>
      </trkpt>
      <trkpt lat="45.91411" lon="4.77644">
        <ele>175</ele>
        <time>2017-07-20T09:00:12Z</time>
      </trkpt>
      <trkpt lat="45.9141" lon="4.77638">
        <ele>175</ele>
        <time>2017-07-20T09:00:13Z</time>
      </trkpt>
      <trkpt lat="45.9141" lon="4.7763">
        <ele>175</ele>
        <time>2017-07-20T09:00:14Z</time>
      </trkpt>
      <trkpt lat="45.91412" lon="4.77623">
        <ele>175</ele>
        <time>2017-07-20T09:00:15Z</time>
      </trkpt>
      <trkpt lat="45.91411" lon="4.77616">
        <ele>175</ele>
        <time>2017-07-20T09:00:16Z</time>
      </trkpt>
      <trkpt lat="45.9141" lon="4.77608">
        <ele>174</ele>
        <time>2017-07-20T09:00:17Z</time>
      </trkpt>
      <trkpt lat="45.9141" lon="4.77601">
        <ele>174</ele>
        <time>2017-07-20T09:00:18Z</time>
      </trkpt>
      <trkpt lat="45.91409" lon="4.77594">
        <ele>174</ele>
        <time>2017-07-20T09:00:19Z</time>
      </trkpt>
      <trkpt lat="45.91409" lon="4.77586">
        <ele>174</ele>
        <time>2017-07-20T09:00:20Z</time>
      </trkpt>
      <trkpt lat="45.9141" lon="4.77578">
        <ele>174</ele>
        <time>2017-07-20T09:00:21Z</time>
      </trkpt>
      <trkpt lat="45.9141" lon="4.77571">
        <ele>174</ele>
        <time>2017-07-20T09:00:22Z</time>
      </trkpt>
      <trkpt lat="45.9141" lon="4.77564">
        <ele>174</ele>
        <time>2017-07-20T09:00:23Z</time>
      </trkpt>
      <trkpt lat="45.91408" lon="4.77556">
        <ele>174</ele>
        <time>2017-07-20T09:00:24Z</time>
      </trkpt>
      <trkpt lat="45.91407" lon="4.77549">
        <ele>174</ele>
        <time>2017-07-20T09:00:25Z</time>
      </trkpt>
      <trkpt lat="45.91406" lon="4.77542">
        <ele>174</ele>
        <time>2017-07-20T09:00:26Z</time>
      </trkpt>
      <trkpt lat="45.91406" lon="4.77534">
        <ele>174</ele>
        <time>2017-07-20T09:00:27Z</time>
      </trkpt>
      <trkpt lat="45.91404" lon="4.77527">
        <ele>174</ele>
        <time>2017-07-20T09:00:28Z</time>
      </trkpt>
      <trkpt lat="45.91401" lon="4.77518">
        <ele>174</ele>
        <time>2017-07-20T09:00:29Z</time>
      </trkpt>
      <trkpt lat="45.91399" lon="4.77511">
        <ele>174</ele>
        <time>2017-07-20T09:00:30Z</time>
      </trkpt>
      <trkpt lat="45.91399" lon="4.77505">
        <ele>174</ele>
        <time>2017-07-20T09:00:31Z</time>
      </trkpt>
      <trkpt lat="45.914" lon="4.77498">
        <ele>174</ele>
        <time>2017-07-20T09:00:32Z</time>
      </trkpt>
      <trkpt lat="45.91401" lon="4.77491">
        <ele>174</ele>
        <time>2017-07-20T09:00:33Z</time>
      </trkpt>
      <trkpt lat="45.914" lon="4.77484">
        <ele>174</ele>
        <time>2017-07-20T09:00:34Z</time>
      </trkpt>
      <trkpt lat="45.91399" lon="4.77478">
        <ele>174</ele>
        <time>2017-07-20T09:00:35Z</time>
      </trkpt>
      <trkpt lat="45.91397" lon="4.7747">
        <ele>174</ele>
        <time>2017-07-20T09:00:36Z</time>
      </trkpt>
      <trkpt lat="45.91397" lon="4.77463">
        <ele>174</ele>
        <time>2017-07-20T09:00:37Z</time>
      </trkpt>
      <trkpt lat="45.91397" lon="4.77454">
        <ele>174</ele>
        <time>2017-07-20T09:00:38Z</time>
      </trkpt>
      <trkpt lat="45.91396" lon="4.77445">
        <ele>174</ele>
        <time>2017-07-20T09:00:39Z</time>
      </trkpt>
      <trkpt lat="45.91395" lon="4.77437">
        <ele>174</ele>
        <time>2017-07-20T09:00:40Z</time>
      </trkpt>
      <trkpt lat="45.91395" lon="4.77429">
        <ele>174</ele>
        <time>2017-07-20T09:00:41Z</time>
      </trkpt>
      <trkpt lat="45.91394" lon="4.77421">
        <ele>174</ele>
        <time>2017-07-20T09:00:42Z</time>
      </trkpt>
      <trkpt lat="45.91394" lon="4.77414">
        <ele>174</ele>
        <time>2017-07-20T09:00:43Z</time>
      </trkpt>
      <trkpt lat="45.91394" lon="4.77408">
        <ele>174</ele>
        <time>2017-07-20T09:00:44Z</time>
      </trkpt>
      <trkpt lat="45.91395" lon="4.77401">
        <ele>174</ele>
        <time>2017-07-20T09:00:45Z</time>
      </trkpt>
      <trkpt lat="45.91395" lon="4.77388">
        <ele>174</ele>
        <time>2017-07-20T09:00:47Z</time>
      </trkpt>
      <trkpt lat="45.91395" lon="4.77382">
        <ele>174</ele>
        <time>2017-07-20T09:00:48Z</time>
      </trkpt>
      <trkpt lat="45.91394" lon="4.77376">
        <ele>174</ele>
        <time>2017-07-20T09:00:49Z</time>
      </trkpt>
      <trkpt lat="45.91395" lon="4.77367">
        <ele>174</ele>
        <time>2017-07-20T09:00:50Z</time>
      </trkpt>
      <trkpt lat="45.91395" lon="4.77359">
        <ele>174</ele>
        <time>2017-07-20T09:00:51Z</time>
      </trkpt>
      <trkpt lat="45.91395" lon="4.77351">
        <ele>174</ele>
        <time>2017-07-20T09:00:52Z</time>
      </trkpt>
      <trkpt lat="45.91394" lon="4.77344">
        <ele>174</ele>
        <time>2017-07-20T09:00:53Z</time>
      </trkpt>
      <trkpt lat="45.91393" lon="4.77336">
        <ele>174</ele>
        <time>2017-07-20T09:00:54Z</time>
      </trkpt>
      <trkpt lat="45.91392" lon="4.77329">
        <ele>175</ele>
        <time>2017-07-20T09:00:55Z</time>
      </trkpt>
      <trkpt lat="45.91392" lon="4.77323">
        <ele>175</ele>
        <time>2017-07-20T09:00:56Z</time>
      </trkpt>
      <trkpt lat="45.91391" lon="4.7731">
        <ele>175</ele>
        <time>2017-07-20T09:00:58Z</time>
      </trkpt>
      <trkpt lat="45.91391" lon="4.77304">
        <ele>175</ele>
        <time>2017-07-20T09:00:59Z</time>
      </trkpt>
      <trkpt lat="45.91391" lon="4.77297">
        <ele>175</ele>
        <time>2017-07-20T09:01:00Z</time>
      </trkpt>
      <trkpt lat="45.91391" lon="4.77291">
        <ele>175</ele>
        <time>2017-07-20T09:01:01Z</time>
      </trkpt>
      <trkpt lat="45.9139" lon="4.77282">
        <ele>175</ele>
        <time>2017-07-20T09:01:02Z</time>
      </trkpt>
      <trkpt lat="45.91389" lon="4.77275">
        <ele>175</ele>
        <time>2017-07-20T09:01:03Z</time>
      </trkpt>
      <trkpt lat="45.91388" lon="4.77267">
        <ele>175</ele>
        <time>2017-07-20T09:01:04Z</time>
      </trkpt>
      <trkpt lat="45.91387" lon="4.7726">
        <ele>175</ele>
        <time>2017-07-20T09:01:05Z</time>
      </trkpt>
      <trkpt lat="45.91386" lon="4.77253">
        <ele>175</ele>
        <time>2017-07-20T09:01:06Z</time>
      </trkpt>
      <trkpt lat="45.91385" lon="4.77246">
        <ele>176</ele>
        <time>2017-07-20T09:01:07Z</time>
      </trkpt>
      <trkpt lat="45.91384" lon="4.7724">
        <ele>176</ele>
        <time>2017-07-20T09:01:08Z</time>
      </trkpt>
      <trkpt lat="45.91383" lon="4.77233">
        <ele>176</ele>
        <time>2017-07-20T09:01:09Z</time>
      </trkpt>
      <trkpt lat="45.91383" lon="4.77227">
        <ele>176</ele>
        <time>2017-07-20T09:01:10Z</time>
      </trkpt>
      <trkpt lat="45.91382" lon="4.7722">
        <ele>176</ele>
        <time>2017-07-20T09:01:11Z</time>
      </trkpt>
      <trkpt lat="45.9138" lon="4.77214">
        <ele>176</ele>
        <time>2017-07-20T09:01:12Z</time>
      </trkpt>
      <trkpt lat="45.91379" lon="4.77207">
        <ele>176</ele>
        <time>2017-07-20T09:01:13Z</time>
      </trkpt>
      <trkpt lat="45.91378" lon="4.772">
        <ele>176</ele>
        <time>2017-07-20T09:01:14Z</time>
      </trkpt>
      <trkpt lat="45.91377" lon="4.77193">
        <ele>176</ele>
        <time>2017-07-20T09:01:15Z</time>
      </trkpt>
      <trkpt lat="45.91376" lon="4.77186">
        <ele>176</ele>
        <time>2017-07-20T09:01:16Z</time>
      </trkpt>
      <trkpt lat="45.91374" lon="4.77179">
        <ele>176</ele>
        <time>2017-07-20T09:01:17Z</time>
      </trkpt>
      <trkpt lat="45.91373" lon="4.77172">
        <ele>176</ele>
        <time>2017-07-20T09:01:18Z</time>
      </trkpt>
      <trkpt lat="45.91371" lon="4.77165">
        <ele>177</ele>
        <time>2017-07-20T09:01:19Z</time>
      </trkpt>
      <trkpt lat="45.91368" lon="4.77154">
        <ele>177</ele>
        <time>2017-07-20T09:01:21Z</time>
      </trkpt>
      <trkpt lat="45.91366" lon="4.77149">
        <ele>177</ele>
        <time>2017-07-20T09:01:22Z</time>
      </trkpt>
      <trkpt lat="45.91362" lon="4.77139">
        <ele>177</ele>
        <time>2017-07-20T09:01:24Z</time>
      </trkpt>
      <trkpt lat="45.91361" lon="4.77134">
        <ele>177</ele>
        <time>2017-07-20T09:01:25Z</time>
      </trkpt>
      <trkpt lat="45.91359" lon="4.77127">
        <ele>177</ele>
        <time>2017-07-20T09:01:26Z</time>
      </trkpt>
      <trkpt lat="45.91357" lon="4.77119">
        <ele>177</ele>
        <time>2017-07-20T09:01:27Z</time>
      </trkpt>
      <trkpt lat="45.91355" lon="4.77112">
        <ele>177</ele>
        <time>2017-07-20T09:01:28Z</time>
      </trkpt>
      <trkpt lat="45.91353" lon="4.77106">
        <ele>177</ele>
        <time>2017-07-20T09:01:29Z</time>
      </trkpt>
      <trkpt lat="45.91351" lon="4.77099">
        <ele>177</ele>
        <time>2017-07-20T09:01:30Z</time>
      </trkpt>
      <trkpt lat="45.9135" lon="4.77093">
        <ele>177</ele>
        <time>2017-07-20T09:01:31Z</time>
      </trkpt>
      <trkpt lat="45.91348" lon="4.77086">
        <ele>177</ele>
        <time>2017-07-20T09:01:32Z</time>
      </trkpt>
      <trkpt lat="45.91346" lon="4.7708">
        <ele>177</ele>
        <time>2017-07-20T09:01:33Z</time>
      </trkpt>
      <trkpt lat="45.91345" lon="4.77074">
        <ele>177</ele>
        <time>2017-07-20T09:01:34Z</time>
      </trkpt>
      <trkpt lat="45.91344" lon="4.77067">
        <ele>176</ele>
        <time>2017-07-20T09:01:35Z</time>
      </trkpt>
      <trkpt lat="45.91344" lon="4.77061">
        <ele>176</ele>
        <time>2017-07-20T09:01:36Z</time>
      </trkpt>
      <trkpt lat="45.91342" lon="4.77054">
        <ele>176</ele>
        <time>2017-07-20T09:01:37Z</time>
      </trkpt>
      <trkpt lat="45.91341" lon="4.77047">
        <ele>176</ele>
        <time>2017-07-20T09:01:38Z</time>
      </trkpt>
      <trkpt lat="45.91339" lon="4.7704">
        <ele>176</ele>
        <time>2017-07-20T09:01:39Z</time>
      </trkpt>
      <trkpt lat="45.9134" lon="4.77028">
        <ele>176</ele>
        <time>2017-07-20T09:01:41Z</time>
      </trkpt>
      <trkpt lat="45.9134" lon="4.77021">
        <ele>176</ele>
        <time>2017-07-20T09:01:42Z</time>
      </trkpt>
      <trkpt lat="45.91339" lon="4.77013">
        <ele>176</ele>
        <time>2017-07-20T09:01:43Z</time>
      </trkpt>
      <trkpt lat="45.91338" lon="4.77007">
        <ele>176</ele>
        <time>2017-07-20T09:01:44Z</time>
      </trkpt>
      <trkpt lat="45.91337" lon="4.77001">
        <ele>176</ele>
        <time>2017-07-20T09:01:45Z</time>
      </trkpt>
      <trkpt lat="45.91336" lon="4.76994">
        <ele>176</ele>
        <time>2017-07-20T09:01:46Z</time>
      </trkpt>
      <trkpt lat="45.91335" lon="4.76987">
        <ele>176</ele>
        <time>2017-07-20T09:01:47Z</time>
      </trkpt>
      <trkpt lat="45.91333" lon="4.7698">
        <ele>175</ele>
        <time>2017-07-20T09:01:48Z</time>
      </trkpt>
      <trkpt lat="45.91333" lon="4.76971">
        <ele>175</ele>
        <time>2017-07-20T09:01:49Z</time>
      </trkpt>
      <trkpt lat="45.9133" lon="4.76961">
        <ele>175</ele>
        <time>2017-07-20T09:01:50Z</time>
      </trkpt>
      <trkpt lat="45.91331" lon="4.76952">
        <ele>175</ele>
        <time>2017-07-20T09:01:51Z</time>
      </trkpt>
      <trkpt lat="45.91332" lon="4.76942">
        <ele>175</ele>
        <time>2017-07-20T09:01:52Z</time>
      </trkpt>
      <trkpt lat="45.91332" lon="4.76933">
        <ele>175</ele>
        <time>2017-07-20T09:01:53Z</time>
      </trkpt>
      <trkpt lat="45.91331" lon="4.76924">
        <ele>175</ele>
        <time>2017-07-20T09:01:54Z</time>
      </trkpt>
      <trkpt lat="45.91327" lon="4.76916">
        <ele>175</ele>
        <time>2017-07-20T09:01:55Z</time>
      </trkpt>
      <trkpt lat="45.91326" lon="4.76908">
        <ele>175</ele>
        <time>2017-07-20T09:01:56Z</time>
      </trkpt>
      <trkpt lat="45.91325" lon="4.76895">
        <ele>175</ele>
        <time>2017-07-20T09:01:58Z</time>
      </trkpt>
      <trkpt lat="45.91325" lon="4.76889">
        <ele>175</ele>
        <time>2017-07-20T09:01:59Z</time>
      </trkpt>
      <trkpt lat="45.91326" lon="4.76876">
        <ele>175</ele>
        <time>2017-07-20T09:02:01Z</time>
      </trkpt>
      <trkpt lat="45.91326" lon="4.76869">
        <ele>175</ele>
        <time>2017-07-20T09:02:02Z</time>
      </trkpt>
      <trkpt lat="45.91326" lon="4.76863">
        <ele>175</ele>
        <time>2017-07-20T09:02:03Z</time>
      </trkpt>
      <trkpt lat="45.91326" lon="4.76855">
        <ele>175</ele>
        <time>2017-07-20T09:02:04Z</time>
      </trkpt>
      <trkpt lat="45.91325" lon="4.76847">
        <ele>175</ele>
        <time>2017-07-20T09:02:05Z</time>
      </trkpt>
      <trkpt lat="45.91326" lon="4.76839">
        <ele>174</ele>
        <time>2017-07-20T09:02:06Z</time>
      </trkpt>
      <trkpt lat="45.91325" lon="4.76831">
        <ele>174</ele>
        <time>2017-07-20T09:02:07Z</time>
      </trkpt>
      <trkpt lat="45.91325" lon="4.76823">
        <ele>175</ele>
        <time>2017-07-20T09:02:08Z</time>
      </trkpt>
      <trkpt lat="45.91326" lon="4.76815">
        <ele>175</ele>
        <time>2017-07-20T09:02:09Z</time>
      </trkpt>
      <trkpt lat="45.91327" lon="4.76807">
        <ele>175</ele>
        <time>2017-07-20T09:02:10Z</time>
      </trkpt>
      <trkpt lat="45.91326" lon="4.76799">
        <ele>175</ele>
        <time>2017-07-20T09:02:11Z</time>
      </trkpt>
      <trkpt lat="45.91326" lon="4.76791">
        <ele>175</ele>
        <time>2017-07-20T09:02:12Z</time>
      </trkpt>
      <trkpt lat="45.91327" lon="4.76784">
        <ele>175</ele>
        <time>2017-07-20T09:02:13Z</time>
      </trkpt>
      <trkpt lat="45.91327" lon="4.76776">
        <ele>176</ele>
        <time>2017-07-20T09:02:14Z</time>
      </trkpt>
      <trkpt lat="45.91328" lon="4.76764">
        <ele>176</ele>
        <time>2017-07-20T09:02:16Z</time>
      </trkpt>
      <trkpt lat="45.91328" lon="4.76757">
        <ele>176</ele>
        <time>2017-07-20T09:02:17Z</time>
      </trkpt>
      <trkpt lat="45.91329" lon="4.76751">
        <ele>176</ele>
        <time>2017-07-20T09:02:18Z</time>
      </trkpt>
      <trkpt lat="45.91329" lon="4.76744">
        <ele>176</ele>
        <time>2017-07-20T09:02:19Z</time>
      </trkpt>
      <trkpt lat="45.91329" lon="4.76737">
        <ele>176</ele>
        <time>2017-07-20T09:02:20Z</time>
      </trkpt>
      <trkpt lat="45.9133" lon="4.76729">
        <ele>176</ele>
        <time>2017-07-20T09:02:21Z</time>
      </trkpt>
      <trkpt lat="45.91331" lon="4.76722">
        <ele>176</ele>
        <time>2017-07-20T09:02:22Z</time>
      </trkpt>
      <trkpt lat="45.91331" lon="4.76716">
        <ele>176</ele>
        <time>2017-07-20T09:02:23Z</time>
      </trkpt>
      <trkpt lat="45.91332" lon="4.76705">
        <ele>176</ele>
        <time>2017-07-20T09:02:25Z</time>
      </trkpt>
      <trkpt lat="45.91334" lon="4.76701">
        <ele>176</ele>
        <time>2017-07-20T09:02:26Z</time>
      </trkpt>
      <trkpt lat="45.91339" lon="4.7669">
        <ele>176</ele>
        <time>2017-07-20T09:02:28Z</time>
      </trkpt>
      <trkpt lat="45.91341" lon="4.76685">
        <ele>176</ele>
        <time>2017-07-20T09:02:29Z</time>
      </trkpt>
      <trkpt lat="45.91345" lon="4.76675">
        <ele>176</ele>
        <time>2017-07-20T09:02:31Z</time>
      </trkpt>
      <trkpt lat="45.91347" lon="4.7667">
        <ele>176</ele>
        <time>2017-07-20T09:02:32Z</time>
      </trkpt>
      <trkpt lat="45.9135" lon="4.76664">
        <ele>176</ele>
        <time>2017-07-20T09:02:33Z</time>
      </trkpt>
      <trkpt lat="45.91352" lon="4.76658">
        <ele>176</ele>
        <time>2017-07-20T09:02:34Z</time>
      </trkpt>
      <trkpt lat="45.91355" lon="4.76651">
        <ele>176</ele>
        <time>2017-07-20T09:02:35Z</time>
      </trkpt>
      <trkpt lat="45.91358" lon="4.76645">
        <ele>176</ele>
        <time>2017-07-20T09:02:36Z</time>
      </trkpt>
      <trkpt lat="45.91362" lon="4.76639">
        <ele>176</ele>
        <time>2017-07-20T09:02:37Z</time>
      </trkpt>
      <trkpt lat="45.91365" lon="4.76633">
        <ele>176</ele>
        <time>2017-07-20T09:02:38Z</time>
      </trkpt>
      <trkpt lat="45.91368" lon="4.76628">
        <ele>176</ele>
        <time>2017-07-20T09:02:39Z</time>
      </trkpt>
      <trkpt lat="45.91371" lon="4.76623">
        <ele>176</ele>
        <time>2017-07-20T09:02:40Z</time>
      </trkpt>
      <trkpt lat="45.91376" lon="4.76613">
        <ele>176</ele>
        <time>2017-07-20T09:02:42Z</time>
      </trkpt>
      <trkpt lat="45.91378" lon="4.76608">
        <ele>176</ele>
        <time>2017-07-20T09:02:43Z</time>
      </trkpt>
      <trkpt lat="45.91383" lon="4.76599">
        <ele>176</ele>
        <time>2017-07-20T09:02:45Z</time>
      </trkpt>
      <trkpt lat="45.91386" lon="4.76594">
        <ele>176</ele>
        <time>2017-07-20T09:02:46Z</time>
      </trkpt>
      <trkpt lat="45.91389" lon="4.76589">
        <ele>176</ele>
        <time>2017-07-20T09:02:47Z</time>
      </trkpt>
      <trkpt lat="45.91392" lon="4.76584">
        <ele>177</ele>
        <time>2017-07-20T09:02:48Z</time>
      </trkpt>
      <trkpt lat="45.91395" lon="4.76579">
        <ele>177</ele>
        <time>2017-07-20T09:02:49Z</time>
      </trkpt>
      <trkpt lat="45.91398" lon="4.76573">
        <ele>177</ele>
        <time>2017-07-20T09:02:50Z</time>
      </trkpt>
      <trkpt lat="45.91402" lon="4.76568">
        <ele>177</ele>
        <time>2017-07-20T09:02:51Z</time>
      </trkpt>
      <trkpt lat="45.91405" lon="4.76562">
        <ele>177</ele>
        <time>2017-07-20T09:02:52Z</time>
      </trkpt>
      <trkpt lat="45.91408" lon="4.76557">
        <ele>177</ele>
        <time>2017-07-20T09:02:53Z</time>
      </trkpt>
      <trkpt lat="45.91411" lon="4.76551">
        <ele>177</ele>
        <time>2017-07-20T09:02:54Z</time>
      </trkpt>
      <trkpt lat="45.91416" lon="4.76542">
        <ele>177</ele>
        <time>2017-07-20T09:02:56Z</time>
      </trkpt>
      <trkpt lat="45.91419" lon="4.76537">
        <ele>177</ele>
        <time>2017-07-20T09:02:57Z</time>
      </trkpt>
      <trkpt lat="45.91422" lon="4.76531">
        <ele>177</ele>
        <time>2017-07-20T09:02:58Z</time>
      </trkpt>
      <trkpt lat="45.91425" lon="4.76526">
        <ele>177</ele>
        <time>2017-07-20T09:02:59Z</time>
      </trkpt>
      <trkpt lat="45.91428" lon="4.76521">
        <ele>177</ele>
        <time>2017-07-20T09:03:00Z</time>
      </trkpt>
      <trkpt lat="45.91431" lon="4.76515">
        <ele>177</ele>
        <time>2017-07-20T09:03:01Z</time>
      </trkpt>
      <trkpt lat="45.91434" lon="4.7651">
        <ele>177</ele>
        <time>2017-07-20T09:03:02Z</time>
      </trkpt>
      <trkpt lat="45.91437" lon="4.76505">
        <ele>177</ele>
        <time>2017-07-20T09:03:03Z</time>
      </trkpt>
      <trkpt lat="45.91443" lon="4.76495">
        <ele>177</ele>
        <time>2017-07-20T09:03:05Z</time>
      </trkpt>
      <trkpt lat="45.91445" lon="4.7649">
        <ele>177</ele>
        <time>2017-07-20T09:03:06Z</time>
      </trkpt>
      <trkpt lat="45.9145" lon="4.76481">
        <ele>177</ele>
        <time>2017-07-20T09:03:08Z</time>
      </trkpt>
      <trkpt lat="45.91452" lon="4.76477">
        <ele>177</ele>
        <time>2017-07-20T09:03:09Z</time>
      </trkpt>
      <trkpt lat="45.91455" lon="4.76472">
        <ele>177</ele>
        <time>2017-07-20T09:03:10Z</time>
      </trkpt>
      <trkpt lat="45.91458" lon="4.76467">
        <ele>177</ele>
        <time>2017-07-20T09:03:11Z</time>
      </trkpt>
      <trkpt lat="45.91461" lon="4.76462">
        <ele>177</ele>
        <time>2017-07-20T09:03:12Z</time>
      </trkpt>
      <trkpt lat="45.91464" lon="4.76457">
        <ele>177</ele>
        <time>2017-07-20T09:03:13Z</time>
      </trkpt>
      <trkpt lat="45.91466" lon="4.76451">
        <ele>177</ele>
        <time>2017-07-20T09:03:14Z</time>
      </trkpt>
      <trkpt lat="45.9147" lon="4.76446">
        <ele>177</ele>
        <time>2017-07-20T09:03:15Z</time>
      </trkpt>
      <trkpt lat="45.91473" lon="4.76441">
        <ele>176</ele>
        <time>2017-07-20T09:03:16Z</time>
      </trkpt>
      <trkpt lat="45.91476" lon="4.76436">
        <ele>176</ele>
        <time>2017-07-20T09:03:17Z</time>
      </trkpt>
      <trkpt lat="45.91482" lon="4.76427">
        <ele>176</ele>
        <time>2017-07-20T09:03:19Z</time>
      </trkpt>
      <trkpt lat="45.91485" lon="4.76422">
        <ele>176</ele>
        <time>2017-07-20T09:03:20Z</time>
      </trkpt>
      <trkpt lat="45.9149" lon="4.76413">
        <ele>176</ele>
        <time>2017-07-20T09:03:22Z</time>
      </trkpt>
      <trkpt lat="45.91493" lon="4.76408">
        <ele>176</ele>
        <time>2017-07-20T09:03:23Z</time>
      </trkpt>
      <trkpt lat="45.91496" lon="4.76403">
        <ele>176</ele>
        <time>2017-07-20T09:03:24Z</time>
      </trkpt>
      <trkpt lat="45.91499" lon="4.76398">
        <ele>176</ele>
        <time>2017-07-20T09:03:25Z</time>
      </trkpt>
      <trkpt lat="45.91502" lon="4.76392">
        <ele>175</ele>
        <time>2017-07-20T09:03:26Z</time>
      </trkpt>
      <trkpt lat="45.91505" lon="4.76386">
        <ele>176</ele>
        <time>2017-07-20T09:03:27Z</time>
      </trkpt>
      <trkpt lat="45.91507" lon="4.7638">
        <ele>176</ele>
        <time>2017-07-20T09:03:28Z</time>
      </trkpt>
      <trkpt lat="45.9151" lon="4.76375">
        <ele>176</ele>
        <time>2017-07-20T09:03:29Z</time>
      </trkpt>
      <trkpt lat="45.91515" lon="4.76366">
        <ele>176</ele>
        <time>2017-07-20T09:03:31Z</time>
      </trkpt>
      <trkpt lat="45.91517" lon="4.76362">
        <ele>176</ele>
        <time>2017-07-20T09:03:32Z</time>
      </trkpt>
      <trkpt lat="45.91521" lon="4.76352">
        <ele>176</ele>
        <time>2017-07-20T09:03:34Z</time>
      </trkpt>
      <trkpt lat="45.91524" lon="4.76346">
        <ele>176</ele>
        <time>2017-07-20T09:03:35Z</time>
      </trkpt>
      <trkpt lat="45.91527" lon="4.76342">
        <ele>176</ele>
        <time>2017-07-20T09:03:36Z</time>
      </trkpt>
      <trkpt lat="45.91531" lon="4.76337">
        <ele>176</ele>
        <time>2017-07-20T09:03:37Z</time>
      </trkpt>
      <trkpt lat="45.91537" lon="4.76328">
        <ele>177</ele>
        <time>2017-07-20T09:03:39Z</time>
      </trkpt>
      <trkpt lat="45.9154" lon="4.76323">
        <ele>177</ele>
        <time>2017-07-20T09:03:40Z</time>
      </trkpt>
      <trkpt lat="45.91547" lon="4.76317">
        <ele>177</ele>
        <time>2017-07-20T09:03:55Z</time>
      </trkpt>
      <trkpt lat="45.91548" lon="4.76317">
        <ele>177</ele>
        <time>2017-07-20T09:03:56Z</time>
      </trkpt>
      <trkpt lat="45.91557" lon="4.76316">
        <ele>176</ele>
        <time>2017-07-20T09:04:00Z</time>
      </trkpt>
      <trkpt lat="45.91559" lon="4.76316">
        <ele>176</ele>
        <time>2017-07-20T09:04:01Z</time>
      </trkpt>
      <trkpt lat="45.91566" lon="4.76318">
        <ele>176</ele>
        <time>2017-07-20T09:04:04Z</time>
      </trkpt>
      <trkpt lat="45.91568" lon="4.76318">
        <ele>176</ele>
        <time>2017-07-20T09:04:05Z</time>
      </trkpt>
      <trkpt lat="45.91577" lon="4.7632">
        <ele>176</ele>
        <time>2017-07-20T09:04:08Z</time>
      </trkpt>
      <trkpt lat="45.9158" lon="4.76321">
        <ele>176</ele>
        <time>2017-07-20T09:04:09Z</time>
      </trkpt>
      <trkpt lat="45.91588" lon="4.76323">
        <ele>176</ele>
        <time>2017-07-20T09:04:11Z</time>
      </trkpt>
      <trkpt lat="45.91591" lon="4.76323">
        <ele>176</ele>
        <time>2017-07-20T09:04:12Z</time>
      </trkpt>
      <trkpt lat="45.91598" lon="4.76325">
        <ele>176</ele>
        <time>2017-07-20T09:04:15Z</time>
      </trkpt>
      <trkpt lat="45.916" lon="4.76326">
        <ele>176</ele>
        <time>2017-07-20T09:04:16Z</time>
      </trkpt>
      <trkpt lat="45.91608" lon="4.76329">
        <ele>176</ele>
        <time>2017-07-20T09:04:20Z</time>
      </trkpt>
      <trkpt lat="45.91609" lon="4.7633">
        <ele>176</ele>
        <time>2017-07-20T09:04:21Z</time>
      </trkpt>
      <trkpt lat="45.91617" lon="4.76333">
        <ele>177</ele>
        <time>2017-07-20T09:04:24Z</time>
      </trkpt>
      <trkpt lat="45.9162" lon="4.76334">
        <ele>176</ele>
        <time>2017-07-20T09:04:25Z</time>
      </trkpt>
      <trkpt lat="45.91627" lon="4.76336">
        <ele>176</ele>
        <time>2017-07-20T09:04:28Z</time>
      </trkpt>
      <trkpt lat="45.91629" lon="4.76337">
        <ele>176</ele>
        <time>2017-07-20T09:04:29Z</time>
      </trkpt>
      <trkpt lat="45.91636" lon="4.76337">
        <ele>176</ele>
        <time>2017-07-20T09:04:34Z</time>
      </trkpt>
      <trkpt lat="45.91636" lon="4.76336">
        <ele>176</ele>
        <time>2017-07-20T09:04:35Z</time>
      </trkpt>
      <trkpt lat="45.91636" lon="4.76336">
        <ele>176</ele>
        <time>2017-07-20T09:04:48Z</time>
      </trkpt>
      <trkpt lat="45.91636" lon="4.76337">
        <ele>176</ele>
        <time>2017-07-20T09:04:49Z</time>
      </trkpt>
      <trkpt lat="45.91644" lon="4.76338">
        <ele>177</ele>
        <time>2017-07-20T09:05:30Z</time>
      </trkpt>
      <trkpt lat="45.91647" lon="4.76337">
        <ele>177</ele>
        <time>2017-07-20T09:05:31Z</time>
      </trkpt>
      <trkpt lat="45.91653" lon="4.7634">
        <ele>177</ele>
        <time>2017-07-20T09:06:35Z</time>
      </trkpt>
      <trkpt lat="45.91657" lon="4.76342">
        <ele>177</ele>
        <time>2017-07-20T09:06:36Z</time>
      </trkpt>
      <trkpt lat="45.91665" lon="4.76345">
        <ele>177</ele>
        <time>2017-07-20T09:06:55Z</time>
      </trkpt>
      <trkpt lat="45.91666" lon="4.76345">
        <ele>177</ele>
        <time>2017-07-20T09:06:56Z</time>
      </trkpt>
      <trkpt lat="45.91674" lon="4.76348">
        <ele>177</ele>
        <time>2017-07-20T09:07:01Z</time>
      </trkpt>
      <trkpt lat="45.91675" lon="4.76349">
        <ele>177</ele>
        <time>2017-07-20T09:07:02Z</time>
      </trkpt>
      <trkpt lat="45.91683" lon="4.7635">
        <ele>177</ele>
        <time>2017-07-20T09:07:07Z</time>
      </trkpt>
      <trkpt lat="45.91686" lon="4.7635">
        <ele>177</ele>
        <time>2017-07-20T09:07:08Z</time>
      </trkpt>
      <trkpt lat="45.91694" lon="4.76347">
        <ele>177</ele>
        <time>2017-07-20T09:07:13Z</time>
      </trkpt>
      <trkpt lat="45.91695" lon="4.76347">
        <ele>177</ele>
        <time>2017-07-20T09:07:14Z</time>
      </trkpt>
      <trkpt lat="45.91702" lon="4.76342">
        <ele>177</ele>
        <time>2017-07-20T09:07:19Z</time>
      </trkpt>
      <trkpt lat="45.91703" lon="4.76341">
        <ele>177</ele>
        <time>2017-07-20T09:07:20Z</time>
      </trkpt>
      <trkpt lat="45.91712" lon="4.76337">
        <ele>176</ele>
        <time>2017-07-20T09:07:26Z</time>
      </trkpt>
      <trkpt lat="45.91713" lon="4.76336">
        <ele>176</ele>
        <time>2017-07-20T09:07:27Z</time>
      </trkpt>
      <trkpt lat="45.91721" lon="4.76335">
        <ele>176</ele>
        <time>2017-07-20T09:07:34Z</time>
      </trkpt>
      <trkpt lat="45.91725" lon="4.76333">
        <ele>177</ele>
        <time>2017-07-20T09:07:35Z</time>
      </trkpt>
      <trkpt lat="45.91732" lon="4.7633">
        <ele>177</ele>
        <time>2017-07-20T09:07:40Z</time>
      </trkpt>
      <trkpt lat="45.91734" lon="4.76329">
        <ele>177</ele>
        <time>2017-07-20T09:07:41Z</time>
      </trkpt>
      <trkpt lat="45.91743" lon="4.76326">
        <ele>176</ele>
        <time>2017-07-20T09:07:46Z</time>
      </trkpt>
      <trkpt lat="45.91745" lon="4.76326">
        <ele>176</ele>
        <time>2017-07-20T09:07:47Z</time>
      </trkpt>
      <trkpt lat="45.91752" lon="4.76322">
        <ele>176</ele>
        <time>2017-07-20T09:07:51Z</time>
      </trkpt>
      <trkpt lat="45.91753" lon="4.76323">
        <ele>176</ele>
        <time>2017-07-20T09:07:52Z</time>
      </trkpt>
      <trkpt lat="45.91761" lon="4.76325">
        <ele>175</ele>
        <time>2017-07-20T09:07:56Z</time>
      </trkpt>
      <trkpt lat="45.91762" lon="4.76326">
        <ele>175</ele>
        <time>2017-07-20T09:07:57Z</time>
      </trkpt>
      <trkpt lat="45.91771" lon="4.76331">
        <ele>175</ele>
        <time>2017-07-20T09:08:02Z</time>
      </trkpt>
      <trkpt lat="45.91772" lon="4.76331">
        <ele>175</ele>
        <time>2017-07-20T09:08:03Z</time>
      </trkpt>
      <trkpt lat="45.9178" lon="4.76335">
        <ele>175</ele>
        <time>2017-07-20T09:08:09Z</time>
      </trkpt>
      <trkpt lat="45.91781" lon="4.76336">
        <ele>174</ele>
        <time>2017-07-20T09:08:10Z</time>
      </trkpt>
      <trkpt lat="45.9179" lon="4.76338">
        <ele>174</ele>
        <time>2017-07-20T09:08:15Z</time>
      </trkpt>
      <trkpt lat="45.91791" lon="4.76338">
        <ele>174</ele>
        <time>2017-07-20T09:08:16Z</time>
      </trkpt>
      <trkpt lat="45.91799" lon="4.76341">
        <ele>174</ele>
        <time>2017-07-20T09:08:22Z</time>
      </trkpt>
      <trkpt lat="45.91801" lon="4.7634">
        <ele>174</ele>
        <time>2017-07-20T09:08:23Z</time>
      </trkpt>
      <trkpt lat="45.91808" lon="4.76332">
        <ele>174</ele>
        <time>2017-07-20T09:08:27Z</time>
      </trkpt>
      <trkpt lat="45.9181" lon="4.7633">
        <ele>174</ele>
        <time>2017-07-20T09:08:28Z</time>
      </trkpt>
      <trkpt lat="45.91815" lon="4.76322">
        <ele>174</ele>
        <time>2017-07-20T09:08:30Z</time>
      </trkpt>
      <trkpt lat="45.91818" lon="4.76318">
        <ele>174</ele>
        <time>2017-07-20T09:08:31Z</time>
      </trkpt>
      <trkpt lat="45.91821" lon="4.76308">
        <ele>174</ele>
        <time>2017-07-20T09:08:33Z</time>
      </trkpt>
      <trkpt lat="45.91822" lon="4.76303">
        <ele>174</ele>
        <time>2017-07-20T09:08:34Z</time>
      </trkpt>
      <trkpt lat="45.91824" lon="4.76295">
        <ele>174</ele>
        <time>2017-07-20T09:08:36Z</time>
      </trkpt>
      <trkpt lat="45.91826" lon="4.76291">
        <ele>174</ele>
        <time>2017-07-20T09:08:37Z</time>
      </trkpt>
      <trkpt lat="45.91828" lon="4.76283">
        <ele>174</ele>
        <time>2017-07-20T09:08:39Z</time>
      </trkpt>
      <trkpt lat="45.91829" lon="4.76278">
        <ele>174</ele>
        <time>2017-07-20T09:08:40Z</time>
      </trkpt>
      <trkpt lat="45.91831" lon="4.76266">
        <ele>174</ele>
        <time>2017-07-20T09:08:42Z</time>
      </trkpt>
      <trkpt lat="45.91832" lon="4.7626">
        <ele>174</ele>
        <time>2017-07-20T09:08:43Z</time>
      </trkpt>
      <trkpt lat="45.91835" lon="4.76248">
        <ele>173</ele>
        <time>2017-07-20T09:08:45Z</time>
      </trkpt>
      <trkpt lat="45.91837" lon="4.76243">
        <ele>173</ele>
        <time>2017-07-20T09:08:46Z</time>
      </trkpt>
      <trkpt lat="45.9184" lon="4.76236">
        <ele>173</ele>
        <time>2017-07-20T09:08:47Z</time>
      </trkpt>
      <trkpt lat="45.91843" lon="4.7623">
        <ele>172</ele>
        <time>2017-07-20T09:08:48Z</time>
      </trkpt>
      <trkpt lat="45.91846" lon="4.7622">
        <ele>172</ele>
        <time>2017-07-20T09:08:50Z</time>
      </trkpt>
      <trkpt lat="45.91848" lon="4.76215">
        <ele>172</ele>
        <time>2017-07-20T09:08:51Z</time>
      </trkpt>
      <trkpt lat="45.91852" lon="4.76205">
        <ele>172</ele>
        <time>2017-07-20T09:08:53Z</time>
      </trkpt>
      <trkpt lat="45.91853" lon="4.762">
        <ele>172</ele>
        <time>2017-07-20T09:08:54Z</time>
      </trkpt>
      <trkpt lat="45.91856" lon="4.76189">
        <ele>172</ele>
        <time>2017-07-20T09:08:56Z</time>
      </trkpt>
      <trkpt lat="45.91858" lon="4.76184">
        <ele>172</ele>
        <time>2017-07-20T09:08:57Z</time>
      </trkpt>
      <trkpt lat="45.91862" lon="4.7618">
        <ele>172</ele>
        <time>2017-07-20T09:08:58Z</time>
      </trkpt>
      <trkpt lat="45.91866" lon="4.76177">
        <ele>172</ele>
        <time>2017-07-20T09:08:59Z</time>
      </trkpt>
      <trkpt lat="45.91875" lon="4.76178">
        <ele>172</ele>
        <time>2017-07-20T09:09:01Z</time>
      </trkpt>
      <trkpt lat="45.91879" lon="4.76179">
        <ele>172</ele>
        <time>2017-07-20T09:09:02Z</time>
      </trkpt>
      <trkpt lat="45.91884" lon="4.76182">
        <ele>172</ele>
        <time>2017-07-20T09:09:03Z</time>
      </trkpt>
      <trkpt lat="45.91888" lon="4.76184">
        <ele>172</ele>
        <time>2017-07-20T09:09:04Z</time>
      </trkpt>
      <trkpt lat="45.91892" lon="4.76186">
        <ele>172</ele>
        <time>2017-07-20T09:09:05Z</time>
      </trkpt>
      <trkpt lat="45.91897" lon="4.7619">
        <ele>172</ele>
        <time>2017-07-20T09:09:06Z</time>
      </trkpt>
      <trkpt lat="45.91901" lon="4.76193">
        <ele>172</ele>
        <time>2017-07-20T09:09:07Z</time>
      </trkpt>
      <trkpt lat="45.91906" lon="4.76195">
        <ele>172</ele>
        <time>2017-07-20T09:09:08Z</time>
      </trkpt>
      <trkpt lat="45.9191" lon="4.76197">
        <ele>172</ele>
        <time>2017-07-20T09:09:09Z</time>
      </trkpt>
      <trkpt lat="45.91915" lon="4.76199">
        <ele>172</ele>
        <time>2017-07-20T09:09:10Z</time>
      </trkpt>
      <trkpt lat="45.91923" lon="4.76204">
        <ele>171</ele>
        <time>2017-07-20T09:09:12Z</time>
      </trkpt>
      <trkpt lat="45.91927" lon="4.76206">
        <ele>171</ele>
        <time>2017-07-20T09:09:13Z</time>
      </trkpt>
      <trkpt lat="45.91932" lon="4.76208">
        <ele>171</ele>
        <time>2017-07-20T09:09:14Z</time>
      </trkpt>
      <trkpt lat="45.91936" lon="4.76211">
        <ele>171</ele>
        <time>2017-07-20T09:09:15Z</time>
      </trkpt>
      <trkpt lat="45.91941" lon="4.76213">
        <ele>171</ele>
        <time>2017-07-20T09:09:16Z</time>
      </trkpt>
      <trkpt lat="45.91946" lon="4.76216">
        <ele>171</ele>
        <time>2017-07-20T09:09:17Z</time>
      </trkpt>
      <trkpt lat="45.91951" lon="4.76219">
        <ele>171</ele>
        <time>2017-07-20T09:09:18Z</time>
      </trkpt>
      <trkpt lat="45.91956" lon="4.76221">
        <ele>171</ele>
        <time>2017-07-20T09:09:19Z</time>
      </trkpt>
      <trkpt lat="45.91961" lon="4.76224">
        <ele>171</ele>
        <time>2017-07-20T09:09:20Z</time>
      </trkpt>
      <trkpt lat="45.91965" lon="4.76227">
        <ele>171</ele>
        <time>2017-07-20T09:09:21Z</time>
      </trkpt>
      <trkpt lat="45.91971" lon="4.7623">
        <ele>171</ele>
        <time>2017-07-20T09:09:22Z</time>
      </trkpt>
      <trkpt lat="45.91977" lon="4.76233">
        <ele>171</ele>
        <time>2017-07-20T09:09:23Z</time>
      </trkpt>
      <trkpt lat="45.91982" lon="4.76235">
        <ele>170</ele>
        <time>2017-07-20T09:09:24Z</time>
      </trkpt>
      <trkpt lat="45.91987" lon="4.76238">
        <ele>170</ele>
        <time>2017-07-20T09:09:25Z</time>
      </trkpt>
      <trkpt lat="45.91992" lon="4.76241">
        <ele>170</ele>
        <time>2017-07-20T09:09:26Z</time>
      </trkpt>
      <trkpt lat="45.91997" lon="4.76243">
        <ele>170</ele>
        <time>2017-07-20T09:09:27Z</time>
      </trkpt>
      <trkpt lat="45.92001" lon="4.76246">
        <ele>170</ele>
        <time>2017-07-20T09:09:28Z</time>
      </trkpt>
      <trkpt lat="45.92006" lon="4.76249">
        <ele>170</ele>
        <time>2017-07-20T09:09:29Z</time>
      </trkpt>
      <trkpt lat="45.9201" lon="4.76251">
        <ele>170</ele>
        <time>2017-07-20T09:09:30Z</time>
      </trkpt>
      <trkpt lat="45.92014" lon="4.76254">
        <ele>169</ele>
        <time>2017-07-20T09:09:31Z</time>
      </trkpt>
      <trkpt lat="45.92023" lon="4.76258">
        <ele>169</ele>
        <time>2017-07-20T09:09:33Z</time>
      </trkpt>
      <trkpt lat="45.92026" lon="4.7626">
        <ele>169</ele>
        <time>2017-07-20T09:09:34Z</time>
      </trkpt>
      <trkpt lat="45.92034" lon="4.76265">
        <ele>169</ele>
        <time>2017-07-20T09:09:36Z</time>
      </trkpt>
      <trkpt lat="45.92038" lon="4.76267">
        <ele>169</ele>
        <time>2017-07-20T09:09:37Z</time>
      </trkpt>
      <trkpt lat="45.92045" lon="4.76271">
        <ele>169</ele>
        <time>2017-07-20T09:09:39Z</time>
      </trkpt>
      <trkpt lat="45.92049" lon="4.76274">
        <ele>169</ele>
        <time>2017-07-20T09:09:40Z</time>
      </trkpt>
      <trkpt lat="45.92057" lon="4.76278">
        <ele>169</ele>
        <time>2017-07-20T09:09:42Z</time>
      </trkpt>
      <trkpt lat="45.92061" lon="4.7628">
        <ele>169</ele>
        <time>2017-07-20T09:09:43Z</time>
      </trkpt>
      <trkpt lat="45.92066" lon="4.76283">
        <ele>169</ele>
        <time>2017-07-20T09:09:44Z</time>
      </trkpt>
      <trkpt lat="45.92071" lon="4.76286">
        <ele>169</ele>
        <time>2017-07-20T09:09:45Z</time>
      </trkpt>
      <trkpt lat="45.92076" lon="4.76289">
        <ele>169</ele>
        <time>2017-07-20T09:09:46Z</time>
      </trkpt>
      <trkpt lat="45.92081" lon="4.76292">
        <ele>169</ele>
        <time>2017-07-20T09:09:47Z</time>
      </trkpt>
      <trkpt lat="45.92085" lon="4.76295">
        <ele>169</ele>
        <time>2017-07-20T09:09:48Z</time>
      </trkpt>
      <trkpt lat="45.92089" lon="4.76298">
        <ele>169</ele>
        <time>2017-07-20T09:09:49Z</time>
      </trkpt>
      <trkpt lat="45.92094" lon="4.76301">
        <ele>169</ele>
        <time>2017-07-20T09:09:50Z</time>
      </trkpt>
      <trkpt lat="45.92099" lon="4.76303">
        <ele>169</ele>
        <time>2017-07-20T09:09:51Z</time>
      </trkpt>
      <trkpt lat="45.92103" lon="4.76306">
        <ele>169</ele>
        <time>2017-07-20T09:09:52Z</time>
      </trkpt>
      <trkpt lat="45.92108" lon="4.76308">
        <ele>169</ele>
        <time>2017-07-20T09:09:53Z</time>
      </trkpt>
      <trkpt lat="45.92112" lon="4.76311">
        <ele>169</ele>
        <time>2017-07-20T09:09:54Z</time>
      </trkpt>
      <trkpt lat="45.92116" lon="4.76314">
        <ele>169</ele>
        <time>2017-07-20T09:09:55Z</time>
      </trkpt>
      <trkpt lat="45.92124" lon="4.76319">
        <ele>169</ele>
        <time>2017-07-20T09:09:57Z</time>
      </trkpt>
      <trkpt lat="45.92128" lon="4.76322">
        <ele>169</ele>
        <time>2017-07-20T09:09:58Z</time>
      </trkpt>
      <trkpt lat="45.92132" lon="4.76324">
        <ele>169</ele>
        <time>2017-07-20T09:09:59Z</time>
      </trkpt>
      <trkpt lat="45.92137" lon="4.76327">
        <ele>169</ele>
        <time>2017-07-20T09:10:00Z</time>
      </trkpt>
      <trkpt lat="45.92142" lon="4.7633">
        <ele>169</ele>
        <time>2017-07-20T09:10:01Z</time>
      </trkpt>
      <trkpt lat="45.92147" lon="4.76333">
        <ele>169</ele>
        <time>2017-07-20T09:10:02Z</time>
      </trkpt>
      <trkpt lat="45.92152" lon="4.76336">
        <ele>169</ele>
        <time>2017-07-20T09:10:03Z</time>
      </trkpt>
      <trkpt lat="45.92157" lon="4.7634">
        <ele>169</ele>
        <time>2017-07-20T09:10:04Z</time>
      </trkpt>
      <trkpt lat="45.92162" lon="4.76343">
        <ele>169</ele>
        <time>2017-07-20T09:10:05Z</time>
      </trkpt>
      <trkpt lat="45.92168" lon="4.76346">
        <ele>169</ele>
        <time>2017-07-20T09:10:06Z</time>
      </trkpt>
      <trkpt lat="45.92173" lon="4.7635">
        <ele>169</ele>
        <time>2017-07-20T09:10:07Z</time>
      </trkpt>
      <trkpt lat="45.92178" lon="4.76353">
        <ele>168</ele>
        <time>2017-07-20T09:10:08Z</time>
      </trkpt>
      <trkpt lat="45.92183" lon="4.76356">
        <ele>168</ele>
        <time>2017-07-20T09:10:09Z</time>
      </trkpt>
      <trkpt lat="45.92188" lon="4.76359">
        <ele>168</ele>
        <time>2017-07-20T09:10:10Z</time>
      </trkpt>
      <trkpt lat="45.92192" lon="4.76361">
        <ele>168</ele>
        <time>2017-07-20T09:10:11Z</time>
      </trkpt>
      <trkpt lat="45.92197" lon="4.76364">
        <ele>168</ele>
        <time>2017-07-20T09:10:12Z</time>
      </trkpt>
      <trkpt lat="45.92201" lon="4.76367">
        <ele>168</ele>
        <time>2017-07-20T09:10:13Z</time>
      </trkpt>
      <trkpt lat="45.92206" lon="4.7637">
        <ele>168</ele>
        <time>2017-07-20T09:10:14Z</time>
      </trkpt>
      <trkpt lat="45.9221" lon="4.76373">
        <ele>168</ele>
        <time>2017-07-20T09:10:15Z</time>
      </trkpt>
      <trkpt lat="45.92214" lon="4.76375">
        <ele>168</ele>
        <time>2017-07-20T09:10:16Z</time>
      </trkpt>
      <trkpt lat="45.92222" lon="4.76381">
        <ele>168</ele>
        <time>2017-07-20T09:10:18Z</time>
      </trkpt>
      <trkpt lat="45.92226" lon="4.76383">
        <ele>168</ele>
        <time>2017-07-20T09:10:19Z</time>
      </trkpt>
      <trkpt lat="45.92234" lon="4.76387">
        <ele>168</ele>
        <time>2017-07-20T09:10:21Z</time>
      </trkpt>
      <trkpt lat="45.92239" lon="4.76388">
        <ele>168</ele>
        <time>2017-07-20T09:10:22Z</time>
      </trkpt>
      <trkpt lat="45.92244" lon="4.76389">
        <ele>168</ele>
        <time>2017-07-20T09:10:23Z</time>
      </trkpt>
      <trkpt lat="45.9225" lon="4.76388">
        <ele>168</ele>
        <time>2017-07-20T09:10:24Z</time>
      </trkpt>
      <trkpt lat="45.92255" lon="4.76387">
        <ele>167</ele>
        <time>2017-07-20T09:10:25Z</time>
      </trkpt>
      <trkpt lat="45.92261" lon="4.76386">
        <ele>167</ele>
        <time>2017-07-20T09:10:26Z</time>
      </trkpt>
      <trkpt lat="45.92266" lon="4.76384">
        <ele>167</ele>
        <time>2017-07-20T09:10:27Z</time>
      </trkpt>
      <trkpt lat="45.92271" lon="4.76382">
        <ele>167</ele>
        <time>2017-07-20T09:10:28Z</time>
      </trkpt>
      <trkpt lat="45.92276" lon="4.7638">
        <ele>167</ele>
        <time>2017-07-20T09:10:29Z</time>
      </trkpt>
      <trkpt lat="45.9228" lon="4.76379">
        <ele>167</ele>
        <time>2017-07-20T09:10:30Z</time>
      </trkpt>
      <trkpt lat="45.92289" lon="4.76376">
        <ele>167</ele>
        <time>2017-07-20T09:10:32Z</time>
      </trkpt>
      <trkpt lat="45.92293" lon="4.76374">
        <ele>167</ele>
        <time>2017-07-20T09:10:33Z</time>
      </trkpt>
      <trkpt lat="45.92298" lon="4.76373">
        <ele>167</ele>
        <time>2017-07-20T09:10:34Z</time>
      </trkpt>
      <trkpt lat="45.92302" lon="4.76371">
        <ele>167</ele>
        <time>2017-07-20T09:10:35Z</time>
      </trkpt>
      <trkpt lat="45.92308" lon="4.76368">
        <ele>167</ele>
        <time>2017-07-20T09:10:36Z</time>
      </trkpt>
      <trkpt lat="45.92314" lon="4.76366">
        <ele>167</ele>
        <time>2017-07-20T09:10:37Z</time>
      </trkpt>
      <trkpt lat="45.92319" lon="4.76364">
        <ele>167</ele>
        <time>2017-07-20T09:10:38Z</time>
      </trkpt>
      <trkpt lat="45.92324" lon="4.76362">
        <ele>167</ele>
        <time>2017-07-20T09:10:39Z</time>
      </trkpt>
      <trkpt lat="45.92329" lon="4.76359">
        <ele>167</ele>
        <time>2017-07-20T09:10:40Z</time>
      </trkpt>
      <trkpt lat="45.92334" lon="4.76357">
        <ele>168</ele>
        <time>2017-07-20T09:10:41Z</time>
      </trkpt>
      <trkpt lat="45.92338" lon="4.76354">
        <ele>168</ele>
        <time>2017-07-20T09:10:42Z</time>
      </trkpt>
      <trkpt lat="45.92343" lon="4.76352">
        <ele>168</ele>
        <time>2017-07-20T09:10:43Z</time>
      </trkpt>
      <trkpt lat="45.92347" lon="4.76349">
        <ele>168</ele>
        <time>2017-07-20T09:10:44Z</time>
      </trkpt>
      <trkpt lat="45.92351" lon="4.76346">
        <ele>168</ele>
        <time>2017-07-20T09:10:45Z</time>
      </trkpt>
      <trkpt lat="45.92359" lon="4.76343">
        <ele>168</ele>
        <time>2017-07-20T09:10:47Z</time>
      </trkpt>
      <trkpt lat="45.92363" lon="4.76344">
        <ele>168</ele>
        <time>2017-07-20T09:10:48Z</time>
      </trkpt>
      <trkpt lat="45.92369" lon="4.76347">
        <ele>168</ele>
        <time>2017-07-20T09:10:50Z</time>
      </trkpt>
      <trkpt lat="45.92372" lon="4.7635">
        <ele>168</ele>
        <time>2017-07-20T09:10:51Z</time>
      </trkpt>
      <trkpt lat="45.92379" lon="4.76355">
        <ele>168</ele>
        <time>2017-07-20T09:10:53Z</time>
      </trkpt>
      <trkpt lat="45.92382" lon="4.76356">
        <ele>168</ele>
        <time>2017-07-20T09:10:54Z</time>
      </trkpt>
      <trkpt lat="45.92388" lon="4.76362">
        <ele>169</ele>
        <time>2017-07-20T09:10:56Z</time>
      </trkpt>
      <trkpt lat="45.92391" lon="4.76366">
        <ele>169</ele>
        <time>2017-07-20T09:10:57Z</time>
      </trkpt>
      <trkpt lat="45.92396" lon="4.76373">
        <ele>169</ele>
        <time>2017-07-20T09:10:59Z</time>
      </trkpt>
      <trkpt lat="45.92398" lon="4.76375">
        <ele>169</ele>
        <time>2017-07-20T09:11:00Z</time>
      </trkpt>
      <trkpt lat="45.92404" lon="4.7638">
        <ele>169</ele>
        <time>2017-07-20T09:11:03Z</time>
      </trkpt>
      <trkpt lat="45.92409" lon="4.76382">
        <ele>169</ele>
        <time>2017-07-20T09:11:04Z</time>
      </trkpt>
      <trkpt lat="45.92414" lon="4.76379">
        <ele>169</ele>
        <time>2017-07-20T09:11:06Z</time>
      </trkpt>
      <trkpt lat="45.92416" lon="4.76375">
        <ele>169</ele>
        <time>2017-07-20T09:11:07Z</time>
      </trkpt>
      <trkpt lat="45.92421" lon="4.76364">
        <ele>170</ele>
        <time>2017-07-20T09:11:09Z</time>
      </trkpt>
      <trkpt lat="45.92425" lon="4.76358">
        <ele>170</ele>
        <time>2017-07-20T09:11:10Z</time>
      </trkpt>
      <trkpt lat="45.9243" lon="4.76349">
        <ele>170</ele>
        <time>2017-07-20T09:11:12Z</time>
      </trkpt>
      <trkpt lat="45.92432" lon="4.76344">
        <ele>170</ele>
        <time>2017-07-20T09:11:13Z</time>
      </trkpt>
      <trkpt lat="45.92436" lon="4.76335">
        <ele>170</ele>
        <time>2017-07-20T09:11:15Z</time>
      </trkpt>
      <trkpt lat="45.92438" lon="4.7633">
        <ele>170</ele>
        <time>2017-07-20T09:11:16Z</time>
      </trkpt>
      <trkpt lat="45.92441" lon="4.76321">
        <ele>170</ele>
        <time>2017-07-20T09:11:18Z</time>
      </trkpt>
      <trkpt lat="45.92443" lon="4.76316">
        <ele>170</ele>
        <time>2017-07-20T09:11:19Z</time>
      </trkpt>
      <trkpt lat="45.92447" lon="4.76306">
        <ele>169</ele>
        <time>2017-07-20T09:11:21Z</time>
      </trkpt>
      <trkpt lat="45.9245" lon="4.763">
        <ele>169</ele>
        <time>2017-07-20T09:11:22Z</time>
      </trkpt>
      <trkpt lat="45.92452" lon="4.76295">
        <ele>169</ele>
        <time>2017-07-20T09:11:23Z</time>
      </trkpt>
      <trkpt lat="45.92454" lon="4.76289">
        <ele>169</ele>
        <time>2017-07-20T09:11:24Z</time>
      </trkpt>
      <trkpt lat="45.9246" lon="4.76279">
        <ele>169</ele>
        <time>2017-07-20T09:11:26Z</time>
      </trkpt>
      <trkpt lat="45.92464" lon="4.76276">
        <ele>169</ele>
        <time>2017-07-20T09:11:27Z</time>
      </trkpt>
      <trkpt lat="45.92471" lon="4.7627">
        <ele>169</ele>
        <time>2017-07-20T09:11:29Z</time>
      </trkpt>
      <trkpt lat="45.92475" lon="4.76267">
        <ele>169</ele>
        <time>2017-07-20T09:11:30Z</time>
      </trkpt>
      <trkpt lat="45.92482" lon="4.76263">
        <ele>169</ele>
        <time>2017-07-20T09:11:32Z</time>
      </trkpt>
      <trkpt lat="45.92486" lon="4.7626">
        <ele>169</ele>
        <time>2017-07-20T09:11:33Z</time>
      </trkpt>
      <trkpt lat="45.9249" lon="4.76258">
        <ele>169</ele>
        <time>2017-07-20T09:11:34Z</time>
      </trkpt>
      <trkpt lat="45.92495" lon="4.76256">
        <ele>168</ele>
        <time>2017-07-20T09:11:35Z</time>
      </trkpt>
      <trkpt lat="45.925" lon="4.76255">
        <ele>168</ele>
        <time>2017-07-20T09:11:36Z</time>
      </trkpt>
      <trkpt lat="45.92504" lon="4.76254">
        <ele>168</ele>
        <time>2017-07-20T09:11:37Z</time>
      </trkpt>
      <trkpt lat="45.92509" lon="4.76254">
        <ele>168</ele>
        <time>2017-07-20T09:11:38Z</time>
      </trkpt>
      <trkpt lat="45.92513" lon="4.76255">
        <ele>168</ele>
        <time>2017-07-20T09:11:39Z</time>
      </trkpt>
      <trkpt lat="45.92522" lon="4.76257">
        <ele>168</ele>
        <time>2017-07-20T09:11:41Z</time>
      </trkpt>
      <trkpt lat="45.92526" lon="4.76258">
        <ele>168</ele>
        <time>2017-07-20T09:11:42Z</time>
      </trkpt>
      <trkpt lat="45.92533" lon="4.7626">
        <ele>168</ele>
        <time>2017-07-20T09:11:44Z</time>
      </trkpt>
      <trkpt lat="45.92538" lon="4.76262">
        <ele>168</ele>
        <time>2017-07-20T09:11:45Z</time>
      </trkpt>
      <trkpt lat="45.92543" lon="4.76265">
        <ele>168</ele>
        <time>2017-07-20T09:11:46Z</time>
      </trkpt>
      <trkpt lat="45.92547" lon="4.76267">
        <ele>168</ele>
        <time>2017-07-20T09:11:47Z</time>
      </trkpt>
      <trkpt lat="45.92552" lon="4.76271">
        <ele>168</ele>
        <time>2017-07-20T09:11:48Z</time>
      </trkpt>
      <trkpt lat="45.92557" lon="4.76274">
        <ele>168</ele>
        <time>2017-07-20T09:11:49Z</time>
      </trkpt>
      <trkpt lat="45.92561" lon="4.76278">
        <ele>168</ele>
        <time>2017-07-20T09:11:50Z</time>
      </trkpt>
      <trkpt lat="45.92565" lon="4.7628">
        <ele>168</ele>
        <time>2017-07-20T09:11:51Z</time>
      </trkpt>
      <trkpt lat="45.92573" lon="4.76285">
        <ele>168</ele>
        <time>2017-07-20T09:11:53Z</time>
      </trkpt>
      <trkpt lat="45.92577" lon="4.76288">
        <ele>168</ele>
        <time>2017-07-20T09:11:54Z</time>
      </trkpt>
      <trkpt lat="45.92581" lon="4.7629">
        <ele>168</ele>
        <time>2017-07-20T09:11:55Z</time>
      </trkpt>
      <trkpt lat="45.92585" lon="4.76293">
        <ele>167</ele>
        <time>2017-07-20T09:11:56Z</time>
      </trkpt>
      <trkpt lat="45.9259" lon="4.76296">
        <ele>167</ele>
        <time>2017-07-20T09:11:57Z</time>
      </trkpt>
      <trkpt lat="45.92595" lon="4.76299">
        <ele>167</ele>
        <time>2017-07-20T09:11:58Z</time>
      </trkpt>
      <trkpt lat="45.926" lon="4.76302">
        <ele>167</ele>
        <time>2017-07-20T09:11:59Z</time>
      </trkpt>
      <trkpt lat="45.92605" lon="4.76305">
        <ele>167</ele>
        <time>2017-07-20T09:12:00Z</time>
      </trkpt>
      <trkpt lat="45.9261" lon="4.76308">
        <ele>167</ele>
        <time>2017-07-20T09:12:01Z</time>
      </trkpt>
      <trkpt lat="45.92615" lon="4.7631">
        <ele>167</ele>
        <time>2017-07-20T09:12:02Z</time>
      </trkpt>
      <trkpt lat="45.92623" lon="4.76315">
        <ele>167</ele>
        <time>2017-07-20T09:12:04Z</time>
      </trkpt>
      <trkpt lat="45.92627" lon="4.76317">
        <ele>168</ele>
        <time>2017-07-20T09:12:05Z</time>
      </trkpt>
      <trkpt lat="45.92635" lon="4.76322">
        <ele>168</ele>
        <time>2017-07-20T09:12:07Z</time>
      </trkpt>
      <trkpt lat="45.92639" lon="4.76324">
        <ele>168</ele>
        <time>2017-07-20T09:12:08Z</time>
      </trkpt>
      <trkpt lat="45.92644" lon="4.76326">
        <ele>168</ele>
        <time>2017-07-20T09:12:09Z</time>
      </trkpt>
      <trkpt lat="45.92648" lon="4.76329">
        <ele>168</ele>
        <time>2017-07-20T09:12:10Z</time>
      </trkpt>
      <trkpt lat="45.92653" lon="4.76331">
        <ele>168</ele>
        <time>2017-07-20T09:12:11Z</time>
      </trkpt>
      <trkpt lat="45.92658" lon="4.76333">
        <ele>168</ele>
        <time>2017-07-20T09:12:12Z</time>
      </trkpt>
      <trkpt lat="45.92663" lon="4.76336">
        <ele>168</ele>
        <time>2017-07-20T09:12:13Z</time>
      </trkpt>
      <trkpt lat="45.92669" lon="4.76338">
        <ele>168</ele>
        <time>2017-07-20T09:12:14Z</time>
      </trkpt>
      <trkpt lat="45.92673" lon="4.76339">
        <ele>168</ele>
        <time>2017-07-20T09:12:15Z</time>
      </trkpt>
      <trkpt lat="45.92678" lon="4.76341">
        <ele>168</ele>
        <time>2017-07-20T09:12:16Z</time>
      </trkpt>
      <trkpt lat="45.92686" lon="4.76344">
        <ele>168</ele>
        <time>2017-07-20T09:12:18Z</time>
      </trkpt>
      <trkpt lat="45.92689" lon="4.76345">
        <ele>168</ele>
        <time>2017-07-20T09:12:19Z</time>
      </trkpt>
      <trkpt lat="45.92697" lon="4.76348">
        <ele>168</ele>
        <time>2017-07-20T09:12:21Z</time>
      </trkpt>
      <trkpt lat="45.92701" lon="4.76349">
        <ele>168</ele>
        <time>2017-07-20T09:12:22Z</time>
      </trkpt>
      <trkpt lat="45.92705" lon="4.76351">
        <ele>168</ele>
        <time>2017-07-20T09:12:23Z</time>
      </trkpt>
      <trkpt lat="45.92709" lon="4.76353">
        <ele>169</ele>
        <time>2017-07-20T09:12:24Z</time>
      </trkpt>
      <trkpt lat="45.92714" lon="4.76355">
        <ele>169</ele>
        <time>2017-07-20T09:12:25Z</time>
      </trkpt>
      <trkpt lat="45.92719" lon="4.76357">
        <ele>169</ele>
        <time>2017-07-20T09:12:26Z</time>
      </trkpt>
      <trkpt lat="45.92728" lon="4.7636">
        <ele>169</ele>
        <time>2017-07-20T09:12:28Z</time>
      </trkpt>
      <trkpt lat="45.92732" lon="4.76361">
        <ele>169</ele>
        <time>2017-07-20T09:12:29Z</time>
      </trkpt>
      <trkpt lat="45.92739" lon="4.76365">
        <ele>169</ele>
        <time>2017-07-20T09:12:31Z</time>
      </trkpt>
      <trkpt lat="45.92743" lon="4.76367">
        <ele>169</ele>
        <time>2017-07-20T09:12:32Z</time>
      </trkpt>
      <trkpt lat="45.92751" lon="4.7637">
        <ele>169</ele>
        <time>2017-07-20T09:12:34Z</time>
      </trkpt>
      <trkpt lat="45.92756" lon="4.76372">
        <ele>169</ele>
        <time>2017-07-20T09:12:35Z</time>
      </trkpt>
      <trkpt lat="45.92761" lon="4.76374">
        <ele>169</ele>
        <time>2017-07-20T09:12:36Z</time>
      </trkpt>
      <trkpt lat="45.92766" lon="4.76376">
        <ele>169</ele>
        <time>2017-07-20T09:12:37Z</time>
      </trkpt>
      <trkpt lat="45.9277" lon="4.76377">
        <ele>169</ele>
        <time>2017-07-20T09:12:38Z</time>
      </trkpt>
      <trkpt lat="45.92775" lon="4.76379">
        <ele>169</ele>
        <time>2017-07-20T09:12:39Z</time>
      </trkpt>
      <trkpt lat="45.92783" lon="4.76382">
        <ele>169</ele>
        <time>2017-07-20T09:12:41Z</time>
      </trkpt>
      <trkpt lat="45.92787" lon="4.76384">
        <ele>169</ele>
        <time>2017-07-20T09:12:42Z</time>
      </trkpt>
      <trkpt lat="45.92794" lon="4.76388">
        <ele>169</ele>
        <time>2017-07-20T09:12:44Z</time>
      </trkpt>
      <trkpt lat="45.92798" lon="4.7639">
        <ele>169</ele>
        <time>2017-07-20T09:12:45Z</time>
      </trkpt>
      <trkpt lat="45.92804" lon="4.76389">
        <ele>169</ele>
        <time>2017-07-20T09:12:47Z</time>
      </trkpt>
      <trkpt lat="45.92808" lon="4.76386">
        <ele>169</ele>
        <time>2017-07-20T09:12:48Z</time>
      </trkpt>
      <trkpt lat="45.92815" lon="4.76378">
        <ele>169</ele>
        <time>2017-07-20T09:12:50Z</time>
      </trkpt>
      <trkpt lat="45.92818" lon="4.76374">
        <ele>169</ele>
        <time>2017-07-20T09:12:51Z</time>
      </trkpt>
      <trkpt lat="45.92824" lon="4.76366">
        <ele>169</ele>
        <time>2017-07-20T09:12:53Z</time>
      </trkpt>
      <trkpt lat="45.92827" lon="4.76362">
        <ele>169</ele>
        <time>2017-07-20T09:12:54Z</time>
      </trkpt>
      <trkpt lat="45.92832" lon="4.76354">
        <ele>170</ele>
        <time>2017-07-20T09:12:56Z</time>
      </trkpt>
      <trkpt lat="45.92835" lon="4.7635">
        <ele>170</ele>
        <time>2017-07-20T09:12:57Z</time>
      </trkpt>
      <trkpt lat="45.92839" lon="4.76344">
        <ele>170</ele>
        <time>2017-07-20T09:12:59Z</time>
      </trkpt>
      <trkpt lat="45.92842" lon="4.76341">
        <ele>170</ele>
        <time>2017-07-20T09:13:00Z</time>
      </trkpt>
      <trkpt lat="45.92849" lon="4.76334">
        <ele>170</ele>
        <time>2017-07-20T09:13:02Z</time>
      </trkpt>
      <trkpt lat="45.92853" lon="4.7633">
        <ele>169</ele>
        <time>2017-07-20T09:13:03Z</time>
      </trkpt>
      <trkpt lat="45.92858" lon="4.76322">
        <ele>169</ele>
        <time>2017-07-20T09:13:05Z</time>
      </trkpt>
      <trkpt lat="45.9286" lon="4.76319">
        <ele>169</ele>
        <time>2017-07-20T09:13:06Z</time>
      </trkpt>
      <trkpt lat="45.92864" lon="4.76312">
        <ele>169</ele>
        <time>2017-07-20T09:13:08Z</time>
      </trkpt>
      <trkpt lat="45.92866" lon="4.76309">
        <ele>169</ele>
        <time>2017-07-20T09:13:09Z</time>
      </trkpt>
      <trkpt lat="45.92872" lon="4.76303">
        <ele>169</ele>
        <time>2017-07-20T09:13:12Z</time>
      </trkpt>
      <trkpt lat="45.92875" lon="4.76302">
        <ele>169</ele>
        <time>2017-07-20T09:13:13Z</time>
      </trkpt>
      <trkpt lat="45.92883" lon="4.76306">
        <ele>169</ele>
        <time>2017-07-20T09:13:16Z</time>
      </trkpt>
      <trkpt lat="45.92886" lon="4.76308">
        <ele>169</ele>
        <time>2017-07-20T09:13:17Z</time>
      </trkpt>
      <trkpt lat="45.92893" lon="4.76314">
        <ele>169</ele>
        <time>2017-07-20T09:13:19Z</time>
      </trkpt>
      <trkpt lat="45.92897" lon="4.76315">
        <ele>169</ele>
        <time>2017-07-20T09:13:20Z</time>
      </trkpt>
      <trkpt lat="45.92903" lon="4.76319">
        <ele>169</ele>
        <time>2017-07-20T09:13:22Z</time>
      </trkpt>
      <trkpt lat="45.92906" lon="4.76323">
        <ele>169</ele>
        <time>2017-07-20T09:13:23Z</time>
      </trkpt>
      <trkpt lat="45.92911" lon="4.76329">
        <ele>169</ele>
        <time>2017-07-20T09:13:25Z</time>
      </trkpt>
      <trkpt lat="45.92915" lon="4.76332">
        <ele>169</ele>
        <time>2017-07-20T09:13:26Z</time>
      </trkpt>
      <trkpt lat="45.92918" lon="4.76335">
        <ele>169</ele>
        <time>2017-07-20T09:13:27Z</time>
      </trkpt>
      <trkpt lat="45.92923" lon="4.76339">
        <ele>169</ele>
        <time>2017-07-20T09:13:28Z</time>
      </trkpt>
      <trkpt lat="45.92927" lon="4.76341">
        <ele>169</ele>
        <time>2017-07-20T09:13:29Z</time>
      </trkpt>
      <trkpt lat="45.92931" lon="4.76345">
        <ele>169</ele>
        <time>2017-07-20T09:13:30Z</time>
      </trkpt>
      <trkpt lat="45.92939" lon="4.76351">
        <ele>169</ele>
        <time>2017-07-20T09:13:32Z</time>
      </trkpt>
      <trkpt lat="45.92942" lon="4.76355">
        <ele>169</ele>
        <time>2017-07-20T09:13:33Z</time>
      </trkpt>
      <trkpt lat="45.92948" lon="4.76364">
        <ele>169</ele>
        <time>2017-07-20T09:13:35Z</time>
      </trkpt>
      <trkpt lat="45.92951" lon="4.76367">
        <ele>169</ele>
        <time>2017-07-20T09:13:36Z</time>
      </trkpt>
      <trkpt lat="45.92958" lon="4.76375">
        <ele>169</ele>
        <time>2017-07-20T09:13:38Z</time>
      </trkpt>
      <trkpt lat="45.92961" lon="4.76379">
        <ele>169</ele>
        <time>2017-07-20T09:13:39Z</time>
      </trkpt>
      <trkpt lat="45.92966" lon="4.76383">
        <ele>169</ele>
        <time>2017-07-20T09:13:40Z</time>
      </trkpt>
      <trkpt lat="45.9297" lon="4.76387">
        <ele>169</ele>
        <time>2017-07-20T09:13:41Z</time>
      </trkpt>
      <trkpt lat="45.92973" lon="4.76391">
        <ele>169</ele>
        <time>2017-07-20T09:13:42Z</time>
      </trkpt>
      <trkpt lat="45.92977" lon="4.76395">
        <ele>169</ele>
        <time>2017-07-20T09:13:43Z</time>
      </trkpt>
      <trkpt lat="45.92982" lon="4.76398">
        <ele>169</ele>
        <time>2017-07-20T09:13:44Z</time>
      </trkpt>
      <trkpt lat="45.92986" lon="4.764">
        <ele>169</ele>
        <time>2017-07-20T09:13:45Z</time>
      </trkpt>
      <trkpt lat="45.92993" lon="4.76407">
        <ele>169</ele>
        <time>2017-07-20T09:13:47Z</time>
      </trkpt>
      <trkpt lat="45.92995" lon="4.7641">
        <ele>169</ele>
        <time>2017-07-20T09:13:48Z</time>
      </trkpt>
      <trkpt lat="45.92999" lon="4.76414">
        <ele>169</ele>
        <time>2017-07-20T09:13:49Z</time>
      </trkpt>
      <trkpt lat="45.93004" lon="4.76419">
        <ele>169</ele>
        <time>2017-07-20T09:13:50Z</time>
      </trkpt>
      <trkpt lat="45.93009" lon="4.76424">
        <ele>169</ele>
        <time>2017-07-20T09:13:51Z</time>
      </trkpt>
      <trkpt lat="45.93013" lon="4.76428">
        <ele>169</ele>
        <time>2017-07-20T09:13:52Z</time>
      </trkpt>
      <trkpt lat="45.93018" lon="4.76432">
        <ele>169</ele>
        <time>2017-07-20T09:13:53Z</time>
      </trkpt>
      <trkpt lat="45.93022" lon="4.76436">
        <ele>169</ele>
        <time>2017-07-20T09:13:54Z</time>
      </trkpt>
      <trkpt lat="45.93026" lon="4.7644">
        <ele>169</ele>
        <time>2017-07-20T09:13:55Z</time>
      </trkpt>
      <trkpt lat="45.9303" lon="4.76444">
        <ele>169</ele>
        <time>2017-07-20T09:13:56Z</time>
      </trkpt>
      <trkpt lat="45.93037" lon="4.76451">
        <ele>169</ele>
        <time>2017-07-20T09:13:58Z</time>
      </trkpt>
      <trkpt lat="45.9304" lon="4.76454">
        <ele>169</ele>
        <time>2017-07-20T09:13:59Z</time>
      </trkpt>
      <trkpt lat="45.93047" lon="4.7646">
        <ele>169</ele>
        <time>2017-07-20T09:14:01Z</time>
      </trkpt>
      <trkpt lat="45.9305" lon="4.76464">
        <ele>169</ele>
        <time>2017-07-20T09:14:02Z</time>
      </trkpt>
      <trkpt lat="45.93055" lon="4.76471">
        <ele>169</ele>
        <time>2017-07-20T09:14:04Z</time>
      </trkpt>
      <trkpt lat="45.93058" lon="4.76474">
        <ele>169</ele>
        <time>2017-07-20T09:14:05Z</time>
      </trkpt>
      <trkpt lat="45.93062" lon="4.76478">
        <ele>169</ele>
        <time>2017-07-20T09:14:06Z</time>
      </trkpt>
      <trkpt lat="45.93066" lon="4.76482">
        <ele>169</ele>
        <time>2017-07-20T09:14:07Z</time>
      </trkpt>
      <trkpt lat="45.9307" lon="4.76486">
        <ele>169</ele>
        <time>2017-07-20T09:14:08Z</time>
      </trkpt>
      <trkpt lat="45.93073" lon="4.76491">
        <ele>170</ele>
        <time>2017-07-20T09:14:09Z</time>
      </trkpt>
      <trkpt lat="45.93077" lon="4.76495">
        <ele>170</ele>
        <time>2017-07-20T09:14:10Z</time>
      </trkpt>
      <trkpt lat="45.93082" lon="4.76499">
        <ele>170</ele>
        <time>2017-07-20T09:14:11Z</time>
      </trkpt>
      <trkpt lat="45.93087" lon="4.76504">
        <ele>170</ele>
        <time>2017-07-20T09:14:12Z</time>
      </trkpt>
      <trkpt lat="45.93091" lon="4.76508">
        <ele>170</ele>
        <time>2017-07-20T09:14:13Z</time>
      </trkpt>
      <trkpt lat="45.93095" lon="4.76512">
        <ele>170</ele>
        <time>2017-07-20T09:14:14Z</time>
      </trkpt>
      <trkpt lat="45.931" lon="4.76516">
        <ele>170</ele>
        <time>2017-07-20T09:14:15Z</time>
      </trkpt>
      <trkpt lat="45.93104" lon="4.76519">
        <ele>170</ele>
        <time>2017-07-20T09:14:16Z</time>
      </trkpt>
      <trkpt lat="45.93108" lon="4.76522">
        <ele>170</ele>
        <time>2017-07-20T09:14:17Z</time>
      </trkpt>
      <trkpt lat="45.93114" lon="4.76525">
        <ele>170</ele>
        <time>2017-07-20T09:14:18Z</time>
      </trkpt>
      <trkpt lat="45.93118" lon="4.76528">
        <ele>170</ele>
        <time>2017-07-20T09:14:19Z</time>
      </trkpt>
      <trkpt lat="45.93124" lon="4.76535">
        <ele>170</ele>
        <time>2017-07-20T09:14:21Z</time>
      </trkpt>
      <trkpt lat="45.93128" lon="4.76539">
        <ele>170</ele>
        <time>2017-07-20T09:14:22Z</time>
      </trkpt>
      <trkpt lat="45.93131" lon="4.76544">
        <ele>170</ele>
        <time>2017-07-20T09:14:23Z</time>
      </trkpt>
      <trkpt lat="45.93135" lon="4.76548">
        <ele>170</ele>
        <time>2017-07-20T09:14:24Z</time>
      </trkpt>
      <trkpt lat="45.9314" lon="4.76553">
        <ele>170</ele>
        <time>2017-07-20T09:14:25Z</time>
      </trkpt>
      <trkpt lat="45.93145" lon="4.76559">
        <ele>170</ele>
        <time>2017-07-20T09:14:26Z</time>
      </trkpt>
      <trkpt lat="45.9315" lon="4.76563">
        <ele>170</ele>
        <time>2017-07-20T09:14:27Z</time>
      </trkpt>
      <trkpt lat="45.93155" lon="4.76566">
        <ele>170</ele>
        <time>2017-07-20T09:14:28Z</time>
      </trkpt>
      <trkpt lat="45.93161" lon="4.76569">
        <ele>170</ele>
        <time>2017-07-20T09:14:29Z</time>
      </trkpt>
      <trkpt lat="45.93166" lon="4.76573">
        <ele>171</ele>
        <time>2017-07-20T09:14:30Z</time>
      </trkpt>
      <trkpt lat="45.93171" lon="4.76576">
        <ele>170</ele>
        <time>2017-07-20T09:14:31Z</time>
      </trkpt>
      <trkpt lat="45.93176" lon="4.76578">
        <ele>170</ele>
        <time>2017-07-20T09:14:32Z</time>
      </trkpt>
      <trkpt lat="45.93182" lon="4.76579">
        <ele>170</ele>
        <time>2017-07-20T09:14:33Z</time>
      </trkpt>
      <trkpt lat="45.93187" lon="4.76581">
        <ele>170</ele>
        <time>2017-07-20T09:14:34Z</time>
      </trkpt>
      <trkpt lat="45.9319" lon="4.76577">
        <ele>170</ele>
        <time>2017-07-20T09:14:35Z</time>
      </trkpt>
      <trkpt lat="45.93196" lon="4.76571">
        <ele>169</ele>
        <time>2017-07-20T09:14:36Z</time>
      </trkpt>
      <trkpt lat="45.93201" lon="4.76564">
        <ele>169</ele>
        <time>2017-07-20T09:14:37Z</time>
      </trkpt>
      <trkpt lat="45.93202" lon="4.76558">
        <ele>169</ele>
        <time>2017-07-20T09:14:38Z</time>
      </trkpt>
      <trkpt lat="45.93204" lon="4.76551">
        <ele>169</ele>
        <time>2017-07-20T09:14:39Z</time>
      </trkpt>
      <trkpt lat="45.93205" lon="4.76544">
        <ele>169</ele>
        <time>2017-07-20T09:14:40Z</time>
      </trkpt>
      <trkpt lat="45.93207" lon="4.76538">
        <ele>169</ele>
        <time>2017-07-20T09:14:41Z</time>
      </trkpt>
      <trkpt lat="45.93207" lon="4.76531">
        <ele>169</ele>
        <time>2017-07-20T09:14:42Z</time>
      </trkpt>
      <trkpt lat="45.93209" lon="4.76524">
        <ele>169</ele>
        <time>2017-07-20T09:14:43Z</time>
      </trkpt>
      <trkpt lat="45.9321" lon="4.76518">
        <ele>169</ele>
        <time>2017-07-20T09:14:44Z</time>
      </trkpt>
      <trkpt lat="45.93211" lon="4.76511">
        <ele>169</ele>
        <time>2017-07-20T09:14:45Z</time>
      </trkpt>
      <trkpt lat="45.93212" lon="4.76505">
        <ele>169</ele>
        <time>2017-07-20T09:14:46Z</time>
      </trkpt>
      <trkpt lat="45.93213" lon="4.76498">
        <ele>169</ele>
        <time>2017-07-20T09:14:47Z</time>
      </trkpt>
      <trkpt lat="45.93215" lon="4.76491">
        <ele>169</ele>
        <time>2017-07-20T09:14:48Z</time>
      </trkpt>
      <trkpt lat="45.93216" lon="4.76484">
        <ele>169</ele>
        <time>2017-07-20T09:14:49Z</time>
      </trkpt>
      <trkpt lat="45.93218" lon="4.76476">
        <ele>169</ele>
        <time>2017-07-20T09:14:50Z</time>
      </trkpt>
      <trkpt lat="45.93218" lon="4.76468">
        <ele>169</ele>
        <time>2017-07-20T09:14:51Z</time>
      </trkpt>
      <trkpt lat="45.93218" lon="4.7646">
        <ele>169</ele>
        <time>2017-07-20T09:14:52Z</time>
      </trkpt>
      <trkpt lat="45.93218" lon="4.76451">
        <ele>168</ele>
        <time>2017-07-20T09:14:53Z</time>
      </trkpt>
      <trkpt lat="45.93219" lon="4.76444">
        <ele>168</ele>
        <time>2017-07-20T09:14:54Z</time>
      </trkpt>
      <trkpt lat="45.9322" lon="4.76431">
        <ele>168</ele>
        <time>2017-07-20T09:14:56Z</time>
      </trkpt>
      <trkpt lat="45.93221" lon="4.76426">
        <ele>168</ele>
        <time>2017-07-20T09:14:57Z</time>
      </trkpt>
      <trkpt lat="45.93222" lon="4.76414">
        <ele>168</ele>
        <time>2017-07-20T09:14:59Z</time>
      </trkpt>
      <trkpt lat="45.93222" lon="4.76407">
        <ele>168</ele>
        <time>2017-07-20T09:15:00Z</time>
      </trkpt>
      <trkpt lat="45.93223" lon="4.76401">
        <ele>168</ele>
        <time>2017-07-20T09:15:01Z</time>
      </trkpt>
      <trkpt lat="45.93223" lon="4.76393">
        <ele>168</ele>
        <time>2017-07-20T09:15:02Z</time>
      </trkpt>
      <trkpt lat="45.93223" lon="4.76385">
        <ele>168</ele>
        <time>2017-07-20T09:15:03Z</time>
      </trkpt>
      <trkpt lat="45.93223" lon="4.76378">
        <ele>168</ele>
        <time>2017-07-20T09:15:04Z</time>
      </trkpt>
      <trkpt lat="45.93223" lon="4.76371">
        <ele>168</ele>
        <time>2017-07-20T09:15:05Z</time>
      </trkpt>
      <trkpt lat="45.93224" lon="4.76364">
        <ele>168</ele>
        <time>2017-07-20T09:15:06Z</time>
      </trkpt>
      <trkpt lat="45.93223" lon="4.76353">
        <ele>168</ele>
        <time>2017-07-20T09:15:08Z</time>
      </trkpt>
      <trkpt lat="45.93223" lon="4.76347">
        <ele>168</ele>
        <time>2017-07-20T09:15:09Z</time>
      </trkpt>
      <trkpt lat="45.93222" lon="4.76338">
        <ele>168</ele>
        <time>2017-07-20T09:15:11Z</time>
      </trkpt>
      <trkpt lat="45.93223" lon="4.76332">
        <ele>169</ele>
        <time>2017-07-20T09:15:12Z</time>
      </trkpt>
      <trkpt lat="45.93224" lon="4.7632">
        <ele>169</ele>
        <time>2017-07-20T09:15:14Z</time>
      </trkpt>
      <trkpt lat="45.93226" lon="4.76314">
        <ele>169</ele>
        <time>2017-07-20T09:15:15Z</time>
      </trkpt>
      <trkpt lat="45.93227" lon="4.76308">
        <ele>169</ele>
        <time>2017-07-20T09:15:16Z</time>
      </trkpt>
      <trkpt lat="45.9323" lon="4.76301">
        <ele>169</ele>
        <time>2017-07-20T09:15:17Z</time>
      </trkpt>
      <trkpt lat="45.93234" lon="4.76292">
        <ele>169</ele>
        <time>2017-07-20T09:15:18Z</time>
      </trkpt>
      <trkpt lat="45.93236" lon="4.76288">
        <ele>169</ele>
        <time>2017-07-20T09:15:19Z</time>
      </trkpt>
      <trkpt lat="45.93242" lon="4.76287">
        <ele>169</ele>
        <time>2017-07-20T09:15:21Z</time>
      </trkpt>
      <trkpt lat="45.93246" lon="4.76289">
        <ele>169</ele>
        <time>2017-07-20T09:15:22Z</time>
      </trkpt>
      <trkpt lat="45.93252" lon="4.7629">
        <ele>169</ele>
        <time>2017-07-20T09:15:23Z</time>
      </trkpt>
      <trkpt lat="45.93255" lon="4.76291">
        <ele>169</ele>
        <time>2017-07-20T09:15:24Z</time>
      </trkpt>
      <trkpt lat="45.93263" lon="4.76297">
        <ele>168</ele>
        <time>2017-07-20T09:15:27Z</time>
      </trkpt>
      <trkpt lat="45.93265" lon="4.76299">
        <ele>168</ele>
        <time>2017-07-20T09:15:28Z</time>
      </trkpt>
      <trkpt lat="45.93271" lon="4.76303">
        <ele>168</ele>
        <time>2017-07-20T09:15:30Z</time>
      </trkpt>
      <trkpt lat="45.93274" lon="4.76307">
        <ele>168</ele>
        <time>2017-07-20T09:15:31Z</time>
      </trkpt>
      <trkpt lat="45.93281" lon="4.7631">
        <ele>168</ele>
        <time>2017-07-20T09:15:33Z</time>
      </trkpt>
      <trkpt lat="45.93284" lon="4.76311">
        <ele>168</ele>
        <time>2017-07-20T09:15:34Z</time>
      </trkpt>
      <trkpt lat="45.93289" lon="4.76319">
        <ele>168</ele>
        <time>2017-07-20T09:15:37Z</time>
      </trkpt>
      <trkpt lat="45.93292" lon="4.76321">
        <ele>168</ele>
        <time>2017-07-20T09:15:38Z</time>
      </trkpt>
      <trkpt lat="45.93298" lon="4.76324">
        <ele>168</ele>
        <time>2017-07-20T09:15:39Z</time>
      </trkpt>
      <trkpt lat="45.93303" lon="4.76327">
        <ele>168</ele>
        <time>2017-07-20T09:15:40Z</time>
      </trkpt>
      <trkpt lat="45.93308" lon="4.7633">
        <ele>168</ele>
        <time>2017-07-20T09:15:41Z</time>
      </trkpt>
      <trkpt lat="45.93313" lon="4.76333">
        <ele>169</ele>
        <time>2017-07-20T09:15:42Z</time>
      </trkpt>
      <trkpt lat="45.93316" lon="4.76338">
        <ele>169</ele>
        <time>2017-07-20T09:15:43Z</time>
      </trkpt>
      <trkpt lat="45.93319" lon="4.76342">
        <ele>169</ele>
        <time>2017-07-20T09:15:44Z</time>
      </trkpt>
      <trkpt lat="45.93325" lon="4.7634">
        <ele>169</ele>
        <time>2017-07-20T09:15:45Z</time>
      </trkpt>
      <trkpt lat="45.93329" lon="4.76344">
        <ele>169</ele>
        <time>2017-07-20T09:15:46Z</time>
      </trkpt>
      <trkpt lat="45.93332" lon="4.76349">
        <ele>169</ele>
        <time>2017-07-20T09:15:47Z</time>
      </trkpt>
      <trkpt lat="45.93336" lon="4.76353">
        <ele>168</ele>
        <time>2017-07-20T09:15:48Z</time>
      </trkpt>
      <trkpt lat="45.93342" lon="4.7636">
        <ele>168</ele>
        <time>2017-07-20T09:15:50Z</time>
      </trkpt>
      <trkpt lat="45.93345" lon="4.76361">
        <ele>168</ele>
        <time>2017-07-20T09:15:51Z</time>
      </trkpt>
      <trkpt lat="45.9335" lon="4.76366">
        <ele>168</ele>
        <time>2017-07-20T09:15:53Z</time>
      </trkpt>
      <trkpt lat="45.93353" lon="4.76369">
        <ele>168</ele>
        <time>2017-07-20T09:15:54Z</time>
      </trkpt>
      <trkpt lat="45.93358" lon="4.76374">
        <ele>168</ele>
        <time>2017-07-20T09:15:56Z</time>
      </trkpt>
      <trkpt lat="45.93361" lon="4.76377">
        <ele>168</ele>
        <time>2017-07-20T09:15:57Z</time>
      </trkpt>
      <trkpt lat="45.93366" lon="4.76387">
        <ele>168</ele>
        <time>2017-07-20T09:15:59Z</time>
      </trkpt>
      <trkpt lat="45.93369" lon="4.76392">
        <ele>168</ele>
        <time>2017-07-20T09:16:00Z</time>
      </trkpt>
      <trkpt lat="45.93373" lon="4.76397">
        <ele>168</ele>
        <time>2017-07-20T09:16:01Z</time>
      </trkpt>
      <trkpt lat="45.93377" lon="4.76401">
        <ele>168</ele>
        <time>2017-07-20T09:16:02Z</time>
      </trkpt>
      <trkpt lat="45.93384" lon="4.76408">
        <ele>168</ele>
        <time>2017-07-20T09:16:04Z</time>
      </trkpt>
      <trkpt lat="45.93387" lon="4.76411">
        <ele>167</ele>
        <time>2017-07-20T09:16:05Z</time>
      </trkpt>
      <trkpt lat="45.93392" lon="4.76418">
        <ele>168</ele>
        <time>2017-07-20T09:16:07Z</time>
      </trkpt>
      <trkpt lat="45.93395" lon="4.7642">
        <ele>167</ele>
        <time>2017-07-20T09:16:08Z</time>
      </trkpt>
      <trkpt lat="45.93403" lon="4.76425">
        <ele>167</ele>
        <time>2017-07-20T09:16:10Z</time>
      </trkpt>
      <trkpt lat="45.93407" lon="4.76428">
        <ele>167</ele>
        <time>2017-07-20T09:16:11Z</time>
      </trkpt>
      <trkpt lat="45.93412" lon="4.76431">
        <ele>167</ele>
        <time>2017-07-20T09:16:12Z</time>
      </trkpt>
      <trkpt lat="45.93418" lon="4.76435">
        <ele>167</ele>
        <time>2017-07-20T09:16:13Z</time>
      </trkpt>
      <trkpt lat="45.93422" lon="4.7644">
        <ele>167</ele>
        <time>2017-07-20T09:16:14Z</time>
      </trkpt>
      <trkpt lat="45.93426" lon="4.76444">
        <ele>167</ele>
        <time>2017-07-20T09:16:15Z</time>
      </trkpt>
      <trkpt lat="45.93432" lon="4.76451">
        <ele>167</ele>
        <time>2017-07-20T09:16:17Z</time>
      </trkpt>
      <trkpt lat="45.93436" lon="4.76454">
        <ele>167</ele>
        <time>2017-07-20T09:16:18Z</time>
      </trkpt>
      <trkpt lat="45.93441" lon="4.76461">
        <ele>167</ele>
        <time>2017-07-20T09:16:20Z</time>
      </trkpt>
      <trkpt lat="45.93444" lon="4.76465">
        <ele>167</ele>
        <time>2017-07-20T09:16:21Z</time>
      </trkpt>
      <trkpt lat="45.93448" lon="4.76474">
        <ele>167</ele>
        <time>2017-07-20T09:16:23Z</time>
      </trkpt>
      <trkpt lat="45.93452" lon="4.76477">
        <ele>167</ele>
        <time>2017-07-20T09:16:24Z</time>
      </trkpt>
      <trkpt lat="45.93453" lon="4.76487">
        <ele>167</ele>
        <time>2017-07-20T09:16:26Z</time>
      </trkpt>
      <trkpt lat="45.93454" lon="4.7649">
        <ele>167</ele>
        <time>2017-07-20T09:16:27Z</time>
      </trkpt>
      <trkpt lat="45.93459" lon="4.76498">
        <ele>167</ele>
        <time>2017-07-20T09:16:30Z</time>
      </trkpt>
      <trkpt lat="45.93461" lon="4.765">
        <ele>168</ele>
        <time>2017-07-20T09:16:31Z</time>
      </trkpt>
      <trkpt lat="45.93466" lon="4.76507">
        <ele>168</ele>
        <time>2017-07-20T09:16:34Z</time>
      </trkpt>
      <trkpt lat="45.9347" lon="4.7651">
        <ele>168</ele>
        <time>2017-07-20T09:16:35Z</time>
      </trkpt>
      <trkpt lat="45.93476" lon="4.76518">
        <ele>168</ele>
        <time>2017-07-20T09:16:37Z</time>
      </trkpt>
      <trkpt lat="45.93479" lon="4.76522">
        <ele>168</ele>
        <time>2017-07-20T09:16:38Z</time>
      </trkpt>
      <trkpt lat="45.93484" lon="4.76526">
        <ele>168</ele>
        <time>2017-07-20T09:16:39Z</time>
      </trkpt>
      <trkpt lat="45.93488" lon="4.76529">
        <ele>168</ele>
        <time>2017-07-20T09:16:40Z</time>
      </trkpt>
      <trkpt lat="45.93494" lon="4.76535">
        <ele>168</ele>
        <time>2017-07-20T09:16:42Z</time>
      </trkpt>
      <trkpt lat="45.93497" lon="4.76538">
        <ele>168</ele>
        <time>2017-07-20T09:16:43Z</time>
      </trkpt>
      <trkpt lat="45.93502" lon="4.76544">
        <ele>167</ele>
        <time>2017-07-20T09:16:45Z</time>
      </trkpt>
      <trkpt lat="45.93505" lon="4.76546">
        <ele>168</ele>
        <time>2017-07-20T09:16:46Z</time>
      </trkpt>
      <trkpt lat="45.93509" lon="4.76553">
        <ele>168</ele>
        <time>2017-07-20T09:16:48Z</time>
      </trkpt>
      <trkpt lat="45.93511" lon="4.76558">
        <ele>168</ele>
        <time>2017-07-20T09:16:49Z</time>
      </trkpt>
      <trkpt lat="45.93517" lon="4.76565">
        <ele>168</ele>
        <time>2017-07-20T09:16:51Z</time>
      </trkpt>
      <trkpt lat="45.93519" lon="4.76568">
        <ele>168</ele>
        <time>2017-07-20T09:16:52Z</time>
      </trkpt>
      <trkpt lat="45.93527" lon="4.76572">
        <ele>168</ele>
        <time>2017-07-20T09:16:54Z</time>
      </trkpt>
      <trkpt lat="45.9353" lon="4.76575">
        <ele>168</ele>
        <time>2017-07-20T09:16:55Z</time>
      </trkpt>
      <trkpt lat="45.93537" lon="4.76582">
        <ele>168</ele>
        <time>2017-07-20T09:16:57Z</time>
      </trkpt>
      <trkpt lat="45.9354" lon="4.76585">
        <ele>169</ele>
        <time>2017-07-20T09:16:58Z</time>
      </trkpt>
      <trkpt lat="45.93546" lon="4.76594">
        <ele>169</ele>
        <time>2017-07-20T09:17:00Z</time>
      </trkpt>
      <trkpt lat="45.93549" lon="4.76598">
        <ele>169</ele>
        <time>2017-07-20T09:17:01Z</time>
      </trkpt>
      <trkpt lat="45.93555" lon="4.76604">
        <ele>169</ele>
        <time>2017-07-20T09:17:03Z</time>
      </trkpt>
      <trkpt lat="45.93557" lon="4.76607">
        <ele>169</ele>
        <time>2017-07-20T09:17:04Z</time>
      </trkpt>
      <trkpt lat="45.93562" lon="4.76616">
        <ele>169</ele>
        <time>2017-07-20T09:17:07Z</time>
      </trkpt>
      <trkpt lat="45.93564" lon="4.76619">
        <ele>169</ele>
        <time>2017-07-20T09:17:08Z</time>
      </trkpt>
      <trkpt lat="45.9357" lon="4.76625">
        <ele>169</ele>
        <time>2017-07-20T09:17:11Z</time>
      </trkpt>
      <trkpt lat="45.93572" lon="4.76627">
        <ele>169</ele>
        <time>2017-07-20T09:17:12Z</time>
      </trkpt>
      <trkpt lat="45.93577" lon="4.76634">
        <ele>169</ele>
        <time>2017-07-20T09:17:14Z</time>
      </trkpt>
      <trkpt lat="45.93579" lon="4.76638">
        <ele>170</ele>
        <time>2017-07-20T09:17:15Z</time>
      </trkpt>
      <trkpt lat="45.93586" lon="4.76646">
        <ele>169</ele>
        <time>2017-07-20T09:17:17Z</time>
      </trkpt>
      <trkpt lat="45.93587" lon="4.7665">
        <ele>169</ele>
        <time>2017-07-20T09:17:18Z</time>
      </trkpt>
      <trkpt lat="45.93587" lon="4.7666">
        <ele>170</ele>
        <time>2017-07-20T09:17:20Z</time>
      </trkpt>
      <trkpt lat="45.93587" lon="4.76665">
        <ele>170</ele>
        <time>2017-07-20T09:17:21Z</time>
      </trkpt>
      <trkpt lat="45.9359" lon="4.76673">
        <ele>170</ele>
        <time>2017-07-20T09:17:23Z</time>
      </trkpt>
      <trkpt lat="45.93587" lon="4.76679">
        <ele>170</ele>
        <time>2017-07-20T09:17:24Z</time>
      </trkpt>
      <trkpt lat="45.9359" lon="4.7669">
        <ele>170</ele>
        <time>2017-07-20T09:17:26Z</time>
      </trkpt>
      <trkpt lat="45.93594" lon="4.76693">
        <ele>169</ele>
        <time>2017-07-20T09:17:27Z</time>
      </trkpt>
      <trkpt lat="45.93599" lon="4.76697">
        <ele>169</ele>
        <time>2017-07-20T09:17:28Z</time>
      </trkpt>
      <trkpt lat="45.93602" lon="4.76703">
        <ele>169</ele>
        <time>2017-07-20T09:17:29Z</time>
      </trkpt>
      <trkpt lat="45.93605" lon="4.76709">
        <ele>169</ele>
        <time>2017-07-20T09:17:30Z</time>
      </trkpt>
      <trkpt lat="45.93609" lon="4.76717">
        <ele>169</ele>
        <time>2017-07-20T09:17:31Z</time>
      </trkpt>
      <trkpt lat="45.93612" lon="4.76724">
        <ele>169</ele>
        <time>2017-07-20T09:17:32Z</time>
      </trkpt>
      <trkpt lat="45.93614" lon="4.76728">
        <ele>169</ele>
        <time>2017-07-20T09:17:33Z</time>
      </trkpt>
      <trkpt lat="45.93619" lon="4.76738">
        <ele>169</ele>
        <time>2017-07-20T09:17:35Z</time>
      </trkpt>
      <trkpt lat="45.93621" lon="4.76743">
        <ele>169</ele>
        <time>2017-07-20T09:17:36Z</time>
      </trkpt>
      <trkpt lat="45.93623" lon="4.76749">
        <ele>169</ele>
        <time>2017-07-20T09:17:37Z</time>
      </trkpt>
      <trkpt lat="45.93626" lon="4.76754">
        <ele>168</ele>
        <time>2017-07-20T09:17:38Z</time>
      </trkpt>
      <trkpt lat="45.93629" lon="4.76759">
        <ele>168</ele>
        <time>2017-07-20T09:17:39Z</time>
      </trkpt>
      <trkpt lat="45.93631" lon="4.76765">
        <ele>168</ele>
        <time>2017-07-20T09:17:40Z</time>
      </trkpt>
      <trkpt lat="45.93635" lon="4.76771">
        <ele>168</ele>
        <time>2017-07-20T09:17:41Z</time>
      </trkpt>
      <trkpt lat="45.93638" lon="4.76777">
        <ele>168</ele>
        <time>2017-07-20T09:17:42Z</time>
      </trkpt>
      <trkpt lat="45.93643" lon="4.76786">
        <ele>168</ele>
        <time>2017-07-20T09:17:44Z</time>
      </trkpt>
      <trkpt lat="45.93644" lon="4.76791">
        <ele>168</ele>
        <time>2017-07-20T09:17:45Z</time>
      </trkpt>
      <trkpt lat="45.93648" lon="4.76798">
        <ele>167</ele>
        <time>2017-07-20T09:17:47Z</time>
      </trkpt>
      <trkpt lat="45.9365" lon="4.76801">
        <ele>167</ele>
        <time>2017-07-20T09:17:48Z</time>
      </trkpt>
      <trkpt lat="45.93653" lon="4.76808">
        <ele>167</ele>
        <time>2017-07-20T09:17:50Z</time>
      </trkpt>
      <trkpt lat="45.93656" lon="4.76813">
        <ele>167</ele>
        <time>2017-07-20T09:17:51Z</time>
      </trkpt>
      <trkpt lat="45.93661" lon="4.76822">
        <ele>167</ele>
        <time>2017-07-20T09:17:53Z</time>
      </trkpt>
      <trkpt lat="45.93663" lon="4.76826">
        <ele>167</ele>
        <time>2017-07-20T09:17:54Z</time>
      </trkpt>
      <trkpt lat="45.93668" lon="4.76836">
        <ele>166</ele>
        <time>2017-07-20T09:17:56Z</time>
      </trkpt>
      <trkpt lat="45.9367" lon="4.7684">
        <ele>166</ele>
        <time>2017-07-20T09:17:57Z</time>
      </trkpt>
      <trkpt lat="45.93674" lon="4.76848">
        <ele>167</ele>
        <time>2017-07-20T09:17:59Z</time>
      </trkpt>
      <trkpt lat="45.93678" lon="4.76852">
        <ele>167</ele>
        <time>2017-07-20T09:18:00Z</time>
      </trkpt>
      <trkpt lat="45.93681" lon="4.76859">
        <ele>167</ele>
        <time>2017-07-20T09:18:02Z</time>
      </trkpt>
      <trkpt lat="45.93684" lon="4.76865">
        <ele>167</ele>
        <time>2017-07-20T09:18:03Z</time>
      </trkpt>
      <trkpt lat="45.9369" lon="4.76871">
        <ele>167</ele>
        <time>2017-07-20T09:18:05Z</time>
      </trkpt>
      <trkpt lat="45.93693" lon="4.76875">
        <ele>167</ele>
        <time>2017-07-20T09:18:06Z</time>
      </trkpt>
      <trkpt lat="45.93698" lon="4.76878">
        <ele>167</ele>
        <time>2017-07-20T09:18:07Z</time>
      </trkpt>
      <trkpt lat="45.93703" lon="4.76885">
        <ele>167</ele>
        <time>2017-07-20T09:18:08Z</time>
      </trkpt>
      <trkpt lat="45.93704" lon="4.76897">
        <ele>168</ele>
        <time>2017-07-20T09:18:10Z</time>
      </trkpt>
      <trkpt lat="45.93705" lon="4.76903">
        <ele>168</ele>
        <time>2017-07-20T09:18:11Z</time>
      </trkpt>
      <trkpt lat="45.93711" lon="4.76909">
        <ele>168</ele>
        <time>2017-07-20T09:18:13Z</time>
      </trkpt>
      <trkpt lat="45.93713" lon="4.76912">
        <ele>168</ele>
        <time>2017-07-20T09:18:14Z</time>
      </trkpt>
      <trkpt lat="45.93716" lon="4.76919">
        <ele>169</ele>
        <time>2017-07-20T09:18:16Z</time>
      </trkpt>
      <trkpt lat="45.93718" lon="4.76923">
        <ele>169</ele>
        <time>2017-07-20T09:18:17Z</time>
      </trkpt>
      <trkpt lat="45.93722" lon="4.76931">
        <ele>169</ele>
        <time>2017-07-20T09:18:19Z</time>
      </trkpt>
      <trkpt lat="45.93724" lon="4.76935">
        <ele>169</ele>
        <time>2017-07-20T09:18:20Z</time>
      </trkpt>
      <trkpt lat="45.93727" lon="4.76939">
        <ele>169</ele>
        <time>2017-07-20T09:18:21Z</time>
      </trkpt>
      <trkpt lat="45.93732" lon="4.76941">
        <ele>169</ele>
        <time>2017-07-20T09:18:22Z</time>
      </trkpt>
      <trkpt lat="45.93737" lon="4.76947">
        <ele>169</ele>
        <time>2017-07-20T09:18:24Z</time>
      </trkpt>
      <trkpt lat="45.93738" lon="4.76953">
        <ele>169</ele>
        <time>2017-07-20T09:18:25Z</time>
      </trkpt>
      <trkpt lat="45.93742" lon="4.76961">
        <ele>169</ele>
        <time>2017-07-20T09:18:27Z</time>
      </trkpt>
      <trkpt lat="45.93744" lon="4.76966">
        <ele>169</ele>
        <time>2017-07-20T09:18:28Z</time>
      </trkpt>
      <trkpt lat="45.93748" lon="4.7697">
        <ele>169</ele>
        <time>2017-07-20T09:18:29Z</time>
      </trkpt>
      <trkpt lat="45.93752" lon="4.76975">
        <ele>168</ele>
        <time>2017-07-20T09:18:30Z</time>
      </trkpt>
      <trkpt lat="45.93757" lon="4.76985">
        <ele>168</ele>
        <time>2017-07-20T09:18:32Z</time>
      </trkpt>
      <trkpt lat="45.93761" lon="4.76991">
        <ele>168</ele>
        <time>2017-07-20T09:18:33Z</time>
      </trkpt>
      <trkpt lat="45.93766" lon="4.77001">
        <ele>169</ele>
        <time>2017-07-20T09:18:35Z</time>
      </trkpt>
      <trkpt lat="45.93769" lon="4.77005">
        <ele>169</ele>
        <time>2017-07-20T09:18:36Z</time>
      </trkpt>
      <trkpt lat="45.93772" lon="4.77013">
        <ele>168</ele>
        <time>2017-07-20T09:18:38Z</time>
      </trkpt>
      <trkpt lat="45.93774" lon="4.77017">
        <ele>168</ele>
        <time>2017-07-20T09:18:39Z</time>
      </trkpt>
      <trkpt lat="45.93778" lon="4.77025">
        <ele>168</ele>
        <time>2017-07-20T09:18:41Z</time>
      </trkpt>
      <trkpt lat="45.9378" lon="4.7703">
        <ele>168</ele>
        <time>2017-07-20T09:18:42Z</time>
      </trkpt>
      <trkpt lat="45.93783" lon="4.77037">
        <ele>168</ele>
        <time>2017-07-20T09:18:44Z</time>
      </trkpt>
      <trkpt lat="45.93784" lon="4.77043">
        <ele>168</ele>
        <time>2017-07-20T09:18:45Z</time>
      </trkpt>
      <trkpt lat="45.93787" lon="4.77051">
        <ele>168</ele>
        <time>2017-07-20T09:18:47Z</time>
      </trkpt>
      <trkpt lat="45.93788" lon="4.77056">
        <ele>168</ele>
        <time>2017-07-20T09:18:48Z</time>
      </trkpt>
      <trkpt lat="45.9379" lon="4.77064">
        <ele>168</ele>
        <time>2017-07-20T09:18:50Z</time>
      </trkpt>
      <trkpt lat="45.93791" lon="4.77068">
        <ele>168</ele>
        <time>2017-07-20T09:18:51Z</time>
      </trkpt>
      <trkpt lat="45.93795" lon="4.7708">
        <ele>168</ele>
        <time>2017-07-20T09:18:54Z</time>
      </trkpt>
      <trkpt lat="45.93795" lon="4.77084">
        <ele>169</ele>
        <time>2017-07-20T09:18:55Z</time>
      </trkpt>
      <trkpt lat="45.93796" lon="4.77095">
        <ele>169</ele>
        <time>2017-07-20T09:18:57Z</time>
      </trkpt>
      <trkpt lat="45.93797" lon="4.77099">
        <ele>169</ele>
        <time>2017-07-20T09:18:58Z</time>
      </trkpt>
      <trkpt lat="45.93796" lon="4.77108">
        <ele>169</ele>
        <time>2017-07-20T09:19:00Z</time>
      </trkpt>
      <trkpt lat="45.93795" lon="4.77113">
        <ele>169</ele>
        <time>2017-07-20T09:19:01Z</time>
      </trkpt>
      <trkpt lat="45.93795" lon="4.77125">
        <ele>169</ele>
        <time>2017-07-20T09:19:04Z</time>
      </trkpt>
      <trkpt lat="45.93795" lon="4.77128">
        <ele>169</ele>
        <time>2017-07-20T09:19:05Z</time>
      </trkpt>
      <trkpt lat="45.938" lon="4.77137">
        <ele>169</ele>
        <time>2017-07-20T09:19:08Z</time>
      </trkpt>
      <trkpt lat="45.93802" lon="4.77139">
        <ele>169</ele>
        <time>2017-07-20T09:19:09Z</time>
      </trkpt>
      <trkpt lat="45.93802" lon="4.77149">
        <ele>169</ele>
        <time>2017-07-20T09:19:11Z</time>
      </trkpt>
      <trkpt lat="45.93801" lon="4.77158">
        <ele>169</ele>
        <time>2017-07-20T09:19:12Z</time>
      </trkpt>
      <trkpt lat="45.93808" lon="4.77165">
        <ele>168</ele>
        <time>2017-07-20T09:19:15Z</time>
      </trkpt>
      <trkpt lat="45.9381" lon="4.77166">
        <ele>168</ele>
        <time>2017-07-20T09:19:16Z</time>
      </trkpt>
      <trkpt lat="45.93817" lon="4.77169">
        <ele>168</ele>
        <time>2017-07-20T09:19:20Z</time>
      </trkpt>
      <trkpt lat="45.93819" lon="4.7717">
        <ele>168</ele>
        <time>2017-07-20T09:19:21Z</time>
      </trkpt>
      <trkpt lat="45.93825" lon="4.77173">
        <ele>167</ele>
        <time>2017-07-20T09:19:23Z</time>
      </trkpt>
      <trkpt lat="45.9383" lon="4.77179">
        <ele>168</ele>
        <time>2017-07-20T09:19:24Z</time>
      </trkpt>
      <trkpt lat="45.93835" lon="4.77185">
        <ele>167</ele>
        <time>2017-07-20T09:19:25Z</time>
      </trkpt>
      <trkpt lat="45.93838" lon="4.77187">
        <ele>167</ele>
        <time>2017-07-20T09:19:26Z</time>
      </trkpt>
      <trkpt lat="45.93842" lon="4.7719">
        <ele>167</ele>
        <time>2017-07-20T09:19:27Z</time>
      </trkpt>
      <trkpt lat="45.93847" lon="4.77196">
        <ele>167</ele>
        <time>2017-07-20T09:19:28Z</time>
      </trkpt>
      <trkpt lat="45.93855" lon="4.772">
        <ele>168</ele>
        <time>2017-07-20T09:19:30Z</time>
      </trkpt>
      <trkpt lat="45.9386" lon="4.77201">
        <ele>168</ele>
        <time>2017-07-20T09:19:31Z</time>
      </trkpt>
      <trkpt lat="45.93862" lon="4.77204">
        <ele>168</ele>
        <time>2017-07-20T09:19:32Z</time>
      </trkpt>
      <trkpt lat="45.93869" lon="4.77204">
        <ele>168</ele>
        <time>2017-07-20T09:19:33Z</time>
      </trkpt>
      <trkpt lat="45.93872" lon="4.77206">
        <ele>168</ele>
        <time>2017-07-20T09:19:34Z</time>
      </trkpt>
      <trkpt lat="45.93873" lon="4.77215">
        <ele>168</ele>
        <time>2017-07-20T09:19:35Z</time>
      </trkpt>
      <trkpt lat="45.9388" lon="4.77221">
        <ele>168</ele>
        <time>2017-07-20T09:19:37Z</time>
      </trkpt>
      <trkpt lat="45.93884" lon="4.77223">
        <ele>168</ele>
        <time>2017-07-20T09:19:38Z</time>
      </trkpt>
      <trkpt lat="45.93891" lon="4.77228">
        <ele>167</ele>
        <time>2017-07-20T09:19:39Z</time>
      </trkpt>
      <trkpt lat="45.93895" lon="4.77229">
        <ele>167</ele>
        <time>2017-07-20T09:19:40Z</time>
      </trkpt>
      <trkpt lat="45.93901" lon="4.77232">
        <ele>167</ele>
        <time>2017-07-20T09:19:41Z</time>
      </trkpt>
      <trkpt lat="45.93906" lon="4.77234">
        <ele>167</ele>
        <time>2017-07-20T09:19:42Z</time>
      </trkpt>
      <trkpt lat="45.93913" lon="4.77236">
        <ele>167</ele>
        <time>2017-07-20T09:19:44Z</time>
      </trkpt>
      <trkpt lat="45.93915" lon="4.77236">
        <ele>167</ele>
        <time>2017-07-20T09:19:45Z</time>
      </trkpt>
      <trkpt lat="45.93923" lon="4.77239">
        <ele>167</ele>
        <time>2017-07-20T09:19:48Z</time>
      </trkpt>
      <trkpt lat="45.93926" lon="4.77239">
        <ele>167</ele>
        <time>2017-07-20T09:19:49Z</time>
      </trkpt>
      <trkpt lat="45.93934" lon="4.77241">
        <ele>167</ele>
        <time>2017-07-20T09:19:52Z</time>
      </trkpt>
      <trkpt lat="45.93937" lon="4.77241">
        <ele>167</ele>
        <time>2017-07-20T09:19:53Z</time>
      </trkpt>
      <trkpt lat="45.93943" lon="4.77243">
        <ele>168</ele>
        <time>2017-07-20T09:19:55Z</time>
      </trkpt>
      <trkpt lat="45.93946" lon="4.77243">
        <ele>168</ele>
        <time>2017-07-20T09:19:56Z</time>
      </trkpt>
      <trkpt lat="45.93955" lon="4.77245">
        <ele>168</ele>
        <time>2017-07-20T09:19:59Z</time>
      </trkpt>
      <trkpt lat="45.93958" lon="4.77246">
        <ele>168</ele>
        <time>2017-07-20T09:20:00Z</time>
      </trkpt>
      <trkpt lat="45.93965" lon="4.77248">
        <ele>169</ele>
        <time>2017-07-20T09:20:02Z</time>
      </trkpt>
      <trkpt lat="45.93969" lon="4.77248">
        <ele>169</ele>
        <time>2017-07-20T09:20:03Z</time>
      </trkpt>
      <trkpt lat="45.93974" lon="4.7725">
        <ele>169</ele>
        <time>2017-07-20T09:20:04Z</time>
      </trkpt>
      <trkpt lat="45.93979" lon="4.77251">
        <ele>169</ele>
        <time>2017-07-20T09:20:05Z</time>
      </trkpt>
      <trkpt lat="45.93987" lon="4.77253">
        <ele>169</ele>
        <time>2017-07-20T09:20:07Z</time>
      </trkpt>
      <trkpt lat="45.93991" lon="4.77254">
        <ele>170</ele>
        <time>2017-07-20T09:20:08Z</time>
      </trkpt>
      <trkpt lat="45.93998" lon="4.77256">
        <ele>170</ele>
        <time>2017-07-20T09:20:10Z</time>
      </trkpt>
      <trkpt lat="45.94001" lon="4.77256">
        <ele>172</ele>
        <time>2017-07-20T09:20:11Z</time>
      </trkpt>
      <trkpt lat="45.94009" lon="4.77257">
        <ele>172</ele>
        <time>2017-07-20T09:20:14Z</time>
      </trkpt>
      <trkpt lat="45.94011" lon="4.77255">
        <ele>173</ele>
        <time>2017-07-20T09:20:15Z</time>
      </trkpt>
      <trkpt lat="45.94014" lon="4.77247">
        <ele>172</ele>
        <time>2017-07-20T09:20:17Z</time>
      </trkpt>
      <trkpt lat="45.94015" lon="4.77243">
        <ele>173</ele>
        <time>2017-07-20T09:20:18Z</time>
      </trkpt>
      <trkpt lat="45.94015" lon="4.77234">
        <ele>173</ele>
        <time>2017-07-20T09:20:23Z</time>
      </trkpt>
      <trkpt lat="45.94016" lon="4.77232">
        <ele>173</ele>
        <time>2017-07-20T09:20:24Z</time>
      </trkpt>
      <trkpt lat="45.94015" lon="4.77229">
        <ele>173</ele>
        <time>2017-07-20T09:20:25Z</time>
      </trkpt>
      <trkpt lat="45.94015" lon="4.77218">
        <ele>174</ele>
        <time>2017-07-20T09:20:29Z</time>
      </trkpt>
      <trkpt lat="45.94014" lon="4.77216">
        <ele>174</ele>
        <time>2017-07-20T09:20:30Z</time>
      </trkpt>
      <trkpt lat="45.9401" lon="4.77224">
        <ele>173</ele>
        <time>2017-07-20T09:20:34Z</time>
      </trkpt>
      <trkpt lat="45.94009" lon="4.77228">
        <ele>173</ele>
        <time>2017-07-20T09:20:35Z</time>
      </trkpt>
      <trkpt lat="45.94003" lon="4.77218">
        <ele>173</ele>
        <time>2017-07-20T09:20:42Z</time>
      </trkpt>
      <trkpt lat="45.94003" lon="4.77215">
        <ele>174</ele>
        <time>2017-07-20T09:20:43Z</time>
      </trkpt>
      <trkpt lat="45.94003" lon="4.77206">
        <ele>174</ele>
        <time>2017-07-20T09:20:45Z</time>
      </trkpt>
      <trkpt lat="45.94003" lon="4.772">
        <ele>174</ele>
        <time>2017-07-20T09:20:46Z</time>
      </trkpt>
      <trkpt lat="45.94003" lon="4.77189">
        <ele>174</ele>
        <time>2017-07-20T09:20:48Z</time>
      </trkpt>
      <trkpt lat="45.94003" lon="4.77184">
        <ele>173</ele>
        <time>2017-07-20T09:20:49Z</time>
      </trkpt>
      <trkpt lat="45.94002" lon="4.77175">
        <ele>173</ele>
        <time>2017-07-20T09:20:51Z</time>
      </trkpt>
      <trkpt lat="45.94002" lon="4.7717">
        <ele>172</ele>
        <time>2017-07-20T09:20:52Z</time>
      </trkpt>
      <trkpt lat="45.94" lon="4.77158">
        <ele>173</ele>
        <time>2017-07-20T09:20:54Z</time>
      </trkpt>
      <trkpt lat="45.93999" lon="4.7715">
        <ele>171</ele>
        <time>2017-07-20T09:20:55Z</time>
      </trkpt>
      <trkpt lat="45.93999" lon="4.77143">
        <ele>170</ele>
        <time>2017-07-20T09:20:56Z</time>
      </trkpt>
      <trkpt lat="45.93998" lon="4.77136">
        <ele>170</ele>
        <time>2017-07-20T09:20:57Z</time>
      </trkpt>
      <trkpt lat="45.93996" lon="4.77129">
        <ele>170</ele>
        <time>2017-07-20T09:20:58Z</time>
      </trkpt>
      <trkpt lat="45.93995" lon="4.77122">
        <ele>170</ele>
        <time>2017-07-20T09:20:59Z</time>
      </trkpt>
      <trkpt lat="45.93994" lon="4.77115">
        <ele>170</ele>
        <time>2017-07-20T09:21:00Z</time>
      </trkpt>
      <trkpt lat="45.93992" lon="4.77108">
        <ele>170</ele>
        <time>2017-07-20T09:21:01Z</time>
      </trkpt>
      <trkpt lat="45.9399" lon="4.771">
        <ele>170</ele>
        <time>2017-07-20T09:21:02Z</time>
      </trkpt>
      <trkpt lat="45.93987" lon="4.77093">
        <ele>171</ele>
        <time>2017-07-20T09:21:03Z</time>
      </trkpt>
      <trkpt lat="45.93984" lon="4.77081">
        <ele>170</ele>
        <time>2017-07-20T09:21:05Z</time>
      </trkpt>
      <trkpt lat="45.93983" lon="4.77075">
        <ele>170</ele>
        <time>2017-07-20T09:21:06Z</time>
      </trkpt>
      <trkpt lat="45.93982" lon="4.77066">
        <ele>170</ele>
        <time>2017-07-20T09:21:08Z</time>
      </trkpt>
      <trkpt lat="45.93982" lon="4.77062">
        <ele>170</ele>
        <time>2017-07-20T09:21:09Z</time>
      </trkpt>
      <trkpt lat="45.93983" lon="4.7705">
        <ele>170</ele>
        <time>2017-07-20T09:21:13Z</time>
      </trkpt>
      <trkpt lat="45.93984" lon="4.77048">
        <ele>170</ele>
        <time>2017-07-20T09:21:14Z</time>
      </trkpt>
      <trkpt lat="45.93991" lon="4.77041">
        <ele>170</ele>
        <time>2017-07-20T09:21:19Z</time>
      </trkpt>
      <trkpt lat="45.93992" lon="4.7704">
        <ele>170</ele>
        <time>2017-07-20T09:21:20Z</time>
      </trkpt>
      <trkpt lat="45.93993" lon="4.77038">
        <ele>170</ele>
        <time>2017-07-20T09:21:29Z</time>
      </trkpt>
      <trkpt lat="45.93994" lon="4.77038">
        <ele>170</ele>
        <time>2017-07-20T09:21:30Z</time>
      </trkpt>
      <trkpt lat="45.93994" lon="4.77038">
        <ele>170</ele>
        <time>2017-07-20T09:23:59Z</time>
      </trkpt>
      <trkpt lat="45.93998" lon="4.77036">
        <ele>170</ele>
        <time>2017-07-20T09:24:00Z</time>
      </trkpt>
      <trkpt lat="45.93998" lon="4.77042">
        <ele>170</ele>
        <time>2017-07-20T09:24:12Z</time>
      </trkpt>
      <trkpt lat="45.93998" lon="4.77042">
        <ele>170</ele>
        <time>2017-07-20T09:24:13Z</time>
      </trkpt>
      <trkpt lat="45.94006" lon="4.77037">
        <ele>173</ele>
        <time>2017-07-20T09:26:27Z</time>
      </trkpt>
      <trkpt lat="45.94006" lon="4.77037">
        <ele>173</ele>
        <time>2017-07-20T09:26:28Z</time>
      </trkpt>
      <trkpt lat="45.94014" lon="4.77042">
        <ele>173</ele>
        <time>2017-07-20T09:27:00Z</time>
      </trkpt>
      <trkpt lat="45.94015" lon="4.77043">
        <ele>173</ele>
        <time>2017-07-20T09:27:01Z</time>
      </trkpt>
      <trkpt lat="45.94024" lon="4.77045">
        <ele>174</ele>
        <time>2017-07-20T09:27:05Z</time>
      </trkpt>
      <trkpt lat="45.94025" lon="4.77045">
        <ele>174</ele>
        <time>2017-07-20T09:27:06Z</time>
      </trkpt>
      <trkpt lat="45.94033" lon="4.77048">
        <ele>174</ele>
        <time>2017-07-20T09:27:10Z</time>
      </trkpt>
      <trkpt lat="45.94035" lon="4.77048">
        <ele>174</ele>
        <time>2017-07-20T09:27:11Z</time>
      </trkpt>
      <trkpt lat="45.94027" lon="4.77047">
        <ele>174</ele>
        <time>2017-07-20T09:27:22Z</time>
      </trkpt>
      <trkpt lat="45.94014" lon="4.77044">
        <ele>173</ele>
        <time>2017-07-20T09:27:23Z</time>
      </trkpt>
      <trkpt lat="45.94007" lon="4.77041">
        <ele>173</ele>
        <time>2017-07-20T09:27:25Z</time>
      </trkpt>
      <trkpt lat="45.94005" lon="4.77041">
        <ele>173</ele>
        <time>2017-07-20T09:27:26Z</time>
      </trkpt>
      <trkpt lat="45.93998" lon="4.77036">
        <ele>170</ele>
        <time>2017-07-20T09:27:42Z</time>
      </trkpt>
      <trkpt lat="45.93997" lon="4.77034">
        <ele>170</ele>
        <time>2017-07-20T09:27:43Z</time>
      </trkpt>
      <trkpt lat="45.93991" lon="4.77029">
        <ele>170</ele>
        <time>2017-07-20T09:27:45Z</time>
      </trkpt>
      <trkpt lat="45.93987" lon="4.77025">
        <ele>170</ele>
        <time>2017-07-20T09:27:46Z</time>
      </trkpt>
      <trkpt lat="45.93982" lon="4.77017">
        <ele>170</ele>
        <time>2017-07-20T09:27:48Z</time>
      </trkpt>
      <trkpt lat="45.9398" lon="4.77013">
        <ele>170</ele>
        <time>2017-07-20T09:27:49Z</time>
      </trkpt>
      <trkpt lat="45.93974" lon="4.77005">
        <ele>169</ele>
        <time>2017-07-20T09:27:52Z</time>
      </trkpt>
      <trkpt lat="45.93973" lon="4.77002">
        <ele>169</ele>
        <time>2017-07-20T09:27:53Z</time>
      </trkpt>
      <trkpt lat="45.9397" lon="4.76995">
        <ele>170</ele>
        <time>2017-07-20T09:27:55Z</time>
      </trkpt>
      <trkpt lat="45.93968" lon="4.7699">
        <ele>170</ele>
        <time>2017-07-20T09:27:56Z</time>
      </trkpt>
      <trkpt lat="45.93965" lon="4.76982">
        <ele>170</ele>
        <time>2017-07-20T09:27:58Z</time>
      </trkpt>
      <trkpt lat="45.93963" lon="4.76978">
        <ele>170</ele>
        <time>2017-07-20T09:27:59Z</time>
      </trkpt>
      <trkpt lat="45.93961" lon="4.76969">
        <ele>170</ele>
        <time>2017-07-20T09:28:01Z</time>
      </trkpt>
      <trkpt lat="45.93959" lon="4.76965">
        <ele>170</ele>
        <time>2017-07-20T09:28:02Z</time>
      </trkpt>
      <trkpt lat="45.93957" lon="4.76957">
        <ele>170</ele>
        <time>2017-07-20T09:28:04Z</time>
      </trkpt>
      <trkpt lat="45.93955" lon="4.76953">
        <ele>170</ele>
        <time>2017-07-20T09:28:05Z</time>
      </trkpt>
      <trkpt lat="45.93954" lon="4.76944">
        <ele>171</ele>
        <time>2017-07-20T09:28:07Z</time>
      </trkpt>
      <trkpt lat="45.93953" lon="4.76939">
        <ele>171</ele>
        <time>2017-07-20T09:28:08Z</time>
      </trkpt>
      <trkpt lat="45.93951" lon="4.76929">
        <ele>171</ele>
        <time>2017-07-20T09:28:10Z</time>
      </trkpt>
      <trkpt lat="45.9395" lon="4.76925">
        <ele>171</ele>
        <time>2017-07-20T09:28:11Z</time>
      </trkpt>
      <trkpt lat="45.93947" lon="4.76913">
        <ele>172</ele>
        <time>2017-07-20T09:28:14Z</time>
      </trkpt>
      <trkpt lat="45.93945" lon="4.7691">
        <ele>172</ele>
        <time>2017-07-20T09:28:15Z</time>
      </trkpt>
      <trkpt lat="45.93942" lon="4.76901">
        <ele>172</ele>
        <time>2017-07-20T09:28:17Z</time>
      </trkpt>
      <trkpt lat="45.9394" lon="4.76896">
        <ele>172</ele>
        <time>2017-07-20T09:28:18Z</time>
      </trkpt>
      <trkpt lat="45.93936" lon="4.76886">
        <ele>172</ele>
        <time>2017-07-20T09:28:20Z</time>
      </trkpt>
      <trkpt lat="45.93934" lon="4.76882">
        <ele>172</ele>
        <time>2017-07-20T09:28:21Z</time>
      </trkpt>
      <trkpt lat="45.93931" lon="4.76872">
        <ele>172</ele>
        <time>2017-07-20T09:28:23Z</time>
      </trkpt>
      <trkpt lat="45.93929" lon="4.76868">
        <ele>172</ele>
        <time>2017-07-20T09:28:24Z</time>
      </trkpt>
      <trkpt lat="45.93925" lon="4.76859">
        <ele>172</ele>
        <time>2017-07-20T09:28:26Z</time>
      </trkpt>
      <trkpt lat="45.93923" lon="4.76855">
        <ele>172</ele>
        <time>2017-07-20T09:28:27Z</time>
      </trkpt>
      <trkpt lat="45.93917" lon="4.76846">
        <ele>173</ele>
        <time>2017-07-20T09:28:29Z</time>
      </trkpt>
      <trkpt lat="45.93914" lon="4.76842">
        <ele>172</ele>
        <time>2017-07-20T09:28:30Z</time>
      </trkpt>
      <trkpt lat="45.93911" lon="4.76837">
        <ele>172</ele>
        <time>2017-07-20T09:28:31Z</time>
      </trkpt>
      <trkpt lat="45.93907" lon="4.76833">
        <ele>172</ele>
        <time>2017-07-20T09:28:32Z</time>
      </trkpt>
      <trkpt lat="45.939" lon="4.76824">
        <ele>172</ele>
        <time>2017-07-20T09:28:34Z</time>
      </trkpt>
      <trkpt lat="45.93898" lon="4.76819">
        <ele>172</ele>
        <time>2017-07-20T09:28:35Z</time>
      </trkpt>
      <trkpt lat="45.93894" lon="4.76814">
        <ele>171</ele>
        <time>2017-07-20T09:28:36Z</time>
      </trkpt>
      <trkpt lat="45.93892" lon="4.76809">
        <ele>171</ele>
        <time>2017-07-20T09:28:37Z</time>
      </trkpt>
      <trkpt lat="45.93887" lon="4.76799">
        <ele>171</ele>
        <time>2017-07-20T09:28:39Z</time>
      </trkpt>
      <trkpt lat="45.93884" lon="4.76794">
        <ele>171</ele>
        <time>2017-07-20T09:28:40Z</time>
      </trkpt>
      <trkpt lat="45.9388" lon="4.76783">
        <ele>171</ele>
        <time>2017-07-20T09:28:42Z</time>
      </trkpt>
      <trkpt lat="45.93877" lon="4.76778">
        <ele>171</ele>
        <time>2017-07-20T09:28:43Z</time>
      </trkpt>
      <trkpt lat="45.93874" lon="4.76773">
        <ele>171</ele>
        <time>2017-07-20T09:28:44Z</time>
      </trkpt>
      <trkpt lat="45.93871" lon="4.76767">
        <ele>171</ele>
        <time>2017-07-20T09:28:45Z</time>
      </trkpt>
      <trkpt lat="45.93868" lon="4.76761">
        <ele>171</ele>
        <time>2017-07-20T09:28:46Z</time>
      </trkpt>
      <trkpt lat="45.93865" lon="4.76756">
        <ele>172</ele>
        <time>2017-07-20T09:28:47Z</time>
      </trkpt>
      <trkpt lat="45.93862" lon="4.7675">
        <ele>172</ele>
        <time>2017-07-20T09:28:48Z</time>
      </trkpt>
      <trkpt lat="45.93859" lon="4.76744">
        <ele>172</ele>
        <time>2017-07-20T09:28:49Z</time>
      </trkpt>
      <trkpt lat="45.93853" lon="4.76734">
        <ele>172</ele>
        <time>2017-07-20T09:28:51Z</time>
      </trkpt>
      <trkpt lat="45.9385" lon="4.76731">
        <ele>172</ele>
        <time>2017-07-20T09:28:52Z</time>
      </trkpt>
      <trkpt lat="45.93845" lon="4.76722">
        <ele>172</ele>
        <time>2017-07-20T09:28:54Z</time>
      </trkpt>
      <trkpt lat="45.93842" lon="4.76718">
        <ele>172</ele>
        <time>2017-07-20T09:28:55Z</time>
      </trkpt>
      <trkpt lat="45.93836" lon="4.76708">
        <ele>172</ele>
        <time>2017-07-20T09:28:57Z</time>
      </trkpt>
      <trkpt lat="45.93833" lon="4.76703">
        <ele>170</ele>
        <time>2017-07-20T09:28:58Z</time>
      </trkpt>
      <trkpt lat="45.9383" lon="4.76698">
        <ele>170</ele>
        <time>2017-07-20T09:28:59Z</time>
      </trkpt>
      <trkpt lat="45.93827" lon="4.76692">
        <ele>170</ele>
        <time>2017-07-20T09:29:00Z</time>
      </trkpt>
      <trkpt lat="45.93823" lon="4.76687">
        <ele>170</ele>
        <time>2017-07-20T09:29:01Z</time>
      </trkpt>
      <trkpt lat="45.9382" lon="4.7668">
        <ele>170</ele>
        <time>2017-07-20T09:29:02Z</time>
      </trkpt>
      <trkpt lat="45.93817" lon="4.76673">
        <ele>170</ele>
        <time>2017-07-20T09:29:03Z</time>
      </trkpt>
      <trkpt lat="45.93813" lon="4.76667">
        <ele>170</ele>
        <time>2017-07-20T09:29:04Z</time>
      </trkpt>
      <trkpt lat="45.9381" lon="4.7666">
        <ele>170</ele>
        <time>2017-07-20T09:29:05Z</time>
      </trkpt>
      <trkpt lat="45.93807" lon="4.76654">
        <ele>170</ele>
        <time>2017-07-20T09:29:06Z</time>
      </trkpt>
      <trkpt lat="45.93804" lon="4.76647">
        <ele>169</ele>
        <time>2017-07-20T09:29:07Z</time>
      </trkpt>
      <trkpt lat="45.93802" lon="4.76641">
        <ele>169</ele>
        <time>2017-07-20T09:29:08Z</time>
      </trkpt>
      <trkpt lat="45.938" lon="4.76635">
        <ele>169</ele>
        <time>2017-07-20T09:29:09Z</time>
      </trkpt>
      <trkpt lat="45.93798" lon="4.76629">
        <ele>169</ele>
        <time>2017-07-20T09:29:10Z</time>
      </trkpt>
      <trkpt lat="45.93796" lon="4.76623">
        <ele>169</ele>
        <time>2017-07-20T09:29:11Z</time>
      </trkpt>
      <trkpt lat="45.93793" lon="4.76616">
        <ele>169</ele>
        <time>2017-07-20T09:29:12Z</time>
      </trkpt>
      <trkpt lat="45.93791" lon="4.7661">
        <ele>169</ele>
        <time>2017-07-20T09:29:13Z</time>
      </trkpt>
      <trkpt lat="45.93789" lon="4.76604">
        <ele>169</ele>
        <time>2017-07-20T09:29:14Z</time>
      </trkpt>
      <trkpt lat="45.93786" lon="4.76597">
        <ele>169</ele>
        <time>2017-07-20T09:29:15Z</time>
      </trkpt>
      <trkpt lat="45.93784" lon="4.76591">
        <ele>169</ele>
        <time>2017-07-20T09:29:16Z</time>
      </trkpt>
      <trkpt lat="45.93779" lon="4.7658">
        <ele>170</ele>
        <time>2017-07-20T09:29:18Z</time>
      </trkpt>
      <trkpt lat="45.93777" lon="4.76574">
        <ele>170</ele>
        <time>2017-07-20T09:29:19Z</time>
      </trkpt>
      <trkpt lat="45.93774" lon="4.76563">
        <ele>170</ele>
        <time>2017-07-20T09:29:21Z</time>
      </trkpt>
      <trkpt lat="45.93772" lon="4.76557">
        <ele>170</ele>
        <time>2017-07-20T09:29:22Z</time>
      </trkpt>
      <trkpt lat="45.9377" lon="4.76551">
        <ele>170</ele>
        <time>2017-07-20T09:29:23Z</time>
      </trkpt>
      <trkpt lat="45.93768" lon="4.76545">
        <ele>170</ele>
        <time>2017-07-20T09:29:24Z</time>
      </trkpt>
      <trkpt lat="45.93766" lon="4.76538">
        <ele>170</ele>
        <time>2017-07-20T09:29:25Z</time>
      </trkpt>
      <trkpt lat="45.93764" lon="4.76532">
        <ele>170</ele>
        <time>2017-07-20T09:29:26Z</time>
      </trkpt>
      <trkpt lat="45.93762" lon="4.76525">
        <ele>170</ele>
        <time>2017-07-20T09:29:27Z</time>
      </trkpt>
      <trkpt lat="45.9376" lon="4.76519">
        <ele>170</ele>
        <time>2017-07-20T09:29:28Z</time>
      </trkpt>
      <trkpt lat="45.93758" lon="4.76512">
        <ele>170</ele>
        <time>2017-07-20T09:29:29Z</time>
      </trkpt>
      <trkpt lat="45.93755" lon="4.76506">
        <ele>170</ele>
        <time>2017-07-20T09:29:30Z</time>
      </trkpt>
      <trkpt lat="45.93752" lon="4.765">
        <ele>170</ele>
        <time>2017-07-20T09:29:31Z</time>
      </trkpt>
      <trkpt lat="45.9375" lon="4.76494">
        <ele>170</ele>
        <time>2017-07-20T09:29:32Z</time>
      </trkpt>
      <trkpt lat="45.93746" lon="4.76483">
        <ele>169</ele>
        <time>2017-07-20T09:29:34Z</time>
      </trkpt>
      <trkpt lat="45.93744" lon="4.76478">
        <ele>169</ele>
        <time>2017-07-20T09:29:35Z</time>
      </trkpt>
      <trkpt lat="45.93739" lon="4.76467">
        <ele>169</ele>
        <time>2017-07-20T09:29:37Z</time>
      </trkpt>
      <trkpt lat="45.93737" lon="4.76461">
        <ele>169</ele>
        <time>2017-07-20T09:29:38Z</time>
      </trkpt>
      <trkpt lat="45.93734" lon="4.76454">
        <ele>169</ele>
        <time>2017-07-20T09:29:39Z</time>
      </trkpt>
      <trkpt lat="45.93732" lon="4.76447">
        <ele>169</ele>
        <time>2017-07-20T09:29:40Z</time>
      </trkpt>
      <trkpt lat="45.93729" lon="4.76441">
        <ele>169</ele>
        <time>2017-07-20T09:29:41Z</time>
      </trkpt>
      <trkpt lat="45.93727" lon="4.76435">
        <ele>169</ele>
        <time>2017-07-20T09:29:42Z</time>
      </trkpt>
      <trkpt lat="45.93724" lon="4.76423">
        <ele>169</ele>
        <time>2017-07-20T09:29:44Z</time>
      </trkpt>
      <trkpt lat="45.93723" lon="4.76417">
        <ele>169</ele>
        <time>2017-07-20T09:29:45Z</time>
      </trkpt>
      <trkpt lat="45.93719" lon="4.76406">
        <ele>169</ele>
        <time>2017-07-20T09:29:47Z</time>
      </trkpt>
      <trkpt lat="45.93717" lon="4.764">
        <ele>169</ele>
        <time>2017-07-20T09:29:48Z</time>
      </trkpt>
      <trkpt lat="45.93715" lon="4.76394">
        <ele>169</ele>
        <time>2017-07-20T09:29:49Z</time>
      </trkpt>
      <trkpt lat="45.93713" lon="4.76388">
        <ele>169</ele>
        <time>2017-07-20T09:29:50Z</time>
      </trkpt>
      <trkpt lat="45.93711" lon="4.76381">
        <ele>169</ele>
        <time>2017-07-20T09:29:51Z</time>
      </trkpt>
      <trkpt lat="45.93708" lon="4.76375">
        <ele>169</ele>
        <time>2017-07-20T09:29:52Z</time>
      </trkpt>
      <trkpt lat="45.93706" lon="4.76369">
        <ele>169</ele>
        <time>2017-07-20T09:29:53Z</time>
      </trkpt>
      <trkpt lat="45.93703" lon="4.76363">
        <ele>169</ele>
        <time>2017-07-20T09:29:54Z</time>
      </trkpt>
      <trkpt lat="45.93701" lon="4.76357">
        <ele>169</ele>
        <time>2017-07-20T09:29:55Z</time>
      </trkpt>
      <trkpt lat="45.93699" lon="4.76351">
        <ele>169</ele>
        <time>2017-07-20T09:29:56Z</time>
      </trkpt>
      <trkpt lat="45.93696" lon="4.7634">
        <ele>169</ele>
        <time>2017-07-20T09:29:58Z</time>
      </trkpt>
      <trkpt lat="45.93695" lon="4.76335">
        <ele>169</ele>
        <time>2017-07-20T09:29:59Z</time>
      </trkpt>
      <trkpt lat="45.93692" lon="4.76326">
        <ele>170</ele>
        <time>2017-07-20T09:30:01Z</time>
      </trkpt>
      <trkpt lat="45.93691" lon="4.76321">
        <ele>170</ele>
        <time>2017-07-20T09:30:02Z</time>
      </trkpt>
      <trkpt lat="45.93687" lon="4.76311">
        <ele>170</ele>
        <time>2017-07-20T09:30:05Z</time>
      </trkpt>
      <trkpt lat="45.93685" lon="4.76307">
        <ele>170</ele>
        <time>2017-07-20T09:30:06Z</time>
      </trkpt>
      <trkpt lat="45.93681" lon="4.76297">
        <ele>170</ele>
        <time>2017-07-20T09:30:08Z</time>
      </trkpt>
      <trkpt lat="45.93678" lon="4.76292">
        <ele>170</ele>
        <time>2017-07-20T09:30:09Z</time>
      </trkpt>
      <trkpt lat="45.93674" lon="4.76281">
        <ele>170</ele>
        <time>2017-07-20T09:30:11Z</time>
      </trkpt>
      <trkpt lat="45.93672" lon="4.76276">
        <ele>170</ele>
        <time>2017-07-20T09:30:12Z</time>
      </trkpt>
      <trkpt lat="45.9367" lon="4.76264">
        <ele>170</ele>
        <time>2017-07-20T09:30:14Z</time>
      </trkpt>
      <trkpt lat="45.93668" lon="4.76258">
        <ele>170</ele>
        <time>2017-07-20T09:30:15Z</time>
      </trkpt>
      <trkpt lat="45.93665" lon="4.76247">
        <ele>170</ele>
        <time>2017-07-20T09:30:17Z</time>
      </trkpt>
      <trkpt lat="45.93663" lon="4.76242">
        <ele>170</ele>
        <time>2017-07-20T09:30:18Z</time>
      </trkpt>
      <trkpt lat="45.93661" lon="4.76235">
        <ele>169</ele>
        <time>2017-07-20T09:30:19Z</time>
      </trkpt>
      <trkpt lat="45.93659" lon="4.7623">
        <ele>169</ele>
        <time>2017-07-20T09:30:20Z</time>
      </trkpt>
      <trkpt lat="45.93657" lon="4.76223">
        <ele>169</ele>
        <time>2017-07-20T09:30:21Z</time>
      </trkpt>
      <trkpt lat="45.93655" lon="4.76216">
        <ele>169</ele>
        <time>2017-07-20T09:30:22Z</time>
      </trkpt>
      <trkpt lat="45.93654" lon="4.76209">
        <ele>169</ele>
        <time>2017-07-20T09:30:23Z</time>
      </trkpt>
      <trkpt lat="45.93652" lon="4.76202">
        <ele>169</ele>
        <time>2017-07-20T09:30:24Z</time>
      </trkpt>
      <trkpt lat="45.9365" lon="4.76196">
        <ele>169</ele>
        <time>2017-07-20T09:30:25Z</time>
      </trkpt>
      <trkpt lat="45.93648" lon="4.76189">
        <ele>170</ele>
        <time>2017-07-20T09:30:26Z</time>
      </trkpt>
      <trkpt lat="45.93646" lon="4.76182">
        <ele>170</ele>
        <time>2017-07-20T09:30:27Z</time>
      </trkpt>
      <trkpt lat="45.93644" lon="4.76176">
        <ele>170</ele>
        <time>2017-07-20T09:30:28Z</time>
      </trkpt>
      <trkpt lat="45.93639" lon="4.76165">
        <ele>170</ele>
        <time>2017-07-20T09:30:30Z</time>
      </trkpt>
      <trkpt lat="45.93637" lon="4.76159">
        <ele>170</ele>
        <time>2017-07-20T09:30:31Z</time>
      </trkpt>
      <trkpt lat="45.93633" lon="4.76148">
        <ele>170</ele>
        <time>2017-07-20T09:30:33Z</time>
      </trkpt>
      <trkpt lat="45.93631" lon="4.76144">
        <ele>170</ele>
        <time>2017-07-20T09:30:34Z</time>
      </trkpt>
      <trkpt lat="45.93626" lon="4.76133">
        <ele>169</ele>
        <time>2017-07-20T09:30:36Z</time>
      </trkpt>
      <trkpt lat="45.93623" lon="4.76128">
        <ele>169</ele>
        <time>2017-07-20T09:30:37Z</time>
      </trkpt>
      <trkpt lat="45.93621" lon="4.76122">
        <ele>169</ele>
        <time>2017-07-20T09:30:38Z</time>
      </trkpt>
      <trkpt lat="45.9362" lon="4.76115">
        <ele>169</ele>
        <time>2017-07-20T09:30:39Z</time>
      </trkpt>
      <trkpt lat="45.93619" lon="4.76109">
        <ele>170</ele>
        <time>2017-07-20T09:30:40Z</time>
      </trkpt>
      <trkpt lat="45.93617" lon="4.76103">
        <ele>170</ele>
        <time>2017-07-20T09:30:41Z</time>
      </trkpt>
      <trkpt lat="45.93615" lon="4.76097">
        <ele>170</ele>
        <time>2017-07-20T09:30:42Z</time>
      </trkpt>
      <trkpt lat="45.93613" lon="4.76091">
        <ele>170</ele>
        <time>2017-07-20T09:30:43Z</time>
      </trkpt>
      <trkpt lat="45.9361" lon="4.76081">
        <ele>170</ele>
        <time>2017-07-20T09:30:45Z</time>
      </trkpt>
      <trkpt lat="45.93608" lon="4.76077">
        <ele>170</ele>
        <time>2017-07-20T09:30:46Z</time>
      </trkpt>
      <trkpt lat="45.93603" lon="4.76067">
        <ele>170</ele>
        <time>2017-07-20T09:30:48Z</time>
      </trkpt>
      <trkpt lat="45.936" lon="4.76062">
        <ele>170</ele>
        <time>2017-07-20T09:30:49Z</time>
      </trkpt>
      <trkpt lat="45.93599" lon="4.76056">
        <ele>170</ele>
        <time>2017-07-20T09:30:50Z</time>
      </trkpt>
      <trkpt lat="45.93597" lon="4.7605">
        <ele>170</ele>
        <time>2017-07-20T09:30:51Z</time>
      </trkpt>
      <trkpt lat="45.93593" lon="4.76042">
        <ele>170</ele>
        <time>2017-07-20T09:30:52Z</time>
      </trkpt>
      <trkpt lat="45.93591" lon="4.76035">
        <ele>170</ele>
        <time>2017-07-20T09:30:53Z</time>
      </trkpt>
      <trkpt lat="45.93588" lon="4.76028">
        <ele>170</ele>
        <time>2017-07-20T09:30:54Z</time>
      </trkpt>
      <trkpt lat="45.93584" lon="4.76021">
        <ele>171</ele>
        <time>2017-07-20T09:30:55Z</time>
      </trkpt>
      <trkpt lat="45.93581" lon="4.76016">
        <ele>170</ele>
        <time>2017-07-20T09:30:56Z</time>
      </trkpt>
      <trkpt lat="45.93579" lon="4.76009">
        <ele>171</ele>
        <time>2017-07-20T09:30:57Z</time>
      </trkpt>
      <trkpt lat="45.93577" lon="4.76002">
        <ele>171</ele>
        <time>2017-07-20T09:30:58Z</time>
      </trkpt>
      <trkpt lat="45.93576" lon="4.75995">
        <ele>171</ele>
        <time>2017-07-20T09:30:59Z</time>
      </trkpt>
      <trkpt lat="45.93573" lon="4.75984">
        <ele>170</ele>
        <time>2017-07-20T09:31:01Z</time>
      </trkpt>
      <trkpt lat="45.93573" lon="4.75979">
        <ele>170</ele>
        <time>2017-07-20T09:31:02Z</time>
      </trkpt>
      <trkpt lat="45.93569" lon="4.75968">
        <ele>169</ele>
        <time>2017-07-20T09:31:04Z</time>
      </trkpt>
      <trkpt lat="45.93567" lon="4.75962">
        <ele>169</ele>
        <time>2017-07-20T09:31:05Z</time>
      </trkpt>
      <trkpt lat="45.93564" lon="4.75951">
        <ele>169</ele>
        <time>2017-07-20T09:31:07Z</time>
      </trkpt>
      <trkpt lat="45.93562" lon="4.75946">
        <ele>169</ele>
        <time>2017-07-20T09:31:08Z</time>
      </trkpt>
      <trkpt lat="45.93559" lon="4.75935">
        <ele>169</ele>
        <time>2017-07-20T09:31:10Z</time>
      </trkpt>
      <trkpt lat="45.93558" lon="4.7593">
        <ele>169</ele>
        <time>2017-07-20T09:31:11Z</time>
      </trkpt>
      <trkpt lat="45.93555" lon="4.7592">
        <ele>169</ele>
        <time>2017-07-20T09:31:13Z</time>
      </trkpt>
      <trkpt lat="45.93554" lon="4.75916">
        <ele>169</ele>
        <time>2017-07-20T09:31:14Z</time>
      </trkpt>
      <trkpt lat="45.93548" lon="4.75906">
        <ele>169</ele>
        <time>2017-07-20T09:31:17Z</time>
      </trkpt>
      <trkpt lat="45.93547" lon="4.75904">
        <ele>169</ele>
        <time>2017-07-20T09:31:18Z</time>
      </trkpt>
      <trkpt lat="45.93546" lon="4.75896">
        <ele>169</ele>
        <time>2017-07-20T09:31:20Z</time>
      </trkpt>
      <trkpt lat="45.93544" lon="4.75891">
        <ele>169</ele>
        <time>2017-07-20T09:31:21Z</time>
      </trkpt>
      <trkpt lat="45.93542" lon="4.75879">
        <ele>169</ele>
        <time>2017-07-20T09:31:23Z</time>
      </trkpt>
      <trkpt lat="45.93541" lon="4.75872">
        <ele>169</ele>
        <time>2017-07-20T09:31:24Z</time>
      </trkpt>
      <trkpt lat="45.93542" lon="4.75859">
        <ele>169</ele>
        <time>2017-07-20T09:31:26Z</time>
      </trkpt>
      <trkpt lat="45.93542" lon="4.75854">
        <ele>169</ele>
        <time>2017-07-20T09:31:27Z</time>
      </trkpt>
      <trkpt lat="45.93541" lon="4.75844">
        <ele>169</ele>
        <time>2017-07-20T09:31:29Z</time>
      </trkpt>
      <trkpt lat="45.93542" lon="4.7584">
        <ele>169</ele>
        <time>2017-07-20T09:31:30Z</time>
      </trkpt>
      <trkpt lat="45.93542" lon="4.75829">
        <ele>170</ele>
        <time>2017-07-20T09:31:33Z</time>
      </trkpt>
      <trkpt lat="45.93542" lon="4.75825">
        <ele>170</ele>
        <time>2017-07-20T09:31:34Z</time>
      </trkpt>
      <trkpt lat="45.93542" lon="4.75817">
        <ele>170</ele>
        <time>2017-07-20T09:31:36Z</time>
      </trkpt>
      <trkpt lat="45.93542" lon="4.75812">
        <ele>170</ele>
        <time>2017-07-20T09:31:37Z</time>
      </trkpt>
      <trkpt lat="45.93542" lon="4.758">
        <ele>170</ele>
        <time>2017-07-20T09:31:40Z</time>
      </trkpt>
      <trkpt lat="45.93541" lon="4.75799">
        <ele>170</ele>
        <time>2017-07-20T09:31:41Z</time>
      </trkpt>
      <trkpt lat="45.93541" lon="4.75787">
        <ele>170</ele>
        <time>2017-07-20T09:31:44Z</time>
      </trkpt>
      <trkpt lat="45.93541" lon="4.75785">
        <ele>170</ele>
        <time>2017-07-20T09:31:45Z</time>
      </trkpt>
      <trkpt lat="45.93542" lon="4.75774">
        <ele>170</ele>
        <time>2017-07-20T09:31:48Z</time>
      </trkpt>
      <trkpt lat="45.93543" lon="4.75769">
        <ele>170</ele>
        <time>2017-07-20T09:31:49Z</time>
      </trkpt>
      <trkpt lat="45.93545" lon="4.75757">
        <ele>170</ele>
        <time>2017-07-20T09:31:51Z</time>
      </trkpt>
      <trkpt lat="45.93548" lon="4.7575">
        <ele>170</ele>
        <time>2017-07-20T09:31:52Z</time>
      </trkpt>
      <trkpt lat="45.93551" lon="4.75743">
        <ele>171</ele>
        <time>2017-07-20T09:31:53Z</time>
      </trkpt>
      <trkpt lat="45.93552" lon="4.75735">
        <ele>171</ele>
        <time>2017-07-20T09:31:54Z</time>
      </trkpt>
      <trkpt lat="45.93553" lon="4.75728">
        <ele>171</ele>
        <time>2017-07-20T09:31:55Z</time>
      </trkpt>
      <trkpt lat="45.93556" lon="4.7572">
        <ele>171</ele>
        <time>2017-07-20T09:31:56Z</time>
      </trkpt>
      <trkpt lat="45.93558" lon="4.75712">
        <ele>171</ele>
        <time>2017-07-20T09:31:57Z</time>
      </trkpt>
      <trkpt lat="45.93561" lon="4.757">
        <ele>171</ele>
        <time>2017-07-20T09:31:58Z</time>
      </trkpt>
      <trkpt lat="45.93563" lon="4.75692">
        <ele>171</ele>
        <time>2017-07-20T09:31:59Z</time>
      </trkpt>
      <trkpt lat="45.93563" lon="4.75684">
        <ele>171</ele>
        <time>2017-07-20T09:32:00Z</time>
      </trkpt>
      <trkpt lat="45.93565" lon="4.75678">
        <ele>172</ele>
        <time>2017-07-20T09:32:01Z</time>
      </trkpt>
      <trkpt lat="45.93565" lon="4.75668">
        <ele>172</ele>
        <time>2017-07-20T09:32:02Z</time>
      </trkpt>
      <trkpt lat="45.93566" lon="4.75659">
        <ele>172</ele>
        <time>2017-07-20T09:32:03Z</time>
      </trkpt>
      <trkpt lat="45.93569" lon="4.75647">
        <ele>171</ele>
        <time>2017-07-20T09:32:04Z</time>
      </trkpt>
      <trkpt lat="45.93569" lon="4.75636">
        <ele>171</ele>
        <time>2017-07-20T09:32:05Z</time>
      </trkpt>
      <trkpt lat="45.93569" lon="4.75623">
        <ele>171</ele>
        <time>2017-07-20T09:32:06Z</time>
      </trkpt>
      <trkpt lat="45.9357" lon="4.75614">
        <ele>170</ele>
        <time>2017-07-20T09:32:07Z</time>
      </trkpt>
      <trkpt lat="45.93572" lon="4.75606">
        <ele>171</ele>
        <time>2017-07-20T09:32:08Z</time>
      </trkpt>
      <trkpt lat="45.93575" lon="4.75598">
        <ele>171</ele>
        <time>2017-07-20T09:32:09Z</time>
      </trkpt>
      <trkpt lat="45.93577" lon="4.75591">
        <ele>171</ele>
        <time>2017-07-20T09:32:10Z</time>
      </trkpt>
      <trkpt lat="45.93577" lon="4.75584">
        <ele>171</ele>
        <time>2017-07-20T09:32:11Z</time>
      </trkpt>
      <trkpt lat="45.93578" lon="4.75577">
        <ele>171</ele>
        <time>2017-07-20T09:32:12Z</time>
      </trkpt>
      <trkpt lat="45.93579" lon="4.7557">
        <ele>171</ele>
        <time>2017-07-20T09:32:13Z</time>
      </trkpt>
      <trkpt lat="45.9358" lon="4.75563">
        <ele>170</ele>
        <time>2017-07-20T09:32:14Z</time>
      </trkpt>
      <trkpt lat="45.93581" lon="4.75556">
        <ele>170</ele>
        <time>2017-07-20T09:32:15Z</time>
      </trkpt>
      <trkpt lat="45.93583" lon="4.75549">
        <ele>170</ele>
        <time>2017-07-20T09:32:16Z</time>
      </trkpt>
      <trkpt lat="45.93584" lon="4.75541">
        <ele>171</ele>
        <time>2017-07-20T09:32:17Z</time>
      </trkpt>
      <trkpt lat="45.93585" lon="4.75532">
        <ele>171</ele>
        <time>2017-07-20T09:32:18Z</time>
      </trkpt>
      <trkpt lat="45.93586" lon="4.75524">
        <ele>171</ele>
        <time>2017-07-20T09:32:19Z</time>
      </trkpt>
      <trkpt lat="45.93588" lon="4.75516">
        <ele>170</ele>
        <time>2017-07-20T09:32:20Z</time>
      </trkpt>
      <trkpt lat="45.93589" lon="4.75508">
        <ele>170</ele>
        <time>2017-07-20T09:32:21Z</time>
      </trkpt>
      <trkpt lat="45.93591" lon="4.75503">
        <ele>170</ele>
        <time>2017-07-20T09:32:22Z</time>
      </trkpt>
      <trkpt lat="45.93594" lon="4.75491">
        <ele>170</ele>
        <time>2017-07-20T09:32:24Z</time>
      </trkpt>
      <trkpt lat="45.93595" lon="4.75484">
        <ele>170</ele>
        <time>2017-07-20T09:32:25Z</time>
      </trkpt>
      <trkpt lat="45.93596" lon="4.75477">
        <ele>169</ele>
        <time>2017-07-20T09:32:26Z</time>
      </trkpt>
      <trkpt lat="45.93595" lon="4.7547">
        <ele>169</ele>
        <time>2017-07-20T09:32:27Z</time>
      </trkpt>
      <trkpt lat="45.93596" lon="4.75459">
        <ele>169</ele>
        <time>2017-07-20T09:32:29Z</time>
      </trkpt>
      <trkpt lat="45.93598" lon="4.75454">
        <ele>169</ele>
        <time>2017-07-20T09:32:30Z</time>
      </trkpt>
      <trkpt lat="45.93599" lon="4.75445">
        <ele>169</ele>
        <time>2017-07-20T09:32:32Z</time>
      </trkpt>
      <trkpt lat="45.93601" lon="4.75441">
        <ele>169</ele>
        <time>2017-07-20T09:32:33Z</time>
      </trkpt>
      <trkpt lat="45.93603" lon="4.75432">
        <ele>169</ele>
        <time>2017-07-20T09:32:35Z</time>
      </trkpt>
      <trkpt lat="45.93604" lon="4.75427">
        <ele>169</ele>
        <time>2017-07-20T09:32:36Z</time>
      </trkpt>
      <trkpt lat="45.93601" lon="4.75416">
        <ele>169</ele>
        <time>2017-07-20T09:32:38Z</time>
      </trkpt>
      <trkpt lat="45.93598" lon="4.75409">
        <ele>169</ele>
        <time>2017-07-20T09:32:39Z</time>
      </trkpt>
      <trkpt lat="45.93595" lon="4.754">
        <ele>169</ele>
        <time>2017-07-20T09:32:40Z</time>
      </trkpt>
      <trkpt lat="45.93594" lon="4.75391">
        <ele>169</ele>
        <time>2017-07-20T09:32:41Z</time>
      </trkpt>
      <trkpt lat="45.93594" lon="4.75382">
        <ele>169</ele>
        <time>2017-07-20T09:32:43Z</time>
      </trkpt>
      <trkpt lat="45.93594" lon="4.75377">
        <ele>169</ele>
        <time>2017-07-20T09:32:44Z</time>
      </trkpt>
      <trkpt lat="45.93596" lon="4.75365">
        <ele>169</ele>
        <time>2017-07-20T09:32:47Z</time>
      </trkpt>
      <trkpt lat="45.93598" lon="4.7536">
        <ele>169</ele>
        <time>2017-07-20T09:32:48Z</time>
      </trkpt>
      <trkpt lat="45.93601" lon="4.75354">
        <ele>169</ele>
        <time>2017-07-20T09:32:49Z</time>
      </trkpt>
      <trkpt lat="45.93604" lon="4.75348">
        <ele>169</ele>
        <time>2017-07-20T09:32:50Z</time>
      </trkpt>
      <trkpt lat="45.93606" lon="4.75341">
        <ele>169</ele>
        <time>2017-07-20T09:32:51Z</time>
      </trkpt>
      <trkpt lat="45.93609" lon="4.75335">
        <ele>169</ele>
        <time>2017-07-20T09:32:52Z</time>
      </trkpt>
      <trkpt lat="45.93612" lon="4.75327">
        <ele>169</ele>
        <time>2017-07-20T09:32:53Z</time>
      </trkpt>
      <trkpt lat="45.93615" lon="4.75321">
        <ele>169</ele>
        <time>2017-07-20T09:32:54Z</time>
      </trkpt>
      <trkpt lat="45.9362" lon="4.75312">
        <ele>169</ele>
        <time>2017-07-20T09:32:56Z</time>
      </trkpt>
      <trkpt lat="45.93621" lon="4.75309">
        <ele>169</ele>
        <time>2017-07-20T09:32:57Z</time>
      </trkpt>
      <trkpt lat="45.93624" lon="4.753">
        <ele>168</ele>
        <time>2017-07-20T09:32:59Z</time>
      </trkpt>
      <trkpt lat="45.93625" lon="4.75296">
        <ele>168</ele>
        <time>2017-07-20T09:33:00Z</time>
      </trkpt>
      <trkpt lat="45.93629" lon="4.75285">
        <ele>168</ele>
        <time>2017-07-20T09:33:03Z</time>
      </trkpt>
      <trkpt lat="45.93628" lon="4.75278">
        <ele>168</ele>
        <time>2017-07-20T09:33:04Z</time>
      </trkpt>
      <trkpt lat="45.93633" lon="4.75268">
        <ele>168</ele>
        <time>2017-07-20T09:33:06Z</time>
      </trkpt>
      <trkpt lat="45.93637" lon="4.75258">
        <ele>168</ele>
        <time>2017-07-20T09:33:07Z</time>
      </trkpt>
      <trkpt lat="45.93635" lon="4.75248">
        <ele>167</ele>
        <time>2017-07-20T09:33:09Z</time>
      </trkpt>
      <trkpt lat="45.93635" lon="4.75241">
        <ele>168</ele>
        <time>2017-07-20T09:33:10Z</time>
      </trkpt>
      <trkpt lat="45.93637" lon="4.75229">
        <ele>168</ele>
        <time>2017-07-20T09:33:12Z</time>
      </trkpt>
      <trkpt lat="45.93639" lon="4.75223">
        <ele>168</ele>
        <time>2017-07-20T09:33:13Z</time>
      </trkpt>
      <trkpt lat="45.9364" lon="4.75214">
        <ele>168</ele>
        <time>2017-07-20T09:33:15Z</time>
      </trkpt>
      <trkpt lat="45.93642" lon="4.75207">
        <ele>168</ele>
        <time>2017-07-20T09:33:16Z</time>
      </trkpt>
      <trkpt lat="45.93645" lon="4.75198">
        <ele>168</ele>
        <time>2017-07-20T09:33:18Z</time>
      </trkpt>
      <trkpt lat="45.93646" lon="4.75191">
        <ele>168</ele>
        <time>2017-07-20T09:33:19Z</time>
      </trkpt>
      <trkpt lat="45.93648" lon="4.7518">
        <ele>168</ele>
        <time>2017-07-20T09:33:21Z</time>
      </trkpt>
      <trkpt lat="45.9365" lon="4.75176">
        <ele>169</ele>
        <time>2017-07-20T09:33:22Z</time>
      </trkpt>
      <trkpt lat="45.93651" lon="4.75163">
        <ele>169</ele>
        <time>2017-07-20T09:33:24Z</time>
      </trkpt>
      <trkpt lat="45.93653" lon="4.75156">
        <ele>169</ele>
        <time>2017-07-20T09:33:25Z</time>
      </trkpt>
      <trkpt lat="45.93655" lon="4.7515">
        <ele>168</ele>
        <time>2017-07-20T09:33:26Z</time>
      </trkpt>
      <trkpt lat="45.93657" lon="4.75144">
        <ele>168</ele>
        <time>2017-07-20T09:33:27Z</time>
      </trkpt>
      <trkpt lat="45.93659" lon="4.75139">
        <ele>168</ele>
        <time>2017-07-20T09:33:28Z</time>
      </trkpt>
      <trkpt lat="45.93662" lon="4.75131">
        <ele>168</ele>
        <time>2017-07-20T09:33:29Z</time>
      </trkpt>
      <trkpt lat="45.93665" lon="4.75124">
        <ele>168</ele>
        <time>2017-07-20T09:33:30Z</time>
      </trkpt>
      <trkpt lat="45.93666" lon="4.75118">
        <ele>168</ele>
        <time>2017-07-20T09:33:31Z</time>
      </trkpt>
      <trkpt lat="45.93665" lon="4.75108">
        <ele>167</ele>
        <time>2017-07-20T09:33:33Z</time>
      </trkpt>
      <trkpt lat="45.93666" lon="4.75103">
        <ele>167</ele>
        <time>2017-07-20T09:33:34Z</time>
      </trkpt>
      <trkpt lat="45.93667" lon="4.75091">
        <ele>167</ele>
        <time>2017-07-20T09:33:36Z</time>
      </trkpt>
      <trkpt lat="45.93667" lon="4.75087">
        <ele>167</ele>
        <time>2017-07-20T09:33:37Z</time>
      </trkpt>
      <trkpt lat="45.93669" lon="4.75079">
        <ele>167</ele>
        <time>2017-07-20T09:33:39Z</time>
      </trkpt>
      <trkpt lat="45.9367" lon="4.75075">
        <ele>167</ele>
        <time>2017-07-20T09:33:40Z</time>
      </trkpt>
      <trkpt lat="45.93673" lon="4.75066">
        <ele>167</ele>
        <time>2017-07-20T09:33:42Z</time>
      </trkpt>
      <trkpt lat="45.93675" lon="4.75061">
        <ele>167</ele>
        <time>2017-07-20T09:33:43Z</time>
      </trkpt>
      <trkpt lat="45.93677" lon="4.75057">
        <ele>167</ele>
        <time>2017-07-20T09:33:44Z</time>
      </trkpt>
      <trkpt lat="45.9368" lon="4.7505">
        <ele>167</ele>
        <time>2017-07-20T09:33:45Z</time>
      </trkpt>
      <trkpt lat="45.93684" lon="4.75043">
        <ele>167</ele>
        <time>2017-07-20T09:33:46Z</time>
      </trkpt>
      <trkpt lat="45.93688" lon="4.75034">
        <ele>167</ele>
        <time>2017-07-20T09:33:47Z</time>
      </trkpt>
      <trkpt lat="45.93692" lon="4.75027">
        <ele>167</ele>
        <time>2017-07-20T09:33:48Z</time>
      </trkpt>
      <trkpt lat="45.93697" lon="4.75017">
        <ele>167</ele>
        <time>2017-07-20T09:33:49Z</time>
      </trkpt>
      <trkpt lat="45.93699" lon="4.7501">
        <ele>167</ele>
        <time>2017-07-20T09:33:50Z</time>
      </trkpt>
      <trkpt lat="45.93703" lon="4.75003">
        <ele>167</ele>
        <time>2017-07-20T09:33:51Z</time>
      </trkpt>
      <trkpt lat="45.93707" lon="4.74996">
        <ele>168</ele>
        <time>2017-07-20T09:33:52Z</time>
      </trkpt>
      <trkpt lat="45.9371" lon="4.7499">
        <ele>168</ele>
        <time>2017-07-20T09:33:53Z</time>
      </trkpt>
      <trkpt lat="45.93712" lon="4.74984">
        <ele>168</ele>
        <time>2017-07-20T09:33:54Z</time>
      </trkpt>
      <trkpt lat="45.93715" lon="4.74978">
        <ele>168</ele>
        <time>2017-07-20T09:33:55Z</time>
      </trkpt>
      <trkpt lat="45.93718" lon="4.74972">
        <ele>168</ele>
        <time>2017-07-20T09:33:56Z</time>
      </trkpt>
      <trkpt lat="45.93722" lon="4.74965">
        <ele>168</ele>
        <time>2017-07-20T09:33:57Z</time>
      </trkpt>
      <trkpt lat="45.93726" lon="4.74958">
        <ele>168</ele>
        <time>2017-07-20T09:33:58Z</time>
      </trkpt>
      <trkpt lat="45.93729" lon="4.7495">
        <ele>169</ele>
        <time>2017-07-20T09:33:59Z</time>
      </trkpt>
      <trkpt lat="45.93733" lon="4.74944">
        <ele>169</ele>
        <time>2017-07-20T09:34:00Z</time>
      </trkpt>
      <trkpt lat="45.93736" lon="4.74936">
        <ele>169</ele>
        <time>2017-07-20T09:34:01Z</time>
      </trkpt>
      <trkpt lat="45.93739" lon="4.7493">
        <ele>169</ele>
        <time>2017-07-20T09:34:02Z</time>
      </trkpt>
      <trkpt lat="45.93742" lon="4.74925">
        <ele>170</ele>
        <time>2017-07-20T09:34:03Z</time>
      </trkpt>
      <trkpt lat="45.93745" lon="4.7492">
        <ele>170</ele>
        <time>2017-07-20T09:34:04Z</time>
      </trkpt>
      <trkpt lat="45.93749" lon="4.74914">
        <ele>171</ele>
        <time>2017-07-20T09:34:05Z</time>
      </trkpt>
      <trkpt lat="45.93752" lon="4.74909">
        <ele>170</ele>
        <time>2017-07-20T09:34:06Z</time>
      </trkpt>
      <trkpt lat="45.93756" lon="4.74903">
        <ele>170</ele>
        <time>2017-07-20T09:34:07Z</time>
      </trkpt>
      <trkpt lat="45.9376" lon="4.74898">
        <ele>169</ele>
        <time>2017-07-20T09:34:08Z</time>
      </trkpt>
      <trkpt lat="45.93763" lon="4.74893">
        <ele>169</ele>
        <time>2017-07-20T09:34:09Z</time>
      </trkpt>
      <trkpt lat="45.93769" lon="4.74883">
        <ele>169</ele>
        <time>2017-07-20T09:34:11Z</time>
      </trkpt>
      <trkpt lat="45.93772" lon="4.74877">
        <ele>169</ele>
        <time>2017-07-20T09:34:12Z</time>
      </trkpt>
      <trkpt lat="45.93776" lon="4.74868">
        <ele>168</ele>
        <time>2017-07-20T09:34:14Z</time>
      </trkpt>
      <trkpt lat="45.93779" lon="4.7486">
        <ele>168</ele>
        <time>2017-07-20T09:34:15Z</time>
      </trkpt>
      <trkpt lat="45.93784" lon="4.74849">
        <ele>168</ele>
        <time>2017-07-20T09:34:17Z</time>
      </trkpt>
      <trkpt lat="45.93786" lon="4.74845">
        <ele>168</ele>
        <time>2017-07-20T09:34:18Z</time>
      </trkpt>
      <trkpt lat="45.93791" lon="4.74836">
        <ele>168</ele>
        <time>2017-07-20T09:34:20Z</time>
      </trkpt>
      <trkpt lat="45.93794" lon="4.74832">
        <ele>167</ele>
        <time>2017-07-20T09:34:21Z</time>
      </trkpt>
      <trkpt lat="45.938" lon="4.74823">
        <ele>167</ele>
        <time>2017-07-20T09:34:23Z</time>
      </trkpt>
      <trkpt lat="45.93802" lon="4.74818">
        <ele>167</ele>
        <time>2017-07-20T09:34:24Z</time>
      </trkpt>
      <trkpt lat="45.93805" lon="4.74813">
        <ele>167</ele>
        <time>2017-07-20T09:34:25Z</time>
      </trkpt>
      <trkpt lat="45.93808" lon="4.74808">
        <ele>167</ele>
        <time>2017-07-20T09:34:26Z</time>
      </trkpt>
      <trkpt lat="45.93813" lon="4.74799">
        <ele>167</ele>
        <time>2017-07-20T09:34:28Z</time>
      </trkpt>
      <trkpt lat="45.93815" lon="4.74795">
        <ele>167</ele>
        <time>2017-07-20T09:34:29Z</time>
      </trkpt>
      <trkpt lat="45.93819" lon="4.74786">
        <ele>167</ele>
        <time>2017-07-20T09:34:31Z</time>
      </trkpt>
      <trkpt lat="45.93822" lon="4.74782">
        <ele>167</ele>
        <time>2017-07-20T09:34:32Z</time>
      </trkpt>
      <trkpt lat="45.93823" lon="4.74777">
        <ele>167</ele>
        <time>2017-07-20T09:34:33Z</time>
      </trkpt>
      <trkpt lat="45.93826" lon="4.74769">
        <ele>167</ele>
        <time>2017-07-20T09:34:34Z</time>
      </trkpt>
      <trkpt lat="45.9383" lon="4.7476">
        <ele>168</ele>
        <time>2017-07-20T09:34:36Z</time>
      </trkpt>
      <trkpt lat="45.93832" lon="4.74754">
        <ele>168</ele>
        <time>2017-07-20T09:34:37Z</time>
      </trkpt>
      <trkpt lat="45.93834" lon="4.74747">
        <ele>168</ele>
        <time>2017-07-20T09:34:38Z</time>
      </trkpt>
      <trkpt lat="45.93836" lon="4.74741">
        <ele>168</ele>
        <time>2017-07-20T09:34:39Z</time>
      </trkpt>
      <trkpt lat="45.9384" lon="4.7473">
        <ele>169</ele>
        <time>2017-07-20T09:34:41Z</time>
      </trkpt>
      <trkpt lat="45.93842" lon="4.74723">
        <ele>169</ele>
        <time>2017-07-20T09:34:42Z</time>
      </trkpt>
      <trkpt lat="45.93846" lon="4.74714">
        <ele>169</ele>
        <time>2017-07-20T09:34:43Z</time>
      </trkpt>
      <trkpt lat="45.93849" lon="4.74707">
        <ele>169</ele>
        <time>2017-07-20T09:34:44Z</time>
      </trkpt>
      <trkpt lat="45.93852" lon="4.747">
        <ele>170</ele>
        <time>2017-07-20T09:34:45Z</time>
      </trkpt>
      <trkpt lat="45.93856" lon="4.74692">
        <ele>170</ele>
        <time>2017-07-20T09:34:46Z</time>
      </trkpt>
      <trkpt lat="45.93859" lon="4.74685">
        <ele>170</ele>
        <time>2017-07-20T09:34:47Z</time>
      </trkpt>
      <trkpt lat="45.93862" lon="4.74676">
        <ele>170</ele>
        <time>2017-07-20T09:34:48Z</time>
      </trkpt>
      <trkpt lat="45.93865" lon="4.74669">
        <ele>170</ele>
        <time>2017-07-20T09:34:49Z</time>
      </trkpt>
      <trkpt lat="45.93869" lon="4.74663">
        <ele>170</ele>
        <time>2017-07-20T09:34:50Z</time>
      </trkpt>
      <trkpt lat="45.93872" lon="4.74653">
        <ele>170</ele>
        <time>2017-07-20T09:34:52Z</time>
      </trkpt>
      <trkpt lat="45.93874" lon="4.74648">
        <ele>170</ele>
        <time>2017-07-20T09:34:53Z</time>
      </trkpt>
      <trkpt lat="45.93879" lon="4.74638">
        <ele>170</ele>
        <time>2017-07-20T09:34:55Z</time>
      </trkpt>
      <trkpt lat="45.93883" lon="4.74632">
        <ele>170</ele>
        <time>2017-07-20T09:34:56Z</time>
      </trkpt>
      <trkpt lat="45.93886" lon="4.74626">
        <ele>170</ele>
        <time>2017-07-20T09:34:57Z</time>
      </trkpt>
      <trkpt lat="45.93889" lon="4.74619">
        <ele>170</ele>
        <time>2017-07-20T09:34:58Z</time>
      </trkpt>
      <trkpt lat="45.93891" lon="4.74612">
        <ele>170</ele>
        <time>2017-07-20T09:34:59Z</time>
      </trkpt>
      <trkpt lat="45.93893" lon="4.74605">
        <ele>170</ele>
        <time>2017-07-20T09:35:00Z</time>
      </trkpt>
      <trkpt lat="45.93895" lon="4.74598">
        <ele>170</ele>
        <time>2017-07-20T09:35:01Z</time>
      </trkpt>
      <trkpt lat="45.93898" lon="4.74591">
        <ele>170</ele>
        <time>2017-07-20T09:35:02Z</time>
      </trkpt>
      <trkpt lat="45.939" lon="4.74584">
        <ele>170</ele>
        <time>2017-07-20T09:35:03Z</time>
      </trkpt>
      <trkpt lat="45.93903" lon="4.74577">
        <ele>170</ele>
        <time>2017-07-20T09:35:04Z</time>
      </trkpt>
      <trkpt lat="45.93904" lon="4.74567">
        <ele>170</ele>
        <time>2017-07-20T09:35:05Z</time>
      </trkpt>
      <trkpt lat="45.93906" lon="4.74561">
        <ele>170</ele>
        <time>2017-07-20T09:35:06Z</time>
      </trkpt>
      <trkpt lat="45.93907" lon="4.74554">
        <ele>170</ele>
        <time>2017-07-20T09:35:07Z</time>
      </trkpt>
      <trkpt lat="45.93908" lon="4.74548">
        <ele>170</ele>
        <time>2017-07-20T09:35:08Z</time>
      </trkpt>
      <trkpt lat="45.93911" lon="4.74536">
        <ele>170</ele>
        <time>2017-07-20T09:35:10Z</time>
      </trkpt>
      <trkpt lat="45.93911" lon="4.74531">
        <ele>170</ele>
        <time>2017-07-20T09:35:11Z</time>
      </trkpt>
      <trkpt lat="45.93912" lon="4.7452">
        <ele>170</ele>
        <time>2017-07-20T09:35:13Z</time>
      </trkpt>
      <trkpt lat="45.93912" lon="4.74513">
        <ele>170</ele>
        <time>2017-07-20T09:35:14Z</time>
      </trkpt>
      <trkpt lat="45.93912" lon="4.74507">
        <ele>170</ele>
        <time>2017-07-20T09:35:15Z</time>
      </trkpt>
      <trkpt lat="45.93913" lon="4.745">
        <ele>170</ele>
        <time>2017-07-20T09:35:16Z</time>
      </trkpt>
      <trkpt lat="45.93914" lon="4.74488">
        <ele>170</ele>
        <time>2017-07-20T09:35:18Z</time>
      </trkpt>
      <trkpt lat="45.93914" lon="4.74481">
        <ele>171</ele>
        <time>2017-07-20T09:35:19Z</time>
      </trkpt>
      <trkpt lat="45.93913" lon="4.74469">
        <ele>171</ele>
        <time>2017-07-20T09:35:21Z</time>
      </trkpt>
      <trkpt lat="45.93913" lon="4.74464">
        <ele>171</ele>
        <time>2017-07-20T09:35:22Z</time>
      </trkpt>
      <trkpt lat="45.93913" lon="4.74458">
        <ele>171</ele>
        <time>2017-07-20T09:35:23Z</time>
      </trkpt>
      <trkpt lat="45.93914" lon="4.74451">
        <ele>171</ele>
        <time>2017-07-20T09:35:24Z</time>
      </trkpt>
      <trkpt lat="45.93915" lon="4.74444">
        <ele>171</ele>
        <time>2017-07-20T09:35:25Z</time>
      </trkpt>
      <trkpt lat="45.93915" lon="4.74437">
        <ele>171</ele>
        <time>2017-07-20T09:35:26Z</time>
      </trkpt>
      <trkpt lat="45.93915" lon="4.7443">
        <ele>171</ele>
        <time>2017-07-20T09:35:27Z</time>
      </trkpt>
      <trkpt lat="45.93914" lon="4.74423">
        <ele>171</ele>
        <time>2017-07-20T09:35:28Z</time>
      </trkpt>
      <trkpt lat="45.93914" lon="4.74411">
        <ele>171</ele>
        <time>2017-07-20T09:35:30Z</time>
      </trkpt>
      <trkpt lat="45.93913" lon="4.74403">
        <ele>171</ele>
        <time>2017-07-20T09:35:31Z</time>
      </trkpt>
      <trkpt lat="45.93911" lon="4.74391">
        <ele>171</ele>
        <time>2017-07-20T09:35:33Z</time>
      </trkpt>
      <trkpt lat="45.93912" lon="4.74385">
        <ele>171</ele>
        <time>2017-07-20T09:35:34Z</time>
      </trkpt>
      <trkpt lat="45.93911" lon="4.74376">
        <ele>171</ele>
        <time>2017-07-20T09:35:36Z</time>
      </trkpt>
      <trkpt lat="45.9391" lon="4.74369">
        <ele>171</ele>
        <time>2017-07-20T09:35:37Z</time>
      </trkpt>
      <trkpt lat="45.93909" lon="4.74363">
        <ele>171</ele>
        <time>2017-07-20T09:35:38Z</time>
      </trkpt>
      <trkpt lat="45.93909" lon="4.74354">
        <ele>171</ele>
        <time>2017-07-20T09:35:39Z</time>
      </trkpt>
      <trkpt lat="45.93915" lon="4.7434">
        <ele>170</ele>
        <time>2017-07-20T09:35:40Z</time>
      </trkpt>
      <trkpt lat="45.93916" lon="4.7433">
        <ele>170</ele>
        <time>2017-07-20T09:35:41Z</time>
      </trkpt>
      <trkpt lat="45.93917" lon="4.74322">
        <ele>170</ele>
        <time>2017-07-20T09:35:42Z</time>
      </trkpt>
      <trkpt lat="45.93916" lon="4.74315">
        <ele>170</ele>
        <time>2017-07-20T09:35:43Z</time>
      </trkpt>
      <trkpt lat="45.93915" lon="4.74309">
        <ele>170</ele>
        <time>2017-07-20T09:35:44Z</time>
      </trkpt>
      <trkpt lat="45.93915" lon="4.74297">
        <ele>170</ele>
        <time>2017-07-20T09:35:46Z</time>
      </trkpt>
      <trkpt lat="45.93915" lon="4.74291">
        <ele>170</ele>
        <time>2017-07-20T09:35:47Z</time>
      </trkpt>
      <trkpt lat="45.93915" lon="4.74281">
        <ele>170</ele>
        <time>2017-07-20T09:35:49Z</time>
      </trkpt>
      <trkpt lat="45.93916" lon="4.74276">
        <ele>170</ele>
        <time>2017-07-20T09:35:50Z</time>
      </trkpt>
      <trkpt lat="45.93915" lon="4.74269">
        <ele>170</ele>
        <time>2017-07-20T09:35:51Z</time>
      </trkpt>
      <trkpt lat="45.93915" lon="4.74262">
        <ele>170</ele>
        <time>2017-07-20T09:35:52Z</time>
      </trkpt>
      <trkpt lat="45.93915" lon="4.74255">
        <ele>170</ele>
        <time>2017-07-20T09:35:53Z</time>
      </trkpt>
      <trkpt lat="45.93914" lon="4.74248">
        <ele>170</ele>
        <time>2017-07-20T09:35:54Z</time>
      </trkpt>
      <trkpt lat="45.93914" lon="4.74241">
        <ele>170</ele>
        <time>2017-07-20T09:35:55Z</time>
      </trkpt>
      <trkpt lat="45.93914" lon="4.74234">
        <ele>170</ele>
        <time>2017-07-20T09:35:56Z</time>
      </trkpt>
      <trkpt lat="45.93915" lon="4.74227">
        <ele>170</ele>
        <time>2017-07-20T09:35:57Z</time>
      </trkpt>
      <trkpt lat="45.93915" lon="4.74221">
        <ele>169</ele>
        <time>2017-07-20T09:35:58Z</time>
      </trkpt>
      <trkpt lat="45.93915" lon="4.74214">
        <ele>169</ele>
        <time>2017-07-20T09:35:59Z</time>
      </trkpt>
      <trkpt lat="45.93913" lon="4.74206">
        <ele>169</ele>
        <time>2017-07-20T09:36:00Z</time>
      </trkpt>
      <trkpt lat="45.93914" lon="4.74194">
        <ele>169</ele>
        <time>2017-07-20T09:36:02Z</time>
      </trkpt>
      <trkpt lat="45.93914" lon="4.74188">
        <ele>169</ele>
        <time>2017-07-20T09:36:03Z</time>
      </trkpt>
      <trkpt lat="45.93915" lon="4.74178">
        <ele>169</ele>
        <time>2017-07-20T09:36:05Z</time>
      </trkpt>
      <trkpt lat="45.93916" lon="4.74172">
        <ele>168</ele>
        <time>2017-07-20T09:36:06Z</time>
      </trkpt>
      <trkpt lat="45.93917" lon="4.74165">
        <ele>168</ele>
        <time>2017-07-20T09:36:07Z</time>
      </trkpt>
      <trkpt lat="45.93917" lon="4.74159">
        <ele>168</ele>
        <time>2017-07-20T09:36:08Z</time>
      </trkpt>
      <trkpt lat="45.93917" lon="4.74152">
        <ele>168</ele>
        <time>2017-07-20T09:36:09Z</time>
      </trkpt>
      <trkpt lat="45.93918" lon="4.74145">
        <ele>168</ele>
        <time>2017-07-20T09:36:10Z</time>
      </trkpt>
      <trkpt lat="45.93919" lon="4.74134">
        <ele>169</ele>
        <time>2017-07-20T09:36:12Z</time>
      </trkpt>
      <trkpt lat="45.9392" lon="4.74128">
        <ele>169</ele>
        <time>2017-07-20T09:36:13Z</time>
      </trkpt>
      <trkpt lat="45.93921" lon="4.74117">
        <ele>169</ele>
        <time>2017-07-20T09:36:15Z</time>
      </trkpt>
      <trkpt lat="45.93922" lon="4.74111">
        <ele>169</ele>
        <time>2017-07-20T09:36:16Z</time>
      </trkpt>
      <trkpt lat="45.93922" lon="4.74105">
        <ele>169</ele>
        <time>2017-07-20T09:36:17Z</time>
      </trkpt>
      <trkpt lat="45.93923" lon="4.74098">
        <ele>169</ele>
        <time>2017-07-20T09:36:18Z</time>
      </trkpt>
      <trkpt lat="45.93924" lon="4.74091">
        <ele>170</ele>
        <time>2017-07-20T09:36:19Z</time>
      </trkpt>
      <trkpt lat="45.93924" lon="4.74085">
        <ele>170</ele>
        <time>2017-07-20T09:36:20Z</time>
      </trkpt>
      <trkpt lat="45.93925" lon="4.74078">
        <ele>170</ele>
        <time>2017-07-20T09:36:21Z</time>
      </trkpt>
      <trkpt lat="45.93926" lon="4.74071">
        <ele>170</ele>
        <time>2017-07-20T09:36:22Z</time>
      </trkpt>
      <trkpt lat="45.93927" lon="4.74059">
        <ele>171</ele>
        <time>2017-07-20T09:36:24Z</time>
      </trkpt>
      <trkpt lat="45.93928" lon="4.74053">
        <ele>171</ele>
        <time>2017-07-20T09:36:25Z</time>
      </trkpt>
      <trkpt lat="45.93931" lon="4.74043">
        <ele>171</ele>
        <time>2017-07-20T09:36:27Z</time>
      </trkpt>
      <trkpt lat="45.93931" lon="4.74039">
        <ele>171</ele>
        <time>2017-07-20T09:36:28Z</time>
      </trkpt>
      <trkpt lat="45.93932" lon="4.74027">
        <ele>171</ele>
        <time>2017-07-20T09:36:30Z</time>
      </trkpt>
      <trkpt lat="45.93932" lon="4.74021">
        <ele>171</ele>
        <time>2017-07-20T09:36:31Z</time>
      </trkpt>
      <trkpt lat="45.93934" lon="4.74008">
        <ele>171</ele>
        <time>2017-07-20T09:36:33Z</time>
      </trkpt>
      <trkpt lat="45.93936" lon="4.74002">
        <ele>171</ele>
        <time>2017-07-20T09:36:34Z</time>
      </trkpt>
      <trkpt lat="45.93939" lon="4.7399">
        <ele>172</ele>
        <time>2017-07-20T09:36:36Z</time>
      </trkpt>
      <trkpt lat="45.93941" lon="4.73984">
        <ele>172</ele>
        <time>2017-07-20T09:36:37Z</time>
      </trkpt>
      <trkpt lat="45.93944" lon="4.73974">
        <ele>172</ele>
        <time>2017-07-20T09:36:39Z</time>
      </trkpt>
      <trkpt lat="45.93945" lon="4.73968">
        <ele>172</ele>
        <time>2017-07-20T09:36:40Z</time>
      </trkpt>
      <trkpt lat="45.93946" lon="4.73958">
        <ele>172</ele>
        <time>2017-07-20T09:36:42Z</time>
      </trkpt>
      <trkpt lat="45.93947" lon="4.73953">
        <ele>172</ele>
        <time>2017-07-20T09:36:43Z</time>
      </trkpt>
      <trkpt lat="45.93948" lon="4.7394">
        <ele>172</ele>
        <time>2017-07-20T09:36:45Z</time>
      </trkpt>
      <trkpt lat="45.93948" lon="4.73935">
        <ele>172</ele>
        <time>2017-07-20T09:36:46Z</time>
      </trkpt>
      <trkpt lat="45.93948" lon="4.73923">
        <ele>172</ele>
        <time>2017-07-20T09:36:48Z</time>
      </trkpt>
      <trkpt lat="45.93948" lon="4.73917">
        <ele>172</ele>
        <time>2017-07-20T09:36:49Z</time>
      </trkpt>
      <trkpt lat="45.93948" lon="4.73906">
        <ele>172</ele>
        <time>2017-07-20T09:36:51Z</time>
      </trkpt>
      <trkpt lat="45.93949" lon="4.739">
        <ele>172</ele>
        <time>2017-07-20T09:36:52Z</time>
      </trkpt>
      <trkpt lat="45.93949" lon="4.73888">
        <ele>172</ele>
        <time>2017-07-20T09:36:54Z</time>
      </trkpt>
      <trkpt lat="45.93949" lon="4.73881">
        <ele>172</ele>
        <time>2017-07-20T09:36:55Z</time>
      </trkpt>
      <trkpt lat="45.9395" lon="4.73874">
        <ele>172</ele>
        <time>2017-07-20T09:36:56Z</time>
      </trkpt>
      <trkpt lat="45.93951" lon="4.73866">
        <ele>172</ele>
        <time>2017-07-20T09:36:57Z</time>
      </trkpt>
      <trkpt lat="45.93951" lon="4.73859">
        <ele>172</ele>
        <time>2017-07-20T09:36:58Z</time>
      </trkpt>
      <trkpt lat="45.93952" lon="4.73851">
        <ele>172</ele>
        <time>2017-07-20T09:36:59Z</time>
      </trkpt>
      <trkpt lat="45.93953" lon="4.73843">
        <ele>172</ele>
        <time>2017-07-20T09:37:00Z</time>
      </trkpt>
      <trkpt lat="45.93954" lon="4.73836">
        <ele>172</ele>
        <time>2017-07-20T09:37:01Z</time>
      </trkpt>
      <trkpt lat="45.93954" lon="4.73829">
        <ele>172</ele>
        <time>2017-07-20T09:37:02Z</time>
      </trkpt>
      <trkpt lat="45.93956" lon="4.73823">
        <ele>172</ele>
        <time>2017-07-20T09:37:03Z</time>
      </trkpt>
      <trkpt lat="45.93956" lon="4.73817">
        <ele>172</ele>
        <time>2017-07-20T09:37:04Z</time>
      </trkpt>
      <trkpt lat="45.93956" lon="4.7381">
        <ele>172</ele>
        <time>2017-07-20T09:37:05Z</time>
      </trkpt>
      <trkpt lat="45.93956" lon="4.73803">
        <ele>172</ele>
        <time>2017-07-20T09:37:06Z</time>
      </trkpt>
      <trkpt lat="45.93957" lon="4.73795">
        <ele>172</ele>
        <time>2017-07-20T09:37:07Z</time>
      </trkpt>
      <trkpt lat="45.93957" lon="4.73788">
        <ele>172</ele>
        <time>2017-07-20T09:37:08Z</time>
      </trkpt>
      <trkpt lat="45.93957" lon="4.73781">
        <ele>172</ele>
        <time>2017-07-20T09:37:09Z</time>
      </trkpt>
      <trkpt lat="45.93959" lon="4.73774">
        <ele>172</ele>
        <time>2017-07-20T09:37:10Z</time>
      </trkpt>
      <trkpt lat="45.9396" lon="4.73767">
        <ele>172</ele>
        <time>2017-07-20T09:37:11Z</time>
      </trkpt>
      <trkpt lat="45.93958" lon="4.73754">
        <ele>172</ele>
        <time>2017-07-20T09:37:13Z</time>
      </trkpt>
      <trkpt lat="45.9396" lon="4.73748">
        <ele>172</ele>
        <time>2017-07-20T09:37:14Z</time>
      </trkpt>
      <trkpt lat="45.93962" lon="4.73737">
        <ele>172</ele>
        <time>2017-07-20T09:37:16Z</time>
      </trkpt>
      <trkpt lat="45.93963" lon="4.73731">
        <ele>172</ele>
        <time>2017-07-20T09:37:17Z</time>
      </trkpt>
      <trkpt lat="45.93964" lon="4.7372">
        <ele>172</ele>
        <time>2017-07-20T09:37:19Z</time>
      </trkpt>
      <trkpt lat="45.93964" lon="4.73714">
        <ele>172</ele>
        <time>2017-07-20T09:37:20Z</time>
      </trkpt>
      <trkpt lat="45.93964" lon="4.73701">
        <ele>172</ele>
        <time>2017-07-20T09:37:22Z</time>
      </trkpt>
      <trkpt lat="45.93965" lon="4.73695">
        <ele>172</ele>
        <time>2017-07-20T09:37:23Z</time>
      </trkpt>
      <trkpt lat="45.93966" lon="4.73684">
        <ele>172</ele>
        <time>2017-07-20T09:37:25Z</time>
      </trkpt>
      <trkpt lat="45.93967" lon="4.73678">
        <ele>172</ele>
        <time>2017-07-20T09:37:26Z</time>
      </trkpt>
      <trkpt lat="45.93969" lon="4.73669">
        <ele>172</ele>
        <time>2017-07-20T09:37:28Z</time>
      </trkpt>
      <trkpt lat="45.93969" lon="4.73664">
        <ele>171</ele>
        <time>2017-07-20T09:37:29Z</time>
      </trkpt>
      <trkpt lat="45.93971" lon="4.73654">
        <ele>171</ele>
        <time>2017-07-20T09:37:31Z</time>
      </trkpt>
      <trkpt lat="45.93972" lon="4.73648">
        <ele>170</ele>
        <time>2017-07-20T09:37:32Z</time>
      </trkpt>
      <trkpt lat="45.93974" lon="4.73642">
        <ele>170</ele>
        <time>2017-07-20T09:37:33Z</time>
      </trkpt>
      <trkpt lat="45.93975" lon="4.73635">
        <ele>170</ele>
        <time>2017-07-20T09:37:34Z</time>
      </trkpt>
      <trkpt lat="45.93977" lon="4.73629">
        <ele>170</ele>
        <time>2017-07-20T09:37:35Z</time>
      </trkpt>
      <trkpt lat="45.93978" lon="4.73623">
        <ele>170</ele>
        <time>2017-07-20T09:37:36Z</time>
      </trkpt>
      <trkpt lat="45.93981" lon="4.73612">
        <ele>170</ele>
        <time>2017-07-20T09:37:38Z</time>
      </trkpt>
      <trkpt lat="45.93982" lon="4.73607">
        <ele>170</ele>
        <time>2017-07-20T09:37:39Z</time>
      </trkpt>
      <trkpt lat="45.93984" lon="4.73598">
        <ele>169</ele>
        <time>2017-07-20T09:37:41Z</time>
      </trkpt>
      <trkpt lat="45.93986" lon="4.73593">
        <ele>169</ele>
        <time>2017-07-20T09:37:42Z</time>
      </trkpt>
      <trkpt lat="45.9399" lon="4.73584">
        <ele>169</ele>
        <time>2017-07-20T09:37:44Z</time>
      </trkpt>
      <trkpt lat="45.93994" lon="4.73579">
        <ele>169</ele>
        <time>2017-07-20T09:37:45Z</time>
      </trkpt>
      <trkpt lat="45.93996" lon="4.73573">
        <ele>168</ele>
        <time>2017-07-20T09:37:46Z</time>
      </trkpt>
      <trkpt lat="45.94" lon="4.73567">
        <ele>168</ele>
        <time>2017-07-20T09:37:47Z</time>
      </trkpt>
      <trkpt lat="45.94002" lon="4.7356">
        <ele>171</ele>
        <time>2017-07-20T09:37:48Z</time>
      </trkpt>
      <trkpt lat="45.94004" lon="4.73553">
        <ele>171</ele>
        <time>2017-07-20T09:37:49Z</time>
      </trkpt>
      <trkpt lat="45.94008" lon="4.73542">
        <ele>171</ele>
        <time>2017-07-20T09:37:51Z</time>
      </trkpt>
      <trkpt lat="45.9401" lon="4.73537">
        <ele>171</ele>
        <time>2017-07-20T09:37:52Z</time>
      </trkpt>
      <trkpt lat="45.94013" lon="4.73527">
        <ele>171</ele>
        <time>2017-07-20T09:37:54Z</time>
      </trkpt>
      <trkpt lat="45.94015" lon="4.73522">
        <ele>171</ele>
        <time>2017-07-20T09:37:55Z</time>
      </trkpt>
      <trkpt lat="45.9402" lon="4.73513">
        <ele>171</ele>
        <time>2017-07-20T09:37:57Z</time>
      </trkpt>
      <trkpt lat="45.94022" lon="4.73509">
        <ele>171</ele>
        <time>2017-07-20T09:37:58Z</time>
      </trkpt>
      <trkpt lat="45.94028" lon="4.73499">
        <ele>171</ele>
        <time>2017-07-20T09:38:00Z</time>
      </trkpt>
      <trkpt lat="45.9403" lon="4.73494">
        <ele>171</ele>
        <time>2017-07-20T09:38:01Z</time>
      </trkpt>
      <trkpt lat="45.94033" lon="4.73488">
        <ele>171</ele>
        <time>2017-07-20T09:38:02Z</time>
      </trkpt>
      <trkpt lat="45.94037" lon="4.73482">
        <ele>171</ele>
        <time>2017-07-20T09:38:03Z</time>
      </trkpt>
      <trkpt lat="45.9404" lon="4.73477">
        <ele>171</ele>
        <time>2017-07-20T09:38:04Z</time>
      </trkpt>
      <trkpt lat="45.94043" lon="4.73473">
        <ele>172</ele>
        <time>2017-07-20T09:38:05Z</time>
      </trkpt>
      <trkpt lat="45.94048" lon="4.73463">
        <ele>172</ele>
        <time>2017-07-20T09:38:07Z</time>
      </trkpt>
      <trkpt lat="45.9405" lon="4.73459">
        <ele>172</ele>
        <time>2017-07-20T09:38:08Z</time>
      </trkpt>
      <trkpt lat="45.94055" lon="4.7345">
        <ele>172</ele>
        <time>2017-07-20T09:38:10Z</time>
      </trkpt>
      <trkpt lat="45.94057" lon="4.73446">
        <ele>172</ele>
        <time>2017-07-20T09:38:11Z</time>
      </trkpt>
      <trkpt lat="45.9406" lon="4.73441">
        <ele>172</ele>
        <time>2017-07-20T09:38:12Z</time>
      </trkpt>
      <trkpt lat="45.94063" lon="4.73436">
        <ele>172</ele>
        <time>2017-07-20T09:38:13Z</time>
      </trkpt>
      <trkpt lat="45.94069" lon="4.73427">
        <ele>173</ele>
        <time>2017-07-20T09:38:15Z</time>
      </trkpt>
      <trkpt lat="45.94072" lon="4.73423">
        <ele>173</ele>
        <time>2017-07-20T09:38:16Z</time>
      </trkpt>
      <trkpt lat="45.94077" lon="4.73416">
        <ele>173</ele>
        <time>2017-07-20T09:38:18Z</time>
      </trkpt>
      <trkpt lat="45.94079" lon="4.73413">
        <ele>173</ele>
        <time>2017-07-20T09:38:19Z</time>
      </trkpt>
      <trkpt lat="45.94082" lon="4.73405">
        <ele>172</ele>
        <time>2017-07-20T09:38:21Z</time>
      </trkpt>
      <trkpt lat="45.94084" lon="4.734">
        <ele>174</ele>
        <time>2017-07-20T09:38:22Z</time>
      </trkpt>
      <trkpt lat="45.9409" lon="4.73389">
        <ele>174</ele>
        <time>2017-07-20T09:38:24Z</time>
      </trkpt>
      <trkpt lat="45.94092" lon="4.73384">
        <ele>174</ele>
        <time>2017-07-20T09:38:25Z</time>
      </trkpt>
      <trkpt lat="45.94097" lon="4.73374">
        <ele>174</ele>
        <time>2017-07-20T09:38:27Z</time>
      </trkpt>
      <trkpt lat="45.941" lon="4.7337">
        <ele>173</ele>
        <time>2017-07-20T09:38:28Z</time>
      </trkpt>
      <trkpt lat="45.94103" lon="4.73362">
        <ele>173</ele>
        <time>2017-07-20T09:38:30Z</time>
      </trkpt>
      <trkpt lat="45.94104" lon="4.73359">
        <ele>173</ele>
        <time>2017-07-20T09:38:31Z</time>
      </trkpt>
      <trkpt lat="45.94107" lon="4.73351">
        <ele>173</ele>
        <time>2017-07-20T09:38:33Z</time>
      </trkpt>
      <trkpt lat="45.94109" lon="4.73347">
        <ele>173</ele>
        <time>2017-07-20T09:38:34Z</time>
      </trkpt>
      <trkpt lat="45.94115" lon="4.73338">
        <ele>173</ele>
        <time>2017-07-20T09:38:36Z</time>
      </trkpt>
      <trkpt lat="45.94119" lon="4.73333">
        <ele>171</ele>
        <time>2017-07-20T09:38:37Z</time>
      </trkpt>
      <trkpt lat="45.94123" lon="4.73328">
        <ele>171</ele>
        <time>2017-07-20T09:38:38Z</time>
      </trkpt>
      <trkpt lat="45.94125" lon="4.73324">
        <ele>171</ele>
        <time>2017-07-20T09:38:39Z</time>
      </trkpt>
      <trkpt lat="45.9413" lon="4.73314">
        <ele>171</ele>
        <time>2017-07-20T09:38:41Z</time>
      </trkpt>
      <trkpt lat="45.94133" lon="4.7331">
        <ele>171</ele>
        <time>2017-07-20T09:38:42Z</time>
      </trkpt>
      <trkpt lat="45.94138" lon="4.73303">
        <ele>171</ele>
        <time>2017-07-20T09:38:44Z</time>
      </trkpt>
      <trkpt lat="45.94142" lon="4.73299">
        <ele>170</ele>
        <time>2017-07-20T09:38:45Z</time>
      </trkpt>
      <trkpt lat="45.94146" lon="4.73296">
        <ele>170</ele>
        <time>2017-07-20T09:38:46Z</time>
      </trkpt>
      <trkpt lat="45.9415" lon="4.73292">
        <ele>170</ele>
        <time>2017-07-20T09:38:47Z</time>
      </trkpt>
      <trkpt lat="45.94157" lon="4.73287">
        <ele>170</ele>
        <time>2017-07-20T09:38:49Z</time>
      </trkpt>
      <trkpt lat="45.9416" lon="4.73285">
        <ele>170</ele>
        <time>2017-07-20T09:38:50Z</time>
      </trkpt>
      <trkpt lat="45.94166" lon="4.7328">
        <ele>170</ele>
        <time>2017-07-20T09:38:52Z</time>
      </trkpt>
      <trkpt lat="45.94168" lon="4.73277">
        <ele>172</ele>
        <time>2017-07-20T09:38:53Z</time>
      </trkpt>
      <trkpt lat="45.94174" lon="4.73272">
        <ele>172</ele>
        <time>2017-07-20T09:38:55Z</time>
      </trkpt>
      <trkpt lat="45.94177" lon="4.7327">
        <ele>172</ele>
        <time>2017-07-20T09:38:56Z</time>
      </trkpt>
      <trkpt lat="45.94182" lon="4.73267">
        <ele>172</ele>
        <time>2017-07-20T09:38:57Z</time>
      </trkpt>
      <trkpt lat="45.94187" lon="4.73264">
        <ele>172</ele>
        <time>2017-07-20T09:38:58Z</time>
      </trkpt>
      <trkpt lat="45.94194" lon="4.73256">
        <ele>172</ele>
        <time>2017-07-20T09:39:00Z</time>
      </trkpt>
      <trkpt lat="45.94197" lon="4.73252">
        <ele>172</ele>
        <time>2017-07-20T09:39:01Z</time>
      </trkpt>
      <trkpt lat="45.94202" lon="4.73247">
        <ele>169</ele>
        <time>2017-07-20T09:39:02Z</time>
      </trkpt>
      <trkpt lat="45.94206" lon="4.73242">
        <ele>169</ele>
        <time>2017-07-20T09:39:03Z</time>
      </trkpt>
      <trkpt lat="45.94211" lon="4.73236">
        <ele>169</ele>
        <time>2017-07-20T09:39:04Z</time>
      </trkpt>
      <trkpt lat="45.94216" lon="4.73233">
        <ele>169</ele>
        <time>2017-07-20T09:39:05Z</time>
      </trkpt>
      <trkpt lat="45.94223" lon="4.73227">
        <ele>169</ele>
        <time>2017-07-20T09:39:07Z</time>
      </trkpt>
      <trkpt lat="45.94227" lon="4.73224">
        <ele>169</ele>
        <time>2017-07-20T09:39:08Z</time>
      </trkpt>
      <trkpt lat="45.94233" lon="4.73218">
        <ele>169</ele>
        <time>2017-07-20T09:39:10Z</time>
      </trkpt>
      <trkpt lat="45.94235" lon="4.73216">
        <ele>169</ele>
        <time>2017-07-20T09:39:11Z</time>
      </trkpt>
      <trkpt lat="45.94243" lon="4.73211">
        <ele>169</ele>
        <time>2017-07-20T09:39:13Z</time>
      </trkpt>
      <trkpt lat="45.94246" lon="4.73209">
        <ele>169</ele>
        <time>2017-07-20T09:39:14Z</time>
      </trkpt>
      <trkpt lat="45.94249" lon="4.73206">
        <ele>169</ele>
        <time>2017-07-20T09:39:15Z</time>
      </trkpt>
      <trkpt lat="45.94254" lon="4.73204">
        <ele>170</ele>
        <time>2017-07-20T09:39:16Z</time>
      </trkpt>
      <trkpt lat="45.94258" lon="4.73201">
        <ele>170</ele>
        <time>2017-07-20T09:39:17Z</time>
      </trkpt>
      <trkpt lat="45.94262" lon="4.73197">
        <ele>170</ele>
        <time>2017-07-20T09:39:18Z</time>
      </trkpt>
      <trkpt lat="45.94266" lon="4.73194">
        <ele>170</ele>
        <time>2017-07-20T09:39:19Z</time>
      </trkpt>
      <trkpt lat="45.9427" lon="4.7319">
        <ele>169</ele>
        <time>2017-07-20T09:39:20Z</time>
      </trkpt>
      <trkpt lat="45.94278" lon="4.73184">
        <ele>169</ele>
        <time>2017-07-20T09:39:22Z</time>
      </trkpt>
      <trkpt lat="45.94281" lon="4.73181">
        <ele>170</ele>
        <time>2017-07-20T09:39:23Z</time>
      </trkpt>
      <trkpt lat="45.94287" lon="4.73176">
        <ele>170</ele>
        <time>2017-07-20T09:39:25Z</time>
      </trkpt>
      <trkpt lat="45.94291" lon="4.73173">
        <ele>170</ele>
        <time>2017-07-20T09:39:26Z</time>
      </trkpt>
      <trkpt lat="45.94297" lon="4.73166">
        <ele>168</ele>
        <time>2017-07-20T09:39:28Z</time>
      </trkpt>
      <trkpt lat="45.94301" lon="4.73164">
        <ele>168</ele>
        <time>2017-07-20T09:39:29Z</time>
      </trkpt>
      <trkpt lat="45.94307" lon="4.73157">
        <ele>168</ele>
        <time>2017-07-20T09:39:31Z</time>
      </trkpt>
      <trkpt lat="45.9431" lon="4.73154">
        <ele>168</ele>
        <time>2017-07-20T09:39:32Z</time>
      </trkpt>
      <trkpt lat="45.94316" lon="4.73148">
        <ele>168</ele>
        <time>2017-07-20T09:39:34Z</time>
      </trkpt>
      <trkpt lat="45.94319" lon="4.73146">
        <ele>168</ele>
        <time>2017-07-20T09:39:35Z</time>
      </trkpt>
      <trkpt lat="45.94326" lon="4.73141">
        <ele>168</ele>
        <time>2017-07-20T09:39:37Z</time>
      </trkpt>
      <trkpt lat="45.94329" lon="4.73139">
        <ele>168</ele>
        <time>2017-07-20T09:39:38Z</time>
      </trkpt>
      <trkpt lat="45.94336" lon="4.73134">
        <ele>170</ele>
        <time>2017-07-20T09:39:40Z</time>
      </trkpt>
      <trkpt lat="45.94342" lon="4.73133">
        <ele>169</ele>
        <time>2017-07-20T09:39:41Z</time>
      </trkpt>
      <trkpt lat="45.94348" lon="4.73129">
        <ele>169</ele>
        <time>2017-07-20T09:39:43Z</time>
      </trkpt>
      <trkpt lat="45.94352" lon="4.73128">
        <ele>169</ele>
        <time>2017-07-20T09:39:44Z</time>
      </trkpt>
      <trkpt lat="45.94359" lon="4.73121">
        <ele>169</ele>
        <time>2017-07-20T09:39:46Z</time>
      </trkpt>
      <trkpt lat="45.94362" lon="4.73118">
        <ele>169</ele>
        <time>2017-07-20T09:39:47Z</time>
      </trkpt>
      <trkpt lat="45.94366" lon="4.73115">
        <ele>169</ele>
        <time>2017-07-20T09:39:48Z</time>
      </trkpt>
      <trkpt lat="45.9437" lon="4.73112">
        <ele>169</ele>
        <time>2017-07-20T09:39:49Z</time>
      </trkpt>
      <trkpt lat="45.94376" lon="4.73106">
        <ele>169</ele>
        <time>2017-07-20T09:39:51Z</time>
      </trkpt>
      <trkpt lat="45.9438" lon="4.73103">
        <ele>169</ele>
        <time>2017-07-20T09:39:52Z</time>
      </trkpt>
      <trkpt lat="45.94386" lon="4.73098">
        <ele>169</ele>
        <time>2017-07-20T09:39:54Z</time>
      </trkpt>
      <trkpt lat="45.94388" lon="4.73095">
        <ele>169</ele>
        <time>2017-07-20T09:39:55Z</time>
      </trkpt>
      <trkpt lat="45.94395" lon="4.7309">
        <ele>169</ele>
        <time>2017-07-20T09:39:57Z</time>
      </trkpt>
      <trkpt lat="45.94397" lon="4.73088">
        <ele>169</ele>
        <time>2017-07-20T09:39:58Z</time>
      </trkpt>
      <trkpt lat="45.94404" lon="4.73081">
        <ele>168</ele>
        <time>2017-07-20T09:40:00Z</time>
      </trkpt>
      <trkpt lat="45.94407" lon="4.73078">
        <ele>168</ele>
        <time>2017-07-20T09:40:01Z</time>
      </trkpt>
      <trkpt lat="45.94413" lon="4.73071">
        <ele>168</ele>
        <time>2017-07-20T09:40:03Z</time>
      </trkpt>
      <trkpt lat="45.94414" lon="4.73068">
        <ele>168</ele>
        <time>2017-07-20T09:40:04Z</time>
      </trkpt>
      <trkpt lat="45.94418" lon="4.73058">
        <ele>169</ele>
        <time>2017-07-20T09:40:08Z</time>
      </trkpt>
      <trkpt lat="45.94419" lon="4.73055">
        <ele>169</ele>
        <time>2017-07-20T09:40:09Z</time>
      </trkpt>
      <trkpt lat="45.94422" lon="4.73051">
        <ele>169</ele>
        <time>2017-07-20T09:40:11Z</time>
      </trkpt>
      <trkpt lat="45.9443" lon="4.73051">
        <ele>169</ele>
        <time>2017-07-20T09:40:12Z</time>
      </trkpt>
      <trkpt lat="45.94434" lon="4.73043">
        <ele>169</ele>
        <time>2017-07-20T09:40:15Z</time>
      </trkpt>
      <trkpt lat="45.94436" lon="4.7304">
        <ele>169</ele>
        <time>2017-07-20T09:40:16Z</time>
      </trkpt>
      <trkpt lat="45.94443" lon="4.73037">
        <ele>169</ele>
        <time>2017-07-20T09:40:19Z</time>
      </trkpt>
      <trkpt lat="45.94445" lon="4.73037">
        <ele>169</ele>
        <time>2017-07-20T09:40:20Z</time>
      </trkpt>
      <trkpt lat="45.94452" lon="4.73037">
        <ele>169</ele>
        <time>2017-07-20T09:40:21Z</time>
      </trkpt>
      <trkpt lat="45.94455" lon="4.73035">
        <ele>169</ele>
        <time>2017-07-20T09:40:22Z</time>
      </trkpt>
      <trkpt lat="45.9446" lon="4.73033">
        <ele>169</ele>
        <time>2017-07-20T09:40:24Z</time>
      </trkpt>
      <trkpt lat="45.94465" lon="4.73031">
        <ele>170</ele>
        <time>2017-07-20T09:40:25Z</time>
      </trkpt>
      <trkpt lat="45.94472" lon="4.73029">
        <ele>170</ele>
        <time>2017-07-20T09:40:27Z</time>
      </trkpt>
      <trkpt lat="45.94475" lon="4.73029">
        <ele>170</ele>
        <time>2017-07-20T09:40:28Z</time>
      </trkpt>
      <trkpt lat="45.94481" lon="4.73027">
        <ele>170</ele>
        <time>2017-07-20T09:40:30Z</time>
      </trkpt>
      <trkpt lat="45.94484" lon="4.73025">
        <ele>170</ele>
        <time>2017-07-20T09:40:31Z</time>
      </trkpt>
      <trkpt lat="45.9449" lon="4.73024">
        <ele>170</ele>
        <time>2017-07-20T09:40:33Z</time>
      </trkpt>
      <trkpt lat="45.94493" lon="4.73023">
        <ele>170</ele>
        <time>2017-07-20T09:40:34Z</time>
      </trkpt>
      <trkpt lat="45.94502" lon="4.73022">
        <ele>171</ele>
        <time>2017-07-20T09:40:36Z</time>
      </trkpt>
      <trkpt lat="45.94506" lon="4.73021">
        <ele>171</ele>
        <time>2017-07-20T09:40:37Z</time>
      </trkpt>
      <trkpt lat="45.94513" lon="4.73021">
        <ele>171</ele>
        <time>2017-07-20T09:40:39Z</time>
      </trkpt>
      <trkpt lat="45.94517" lon="4.7302">
        <ele>171</ele>
        <time>2017-07-20T09:40:40Z</time>
      </trkpt>
      <trkpt lat="45.94524" lon="4.73018">
        <ele>171</ele>
        <time>2017-07-20T09:40:43Z</time>
      </trkpt>
      <trkpt lat="45.94526" lon="4.73018">
        <ele>171</ele>
        <time>2017-07-20T09:40:44Z</time>
      </trkpt>
      <trkpt lat="45.94531" lon="4.73021">
        <ele>171</ele>
        <time>2017-07-20T09:40:46Z</time>
      </trkpt>
      <trkpt lat="45.94534" lon="4.73024">
        <ele>171</ele>
        <time>2017-07-20T09:40:47Z</time>
      </trkpt>
      <trkpt lat="45.94541" lon="4.73031">
        <ele>171</ele>
        <time>2017-07-20T09:40:50Z</time>
      </trkpt>
      <trkpt lat="45.94543" lon="4.73033">
        <ele>171</ele>
        <time>2017-07-20T09:40:51Z</time>
      </trkpt>
      <trkpt lat="45.94545" lon="4.73043">
        <ele>172</ele>
        <time>2017-07-20T09:40:56Z</time>
      </trkpt>
      <trkpt lat="45.94545" lon="4.73046">
        <ele>172</ele>
        <time>2017-07-20T09:40:57Z</time>
      </trkpt>
      <trkpt lat="45.94547" lon="4.73057">
        <ele>172</ele>
        <time>2017-07-20T09:41:01Z</time>
      </trkpt>
      <trkpt lat="45.94547" lon="4.7306">
        <ele>172</ele>
        <time>2017-07-20T09:41:02Z</time>
      </trkpt>
      <trkpt lat="45.9455" lon="4.7307">
        <ele>172</ele>
        <time>2017-07-20T09:41:06Z</time>
      </trkpt>
      <trkpt lat="45.94551" lon="4.73073">
        <ele>172</ele>
        <time>2017-07-20T09:41:07Z</time>
      </trkpt>
      <trkpt lat="45.94553" lon="4.73082">
        <ele>172</ele>
        <time>2017-07-20T09:41:10Z</time>
      </trkpt>
      <trkpt lat="45.94553" lon="4.73085">
        <ele>172</ele>
        <time>2017-07-20T09:41:11Z</time>
      </trkpt>
      <trkpt lat="45.94553" lon="4.73087">
        <ele>172</ele>
        <time>2017-07-20T09:41:12Z</time>
      </trkpt>
      <trkpt lat="45.94553" lon="4.73089">
        <ele>172</ele>
        <time>2017-07-20T09:41:13Z</time>
      </trkpt>
      <trkpt lat="45.94549" lon="4.73092">
        <ele>172</ele>
        <time>2017-07-20T09:41:23Z</time>
      </trkpt>
      <trkpt lat="45.94548" lon="4.73093">
        <ele>172</ele>
        <time>2017-07-20T09:41:24Z</time>
      </trkpt>
      <trkpt lat="45.94541" lon="4.73092">
        <ele>173</ele>
        <time>2017-07-20T09:41:27Z</time>
      </trkpt>
      <trkpt lat="45.94538" lon="4.73092">
        <ele>172</ele>
        <time>2017-07-20T09:41:28Z</time>
      </trkpt>
      <trkpt lat="45.94531" lon="4.73091">
        <ele>172</ele>
        <time>2017-07-20T09:41:30Z</time>
      </trkpt>
      <trkpt lat="45.94527" lon="4.73091">
        <ele>172</ele>
        <time>2017-07-20T09:41:31Z</time>
      </trkpt>
      <trkpt lat="45.94521" lon="4.7309">
        <ele>172</ele>
        <time>2017-07-20T09:41:33Z</time>
      </trkpt>
      <trkpt lat="45.94516" lon="4.73093">
        <ele>172</ele>
        <time>2017-07-20T09:41:34Z</time>
      </trkpt>
      <trkpt lat="45.94508" lon="4.73087">
        <ele>172</ele>
        <time>2017-07-20T09:41:37Z</time>
      </trkpt>
      <trkpt lat="45.94506" lon="4.73086">
        <ele>172</ele>
        <time>2017-07-20T09:41:38Z</time>
      </trkpt>
      <trkpt lat="45.94503" lon="4.73084">
        <ele>172</ele>
        <time>2017-07-20T09:41:39Z</time>
      </trkpt>
      <trkpt lat="45.94497" lon="4.73081">
        <ele>172</ele>
        <time>2017-07-20T09:41:40Z</time>
      </trkpt>
      <trkpt lat="45.94492" lon="4.73079">
        <ele>171</ele>
        <time>2017-07-20T09:41:42Z</time>
      </trkpt>
      <trkpt lat="45.94488" lon="4.73078">
        <ele>171</ele>
        <time>2017-07-20T09:41:43Z</time>
      </trkpt>
      <trkpt lat="45.94481" lon="4.73074">
        <ele>171</ele>
        <time>2017-07-20T09:41:46Z</time>
      </trkpt>
      <trkpt lat="45.94478" lon="4.73071">
        <ele>170</ele>
        <time>2017-07-20T09:41:47Z</time>
      </trkpt>
      <trkpt lat="45.94474" lon="4.73062">
        <ele>170</ele>
        <time>2017-07-20T09:41:50Z</time>
      </trkpt>
      <trkpt lat="45.94473" lon="4.73058">
        <ele>170</ele>
        <time>2017-07-20T09:41:51Z</time>
      </trkpt>
      <trkpt lat="45.94471" lon="4.73049">
        <ele>170</ele>
        <time>2017-07-20T09:41:53Z</time>
      </trkpt>
      <trkpt lat="45.94469" lon="4.73045">
        <ele>170</ele>
        <time>2017-07-20T09:41:54Z</time>
      </trkpt>
      <trkpt lat="45.94468" lon="4.73036">
        <ele>170</ele>
        <time>2017-07-20T09:41:56Z</time>
      </trkpt>
      <trkpt lat="45.94467" lon="4.73032">
        <ele>170</ele>
        <time>2017-07-20T09:41:57Z</time>
      </trkpt>
      <trkpt lat="45.94464" lon="4.73022">
        <ele>169</ele>
        <time>2017-07-20T09:41:59Z</time>
      </trkpt>
      <trkpt lat="45.94464" lon="4.73018">
        <ele>169</ele>
        <time>2017-07-20T09:42:00Z</time>
      </trkpt>
      <trkpt lat="45.94462" lon="4.73008">
        <ele>169</ele>
        <time>2017-07-20T09:42:02Z</time>
      </trkpt>
      <trkpt lat="45.94462" lon="4.73003">
        <ele>169</ele>
        <time>2017-07-20T09:42:03Z</time>
      </trkpt>
      <trkpt lat="45.94459" lon="4.72993">
        <ele>168</ele>
        <time>2017-07-20T09:42:05Z</time>
      </trkpt>
      <trkpt lat="45.94457" lon="4.72989">
        <ele>168</ele>
        <time>2017-07-20T09:42:06Z</time>
      </trkpt>
      <trkpt lat="45.94455" lon="4.72979">
        <ele>167</ele>
        <time>2017-07-20T09:42:08Z</time>
      </trkpt>
      <trkpt lat="45.94453" lon="4.72974">
        <ele>167</ele>
        <time>2017-07-20T09:42:09Z</time>
      </trkpt>
      <trkpt lat="45.94452" lon="4.72965">
        <ele>167</ele>
        <time>2017-07-20T09:42:11Z</time>
      </trkpt>
      <trkpt lat="45.94451" lon="4.7296">
        <ele>167</ele>
        <time>2017-07-20T09:42:12Z</time>
      </trkpt>
      <trkpt lat="45.94449" lon="4.72949">
        <ele>167</ele>
        <time>2017-07-20T09:42:14Z</time>
      </trkpt>
      <trkpt lat="45.94448" lon="4.72944">
        <ele>167</ele>
        <time>2017-07-20T09:42:15Z</time>
      </trkpt>
      <trkpt lat="45.94447" lon="4.72934">
        <ele>167</ele>
        <time>2017-07-20T09:42:17Z</time>
      </trkpt>
      <trkpt lat="45.94446" lon="4.7293">
        <ele>167</ele>
        <time>2017-07-20T09:42:18Z</time>
      </trkpt>
      <trkpt lat="45.94444" lon="4.72921">
        <ele>167</ele>
        <time>2017-07-20T09:42:20Z</time>
      </trkpt>
      <trkpt lat="45.94444" lon="4.72916">
        <ele>166</ele>
        <time>2017-07-20T09:42:21Z</time>
      </trkpt>
      <trkpt lat="45.94443" lon="4.72907">
        <ele>166</ele>
        <time>2017-07-20T09:42:23Z</time>
      </trkpt>
      <trkpt lat="45.94441" lon="4.72902">
        <ele>166</ele>
        <time>2017-07-20T09:42:24Z</time>
      </trkpt>
      <trkpt lat="45.94439" lon="4.7289">
        <ele>166</ele>
        <time>2017-07-20T09:42:27Z</time>
      </trkpt>
      <trkpt lat="45.94439" lon="4.72886">
        <ele>166</ele>
        <time>2017-07-20T09:42:28Z</time>
      </trkpt>
      <trkpt lat="45.94437" lon="4.72877">
        <ele>166</ele>
        <time>2017-07-20T09:42:30Z</time>
      </trkpt>
      <trkpt lat="45.94437" lon="4.72873">
        <ele>166</ele>
        <time>2017-07-20T09:42:31Z</time>
      </trkpt>
      <trkpt lat="45.94436" lon="4.72864">
        <ele>166</ele>
        <time>2017-07-20T09:42:33Z</time>
      </trkpt>
      <trkpt lat="45.94435" lon="4.72859">
        <ele>166</ele>
        <time>2017-07-20T09:42:34Z</time>
      </trkpt>
      <trkpt lat="45.94434" lon="4.72847">
        <ele>166</ele>
        <time>2017-07-20T09:42:36Z</time>
      </trkpt>
      <trkpt lat="45.94434" lon="4.72842">
        <ele>166</ele>
        <time>2017-07-20T09:42:37Z</time>
      </trkpt>
      <trkpt lat="45.94433" lon="4.72829">
        <ele>167</ele>
        <time>2017-07-20T09:42:39Z</time>
      </trkpt>
      <trkpt lat="45.94432" lon="4.72822">
        <ele>167</ele>
        <time>2017-07-20T09:42:40Z</time>
      </trkpt>
      <trkpt lat="45.94431" lon="4.72815">
        <ele>167</ele>
        <time>2017-07-20T09:42:41Z</time>
      </trkpt>
      <trkpt lat="45.94431" lon="4.72808">
        <ele>167</ele>
        <time>2017-07-20T09:42:42Z</time>
      </trkpt>
      <trkpt lat="45.9443" lon="4.72801">
        <ele>167</ele>
        <time>2017-07-20T09:42:43Z</time>
      </trkpt>
      <trkpt lat="45.94429" lon="4.72794">
        <ele>168</ele>
        <time>2017-07-20T09:42:44Z</time>
      </trkpt>
      <trkpt lat="45.94429" lon="4.72786">
        <ele>168</ele>
        <time>2017-07-20T09:42:45Z</time>
      </trkpt>
      <trkpt lat="45.94429" lon="4.72779">
        <ele>168</ele>
        <time>2017-07-20T09:42:46Z</time>
      </trkpt>
      <trkpt lat="45.94428" lon="4.72772">
        <ele>169</ele>
        <time>2017-07-20T09:42:47Z</time>
      </trkpt>
      <trkpt lat="45.94428" lon="4.72764">
        <ele>169</ele>
        <time>2017-07-20T09:42:48Z</time>
      </trkpt>
      <trkpt lat="45.94427" lon="4.72756">
        <ele>169</ele>
        <time>2017-07-20T09:42:49Z</time>
      </trkpt>
      <trkpt lat="45.94426" lon="4.72749">
        <ele>171</ele>
        <time>2017-07-20T09:42:50Z</time>
      </trkpt>
      <trkpt lat="45.94425" lon="4.72741">
        <ele>171</ele>
        <time>2017-07-20T09:42:51Z</time>
      </trkpt>
      <trkpt lat="45.94425" lon="4.72734">
        <ele>171</ele>
        <time>2017-07-20T09:42:52Z</time>
      </trkpt>
      <trkpt lat="45.94424" lon="4.72727">
        <ele>171</ele>
        <time>2017-07-20T09:42:53Z</time>
      </trkpt>
      <trkpt lat="45.94424" lon="4.72719">
        <ele>171</ele>
        <time>2017-07-20T09:42:54Z</time>
      </trkpt>
      <trkpt lat="45.94423" lon="4.72712">
        <ele>172</ele>
        <time>2017-07-20T09:42:55Z</time>
      </trkpt>
      <trkpt lat="45.94422" lon="4.72705">
        <ele>172</ele>
        <time>2017-07-20T09:42:56Z</time>
      </trkpt>
      <trkpt lat="45.94421" lon="4.72698">
        <ele>172</ele>
        <time>2017-07-20T09:42:57Z</time>
      </trkpt>
      <trkpt lat="45.94419" lon="4.72691">
        <ele>172</ele>
        <time>2017-07-20T09:42:58Z</time>
      </trkpt>
      <trkpt lat="45.94418" lon="4.72684">
        <ele>173</ele>
        <time>2017-07-20T09:42:59Z</time>
      </trkpt>
      <trkpt lat="45.94417" lon="4.72677">
        <ele>173</ele>
        <time>2017-07-20T09:43:00Z</time>
      </trkpt>
      <trkpt lat="45.94416" lon="4.72671">
        <ele>174</ele>
        <time>2017-07-20T09:43:01Z</time>
      </trkpt>
      <trkpt lat="45.94414" lon="4.72664">
        <ele>174</ele>
        <time>2017-07-20T09:43:02Z</time>
      </trkpt>
      <trkpt lat="45.94413" lon="4.72657">
        <ele>174</ele>
        <time>2017-07-20T09:43:03Z</time>
      </trkpt>
      <trkpt lat="45.94412" lon="4.7265">
        <ele>174</ele>
        <time>2017-07-20T09:43:04Z</time>
      </trkpt>
      <trkpt lat="45.94411" lon="4.72644">
        <ele>174</ele>
        <time>2017-07-20T09:43:05Z</time>
      </trkpt>
      <trkpt lat="45.9441" lon="4.72638">
        <ele>174</ele>
        <time>2017-07-20T09:43:06Z</time>
      </trkpt>
      <trkpt lat="45.9441" lon="4.72626">
        <ele>174</ele>
        <time>2017-07-20T09:43:09Z</time>
      </trkpt>
      <trkpt lat="45.94409" lon="4.72624">
        <ele>173</ele>
        <time>2017-07-20T09:43:10Z</time>
      </trkpt>
      <trkpt lat="45.94413" lon="4.72615">
        <ele>173</ele>
        <time>2017-07-20T09:43:13Z</time>
      </trkpt>
      <trkpt lat="45.94414" lon="4.72611">
        <ele>173</ele>
        <time>2017-07-20T09:43:14Z</time>
      </trkpt>
      <trkpt lat="45.94411" lon="4.72602">
        <ele>173</ele>
        <time>2017-07-20T09:43:16Z</time>
      </trkpt>
      <trkpt lat="45.94411" lon="4.72598">
        <ele>173</ele>
        <time>2017-07-20T09:43:17Z</time>
      </trkpt>
      <trkpt lat="45.94408" lon="4.72587">
        <ele>173</ele>
        <time>2017-07-20T09:43:19Z</time>
      </trkpt>
      <trkpt lat="45.94407" lon="4.72583">
        <ele>173</ele>
        <time>2017-07-20T09:43:20Z</time>
      </trkpt>
      <trkpt lat="45.94406" lon="4.72576">
        <ele>173</ele>
        <time>2017-07-20T09:43:21Z</time>
      </trkpt>
      <trkpt lat="45.94405" lon="4.7257">
        <ele>173</ele>
        <time>2017-07-20T09:43:22Z</time>
      </trkpt>
      <trkpt lat="45.94404" lon="4.72563">
        <ele>173</ele>
        <time>2017-07-20T09:43:23Z</time>
      </trkpt>
      <trkpt lat="45.94402" lon="4.72557">
        <ele>173</ele>
        <time>2017-07-20T09:43:24Z</time>
      </trkpt>
      <trkpt lat="45.94399" lon="4.72546">
        <ele>173</ele>
        <time>2017-07-20T09:43:26Z</time>
      </trkpt>
      <trkpt lat="45.94398" lon="4.7254">
        <ele>174</ele>
        <time>2017-07-20T09:43:27Z</time>
      </trkpt>
      <trkpt lat="45.94395" lon="4.7253">
        <ele>174</ele>
        <time>2017-07-20T09:43:29Z</time>
      </trkpt>
      <trkpt lat="45.94393" lon="4.72525">
        <ele>174</ele>
        <time>2017-07-20T09:43:30Z</time>
      </trkpt>
      <trkpt lat="45.94389" lon="4.72519">
        <ele>174</ele>
        <time>2017-07-20T09:43:31Z</time>
      </trkpt>
      <trkpt lat="45.94387" lon="4.72514">
        <ele>174</ele>
        <time>2017-07-20T09:43:32Z</time>
      </trkpt>
      <trkpt lat="45.94385" lon="4.72508">
        <ele>174</ele>
        <time>2017-07-20T09:43:33Z</time>
      </trkpt>
      <trkpt lat="45.94383" lon="4.72502">
        <ele>174</ele>
        <time>2017-07-20T09:43:34Z</time>
      </trkpt>
      <trkpt lat="45.94382" lon="4.72495">
        <ele>173</ele>
        <time>2017-07-20T09:43:35Z</time>
      </trkpt>
      <trkpt lat="45.94378" lon="4.72489">
        <ele>173</ele>
        <time>2017-07-20T09:43:36Z</time>
      </trkpt>
      <trkpt lat="45.94375" lon="4.72483">
        <ele>173</ele>
        <time>2017-07-20T09:43:37Z</time>
      </trkpt>
      <trkpt lat="45.94372" lon="4.72477">
        <ele>173</ele>
        <time>2017-07-20T09:43:38Z</time>
      </trkpt>
      <trkpt lat="45.94367" lon="4.72466">
        <ele>173</ele>
        <time>2017-07-20T09:43:40Z</time>
      </trkpt>
      <trkpt lat="45.94365" lon="4.72461">
        <ele>173</ele>
        <time>2017-07-20T09:43:41Z</time>
      </trkpt>
      <trkpt lat="45.94361" lon="4.72452">
        <ele>173</ele>
        <time>2017-07-20T09:43:43Z</time>
      </trkpt>
      <trkpt lat="45.94359" lon="4.72447">
        <ele>173</ele>
        <time>2017-07-20T09:43:44Z</time>
      </trkpt>
      <trkpt lat="45.94354" lon="4.72437">
        <ele>173</ele>
        <time>2017-07-20T09:43:46Z</time>
      </trkpt>
      <trkpt lat="45.94352" lon="4.72429">
        <ele>173</ele>
        <time>2017-07-20T09:43:47Z</time>
      </trkpt>
      <trkpt lat="45.94349" lon="4.72423">
        <ele>173</ele>
        <time>2017-07-20T09:43:48Z</time>
      </trkpt>
      <trkpt lat="45.94347" lon="4.72417">
        <ele>173</ele>
        <time>2017-07-20T09:43:49Z</time>
      </trkpt>
      <trkpt lat="45.94344" lon="4.72411">
        <ele>173</ele>
        <time>2017-07-20T09:43:50Z</time>
      </trkpt>
      <trkpt lat="45.94342" lon="4.72405">
        <ele>173</ele>
        <time>2017-07-20T09:43:51Z</time>
      </trkpt>
      <trkpt lat="45.94337" lon="4.72394">
        <ele>172</ele>
        <time>2017-07-20T09:43:53Z</time>
      </trkpt>
      <trkpt lat="45.94335" lon="4.7239">
        <ele>172</ele>
        <time>2017-07-20T09:43:54Z</time>
      </trkpt>
      <trkpt lat="45.9433" lon="4.7238">
        <ele>172</ele>
        <time>2017-07-20T09:43:56Z</time>
      </trkpt>
      <trkpt lat="45.94328" lon="4.72375">
        <ele>172</ele>
        <time>2017-07-20T09:43:57Z</time>
      </trkpt>
      <trkpt lat="45.94326" lon="4.72369">
        <ele>172</ele>
        <time>2017-07-20T09:43:58Z</time>
      </trkpt>
      <trkpt lat="45.94324" lon="4.72363">
        <ele>172</ele>
        <time>2017-07-20T09:43:59Z</time>
      </trkpt>
      <trkpt lat="45.94321" lon="4.72357">
        <ele>172</ele>
        <time>2017-07-20T09:44:00Z</time>
      </trkpt>
      <trkpt lat="45.94318" lon="4.72351">
        <ele>172</ele>
        <time>2017-07-20T09:44:01Z</time>
      </trkpt>
      <trkpt lat="45.94315" lon="4.72346">
        <ele>172</ele>
        <time>2017-07-20T09:44:02Z</time>
      </trkpt>
      <trkpt lat="45.94312" lon="4.7234">
        <ele>172</ele>
        <time>2017-07-20T09:44:03Z</time>
      </trkpt>
      <trkpt lat="45.94309" lon="4.72332">
        <ele>172</ele>
        <time>2017-07-20T09:44:04Z</time>
      </trkpt>
      <trkpt lat="45.94305" lon="4.72326">
        <ele>171</ele>
        <time>2017-07-20T09:44:05Z</time>
      </trkpt>
      <trkpt lat="45.94303" lon="4.7232">
        <ele>171</ele>
        <time>2017-07-20T09:44:06Z</time>
      </trkpt>
      <trkpt lat="45.943" lon="4.72314">
        <ele>171</ele>
        <time>2017-07-20T09:44:07Z</time>
      </trkpt>
      <trkpt lat="45.94297" lon="4.72308">
        <ele>171</ele>
        <time>2017-07-20T09:44:08Z</time>
      </trkpt>
      <trkpt lat="45.94293" lon="4.72302">
        <ele>171</ele>
        <time>2017-07-20T09:44:09Z</time>
      </trkpt>
      <trkpt lat="45.9429" lon="4.72297">
        <ele>171</ele>
        <time>2017-07-20T09:44:10Z</time>
      </trkpt>
      <trkpt lat="45.94287" lon="4.72291">
        <ele>171</ele>
        <time>2017-07-20T09:44:11Z</time>
      </trkpt>
      <trkpt lat="45.94283" lon="4.72282">
        <ele>171</ele>
        <time>2017-07-20T09:44:13Z</time>
      </trkpt>
      <trkpt lat="45.94281" lon="4.72278">
        <ele>171</ele>
        <time>2017-07-20T09:44:14Z</time>
      </trkpt>
      <trkpt lat="45.94275" lon="4.72273">
        <ele>171</ele>
        <time>2017-07-20T09:44:16Z</time>
      </trkpt>
      <trkpt lat="45.94271" lon="4.72273">
        <ele>171</ele>
        <time>2017-07-20T09:44:17Z</time>
      </trkpt>
      <trkpt lat="45.94265" lon="4.72274">
        <ele>171</ele>
        <time>2017-07-20T09:44:18Z</time>
      </trkpt>
      <trkpt lat="45.94258" lon="4.72276">
        <ele>171</ele>
        <time>2017-07-20T09:44:19Z</time>
      </trkpt>
      <trkpt lat="45.94253" lon="4.72278">
        <ele>171</ele>
        <time>2017-07-20T09:44:20Z</time>
      </trkpt>
      <trkpt lat="45.94247" lon="4.72279">
        <ele>171</ele>
        <time>2017-07-20T09:44:21Z</time>
      </trkpt>
      <trkpt lat="45.94243" lon="4.7228">
        <ele>171</ele>
        <time>2017-07-20T09:44:22Z</time>
      </trkpt>
      <trkpt lat="45.94238" lon="4.72281">
        <ele>171</ele>
        <time>2017-07-20T09:44:23Z</time>
      </trkpt>
      <trkpt lat="45.94233" lon="4.72282">
        <ele>171</ele>
        <time>2017-07-20T09:44:24Z</time>
      </trkpt>
      <trkpt lat="45.94229" lon="4.72283">
        <ele>171</ele>
        <time>2017-07-20T09:44:25Z</time>
      </trkpt>
      <trkpt lat="45.94224" lon="4.72283">
        <ele>171</ele>
        <time>2017-07-20T09:44:26Z</time>
      </trkpt>
      <trkpt lat="45.94219" lon="4.72284">
        <ele>171</ele>
        <time>2017-07-20T09:44:27Z</time>
      </trkpt>
      <trkpt lat="45.94214" lon="4.72284">
        <ele>171</ele>
        <time>2017-07-20T09:44:28Z</time>
      </trkpt>
      <trkpt lat="45.94209" lon="4.72285">
        <ele>171</ele>
        <time>2017-07-20T09:44:29Z</time>
      </trkpt>
      <trkpt lat="45.94204" lon="4.72286">
        <ele>171</ele>
        <time>2017-07-20T09:44:30Z</time>
      </trkpt>
      <trkpt lat="45.94199" lon="4.72286">
        <ele>171</ele>
        <time>2017-07-20T09:44:31Z</time>
      </trkpt>
      <trkpt lat="45.94193" lon="4.72286">
        <ele>171</ele>
        <time>2017-07-20T09:44:32Z</time>
      </trkpt>
      <trkpt lat="45.94189" lon="4.72286">
        <ele>171</ele>
        <time>2017-07-20T09:44:33Z</time>
      </trkpt>
      <trkpt lat="45.94184" lon="4.72286">
        <ele>171</ele>
        <time>2017-07-20T09:44:34Z</time>
      </trkpt>
      <trkpt lat="45.94179" lon="4.72286">
        <ele>171</ele>
        <time>2017-07-20T09:44:35Z</time>
      </trkpt>
      <trkpt lat="45.94174" lon="4.72286">
        <ele>171</ele>
        <time>2017-07-20T09:44:36Z</time>
      </trkpt>
      <trkpt lat="45.94169" lon="4.72286">
        <ele>171</ele>
        <time>2017-07-20T09:44:37Z</time>
      </trkpt>
      <trkpt lat="45.94165" lon="4.72285">
        <ele>171</ele>
        <time>2017-07-20T09:44:38Z</time>
      </trkpt>
      <trkpt lat="45.9416" lon="4.72284">
        <ele>171</ele>
        <time>2017-07-20T09:44:39Z</time>
      </trkpt>
      <trkpt lat="45.94153" lon="4.7228">
        <ele>171</ele>
        <time>2017-07-20T09:44:41Z</time>
      </trkpt>
      <trkpt lat="45.94148" lon="4.72278">
        <ele>171</ele>
        <time>2017-07-20T09:44:42Z</time>
      </trkpt>
      <trkpt lat="45.94144" lon="4.72276">
        <ele>171</ele>
        <time>2017-07-20T09:44:43Z</time>
      </trkpt>
      <trkpt lat="45.9414" lon="4.72274">
        <ele>171</ele>
        <time>2017-07-20T09:44:44Z</time>
      </trkpt>
      <trkpt lat="45.94135" lon="4.72272">
        <ele>171</ele>
        <time>2017-07-20T09:44:45Z</time>
      </trkpt>
      <trkpt lat="45.94131" lon="4.72269">
        <ele>171</ele>
        <time>2017-07-20T09:44:46Z</time>
      </trkpt>
      <trkpt lat="45.94123" lon="4.72264">
        <ele>171</ele>
        <time>2017-07-20T09:44:48Z</time>
      </trkpt>
      <trkpt lat="45.94118" lon="4.72262">
        <ele>171</ele>
        <time>2017-07-20T09:44:49Z</time>
      </trkpt>
      <trkpt lat="45.94114" lon="4.72261">
        <ele>171</ele>
        <time>2017-07-20T09:44:50Z</time>
      </trkpt>
      <trkpt lat="45.94109" lon="4.72261">
        <ele>171</ele>
        <time>2017-07-20T09:44:51Z</time>
      </trkpt>
      <trkpt lat="45.94104" lon="4.7226">
        <ele>171</ele>
        <time>2017-07-20T09:44:52Z</time>
      </trkpt>
      <trkpt lat="45.94099" lon="4.72261">
        <ele>171</ele>
        <time>2017-07-20T09:44:53Z</time>
      </trkpt>
      <trkpt lat="45.94093" lon="4.72262">
        <ele>171</ele>
        <time>2017-07-20T09:44:54Z</time>
      </trkpt>
      <trkpt lat="45.94087" lon="4.72264">
        <ele>171</ele>
        <time>2017-07-20T09:44:55Z</time>
      </trkpt>
      <trkpt lat="45.94082" lon="4.72265">
        <ele>171</ele>
        <time>2017-07-20T09:44:56Z</time>
      </trkpt>
      <trkpt lat="45.94077" lon="4.72268">
        <ele>171</ele>
        <time>2017-07-20T09:44:57Z</time>
      </trkpt>
      <trkpt lat="45.94072" lon="4.72272">
        <ele>171</ele>
        <time>2017-07-20T09:44:58Z</time>
      </trkpt>
      <trkpt lat="45.94067" lon="4.72276">
        <ele>171</ele>
        <time>2017-07-20T09:44:59Z</time>
      </trkpt>
      <trkpt lat="45.94063" lon="4.7228">
        <ele>171</ele>
        <time>2017-07-20T09:45:00Z</time>
      </trkpt>
      <trkpt lat="45.94059" lon="4.72285">
        <ele>171</ele>
        <time>2017-07-20T09:45:01Z</time>
      </trkpt>
      <trkpt lat="45.94055" lon="4.72289">
        <ele>171</ele>
        <time>2017-07-20T09:45:02Z</time>
      </trkpt>
      <trkpt lat="45.94051" lon="4.72293">
        <ele>171</ele>
        <time>2017-07-20T09:45:03Z</time>
      </trkpt>
      <trkpt lat="45.94048" lon="4.72297">
        <ele>171</ele>
        <time>2017-07-20T09:45:04Z</time>
      </trkpt>
      <trkpt lat="45.94044" lon="4.72301">
        <ele>171</ele>
        <time>2017-07-20T09:45:05Z</time>
      </trkpt>
      <trkpt lat="45.9404" lon="4.72305">
        <ele>171</ele>
        <time>2017-07-20T09:45:06Z</time>
      </trkpt>
      <trkpt lat="45.94036" lon="4.72309">
        <ele>171</ele>
        <time>2017-07-20T09:45:07Z</time>
      </trkpt>
      <trkpt lat="45.94033" lon="4.72312">
        <ele>171</ele>
        <time>2017-07-20T09:45:08Z</time>
      </trkpt>
      <trkpt lat="45.94029" lon="4.72317">
        <ele>171</ele>
        <time>2017-07-20T09:45:09Z</time>
      </trkpt>
      <trkpt lat="45.94026" lon="4.72321">
        <ele>171</ele>
        <time>2017-07-20T09:45:10Z</time>
      </trkpt>
      <trkpt lat="45.94021" lon="4.72326">
        <ele>171</ele>
        <time>2017-07-20T09:45:11Z</time>
      </trkpt>
      <trkpt lat="45.94016" lon="4.72332">
        <ele>171</ele>
        <time>2017-07-20T09:45:12Z</time>
      </trkpt>
      <trkpt lat="45.94012" lon="4.72336">
        <ele>170</ele>
        <time>2017-07-20T09:45:13Z</time>
      </trkpt>
      <trkpt lat="45.94008" lon="4.7234">
        <ele>170</ele>
        <time>2017-07-20T09:45:14Z</time>
      </trkpt>
      <trkpt lat="45.94004" lon="4.72345">
        <ele>170</ele>
        <time>2017-07-20T09:45:15Z</time>
      </trkpt>
      <trkpt lat="45.94" lon="4.72349">
        <ele>171</ele>
        <time>2017-07-20T09:45:16Z</time>
      </trkpt>
      <trkpt lat="45.93996" lon="4.72354">
        <ele>171</ele>
        <time>2017-07-20T09:45:17Z</time>
      </trkpt>
      <trkpt lat="45.9399" lon="4.72362">
        <ele>171</ele>
        <time>2017-07-20T09:45:19Z</time>
      </trkpt>
      <trkpt lat="45.93987" lon="4.72365">
        <ele>171</ele>
        <time>2017-07-20T09:45:20Z</time>
      </trkpt>
      <trkpt lat="45.9398" lon="4.72372">
        <ele>171</ele>
        <time>2017-07-20T09:45:22Z</time>
      </trkpt>
      <trkpt lat="45.93976" lon="4.72376">
        <ele>171</ele>
        <time>2017-07-20T09:45:23Z</time>
      </trkpt>
      <trkpt lat="45.93973" lon="4.72381">
        <ele>171</ele>
        <time>2017-07-20T09:45:24Z</time>
      </trkpt>
      <trkpt lat="45.93969" lon="4.72385">
        <ele>171</ele>
        <time>2017-07-20T09:45:25Z</time>
      </trkpt>
      <trkpt lat="45.93965" lon="4.72389">
        <ele>171</ele>
        <time>2017-07-20T09:45:26Z</time>
      </trkpt>
      <trkpt lat="45.93961" lon="4.72392">
        <ele>171</ele>
        <time>2017-07-20T09:45:27Z</time>
      </trkpt>
      <trkpt lat="45.93957" lon="4.72396">
        <ele>171</ele>
        <time>2017-07-20T09:45:28Z</time>
      </trkpt>
      <trkpt lat="45.93954" lon="4.724">
        <ele>171</ele>
        <time>2017-07-20T09:45:29Z</time>
      </trkpt>
      <trkpt lat="45.9395" lon="4.72405">
        <ele>171</ele>
        <time>2017-07-20T09:45:30Z</time>
      </trkpt>
      <trkpt lat="45.93947" lon="4.72409">
        <ele>171</ele>
        <time>2017-07-20T09:45:31Z</time>
      </trkpt>
      <trkpt lat="45.93943" lon="4.72414">
        <ele>172</ele>
        <time>2017-07-20T09:45:32Z</time>
      </trkpt>
      <trkpt lat="45.93939" lon="4.72418">
        <ele>172</ele>
        <time>2017-07-20T09:45:33Z</time>
      </trkpt>
      <trkpt lat="45.93935" lon="4.72422">
        <ele>172</ele>
        <time>2017-07-20T09:45:34Z</time>
      </trkpt>
      <trkpt lat="45.93931" lon="4.72427">
        <ele>172</ele>
        <time>2017-07-20T09:45:35Z</time>
      </trkpt>
      <trkpt lat="45.93927" lon="4.72432">
        <ele>172</ele>
        <time>2017-07-20T09:45:36Z</time>
      </trkpt>
      <trkpt lat="45.93923" lon="4.72437">
        <ele>172</ele>
        <time>2017-07-20T09:45:37Z</time>
      </trkpt>
      <trkpt lat="45.9392" lon="4.72443">
        <ele>171</ele>
        <time>2017-07-20T09:45:38Z</time>
      </trkpt>
      <trkpt lat="45.93916" lon="4.72448">
        <ele>172</ele>
        <time>2017-07-20T09:45:39Z</time>
      </trkpt>
      <trkpt lat="45.93912" lon="4.72453">
        <ele>172</ele>
        <time>2017-07-20T09:45:40Z</time>
      </trkpt>
      <trkpt lat="45.93909" lon="4.72458">
        <ele>172</ele>
        <time>2017-07-20T09:45:41Z</time>
      </trkpt>
      <trkpt lat="45.93904" lon="4.72468">
        <ele>172</ele>
        <time>2017-07-20T09:45:43Z</time>
      </trkpt>
      <trkpt lat="45.93901" lon="4.72472">
        <ele>172</ele>
        <time>2017-07-20T09:45:44Z</time>
      </trkpt>
      <trkpt lat="45.93898" lon="4.72475">
        <ele>172</ele>
        <time>2017-07-20T09:45:45Z</time>
      </trkpt>
      <trkpt lat="45.93894" lon="4.7248">
        <ele>172</ele>
        <time>2017-07-20T09:45:46Z</time>
      </trkpt>
      <trkpt lat="45.93891" lon="4.72485">
        <ele>172</ele>
        <time>2017-07-20T09:45:47Z</time>
      </trkpt>
      <trkpt lat="45.93887" lon="4.72489">
        <ele>172</ele>
        <time>2017-07-20T09:45:48Z</time>
      </trkpt>
      <trkpt lat="45.93884" lon="4.72493">
        <ele>172</ele>
        <time>2017-07-20T09:45:49Z</time>
      </trkpt>
      <trkpt lat="45.9388" lon="4.72497">
        <ele>172</ele>
        <time>2017-07-20T09:45:50Z</time>
      </trkpt>
      <trkpt lat="45.93874" lon="4.72506">
        <ele>173</ele>
        <time>2017-07-20T09:45:52Z</time>
      </trkpt>
      <trkpt lat="45.93871" lon="4.7251">
        <ele>173</ele>
        <time>2017-07-20T09:45:53Z</time>
      </trkpt>
      <trkpt lat="45.93864" lon="4.72514">
        <ele>173</ele>
        <time>2017-07-20T09:45:55Z</time>
      </trkpt>
      <trkpt lat="45.93861" lon="4.72513">
        <ele>173</ele>
        <time>2017-07-20T09:45:56Z</time>
      </trkpt>
      <trkpt lat="45.93853" lon="4.72509">
        <ele>173</ele>
        <time>2017-07-20T09:45:59Z</time>
      </trkpt>
      <trkpt lat="45.9385" lon="4.72508">
        <ele>174</ele>
        <time>2017-07-20T09:46:00Z</time>
      </trkpt>
      <trkpt lat="45.93844" lon="4.725">
        <ele>173</ele>
        <time>2017-07-20T09:46:03Z</time>
      </trkpt>
      <trkpt lat="45.93841" lon="4.72498">
        <ele>173</ele>
        <time>2017-07-20T09:46:04Z</time>
      </trkpt>
      <trkpt lat="45.93835" lon="4.72495">
        <ele>174</ele>
        <time>2017-07-20T09:46:06Z</time>
      </trkpt>
      <trkpt lat="45.9383" lon="4.72494">
        <ele>173</ele>
        <time>2017-07-20T09:46:07Z</time>
      </trkpt>
      <trkpt lat="45.93828" lon="4.72489">
        <ele>173</ele>
        <time>2017-07-20T09:46:08Z</time>
      </trkpt>
      <trkpt lat="45.93822" lon="4.72488">
        <ele>173</ele>
        <time>2017-07-20T09:46:09Z</time>
      </trkpt>
      <trkpt lat="45.93813" lon="4.72489">
        <ele>173</ele>
        <time>2017-07-20T09:46:12Z</time>
      </trkpt>
      <trkpt lat="45.9381" lon="4.72486">
        <ele>172</ele>
        <time>2017-07-20T09:46:13Z</time>
      </trkpt>
      <trkpt lat="45.93805" lon="4.72483">
        <ele>172</ele>
        <time>2017-07-20T09:46:15Z</time>
      </trkpt>
      <trkpt lat="45.93801" lon="4.7248">
        <ele>172</ele>
        <time>2017-07-20T09:46:16Z</time>
      </trkpt>
      <trkpt lat="45.93797" lon="4.72476">
        <ele>172</ele>
        <time>2017-07-20T09:46:17Z</time>
      </trkpt>
      <trkpt lat="45.93793" lon="4.72472">
        <ele>172</ele>
        <time>2017-07-20T09:46:18Z</time>
      </trkpt>
      <trkpt lat="45.93788" lon="4.72462">
        <ele>172</ele>
        <time>2017-07-20T09:46:21Z</time>
      </trkpt>
      <trkpt lat="45.93786" lon="4.7246">
        <ele>172</ele>
        <time>2017-07-20T09:46:22Z</time>
      </trkpt>
      <trkpt lat="45.93781" lon="4.72452">
        <ele>172</ele>
        <time>2017-07-20T09:46:24Z</time>
      </trkpt>
      <trkpt lat="45.93777" lon="4.72446">
        <ele>172</ele>
        <time>2017-07-20T09:46:25Z</time>
      </trkpt>
      <trkpt lat="45.93774" lon="4.72443">
        <ele>171</ele>
        <time>2017-07-20T09:46:26Z</time>
      </trkpt>
      <trkpt lat="45.9377" lon="4.72435">
        <ele>171</ele>
        <time>2017-07-20T09:46:27Z</time>
      </trkpt>
      <trkpt lat="45.93768" lon="4.72425">
        <ele>171</ele>
        <time>2017-07-20T09:46:28Z</time>
      </trkpt>
      <trkpt lat="45.93765" lon="4.72421">
        <ele>171</ele>
        <time>2017-07-20T09:46:29Z</time>
      </trkpt>
      <trkpt lat="45.93759" lon="4.72417">
        <ele>171</ele>
        <time>2017-07-20T09:46:30Z</time>
      </trkpt>
      <trkpt lat="45.93756" lon="4.72413">
        <ele>171</ele>
        <time>2017-07-20T09:46:31Z</time>
      </trkpt>
      <trkpt lat="45.93752" lon="4.72407">
        <ele>171</ele>
        <time>2017-07-20T09:46:33Z</time>
      </trkpt>
      <trkpt lat="45.93749" lon="4.72403">
        <ele>171</ele>
        <time>2017-07-20T09:46:34Z</time>
      </trkpt>
      <trkpt lat="45.93744" lon="4.72397">
        <ele>171</ele>
        <time>2017-07-20T09:46:36Z</time>
      </trkpt>
      <trkpt lat="45.93742" lon="4.72393">
        <ele>171</ele>
        <time>2017-07-20T09:46:37Z</time>
      </trkpt>
      <trkpt lat="45.93737" lon="4.72388">
        <ele>171</ele>
        <time>2017-07-20T09:46:38Z</time>
      </trkpt>
      <trkpt lat="45.93733" lon="4.72383">
        <ele>171</ele>
        <time>2017-07-20T09:46:39Z</time>
      </trkpt>
      <trkpt lat="45.93728" lon="4.72377">
        <ele>171</ele>
        <time>2017-07-20T09:46:40Z</time>
      </trkpt>
      <trkpt lat="45.93724" lon="4.72372">
        <ele>172</ele>
        <time>2017-07-20T09:46:41Z</time>
      </trkpt>
      <trkpt lat="45.9372" lon="4.72367">
        <ele>172</ele>
        <time>2017-07-20T09:46:42Z</time>
      </trkpt>
      <trkpt lat="45.93717" lon="4.72363">
        <ele>172</ele>
        <time>2017-07-20T09:46:43Z</time>
      </trkpt>
      <trkpt lat="45.93712" lon="4.72357">
        <ele>172</ele>
        <time>2017-07-20T09:46:45Z</time>
      </trkpt>
      <trkpt lat="45.93709" lon="4.72355">
        <ele>172</ele>
        <time>2017-07-20T09:46:46Z</time>
      </trkpt>
      <trkpt lat="45.93703" lon="4.72351">
        <ele>171</ele>
        <time>2017-07-20T09:46:48Z</time>
      </trkpt>
      <trkpt lat="45.937" lon="4.7235">
        <ele>171</ele>
        <time>2017-07-20T09:46:49Z</time>
      </trkpt>
      <trkpt lat="45.93693" lon="4.72345">
        <ele>171</ele>
        <time>2017-07-20T09:46:51Z</time>
      </trkpt>
      <trkpt lat="45.93687" lon="4.72341">
        <ele>171</ele>
        <time>2017-07-20T09:46:52Z</time>
      </trkpt>
      <trkpt lat="45.93681" lon="4.72333">
        <ele>171</ele>
        <time>2017-07-20T09:46:54Z</time>
      </trkpt>
      <trkpt lat="45.93676" lon="4.72329">
        <ele>171</ele>
        <time>2017-07-20T09:46:55Z</time>
      </trkpt>
      <trkpt lat="45.9367" lon="4.72322">
        <ele>171</ele>
        <time>2017-07-20T09:46:57Z</time>
      </trkpt>
      <trkpt lat="45.93666" lon="4.72318">
        <ele>172</ele>
        <time>2017-07-20T09:46:58Z</time>
      </trkpt>
      <trkpt lat="45.9366" lon="4.72312">
        <ele>172</ele>
        <time>2017-07-20T09:47:00Z</time>
      </trkpt>
      <trkpt lat="45.93656" lon="4.7231">
        <ele>172</ele>
        <time>2017-07-20T09:47:01Z</time>
      </trkpt>
      <trkpt lat="45.9365" lon="4.72302">
        <ele>172</ele>
        <time>2017-07-20T09:47:05Z</time>
      </trkpt>
      <trkpt lat="45.93649" lon="4.72299">
        <ele>172</ele>
        <time>2017-07-20T09:47:06Z</time>
      </trkpt>
      <trkpt lat="45.93643" lon="4.72291">
        <ele>172</ele>
        <time>2017-07-20T09:47:09Z</time>
      </trkpt>
      <trkpt lat="45.9364" lon="4.72287">
        <ele>172</ele>
        <time>2017-07-20T09:47:10Z</time>
      </trkpt>
      <trkpt lat="45.93634" lon="4.7228">
        <ele>172</ele>
        <time>2017-07-20T09:47:12Z</time>
      </trkpt>
      <trkpt lat="45.9363" lon="4.72276">
        <ele>172</ele>
        <time>2017-07-20T09:47:13Z</time>
      </trkpt>
      <trkpt lat="45.93623" lon="4.72271">
        <ele>172</ele>
        <time>2017-07-20T09:47:15Z</time>
      </trkpt>
      <trkpt lat="45.9362" lon="4.72268">
        <ele>172</ele>
        <time>2017-07-20T09:47:16Z</time>
      </trkpt>
      <trkpt lat="45.93614" lon="4.72262">
        <ele>172</ele>
        <time>2017-07-20T09:47:18Z</time>
      </trkpt>
      <trkpt lat="45.9361" lon="4.72258">
        <ele>172</ele>
        <time>2017-07-20T09:47:19Z</time>
      </trkpt>
      <trkpt lat="45.93606" lon="4.72254">
        <ele>173</ele>
        <time>2017-07-20T09:47:20Z</time>
      </trkpt>
      <trkpt lat="45.93599" lon="4.72251">
        <ele>173</ele>
        <time>2017-07-20T09:47:21Z</time>
      </trkpt>
      <trkpt lat="45.93595" lon="4.72241">
        <ele>173</ele>
        <time>2017-07-20T09:47:25Z</time>
      </trkpt>
      <trkpt lat="45.93595" lon="4.72238">
        <ele>173</ele>
        <time>2017-07-20T09:47:26Z</time>
      </trkpt>
      <trkpt lat="45.93591" lon="4.72231">
        <ele>173</ele>
        <time>2017-07-20T09:47:29Z</time>
      </trkpt>
      <trkpt lat="45.93584" lon="4.72226">
        <ele>173</ele>
        <time>2017-07-20T09:47:30Z</time>
      </trkpt>
      <trkpt lat="45.93578" lon="4.72223">
        <ele>173</ele>
        <time>2017-07-20T09:47:31Z</time>
      </trkpt>
      <trkpt lat="45.93573" lon="4.72222">
        <ele>173</ele>
        <time>2017-07-20T09:47:32Z</time>
      </trkpt>
      <trkpt lat="45.93562" lon="4.7222">
        <ele>173</ele>
        <time>2017-07-20T09:47:33Z</time>
      </trkpt>
      <trkpt lat="45.93561" lon="4.72221">
        <ele>173</ele>
        <time>2017-07-20T09:47:34Z</time>
      </trkpt>
      <trkpt lat="45.93559" lon="4.72221">
        <ele>173</ele>
        <time>2017-07-20T09:47:35Z</time>
      </trkpt>
      <trkpt lat="45.93551" lon="4.72227">
        <ele>172</ele>
        <time>2017-07-20T09:47:43Z</time>
      </trkpt>
      <trkpt lat="45.93551" lon="4.72228">
        <ele>172</ele>
        <time>2017-07-20T09:47:44Z</time>
      </trkpt>
      <trkpt lat="45.93545" lon="4.72233">
        <ele>172</ele>
        <time>2017-07-20T09:47:47Z</time>
      </trkpt>
      <trkpt lat="45.93543" lon="4.72236">
        <ele>172</ele>
        <time>2017-07-20T09:47:48Z</time>
      </trkpt>
      <trkpt lat="45.93539" lon="4.72243">
        <ele>172</ele>
        <time>2017-07-20T09:47:50Z</time>
      </trkpt>
      <trkpt lat="45.93537" lon="4.72246">
        <ele>172</ele>
        <time>2017-07-20T09:47:51Z</time>
      </trkpt>
      <trkpt lat="45.93533" lon="4.72253">
        <ele>172</ele>
        <time>2017-07-20T09:47:53Z</time>
      </trkpt>
      <trkpt lat="45.93531" lon="4.72257">
        <ele>172</ele>
        <time>2017-07-20T09:47:54Z</time>
      </trkpt>
      <trkpt lat="45.93526" lon="4.72265">
        <ele>172</ele>
        <time>2017-07-20T09:47:56Z</time>
      </trkpt>
      <trkpt lat="45.93525" lon="4.72269">
        <ele>172</ele>
        <time>2017-07-20T09:47:57Z</time>
      </trkpt>
      <trkpt lat="45.93521" lon="4.72277">
        <ele>172</ele>
        <time>2017-07-20T09:47:59Z</time>
      </trkpt>
      <trkpt lat="45.93519" lon="4.72281">
        <ele>172</ele>
        <time>2017-07-20T09:48:00Z</time>
      </trkpt>
      <trkpt lat="45.93515" lon="4.72291">
        <ele>172</ele>
        <time>2017-07-20T09:48:03Z</time>
      </trkpt>
      <trkpt lat="45.93513" lon="4.72294">
        <ele>172</ele>
        <time>2017-07-20T09:48:04Z</time>
      </trkpt>
      <trkpt lat="45.93509" lon="4.72305">
        <ele>173</ele>
        <time>2017-07-20T09:48:07Z</time>
      </trkpt>
      <trkpt lat="45.93508" lon="4.72308">
        <ele>173</ele>
        <time>2017-07-20T09:48:08Z</time>
      </trkpt>
      <trkpt lat="45.93517" lon="4.72307">
        <ele>173</ele>
        <time>2017-07-20T09:48:14Z</time>
      </trkpt>
      <trkpt lat="45.93519" lon="4.72306">
        <ele>173</ele>
        <time>2017-07-20T09:48:15Z</time>
      </trkpt>
      <trkpt lat="45.93526" lon="4.72307">
        <ele>173</ele>
        <time>2017-07-20T09:48:17Z</time>
      </trkpt>
      <trkpt lat="45.93529" lon="4.72309">
        <ele>173</ele>
        <time>2017-07-20T09:48:18Z</time>
      </trkpt>
      <trkpt lat="45.93538" lon="4.72311">
        <ele>173</ele>
        <time>2017-07-20T09:48:21Z</time>
      </trkpt>
      <trkpt lat="45.9354" lon="4.72312">
        <ele>173</ele>
        <time>2017-07-20T09:48:22Z</time>
      </trkpt>
      <trkpt lat="45.93549" lon="4.72315">
        <ele>173</ele>
        <time>2017-07-20T09:48:26Z</time>
      </trkpt>
      <trkpt lat="45.93551" lon="4.72316">
        <ele>173</ele>
        <time>2017-07-20T09:48:27Z</time>
      </trkpt>
      <trkpt lat="45.93558" lon="4.7232">
        <ele>173</ele>
        <time>2017-07-20T09:48:30Z</time>
      </trkpt>
      <trkpt lat="45.93561" lon="4.72322">
        <ele>173</ele>
        <time>2017-07-20T09:48:31Z</time>
      </trkpt>
      <trkpt lat="45.93567" lon="4.72327">
        <ele>173</ele>
        <time>2017-07-20T09:48:33Z</time>
      </trkpt>
      <trkpt lat="45.9357" lon="4.72329">
        <ele>173</ele>
        <time>2017-07-20T09:48:34Z</time>
      </trkpt>
      <trkpt lat="45.93577" lon="4.72335">
        <ele>173</ele>
        <time>2017-07-20T09:48:37Z</time>
      </trkpt>
      <trkpt lat="45.93578" lon="4.72336">
        <ele>173</ele>
        <time>2017-07-20T09:48:38Z</time>
      </trkpt>
      <trkpt lat="45.93584" lon="4.72343">
        <ele>173</ele>
        <time>2017-07-20T09:48:41Z</time>
      </trkpt>
      <trkpt lat="45.93586" lon="4.72345">
        <ele>173</ele>
        <time>2017-07-20T09:48:42Z</time>
      </trkpt>
      <trkpt lat="45.9359" lon="4.72352">
        <ele>172</ele>
        <time>2017-07-20T09:48:44Z</time>
      </trkpt>
      <trkpt lat="45.93594" lon="4.72355">
        <ele>172</ele>
        <time>2017-07-20T09:48:45Z</time>
      </trkpt>
      <trkpt lat="45.936" lon="4.72361">
        <ele>172</ele>
        <time>2017-07-20T09:48:47Z</time>
      </trkpt>
      <trkpt lat="45.93602" lon="4.72363">
        <ele>172</ele>
        <time>2017-07-20T09:48:48Z</time>
      </trkpt>
      <trkpt lat="45.93605" lon="4.72372">
        <ele>172</ele>
        <time>2017-07-20T09:48:50Z</time>
      </trkpt>
      <trkpt lat="45.93607" lon="4.72377">
        <ele>172</ele>
        <time>2017-07-20T09:48:51Z</time>
      </trkpt>
      <trkpt lat="45.93612" lon="4.72383">
        <ele>172</ele>
        <time>2017-07-20T09:48:53Z</time>
      </trkpt>
      <trkpt lat="45.93615" lon="4.72385">
        <ele>172</ele>
        <time>2017-07-20T09:48:54Z</time>
      </trkpt>
      <trkpt lat="45.93622" lon="4.72391">
        <ele>172</ele>
        <time>2017-07-20T09:48:56Z</time>
      </trkpt>
      <trkpt lat="45.93624" lon="4.72395">
        <ele>172</ele>
        <time>2017-07-20T09:48:57Z</time>
      </trkpt>
      <trkpt lat="45.93631" lon="4.72402">
        <ele>172</ele>
        <time>2017-07-20T09:49:00Z</time>
      </trkpt>
      <trkpt lat="45.93633" lon="4.72404">
        <ele>172</ele>
        <time>2017-07-20T09:49:01Z</time>
      </trkpt>
      <trkpt lat="45.93636" lon="4.72414">
        <ele>172</ele>
        <time>2017-07-20T09:49:03Z</time>
      </trkpt>
      <trkpt lat="45.93638" lon="4.72418">
        <ele>172</ele>
        <time>2017-07-20T09:49:04Z</time>
      </trkpt>
      <trkpt lat="45.93641" lon="4.72425">
        <ele>172</ele>
        <time>2017-07-20T09:49:06Z</time>
      </trkpt>
      <trkpt lat="45.93642" lon="4.72429">
        <ele>172</ele>
        <time>2017-07-20T09:49:07Z</time>
      </trkpt>
      <trkpt lat="45.93646" lon="4.72439">
        <ele>172</ele>
        <time>2017-07-20T09:49:08Z</time>
      </trkpt>
      <trkpt lat="45.93649" lon="4.72441">
        <ele>172</ele>
        <time>2017-07-20T09:49:09Z</time>
      </trkpt>
      <trkpt lat="45.93656" lon="4.72447">
        <ele>172</ele>
        <time>2017-07-20T09:49:11Z</time>
      </trkpt>
      <trkpt lat="45.9366" lon="4.7245">
        <ele>172</ele>
        <time>2017-07-20T09:49:12Z</time>
      </trkpt>
      <trkpt lat="45.93667" lon="4.72455">
        <ele>172</ele>
        <time>2017-07-20T09:49:14Z</time>
      </trkpt>
      <trkpt lat="45.9367" lon="4.72459">
        <ele>171</ele>
        <time>2017-07-20T09:49:15Z</time>
      </trkpt>
      <trkpt lat="45.93676" lon="4.72466">
        <ele>171</ele>
        <time>2017-07-20T09:49:17Z</time>
      </trkpt>
      <trkpt lat="45.93679" lon="4.72468">
        <ele>171</ele>
        <time>2017-07-20T09:49:18Z</time>
      </trkpt>
      <trkpt lat="45.93685" lon="4.72476">
        <ele>171</ele>
        <time>2017-07-20T09:49:20Z</time>
      </trkpt>
      <trkpt lat="45.93688" lon="4.72479">
        <ele>171</ele>
        <time>2017-07-20T09:49:21Z</time>
      </trkpt>
      <trkpt lat="45.93695" lon="4.72486">
        <ele>171</ele>
        <time>2017-07-20T09:49:24Z</time>
      </trkpt>
      <trkpt lat="45.93698" lon="4.72488">
        <ele>171</ele>
        <time>2017-07-20T09:49:25Z</time>
      </trkpt>
      <trkpt lat="45.93704" lon="4.72494">
        <ele>171</ele>
        <time>2017-07-20T09:49:28Z</time>
      </trkpt>
      <trkpt lat="45.93707" lon="4.72496">
        <ele>171</ele>
        <time>2017-07-20T09:49:29Z</time>
      </trkpt>
      <trkpt lat="45.93712" lon="4.725">
        <ele>171</ele>
        <time>2017-07-20T09:49:31Z</time>
      </trkpt>
      <trkpt lat="45.93715" lon="4.72502">
        <ele>172</ele>
        <time>2017-07-20T09:49:32Z</time>
      </trkpt>
      <trkpt lat="45.93721" lon="4.72509">
        <ele>172</ele>
        <time>2017-07-20T09:49:34Z</time>
      </trkpt>
      <trkpt lat="45.93724" lon="4.72512">
        <ele>172</ele>
        <time>2017-07-20T09:49:35Z</time>
      </trkpt>
      <trkpt lat="45.93728" lon="4.72516">
        <ele>172</ele>
        <time>2017-07-20T09:49:36Z</time>
      </trkpt>
      <trkpt lat="45.93733" lon="4.7252">
        <ele>172</ele>
        <time>2017-07-20T09:49:37Z</time>
      </trkpt>
      <trkpt lat="45.93739" lon="4.72526">
        <ele>172</ele>
        <time>2017-07-20T09:49:39Z</time>
      </trkpt>
      <trkpt lat="45.93743" lon="4.72528">
        <ele>172</ele>
        <time>2017-07-20T09:49:40Z</time>
      </trkpt>
      <trkpt lat="45.93749" lon="4.72533">
        <ele>172</ele>
        <time>2017-07-20T09:49:42Z</time>
      </trkpt>
      <trkpt lat="45.93753" lon="4.72535">
        <ele>173</ele>
        <time>2017-07-20T09:49:43Z</time>
      </trkpt>
      <trkpt lat="45.9376" lon="4.72541">
        <ele>173</ele>
        <time>2017-07-20T09:49:45Z</time>
      </trkpt>
      <trkpt lat="45.93764" lon="4.72544">
        <ele>173</ele>
        <time>2017-07-20T09:49:46Z</time>
      </trkpt>
      <trkpt lat="45.93772" lon="4.72549">
        <ele>173</ele>
        <time>2017-07-20T09:49:48Z</time>
      </trkpt>
      <trkpt lat="45.93775" lon="4.72552">
        <ele>173</ele>
        <time>2017-07-20T09:49:49Z</time>
      </trkpt>
      <trkpt lat="45.93783" lon="4.72553">
        <ele>173</ele>
        <time>2017-07-20T09:49:52Z</time>
      </trkpt>
      <trkpt lat="45.93786" lon="4.72552">
        <ele>173</ele>
        <time>2017-07-20T09:49:53Z</time>
      </trkpt>
      <trkpt lat="45.93792" lon="4.72547">
        <ele>173</ele>
        <time>2017-07-20T09:49:55Z</time>
      </trkpt>
      <trkpt lat="45.93795" lon="4.72545">
        <ele>173</ele>
        <time>2017-07-20T09:49:56Z</time>
      </trkpt>
      <trkpt lat="45.93798" lon="4.72542">
        <ele>173</ele>
        <time>2017-07-20T09:49:57Z</time>
      </trkpt>
      <trkpt lat="45.93806" lon="4.7256">
        <ele>174</ele>
        <time>2017-07-20T09:49:58Z</time>
      </trkpt>
      <trkpt lat="45.93807" lon="4.72569">
        <ele>174</ele>
        <time>2017-07-20T09:49:59Z</time>
      </trkpt>
      <trkpt lat="45.93805" lon="4.72579">
        <ele>174</ele>
        <time>2017-07-20T09:50:00Z</time>
      </trkpt>
      <trkpt lat="45.93805" lon="4.72589">
        <ele>174</ele>
        <time>2017-07-20T09:50:01Z</time>
      </trkpt>
      <trkpt lat="45.93804" lon="4.72595">
        <ele>174</ele>
        <time>2017-07-20T09:50:02Z</time>
      </trkpt>
      <trkpt lat="45.93801" lon="4.72605">
        <ele>173</ele>
        <time>2017-07-20T09:50:04Z</time>
      </trkpt>
      <trkpt lat="45.93798" lon="4.72608">
        <ele>173</ele>
        <time>2017-07-20T09:50:05Z</time>
      </trkpt>
      <trkpt lat="45.93795" lon="4.72619">
        <ele>173</ele>
        <time>2017-07-20T09:50:08Z</time>
      </trkpt>
      <trkpt lat="45.93793" lon="4.72623">
        <ele>173</ele>
        <time>2017-07-20T09:50:09Z</time>
      </trkpt>
      <trkpt lat="45.93787" lon="4.72633">
        <ele>173</ele>
        <time>2017-07-20T09:50:11Z</time>
      </trkpt>
      <trkpt lat="45.93785" lon="4.72638">
        <ele>173</ele>
        <time>2017-07-20T09:50:12Z</time>
      </trkpt>
      <trkpt lat="45.93782" lon="4.72643">
        <ele>173</ele>
        <time>2017-07-20T09:50:13Z</time>
      </trkpt>
      <trkpt lat="45.93778" lon="4.72648">
        <ele>173</ele>
        <time>2017-07-20T09:50:14Z</time>
      </trkpt>
      <trkpt lat="45.93775" lon="4.72653">
        <ele>173</ele>
        <time>2017-07-20T09:50:15Z</time>
      </trkpt>
      <trkpt lat="45.93772" lon="4.72658">
        <ele>173</ele>
        <time>2017-07-20T09:50:16Z</time>
      </trkpt>
      <trkpt lat="45.93765" lon="4.72665">
        <ele>174</ele>
        <time>2017-07-20T09:50:18Z</time>
      </trkpt>
      <trkpt lat="45.93762" lon="4.72669">
        <ele>173</ele>
        <time>2017-07-20T09:50:19Z</time>
      </trkpt>
      <trkpt lat="45.93756" lon="4.72677">
        <ele>173</ele>
        <time>2017-07-20T09:50:21Z</time>
      </trkpt>
      <trkpt lat="45.93753" lon="4.72682">
        <ele>173</ele>
        <time>2017-07-20T09:50:22Z</time>
      </trkpt>
      <trkpt lat="45.93746" lon="4.7269">
        <ele>173</ele>
        <time>2017-07-20T09:50:24Z</time>
      </trkpt>
      <trkpt lat="45.93743" lon="4.72695">
        <ele>173</ele>
        <time>2017-07-20T09:50:25Z</time>
      </trkpt>
      <trkpt lat="45.93739" lon="4.72699">
        <ele>173</ele>
        <time>2017-07-20T09:50:26Z</time>
      </trkpt>
      <trkpt lat="45.93735" lon="4.72702">
        <ele>173</ele>
        <time>2017-07-20T09:50:27Z</time>
      </trkpt>
      <trkpt lat="45.93728" lon="4.72709">
        <ele>173</ele>
        <time>2017-07-20T09:50:29Z</time>
      </trkpt>
      <trkpt lat="45.93726" lon="4.72712">
        <ele>173</ele>
        <time>2017-07-20T09:50:30Z</time>
      </trkpt>
      <trkpt lat="45.93721" lon="4.72718">
        <ele>173</ele>
        <time>2017-07-20T09:50:32Z</time>
      </trkpt>
      <trkpt lat="45.93717" lon="4.7272">
        <ele>173</ele>
        <time>2017-07-20T09:50:33Z</time>
      </trkpt>
      <trkpt lat="45.93711" lon="4.72728">
        <ele>173</ele>
        <time>2017-07-20T09:50:35Z</time>
      </trkpt>
      <trkpt lat="45.93707" lon="4.72732">
        <ele>173</ele>
        <time>2017-07-20T09:50:36Z</time>
      </trkpt>
      <trkpt lat="45.937" lon="4.72739">
        <ele>173</ele>
        <time>2017-07-20T09:50:38Z</time>
      </trkpt>
      <trkpt lat="45.93696" lon="4.72742">
        <ele>173</ele>
        <time>2017-07-20T09:50:39Z</time>
      </trkpt>
      <trkpt lat="45.93689" lon="4.7275">
        <ele>173</ele>
        <time>2017-07-20T09:50:41Z</time>
      </trkpt>
      <trkpt lat="45.93686" lon="4.72753">
        <ele>173</ele>
        <time>2017-07-20T09:50:42Z</time>
      </trkpt>
      <trkpt lat="45.93678" lon="4.7276">
        <ele>173</ele>
        <time>2017-07-20T09:50:44Z</time>
      </trkpt>
      <trkpt lat="45.93674" lon="4.72763">
        <ele>173</ele>
        <time>2017-07-20T09:50:45Z</time>
      </trkpt>
      <trkpt lat="45.93667" lon="4.7277">
        <ele>173</ele>
        <time>2017-07-20T09:50:47Z</time>
      </trkpt>
      <trkpt lat="45.93664" lon="4.72774">
        <ele>174</ele>
        <time>2017-07-20T09:50:48Z</time>
      </trkpt>
      <trkpt lat="45.93656" lon="4.72781">
        <ele>174</ele>
        <time>2017-07-20T09:50:50Z</time>
      </trkpt>
      <trkpt lat="45.93652" lon="4.72784">
        <ele>173</ele>
        <time>2017-07-20T09:50:51Z</time>
      </trkpt>
      <trkpt lat="45.93645" lon="4.72791">
        <ele>173</ele>
        <time>2017-07-20T09:50:53Z</time>
      </trkpt>
      <trkpt lat="45.9364" lon="4.72795">
        <ele>173</ele>
        <time>2017-07-20T09:50:54Z</time>
      </trkpt>
      <trkpt lat="45.93636" lon="4.72798">
        <ele>173</ele>
        <time>2017-07-20T09:50:55Z</time>
      </trkpt>
      <trkpt lat="45.93632" lon="4.72801">
        <ele>173</ele>
        <time>2017-07-20T09:50:56Z</time>
      </trkpt>
      <trkpt lat="45.93627" lon="4.72805">
        <ele>173</ele>
        <time>2017-07-20T09:50:57Z</time>
      </trkpt>
      <trkpt lat="45.93624" lon="4.72808">
        <ele>173</ele>
        <time>2017-07-20T09:50:58Z</time>
      </trkpt>
      <trkpt lat="45.93616" lon="4.72813">
        <ele>173</ele>
        <time>2017-07-20T09:51:00Z</time>
      </trkpt>
      <trkpt lat="45.93613" lon="4.72816">
        <ele>173</ele>
        <time>2017-07-20T09:51:01Z</time>
      </trkpt>
      <trkpt lat="45.93605" lon="4.72822">
        <ele>173</ele>
        <time>2017-07-20T09:51:03Z</time>
      </trkpt>
      <trkpt lat="45.936" lon="4.72824">
        <ele>173</ele>
        <time>2017-07-20T09:51:04Z</time>
      </trkpt>
      <trkpt lat="45.93595" lon="4.72827">
        <ele>173</ele>
        <time>2017-07-20T09:51:05Z</time>
      </trkpt>
      <trkpt lat="45.93591" lon="4.7283">
        <ele>172</ele>
        <time>2017-07-20T09:51:06Z</time>
      </trkpt>
      <trkpt lat="45.93583" lon="4.72835">
        <ele>172</ele>
        <time>2017-07-20T09:51:08Z</time>
      </trkpt>
      <trkpt lat="45.9358" lon="4.72838">
        <ele>172</ele>
        <time>2017-07-20T09:51:09Z</time>
      </trkpt>
      <trkpt lat="45.93573" lon="4.72843">
        <ele>172</ele>
        <time>2017-07-20T09:51:11Z</time>
      </trkpt>
      <trkpt lat="45.93569" lon="4.72846">
        <ele>172</ele>
        <time>2017-07-20T09:51:12Z</time>
      </trkpt>
      <trkpt lat="45.93566" lon="4.7285">
        <ele>172</ele>
        <time>2017-07-20T09:51:13Z</time>
      </trkpt>
      <trkpt lat="45.93562" lon="4.72853">
        <ele>172</ele>
        <time>2017-07-20T09:51:14Z</time>
      </trkpt>
      <trkpt lat="45.93557" lon="4.72857">
        <ele>172</ele>
        <time>2017-07-20T09:51:15Z</time>
      </trkpt>
      <trkpt lat="45.93553" lon="4.72862">
        <ele>172</ele>
        <time>2017-07-20T09:51:16Z</time>
      </trkpt>
      <trkpt lat="45.93549" lon="4.72866">
        <ele>173</ele>
        <time>2017-07-20T09:51:17Z</time>
      </trkpt>
      <trkpt lat="45.93545" lon="4.7287">
        <ele>173</ele>
        <time>2017-07-20T09:51:18Z</time>
      </trkpt>
      <trkpt lat="45.93541" lon="4.72873">
        <ele>173</ele>
        <time>2017-07-20T09:51:19Z</time>
      </trkpt>
      <trkpt lat="45.93537" lon="4.72877">
        <ele>173</ele>
        <time>2017-07-20T09:51:20Z</time>
      </trkpt>
      <trkpt lat="45.93532" lon="4.72884">
        <ele>172</ele>
        <time>2017-07-20T09:51:22Z</time>
      </trkpt>
      <trkpt lat="45.93529" lon="4.72888">
        <ele>172</ele>
        <time>2017-07-20T09:51:23Z</time>
      </trkpt>
      <trkpt lat="45.93525" lon="4.72892">
        <ele>172</ele>
        <time>2017-07-20T09:51:24Z</time>
      </trkpt>
      <trkpt lat="45.93522" lon="4.72896">
        <ele>172</ele>
        <time>2017-07-20T09:51:25Z</time>
      </trkpt>
      <trkpt lat="45.93519" lon="4.72901">
        <ele>172</ele>
        <time>2017-07-20T09:51:26Z</time>
      </trkpt>
      <trkpt lat="45.93515" lon="4.72906">
        <ele>172</ele>
        <time>2017-07-20T09:51:27Z</time>
      </trkpt>
      <trkpt lat="45.9351" lon="4.72909">
        <ele>172</ele>
        <time>2017-07-20T09:51:28Z</time>
      </trkpt>
      <trkpt lat="45.93507" lon="4.72913">
        <ele>172</ele>
        <time>2017-07-20T09:51:29Z</time>
      </trkpt>
      <trkpt lat="45.93501" lon="4.7292">
        <ele>172</ele>
        <time>2017-07-20T09:51:31Z</time>
      </trkpt>
      <trkpt lat="45.93498" lon="4.72924">
        <ele>172</ele>
        <time>2017-07-20T09:51:32Z</time>
      </trkpt>
      <trkpt lat="45.93493" lon="4.72933">
        <ele>172</ele>
        <time>2017-07-20T09:51:34Z</time>
      </trkpt>
      <trkpt lat="45.93492" lon="4.72939">
        <ele>172</ele>
        <time>2017-07-20T09:51:35Z</time>
      </trkpt>
      <trkpt lat="45.9349" lon="4.72946">
        <ele>171</ele>
        <time>2017-07-20T09:51:36Z</time>
      </trkpt>
      <trkpt lat="45.93488" lon="4.72952">
        <ele>171</ele>
        <time>2017-07-20T09:51:37Z</time>
      </trkpt>
      <trkpt lat="45.93484" lon="4.72963">
        <ele>171</ele>
        <time>2017-07-20T09:51:39Z</time>
      </trkpt>
      <trkpt lat="45.93483" lon="4.72968">
        <ele>171</ele>
        <time>2017-07-20T09:51:40Z</time>
      </trkpt>
      <trkpt lat="45.93481" lon="4.72978">
        <ele>171</ele>
        <time>2017-07-20T09:51:42Z</time>
      </trkpt>
      <trkpt lat="45.93481" lon="4.72984">
        <ele>171</ele>
        <time>2017-07-20T09:51:43Z</time>
      </trkpt>
      <trkpt lat="45.9348" lon="4.72996">
        <ele>170</ele>
        <time>2017-07-20T09:51:45Z</time>
      </trkpt>
      <trkpt lat="45.93479" lon="4.73002">
        <ele>170</ele>
        <time>2017-07-20T09:51:46Z</time>
      </trkpt>
      <trkpt lat="45.9348" lon="4.73013">
        <ele>170</ele>
        <time>2017-07-20T09:51:48Z</time>
      </trkpt>
      <trkpt lat="45.9348" lon="4.73018">
        <ele>170</ele>
        <time>2017-07-20T09:51:49Z</time>
      </trkpt>
      <trkpt lat="45.93479" lon="4.73027">
        <ele>170</ele>
        <time>2017-07-20T09:51:51Z</time>
      </trkpt>
      <trkpt lat="45.93478" lon="4.73031">
        <ele>170</ele>
        <time>2017-07-20T09:51:52Z</time>
      </trkpt>
      <trkpt lat="45.93477" lon="4.7304">
        <ele>170</ele>
        <time>2017-07-20T09:51:54Z</time>
      </trkpt>
      <trkpt lat="45.93477" lon="4.73046">
        <ele>170</ele>
        <time>2017-07-20T09:51:55Z</time>
      </trkpt>
      <trkpt lat="45.93477" lon="4.73057">
        <ele>170</ele>
        <time>2017-07-20T09:51:57Z</time>
      </trkpt>
      <trkpt lat="45.93477" lon="4.73063">
        <ele>170</ele>
        <time>2017-07-20T09:51:58Z</time>
      </trkpt>
      <trkpt lat="45.93478" lon="4.73074">
        <ele>170</ele>
        <time>2017-07-20T09:52:00Z</time>
      </trkpt>
      <trkpt lat="45.93477" lon="4.73078">
        <ele>170</ele>
        <time>2017-07-20T09:52:01Z</time>
      </trkpt>
      <trkpt lat="45.93476" lon="4.73088">
        <ele>170</ele>
        <time>2017-07-20T09:52:03Z</time>
      </trkpt>
      <trkpt lat="45.93476" lon="4.73093">
        <ele>170</ele>
        <time>2017-07-20T09:52:04Z</time>
      </trkpt>
      <trkpt lat="45.93475" lon="4.73104">
        <ele>170</ele>
        <time>2017-07-20T09:52:06Z</time>
      </trkpt>
      <trkpt lat="45.93475" lon="4.7311">
        <ele>170</ele>
        <time>2017-07-20T09:52:07Z</time>
      </trkpt>
      <trkpt lat="45.93476" lon="4.7312">
        <ele>170</ele>
        <time>2017-07-20T09:52:09Z</time>
      </trkpt>
      <trkpt lat="45.93477" lon="4.73127">
        <ele>170</ele>
        <time>2017-07-20T09:52:10Z</time>
      </trkpt>
      <trkpt lat="45.93479" lon="4.73137">
        <ele>170</ele>
        <time>2017-07-20T09:52:12Z</time>
      </trkpt>
      <trkpt lat="45.93481" lon="4.73142">
        <ele>170</ele>
        <time>2017-07-20T09:52:13Z</time>
      </trkpt>
      <trkpt lat="45.93484" lon="4.73152">
        <ele>170</ele>
        <time>2017-07-20T09:52:15Z</time>
      </trkpt>
      <trkpt lat="45.93486" lon="4.73158">
        <ele>170</ele>
        <time>2017-07-20T09:52:16Z</time>
      </trkpt>
      <trkpt lat="45.9349" lon="4.73168">
        <ele>170</ele>
        <time>2017-07-20T09:52:18Z</time>
      </trkpt>
      <trkpt lat="45.93492" lon="4.73173">
        <ele>170</ele>
        <time>2017-07-20T09:52:19Z</time>
      </trkpt>
      <trkpt lat="45.93495" lon="4.73184">
        <ele>169</ele>
        <time>2017-07-20T09:52:22Z</time>
      </trkpt>
      <trkpt lat="45.93496" lon="4.73187">
        <ele>169</ele>
        <time>2017-07-20T09:52:23Z</time>
      </trkpt>
      <trkpt lat="45.93497" lon="4.73197">
        <ele>169</ele>
        <time>2017-07-20T09:52:25Z</time>
      </trkpt>
      <trkpt lat="45.93497" lon="4.73205">
        <ele>169</ele>
        <time>2017-07-20T09:52:26Z</time>
      </trkpt>
      <trkpt lat="45.93499" lon="4.73217">
        <ele>169</ele>
        <time>2017-07-20T09:52:28Z</time>
      </trkpt>
      <trkpt lat="45.93501" lon="4.73224">
        <ele>169</ele>
        <time>2017-07-20T09:52:29Z</time>
      </trkpt>
      <trkpt lat="45.93502" lon="4.73236">
        <ele>169</ele>
        <time>2017-07-20T09:52:31Z</time>
      </trkpt>
      <trkpt lat="45.93501" lon="4.73241">
        <ele>169</ele>
        <time>2017-07-20T09:52:32Z</time>
      </trkpt>
      <trkpt lat="45.93502" lon="4.7325">
        <ele>169</ele>
        <time>2017-07-20T09:52:34Z</time>
      </trkpt>
      <trkpt lat="45.93503" lon="4.73255">
        <ele>169</ele>
        <time>2017-07-20T09:52:35Z</time>
      </trkpt>
      <trkpt lat="45.93505" lon="4.73265">
        <ele>169</ele>
        <time>2017-07-20T09:52:37Z</time>
      </trkpt>
      <trkpt lat="45.93506" lon="4.7327">
        <ele>169</ele>
        <time>2017-07-20T09:52:38Z</time>
      </trkpt>
      <trkpt lat="45.93507" lon="4.7328">
        <ele>169</ele>
        <time>2017-07-20T09:52:40Z</time>
      </trkpt>
      <trkpt lat="45.93508" lon="4.73285">
        <ele>169</ele>
        <time>2017-07-20T09:52:41Z</time>
      </trkpt>
      <trkpt lat="45.93511" lon="4.73297">
        <ele>169</ele>
        <time>2017-07-20T09:52:43Z</time>
      </trkpt>
      <trkpt lat="45.93512" lon="4.73303">
        <ele>169</ele>
        <time>2017-07-20T09:52:44Z</time>
      </trkpt>
      <trkpt lat="45.93515" lon="4.73313">
        <ele>169</ele>
        <time>2017-07-20T09:52:46Z</time>
      </trkpt>
      <trkpt lat="45.93517" lon="4.73318">
        <ele>169</ele>
        <time>2017-07-20T09:52:47Z</time>
      </trkpt>
      <trkpt lat="45.93518" lon="4.73328">
        <ele>169</ele>
        <time>2017-07-20T09:52:50Z</time>
      </trkpt>
      <trkpt lat="45.93518" lon="4.73332">
        <ele>169</ele>
        <time>2017-07-20T09:52:51Z</time>
      </trkpt>
      <trkpt lat="45.93519" lon="4.7334">
        <ele>169</ele>
        <time>2017-07-20T09:52:53Z</time>
      </trkpt>
      <trkpt lat="45.9352" lon="4.73346">
        <ele>169</ele>
        <time>2017-07-20T09:52:54Z</time>
      </trkpt>
      <trkpt lat="45.9352" lon="4.73352">
        <ele>169</ele>
        <time>2017-07-20T09:52:55Z</time>
      </trkpt>
      <trkpt lat="45.93521" lon="4.73361">
        <ele>169</ele>
        <time>2017-07-20T09:52:56Z</time>
      </trkpt>
      <trkpt lat="45.93522" lon="4.73368">
        <ele>169</ele>
        <time>2017-07-20T09:52:57Z</time>
      </trkpt>
      <trkpt lat="45.93523" lon="4.73376">
        <ele>169</ele>
        <time>2017-07-20T09:52:58Z</time>
      </trkpt>
      <trkpt lat="45.93524" lon="4.73387">
        <ele>169</ele>
        <time>2017-07-20T09:53:00Z</time>
      </trkpt>
      <trkpt lat="45.93526" lon="4.73392">
        <ele>169</ele>
        <time>2017-07-20T09:53:01Z</time>
      </trkpt>
      <trkpt lat="45.93528" lon="4.73402">
        <ele>169</ele>
        <time>2017-07-20T09:53:03Z</time>
      </trkpt>
      <trkpt lat="45.93529" lon="4.73406">
        <ele>169</ele>
        <time>2017-07-20T09:53:04Z</time>
      </trkpt>
      <trkpt lat="45.93531" lon="4.73414">
        <ele>169</ele>
        <time>2017-07-20T09:53:06Z</time>
      </trkpt>
      <trkpt lat="45.93532" lon="4.7342">
        <ele>169</ele>
        <time>2017-07-20T09:53:07Z</time>
      </trkpt>
      <trkpt lat="45.93533" lon="4.7343">
        <ele>169</ele>
        <time>2017-07-20T09:53:08Z</time>
      </trkpt>
      <trkpt lat="45.93534" lon="4.7344">
        <ele>169</ele>
        <time>2017-07-20T09:53:09Z</time>
      </trkpt>
      <trkpt lat="45.93537" lon="4.73452">
        <ele>169</ele>
        <time>2017-07-20T09:53:11Z</time>
      </trkpt>
      <trkpt lat="45.93538" lon="4.73456">
        <ele>169</ele>
        <time>2017-07-20T09:53:12Z</time>
      </trkpt>
      <trkpt lat="45.9354" lon="4.73465">
        <ele>169</ele>
        <time>2017-07-20T09:53:14Z</time>
      </trkpt>
      <trkpt lat="45.93541" lon="4.7347">
        <ele>169</ele>
        <time>2017-07-20T09:53:15Z</time>
      </trkpt>
      <trkpt lat="45.93543" lon="4.73481">
        <ele>169</ele>
        <time>2017-07-20T09:53:17Z</time>
      </trkpt>
      <trkpt lat="45.93544" lon="4.73486">
        <ele>169</ele>
        <time>2017-07-20T09:53:18Z</time>
      </trkpt>
      <trkpt lat="45.93545" lon="4.73498">
        <ele>169</ele>
        <time>2017-07-20T09:53:20Z</time>
      </trkpt>
      <trkpt lat="45.93546" lon="4.73503">
        <ele>169</ele>
        <time>2017-07-20T09:53:21Z</time>
      </trkpt>
      <trkpt lat="45.93548" lon="4.73515">
        <ele>169</ele>
        <time>2017-07-20T09:53:23Z</time>
      </trkpt>
      <trkpt lat="45.93548" lon="4.7352">
        <ele>169</ele>
        <time>2017-07-20T09:53:24Z</time>
      </trkpt>
      <trkpt lat="45.93549" lon="4.73532">
        <ele>169</ele>
        <time>2017-07-20T09:53:26Z</time>
      </trkpt>
      <trkpt lat="45.9355" lon="4.73537">
        <ele>169</ele>
        <time>2017-07-20T09:53:27Z</time>
      </trkpt>
      <trkpt lat="45.93553" lon="4.73548">
        <ele>169</ele>
        <time>2017-07-20T09:53:29Z</time>
      </trkpt>
      <trkpt lat="45.93555" lon="4.73555">
        <ele>169</ele>
        <time>2017-07-20T09:53:30Z</time>
      </trkpt>
      <trkpt lat="45.93557" lon="4.73563">
        <ele>169</ele>
        <time>2017-07-20T09:53:31Z</time>
      </trkpt>
      <trkpt lat="45.93558" lon="4.7357">
        <ele>169</ele>
        <time>2017-07-20T09:53:32Z</time>
      </trkpt>
      <trkpt lat="45.93559" lon="4.73581">
        <ele>168</ele>
        <time>2017-07-20T09:53:34Z</time>
      </trkpt>
      <trkpt lat="45.9356" lon="4.73587">
        <ele>168</ele>
        <time>2017-07-20T09:53:35Z</time>
      </trkpt>
      <trkpt lat="45.93562" lon="4.73593">
        <ele>168</ele>
        <time>2017-07-20T09:53:36Z</time>
      </trkpt>
      <trkpt lat="45.93564" lon="4.73602">
        <ele>168</ele>
        <time>2017-07-20T09:53:37Z</time>
      </trkpt>
      <trkpt lat="45.93565" lon="4.7361">
        <ele>168</ele>
        <time>2017-07-20T09:53:38Z</time>
      </trkpt>
      <trkpt lat="45.93566" lon="4.73616">
        <ele>168</ele>
        <time>2017-07-20T09:53:39Z</time>
      </trkpt>
      <trkpt lat="45.93567" lon="4.73622">
        <ele>168</ele>
        <time>2017-07-20T09:53:40Z</time>
      </trkpt>
      <trkpt lat="45.93568" lon="4.73629">
        <ele>168</ele>
        <time>2017-07-20T09:53:41Z</time>
      </trkpt>
      <trkpt lat="45.93569" lon="4.73636">
        <ele>168</ele>
        <time>2017-07-20T09:53:42Z</time>
      </trkpt>
      <trkpt lat="45.9357" lon="4.73643">
        <ele>168</ele>
        <time>2017-07-20T09:53:43Z</time>
      </trkpt>
      <trkpt lat="45.93571" lon="4.73651">
        <ele>168</ele>
        <time>2017-07-20T09:53:44Z</time>
      </trkpt>
      <trkpt lat="45.93572" lon="4.73657">
        <ele>168</ele>
        <time>2017-07-20T09:53:45Z</time>
      </trkpt>
      <trkpt lat="45.93573" lon="4.73663">
        <ele>168</ele>
        <time>2017-07-20T09:53:46Z</time>
      </trkpt>
      <trkpt lat="45.93574" lon="4.73671">
        <ele>168</ele>
        <time>2017-07-20T09:53:47Z</time>
      </trkpt>
      <trkpt lat="45.93575" lon="4.73682">
        <ele>168</ele>
        <time>2017-07-20T09:53:49Z</time>
      </trkpt>
      <trkpt lat="45.93574" lon="4.73687">
        <ele>168</ele>
        <time>2017-07-20T09:53:50Z</time>
      </trkpt>
      <trkpt lat="45.93573" lon="4.73697">
        <ele>169</ele>
        <time>2017-07-20T09:53:52Z</time>
      </trkpt>
      <trkpt lat="45.93572" lon="4.73702">
        <ele>169</ele>
        <time>2017-07-20T09:53:53Z</time>
      </trkpt>
      <trkpt lat="45.93568" lon="4.73712">
        <ele>169</ele>
        <time>2017-07-20T09:53:55Z</time>
      </trkpt>
      <trkpt lat="45.93566" lon="4.73717">
        <ele>169</ele>
        <time>2017-07-20T09:53:56Z</time>
      </trkpt>
      <trkpt lat="45.93561" lon="4.73727">
        <ele>169</ele>
        <time>2017-07-20T09:53:58Z</time>
      </trkpt>
      <trkpt lat="45.93558" lon="4.73732">
        <ele>169</ele>
        <time>2017-07-20T09:53:59Z</time>
      </trkpt>
      <trkpt lat="45.93553" lon="4.73741">
        <ele>169</ele>
        <time>2017-07-20T09:54:01Z</time>
      </trkpt>
      <trkpt lat="45.9355" lon="4.73744">
        <ele>169</ele>
        <time>2017-07-20T09:54:02Z</time>
      </trkpt>
      <trkpt lat="45.93545" lon="4.73752">
        <ele>169</ele>
        <time>2017-07-20T09:54:04Z</time>
      </trkpt>
      <trkpt lat="45.93542" lon="4.73756">
        <ele>169</ele>
        <time>2017-07-20T09:54:05Z</time>
      </trkpt>
      <trkpt lat="45.93536" lon="4.73765">
        <ele>169</ele>
        <time>2017-07-20T09:54:07Z</time>
      </trkpt>
      <trkpt lat="45.93532" lon="4.73769">
        <ele>169</ele>
        <time>2017-07-20T09:54:08Z</time>
      </trkpt>
      <trkpt lat="45.93527" lon="4.73776">
        <ele>169</ele>
        <time>2017-07-20T09:54:10Z</time>
      </trkpt>
      <trkpt lat="45.93524" lon="4.73779">
        <ele>169</ele>
        <time>2017-07-20T09:54:11Z</time>
      </trkpt>
      <trkpt lat="45.93518" lon="4.73786">
        <ele>169</ele>
        <time>2017-07-20T09:54:13Z</time>
      </trkpt>
      <trkpt lat="45.93516" lon="4.73789">
        <ele>169</ele>
        <time>2017-07-20T09:54:14Z</time>
      </trkpt>
      <trkpt lat="45.93509" lon="4.73796">
        <ele>169</ele>
        <time>2017-07-20T09:54:16Z</time>
      </trkpt>
      <trkpt lat="45.93504" lon="4.73799">
        <ele>169</ele>
        <time>2017-07-20T09:54:17Z</time>
      </trkpt>
      <trkpt lat="45.935" lon="4.73803">
        <ele>169</ele>
        <time>2017-07-20T09:54:18Z</time>
      </trkpt>
      <trkpt lat="45.93496" lon="4.73807">
        <ele>169</ele>
        <time>2017-07-20T09:54:19Z</time>
      </trkpt>
      <trkpt lat="45.93491" lon="4.7381">
        <ele>169</ele>
        <time>2017-07-20T09:54:20Z</time>
      </trkpt>
      <trkpt lat="45.93486" lon="4.73812">
        <ele>169</ele>
        <time>2017-07-20T09:54:21Z</time>
      </trkpt>
      <trkpt lat="45.9348" lon="4.73815">
        <ele>169</ele>
        <time>2017-07-20T09:54:22Z</time>
      </trkpt>
      <trkpt lat="45.93475" lon="4.73818">
        <ele>169</ele>
        <time>2017-07-20T09:54:23Z</time>
      </trkpt>
      <trkpt lat="45.93471" lon="4.73821">
        <ele>169</ele>
        <time>2017-07-20T09:54:24Z</time>
      </trkpt>
      <trkpt lat="45.93466" lon="4.73823">
        <ele>169</ele>
        <time>2017-07-20T09:54:25Z</time>
      </trkpt>
      <trkpt lat="45.93457" lon="4.73826">
        <ele>169</ele>
        <time>2017-07-20T09:54:27Z</time>
      </trkpt>
      <trkpt lat="45.93453" lon="4.73828">
        <ele>169</ele>
        <time>2017-07-20T09:54:28Z</time>
      </trkpt>
      <trkpt lat="45.93446" lon="4.73831">
        <ele>169</ele>
        <time>2017-07-20T09:54:30Z</time>
      </trkpt>
      <trkpt lat="45.93442" lon="4.73833">
        <ele>169</ele>
        <time>2017-07-20T09:54:31Z</time>
      </trkpt>
      <trkpt lat="45.93434" lon="4.73837">
        <ele>169</ele>
        <time>2017-07-20T09:54:33Z</time>
      </trkpt>
      <trkpt lat="45.93429" lon="4.73839">
        <ele>169</ele>
        <time>2017-07-20T09:54:34Z</time>
      </trkpt>
      <trkpt lat="45.93425" lon="4.73842">
        <ele>169</ele>
        <time>2017-07-20T09:54:35Z</time>
      </trkpt>
      <trkpt lat="45.93421" lon="4.73844">
        <ele>169</ele>
        <time>2017-07-20T09:54:36Z</time>
      </trkpt>
      <trkpt lat="45.93413" lon="4.7385">
        <ele>169</ele>
        <time>2017-07-20T09:54:38Z</time>
      </trkpt>
      <trkpt lat="45.93409" lon="4.73852">
        <ele>169</ele>
        <time>2017-07-20T09:54:39Z</time>
      </trkpt>
      <trkpt lat="45.93402" lon="4.73856">
        <ele>169</ele>
        <time>2017-07-20T09:54:41Z</time>
      </trkpt>
      <trkpt lat="45.93399" lon="4.73858">
        <ele>169</ele>
        <time>2017-07-20T09:54:42Z</time>
      </trkpt>
      <trkpt lat="45.93392" lon="4.73862">
        <ele>169</ele>
        <time>2017-07-20T09:54:44Z</time>
      </trkpt>
      <trkpt lat="45.93388" lon="4.73864">
        <ele>169</ele>
        <time>2017-07-20T09:54:45Z</time>
      </trkpt>
      <trkpt lat="45.9338" lon="4.7387">
        <ele>169</ele>
        <time>2017-07-20T09:54:47Z</time>
      </trkpt>
      <trkpt lat="45.93375" lon="4.73874">
        <ele>169</ele>
        <time>2017-07-20T09:54:48Z</time>
      </trkpt>
      <trkpt lat="45.9337" lon="4.73877">
        <ele>168</ele>
        <time>2017-07-20T09:54:49Z</time>
      </trkpt>
      <trkpt lat="45.93366" lon="4.73881">
        <ele>168</ele>
        <time>2017-07-20T09:54:50Z</time>
      </trkpt>
      <trkpt lat="45.93362" lon="4.73885">
        <ele>168</ele>
        <time>2017-07-20T09:54:51Z</time>
      </trkpt>
      <trkpt lat="45.93359" lon="4.73889">
        <ele>168</ele>
        <time>2017-07-20T09:54:52Z</time>
      </trkpt>
      <trkpt lat="45.93353" lon="4.73897">
        <ele>168</ele>
        <time>2017-07-20T09:54:54Z</time>
      </trkpt>
      <trkpt lat="45.93351" lon="4.73901">
        <ele>168</ele>
        <time>2017-07-20T09:54:55Z</time>
      </trkpt>
      <trkpt lat="45.93346" lon="4.73907">
        <ele>168</ele>
        <time>2017-07-20T09:54:57Z</time>
      </trkpt>
      <trkpt lat="45.93344" lon="4.7391">
        <ele>168</ele>
        <time>2017-07-20T09:54:58Z</time>
      </trkpt>
      <trkpt lat="45.93339" lon="4.73916">
        <ele>168</ele>
        <time>2017-07-20T09:55:00Z</time>
      </trkpt>
      <trkpt lat="45.93337" lon="4.73919">
        <ele>168</ele>
        <time>2017-07-20T09:55:01Z</time>
      </trkpt>
      <trkpt lat="45.93331" lon="4.73925">
        <ele>168</ele>
        <time>2017-07-20T09:55:03Z</time>
      </trkpt>
      <trkpt lat="45.93329" lon="4.73929">
        <ele>168</ele>
        <time>2017-07-20T09:55:04Z</time>
      </trkpt>
      <trkpt lat="45.93323" lon="4.73936">
        <ele>168</ele>
        <time>2017-07-20T09:55:06Z</time>
      </trkpt>
      <trkpt lat="45.9332" lon="4.73941">
        <ele>168</ele>
        <time>2017-07-20T09:55:07Z</time>
      </trkpt>
      <trkpt lat="45.93314" lon="4.7395">
        <ele>168</ele>
        <time>2017-07-20T09:55:09Z</time>
      </trkpt>
      <trkpt lat="45.93311" lon="4.73955">
        <ele>168</ele>
        <time>2017-07-20T09:55:10Z</time>
      </trkpt>
      <trkpt lat="45.93306" lon="4.73962">
        <ele>168</ele>
        <time>2017-07-20T09:55:12Z</time>
      </trkpt>
      <trkpt lat="45.93304" lon="4.73966">
        <ele>168</ele>
        <time>2017-07-20T09:55:13Z</time>
      </trkpt>
      <trkpt lat="45.933" lon="4.73972">
        <ele>168</ele>
        <time>2017-07-20T09:55:15Z</time>
      </trkpt>
      <trkpt lat="45.93298" lon="4.73976">
        <ele>168</ele>
        <time>2017-07-20T09:55:16Z</time>
      </trkpt>
      <trkpt lat="45.93293" lon="4.73985">
        <ele>168</ele>
        <time>2017-07-20T09:55:18Z</time>
      </trkpt>
      <trkpt lat="45.93291" lon="4.73989">
        <ele>168</ele>
        <time>2017-07-20T09:55:19Z</time>
      </trkpt>
      <trkpt lat="45.93287" lon="4.73997">
        <ele>168</ele>
        <time>2017-07-20T09:55:21Z</time>
      </trkpt>
      <trkpt lat="45.93285" lon="4.74001">
        <ele>168</ele>
        <time>2017-07-20T09:55:22Z</time>
      </trkpt>
      <trkpt lat="45.9328" lon="4.74008">
        <ele>168</ele>
        <time>2017-07-20T09:55:24Z</time>
      </trkpt>
      <trkpt lat="45.93277" lon="4.74012">
        <ele>168</ele>
        <time>2017-07-20T09:55:25Z</time>
      </trkpt>
      <trkpt lat="45.93271" lon="4.74019">
        <ele>168</ele>
        <time>2017-07-20T09:55:27Z</time>
      </trkpt>
      <trkpt lat="45.93269" lon="4.74022">
        <ele>168</ele>
        <time>2017-07-20T09:55:28Z</time>
      </trkpt>
      <trkpt lat="45.93264" lon="4.74029">
        <ele>168</ele>
        <time>2017-07-20T09:55:30Z</time>
      </trkpt>
      <trkpt lat="45.93262" lon="4.74033">
        <ele>168</ele>
        <time>2017-07-20T09:55:31Z</time>
      </trkpt>
      <trkpt lat="45.93256" lon="4.74041">
        <ele>168</ele>
        <time>2017-07-20T09:55:33Z</time>
      </trkpt>
      <trkpt lat="45.93254" lon="4.74046">
        <ele>168</ele>
        <time>2017-07-20T09:55:34Z</time>
      </trkpt>
      <trkpt lat="45.93251" lon="4.74055">
        <ele>168</ele>
        <time>2017-07-20T09:55:36Z</time>
      </trkpt>
      <trkpt lat="45.93249" lon="4.74058">
        <ele>167</ele>
        <time>2017-07-20T09:55:37Z</time>
      </trkpt>
      <trkpt lat="45.93244" lon="4.74064">
        <ele>167</ele>
        <time>2017-07-20T09:55:39Z</time>
      </trkpt>
      <trkpt lat="45.93242" lon="4.74068">
        <ele>167</ele>
        <time>2017-07-20T09:55:40Z</time>
      </trkpt>
      <trkpt lat="45.93237" lon="4.74076">
        <ele>167</ele>
        <time>2017-07-20T09:55:42Z</time>
      </trkpt>
      <trkpt lat="45.93234" lon="4.7408">
        <ele>167</ele>
        <time>2017-07-20T09:55:43Z</time>
      </trkpt>
      <trkpt lat="45.93229" lon="4.74087">
        <ele>167</ele>
        <time>2017-07-20T09:55:45Z</time>
      </trkpt>
      <trkpt lat="45.93227" lon="4.74089">
        <ele>167</ele>
        <time>2017-07-20T09:55:46Z</time>
      </trkpt>
      <trkpt lat="45.9322" lon="4.74097">
        <ele>167</ele>
        <time>2017-07-20T09:55:49Z</time>
      </trkpt>
      <trkpt lat="45.9322" lon="4.741">
        <ele>167</ele>
        <time>2017-07-20T09:55:50Z</time>
      </trkpt>
      <trkpt lat="45.93212" lon="4.74102">
        <ele>167</ele>
        <time>2017-07-20T09:55:55Z</time>
      </trkpt>
      <trkpt lat="45.9321" lon="4.74101">
        <ele>167</ele>
        <time>2017-07-20T09:55:56Z</time>
      </trkpt>
      <trkpt lat="45.93204" lon="4.74097">
        <ele>167</ele>
        <time>2017-07-20T09:55:59Z</time>
      </trkpt>
      <trkpt lat="45.93201" lon="4.74095">
        <ele>167</ele>
        <time>2017-07-20T09:56:00Z</time>
      </trkpt>
      <trkpt lat="45.93196" lon="4.74089">
        <ele>167</ele>
        <time>2017-07-20T09:56:02Z</time>
      </trkpt>
      <trkpt lat="45.93193" lon="4.74087">
        <ele>167</ele>
        <time>2017-07-20T09:56:03Z</time>
      </trkpt>
      <trkpt lat="45.93187" lon="4.74082">
        <ele>168</ele>
        <time>2017-07-20T09:56:05Z</time>
      </trkpt>
      <trkpt lat="45.93185" lon="4.74082">
        <ele>168</ele>
        <time>2017-07-20T09:56:06Z</time>
      </trkpt>
      <trkpt lat="45.93179" lon="4.74077">
        <ele>168</ele>
        <time>2017-07-20T09:56:08Z</time>
      </trkpt>
      <trkpt lat="45.93177" lon="4.74075">
        <ele>168</ele>
        <time>2017-07-20T09:56:09Z</time>
      </trkpt>
      <trkpt lat="45.9317" lon="4.74067">
        <ele>168</ele>
        <time>2017-07-20T09:56:12Z</time>
      </trkpt>
      <trkpt lat="45.93167" lon="4.74064">
        <ele>168</ele>
        <time>2017-07-20T09:56:13Z</time>
      </trkpt>
      <trkpt lat="45.93161" lon="4.74057">
        <ele>168</ele>
        <time>2017-07-20T09:56:15Z</time>
      </trkpt>
      <trkpt lat="45.93158" lon="4.74055">
        <ele>168</ele>
        <time>2017-07-20T09:56:16Z</time>
      </trkpt>
      <trkpt lat="45.93152" lon="4.74049">
        <ele>168</ele>
        <time>2017-07-20T09:56:18Z</time>
      </trkpt>
      <trkpt lat="45.93149" lon="4.74047">
        <ele>168</ele>
        <time>2017-07-20T09:56:19Z</time>
      </trkpt>
      <trkpt lat="45.93143" lon="4.74042">
        <ele>168</ele>
        <time>2017-07-20T09:56:21Z</time>
      </trkpt>
      <trkpt lat="45.9314" lon="4.74039">
        <ele>168</ele>
        <time>2017-07-20T09:56:22Z</time>
      </trkpt>
      <trkpt lat="45.93133" lon="4.74034">
        <ele>168</ele>
        <time>2017-07-20T09:56:24Z</time>
      </trkpt>
      <trkpt lat="45.9313" lon="4.74032">
        <ele>168</ele>
        <time>2017-07-20T09:56:25Z</time>
      </trkpt>
      <trkpt lat="45.93124" lon="4.74027">
        <ele>168</ele>
        <time>2017-07-20T09:56:27Z</time>
      </trkpt>
      <trkpt lat="45.93121" lon="4.74026">
        <ele>168</ele>
        <time>2017-07-20T09:56:28Z</time>
      </trkpt>
      <trkpt lat="45.93114" lon="4.74023">
        <ele>168</ele>
        <time>2017-07-20T09:56:30Z</time>
      </trkpt>
      <trkpt lat="45.93111" lon="4.74022">
        <ele>168</ele>
        <time>2017-07-20T09:56:31Z</time>
      </trkpt>
      <trkpt lat="45.93105" lon="4.7402">
        <ele>168</ele>
        <time>2017-07-20T09:56:33Z</time>
      </trkpt>
      <trkpt lat="45.93101" lon="4.74018">
        <ele>168</ele>
        <time>2017-07-20T09:56:34Z</time>
      </trkpt>
      <trkpt lat="45.93093" lon="4.74017">
        <ele>168</ele>
        <time>2017-07-20T09:56:36Z</time>
      </trkpt>
      <trkpt lat="45.93089" lon="4.74017">
        <ele>168</ele>
        <time>2017-07-20T09:56:37Z</time>
      </trkpt>
      <trkpt lat="45.9308" lon="4.74017">
        <ele>169</ele>
        <time>2017-07-20T09:56:39Z</time>
      </trkpt>
      <trkpt lat="45.93076" lon="4.74016">
        <ele>169</ele>
        <time>2017-07-20T09:56:40Z</time>
      </trkpt>
      <trkpt lat="45.93067" lon="4.74015">
        <ele>169</ele>
        <time>2017-07-20T09:56:42Z</time>
      </trkpt>
      <trkpt lat="45.93064" lon="4.74013">
        <ele>169</ele>
        <time>2017-07-20T09:56:43Z</time>
      </trkpt>
      <trkpt lat="45.93056" lon="4.74011">
        <ele>169</ele>
        <time>2017-07-20T09:56:45Z</time>
      </trkpt>
      <trkpt lat="45.93053" lon="4.7401">
        <ele>169</ele>
        <time>2017-07-20T09:56:46Z</time>
      </trkpt>
      <trkpt lat="45.93045" lon="4.74008">
        <ele>169</ele>
        <time>2017-07-20T09:56:48Z</time>
      </trkpt>
      <trkpt lat="45.93042" lon="4.74006">
        <ele>169</ele>
        <time>2017-07-20T09:56:49Z</time>
      </trkpt>
      <trkpt lat="45.93035" lon="4.74001">
        <ele>169</ele>
        <time>2017-07-20T09:56:51Z</time>
      </trkpt>
      <trkpt lat="45.93031" lon="4.73999">
        <ele>169</ele>
        <time>2017-07-20T09:56:52Z</time>
      </trkpt>
      <trkpt lat="45.93024" lon="4.73999">
        <ele>169</ele>
        <time>2017-07-20T09:56:54Z</time>
      </trkpt>
      <trkpt lat="45.9302" lon="4.74001">
        <ele>170</ele>
        <time>2017-07-20T09:56:55Z</time>
      </trkpt>
      <trkpt lat="45.93013" lon="4.74007">
        <ele>170</ele>
        <time>2017-07-20T09:56:57Z</time>
      </trkpt>
      <trkpt lat="45.93009" lon="4.7401">
        <ele>170</ele>
        <time>2017-07-20T09:56:58Z</time>
      </trkpt>
      <trkpt lat="45.93004" lon="4.7402">
        <ele>170</ele>
        <time>2017-07-20T09:57:00Z</time>
      </trkpt>
      <trkpt lat="45.93002" lon="4.74025">
        <ele>170</ele>
        <time>2017-07-20T09:57:01Z</time>
      </trkpt>
      <trkpt lat="45.92999" lon="4.74036">
        <ele>171</ele>
        <time>2017-07-20T09:57:03Z</time>
      </trkpt>
      <trkpt lat="45.92998" lon="4.74041">
        <ele>171</ele>
        <time>2017-07-20T09:57:04Z</time>
      </trkpt>
      <trkpt lat="45.92996" lon="4.7405">
        <ele>171</ele>
        <time>2017-07-20T09:57:06Z</time>
      </trkpt>
      <trkpt lat="45.92996" lon="4.74054">
        <ele>171</ele>
        <time>2017-07-20T09:57:07Z</time>
      </trkpt>
      <trkpt lat="45.92996" lon="4.74064">
        <ele>171</ele>
        <time>2017-07-20T09:57:09Z</time>
      </trkpt>
      <trkpt lat="45.92996" lon="4.74069">
        <ele>171</ele>
        <time>2017-07-20T09:57:10Z</time>
      </trkpt>
      <trkpt lat="45.92996" lon="4.74079">
        <ele>171</ele>
        <time>2017-07-20T09:57:12Z</time>
      </trkpt>
      <trkpt lat="45.92996" lon="4.74085">
        <ele>171</ele>
        <time>2017-07-20T09:57:13Z</time>
      </trkpt>
      <trkpt lat="45.92996" lon="4.74094">
        <ele>171</ele>
        <time>2017-07-20T09:57:15Z</time>
      </trkpt>
      <trkpt lat="45.92995" lon="4.74098">
        <ele>171</ele>
        <time>2017-07-20T09:57:16Z</time>
      </trkpt>
      <trkpt lat="45.92995" lon="4.74108">
        <ele>171</ele>
        <time>2017-07-20T09:57:18Z</time>
      </trkpt>
      <trkpt lat="45.92994" lon="4.74112">
        <ele>171</ele>
        <time>2017-07-20T09:57:19Z</time>
      </trkpt>
      <trkpt lat="45.9299" lon="4.74123">
        <ele>171</ele>
        <time>2017-07-20T09:57:22Z</time>
      </trkpt>
      <trkpt lat="45.92989" lon="4.74126">
        <ele>171</ele>
        <time>2017-07-20T09:57:23Z</time>
      </trkpt>
      <trkpt lat="45.92985" lon="4.74138">
        <ele>171</ele>
        <time>2017-07-20T09:57:27Z</time>
      </trkpt>
      <trkpt lat="45.92984" lon="4.7414">
        <ele>171</ele>
        <time>2017-07-20T09:57:28Z</time>
      </trkpt>
      <trkpt lat="45.9298" lon="4.74151">
        <ele>170</ele>
        <time>2017-07-20T09:57:32Z</time>
      </trkpt>
      <trkpt lat="45.92979" lon="4.74154">
        <ele>170</ele>
        <time>2017-07-20T09:57:33Z</time>
      </trkpt>
      <trkpt lat="45.92976" lon="4.74165">
        <ele>170</ele>
        <time>2017-07-20T09:57:37Z</time>
      </trkpt>
      <trkpt lat="45.92976" lon="4.74168">
        <ele>170</ele>
        <time>2017-07-20T09:57:38Z</time>
      </trkpt>
      <trkpt lat="45.92971" lon="4.74177">
        <ele>170</ele>
        <time>2017-07-20T09:57:41Z</time>
      </trkpt>
      <trkpt lat="45.9297" lon="4.7418">
        <ele>170</ele>
        <time>2017-07-20T09:57:42Z</time>
      </trkpt>
      <trkpt lat="45.92967" lon="4.74186">
        <ele>170</ele>
        <time>2017-07-20T09:57:44Z</time>
      </trkpt>
      <trkpt lat="45.92964" lon="4.7419">
        <ele>170</ele>
        <time>2017-07-20T09:57:45Z</time>
      </trkpt>
      <trkpt lat="45.92957" lon="4.74196">
        <ele>170</ele>
        <time>2017-07-20T09:57:48Z</time>
      </trkpt>
      <trkpt lat="45.92955" lon="4.74198">
        <ele>170</ele>
        <time>2017-07-20T09:57:49Z</time>
      </trkpt>
      <trkpt lat="45.92947" lon="4.74201">
        <ele>170</ele>
        <time>2017-07-20T09:57:56Z</time>
      </trkpt>
      <trkpt lat="45.92945" lon="4.74199">
        <ele>170</ele>
        <time>2017-07-20T09:57:57Z</time>
      </trkpt>
      <trkpt lat="45.92937" lon="4.74195">
        <ele>170</ele>
        <time>2017-07-20T09:58:01Z</time>
      </trkpt>
      <trkpt lat="45.92935" lon="4.74194">
        <ele>170</ele>
        <time>2017-07-20T09:58:02Z</time>
      </trkpt>
      <trkpt lat="45.92927" lon="4.74189">
        <ele>171</ele>
        <time>2017-07-20T09:58:05Z</time>
      </trkpt>
      <trkpt lat="45.92924" lon="4.74187">
        <ele>171</ele>
        <time>2017-07-20T09:58:06Z</time>
      </trkpt>
      <trkpt lat="45.92916" lon="4.74183">
        <ele>172</ele>
        <time>2017-07-20T09:58:09Z</time>
      </trkpt>
      <trkpt lat="45.92914" lon="4.74182">
        <ele>172</ele>
        <time>2017-07-20T09:58:10Z</time>
      </trkpt>
      <trkpt lat="45.92908" lon="4.74177">
        <ele>172</ele>
        <time>2017-07-20T09:58:13Z</time>
      </trkpt>
      <trkpt lat="45.92905" lon="4.74175">
        <ele>172</ele>
        <time>2017-07-20T09:58:14Z</time>
      </trkpt>
      <trkpt lat="45.92899" lon="4.7417">
        <ele>172</ele>
        <time>2017-07-20T09:58:17Z</time>
      </trkpt>
      <trkpt lat="45.92897" lon="4.74168">
        <ele>172</ele>
        <time>2017-07-20T09:58:18Z</time>
      </trkpt>
      <trkpt lat="45.92892" lon="4.74161">
        <ele>172</ele>
        <time>2017-07-20T09:58:21Z</time>
      </trkpt>
      <trkpt lat="45.92891" lon="4.74157">
        <ele>172</ele>
        <time>2017-07-20T09:58:22Z</time>
      </trkpt>
      <trkpt lat="45.92889" lon="4.74148">
        <ele>172</ele>
        <time>2017-07-20T09:58:24Z</time>
      </trkpt>
      <trkpt lat="45.92888" lon="4.74143">
        <ele>172</ele>
        <time>2017-07-20T09:58:25Z</time>
      </trkpt>
      <trkpt lat="45.92889" lon="4.74134">
        <ele>172</ele>
        <time>2017-07-20T09:58:27Z</time>
      </trkpt>
      <trkpt lat="45.92891" lon="4.74129">
        <ele>172</ele>
        <time>2017-07-20T09:58:28Z</time>
      </trkpt>
      <trkpt lat="45.92896" lon="4.74119">
        <ele>172</ele>
        <time>2017-07-20T09:58:30Z</time>
      </trkpt>
      <trkpt lat="45.92899" lon="4.74114">
        <ele>172</ele>
        <time>2017-07-20T09:58:31Z</time>
      </trkpt>
      <trkpt lat="45.92903" lon="4.74108">
        <ele>172</ele>
        <time>2017-07-20T09:58:32Z</time>
      </trkpt>
      <trkpt lat="45.92906" lon="4.74102">
        <ele>172</ele>
        <time>2017-07-20T09:58:33Z</time>
      </trkpt>
      <trkpt lat="45.92909" lon="4.74095">
        <ele>172</ele>
        <time>2017-07-20T09:58:34Z</time>
      </trkpt>
      <trkpt lat="45.92911" lon="4.74087">
        <ele>173</ele>
        <time>2017-07-20T09:58:35Z</time>
      </trkpt>
      <trkpt lat="45.92912" lon="4.74079">
        <ele>173</ele>
        <time>2017-07-20T09:58:36Z</time>
      </trkpt>
      <trkpt lat="45.92912" lon="4.7407">
        <ele>173</ele>
        <time>2017-07-20T09:58:37Z</time>
      </trkpt>
      <trkpt lat="45.92914" lon="4.74061">
        <ele>173</ele>
        <time>2017-07-20T09:58:38Z</time>
      </trkpt>
      <trkpt lat="45.92915" lon="4.74053">
        <ele>172</ele>
        <time>2017-07-20T09:58:39Z</time>
      </trkpt>
      <trkpt lat="45.92916" lon="4.74046">
        <ele>172</ele>
        <time>2017-07-20T09:58:40Z</time>
      </trkpt>
      <trkpt lat="45.92918" lon="4.74039">
        <ele>172</ele>
        <time>2017-07-20T09:58:41Z</time>
      </trkpt>
      <trkpt lat="45.9292" lon="4.74032">
        <ele>172</ele>
        <time>2017-07-20T09:58:42Z</time>
      </trkpt>
      <trkpt lat="45.92921" lon="4.74024">
        <ele>172</ele>
        <time>2017-07-20T09:58:43Z</time>
      </trkpt>
      <trkpt lat="45.9292" lon="4.74017">
        <ele>172</ele>
        <time>2017-07-20T09:58:44Z</time>
      </trkpt>
      <trkpt lat="45.9292" lon="4.7401">
        <ele>172</ele>
        <time>2017-07-20T09:58:45Z</time>
      </trkpt>
      <trkpt lat="45.92916" lon="4.73999">
        <ele>172</ele>
        <time>2017-07-20T09:58:47Z</time>
      </trkpt>
      <trkpt lat="45.92914" lon="4.73995">
        <ele>172</ele>
        <time>2017-07-20T09:58:48Z</time>
      </trkpt>
      <trkpt lat="45.92908" lon="4.73989">
        <ele>172</ele>
        <time>2017-07-20T09:58:50Z</time>
      </trkpt>
      <trkpt lat="45.92904" lon="4.73985">
        <ele>172</ele>
        <time>2017-07-20T09:58:51Z</time>
      </trkpt>
      <trkpt lat="45.92897" lon="4.73977">
        <ele>172</ele>
        <time>2017-07-20T09:58:53Z</time>
      </trkpt>
      <trkpt lat="45.92895" lon="4.73972">
        <ele>172</ele>
        <time>2017-07-20T09:58:54Z</time>
      </trkpt>
      <trkpt lat="45.92893" lon="4.73961">
        <ele>172</ele>
        <time>2017-07-20T09:58:56Z</time>
      </trkpt>
      <trkpt lat="45.92893" lon="4.73955">
        <ele>172</ele>
        <time>2017-07-20T09:58:57Z</time>
      </trkpt>
      <trkpt lat="45.92893" lon="4.73943">
        <ele>172</ele>
        <time>2017-07-20T09:58:59Z</time>
      </trkpt>
      <trkpt lat="45.92892" lon="4.73937">
        <ele>172</ele>
        <time>2017-07-20T09:59:00Z</time>
      </trkpt>
      <trkpt lat="45.92892" lon="4.73924">
        <ele>172</ele>
        <time>2017-07-20T09:59:02Z</time>
      </trkpt>
      <trkpt lat="45.92891" lon="4.73918">
        <ele>172</ele>
        <time>2017-07-20T09:59:03Z</time>
      </trkpt>
      <trkpt lat="45.92889" lon="4.73907">
        <ele>173</ele>
        <time>2017-07-20T09:59:05Z</time>
      </trkpt>
      <trkpt lat="45.92888" lon="4.73902">
        <ele>173</ele>
        <time>2017-07-20T09:59:06Z</time>
      </trkpt>
      <trkpt lat="45.92888" lon="4.73891">
        <ele>173</ele>
        <time>2017-07-20T09:59:08Z</time>
      </trkpt>
      <trkpt lat="45.92888" lon="4.73886">
        <ele>173</ele>
        <time>2017-07-20T09:59:09Z</time>
      </trkpt>
      <trkpt lat="45.92887" lon="4.73877">
        <ele>173</ele>
        <time>2017-07-20T09:59:11Z</time>
      </trkpt>
      <trkpt lat="45.92886" lon="4.73872">
        <ele>173</ele>
        <time>2017-07-20T09:59:12Z</time>
      </trkpt>
      <trkpt lat="45.92885" lon="4.73866">
        <ele>173</ele>
        <time>2017-07-20T09:59:13Z</time>
      </trkpt>
      <trkpt lat="45.92882" lon="4.7386">
        <ele>173</ele>
        <time>2017-07-20T09:59:14Z</time>
      </trkpt>
      <trkpt lat="45.9288" lon="4.73855">
        <ele>173</ele>
        <time>2017-07-20T09:59:15Z</time>
      </trkpt>
      <trkpt lat="45.92879" lon="4.73847">
        <ele>173</ele>
        <time>2017-07-20T09:59:16Z</time>
      </trkpt>
      <trkpt lat="45.92877" lon="4.73836">
        <ele>173</ele>
        <time>2017-07-20T09:59:18Z</time>
      </trkpt>
      <trkpt lat="45.92877" lon="4.73832">
        <ele>173</ele>
        <time>2017-07-20T09:59:19Z</time>
      </trkpt>
      <trkpt lat="45.92873" lon="4.73826">
        <ele>173</ele>
        <time>2017-07-20T09:59:20Z</time>
      </trkpt>
      <trkpt lat="45.9287" lon="4.73821">
        <ele>173</ele>
        <time>2017-07-20T09:59:21Z</time>
      </trkpt>
      <trkpt lat="45.92867" lon="4.73811">
        <ele>173</ele>
        <time>2017-07-20T09:59:23Z</time>
      </trkpt>
      <trkpt lat="45.92864" lon="4.73806">
        <ele>173</ele>
        <time>2017-07-20T09:59:24Z</time>
      </trkpt>
      <trkpt lat="45.92859" lon="4.73797">
        <ele>173</ele>
        <time>2017-07-20T09:59:26Z</time>
      </trkpt>
      <trkpt lat="45.92856" lon="4.73794">
        <ele>173</ele>
        <time>2017-07-20T09:59:27Z</time>
      </trkpt>
      <trkpt lat="45.92851" lon="4.73787">
        <ele>173</ele>
        <time>2017-07-20T09:59:29Z</time>
      </trkpt>
      <trkpt lat="45.92848" lon="4.73785">
        <ele>173</ele>
        <time>2017-07-20T09:59:30Z</time>
      </trkpt>
      <trkpt lat="45.92841" lon="4.7378">
        <ele>173</ele>
        <time>2017-07-20T09:59:32Z</time>
      </trkpt>
      <trkpt lat="45.92837" lon="4.73778">
        <ele>172</ele>
        <time>2017-07-20T09:59:33Z</time>
      </trkpt>
      <trkpt lat="45.9283" lon="4.73773">
        <ele>173</ele>
        <time>2017-07-20T09:59:35Z</time>
      </trkpt>
      <trkpt lat="45.92827" lon="4.73771">
        <ele>173</ele>
        <time>2017-07-20T09:59:36Z</time>
      </trkpt>
      <trkpt lat="45.92819" lon="4.73765">
        <ele>172</ele>
        <time>2017-07-20T09:59:38Z</time>
      </trkpt>
      <trkpt lat="45.92815" lon="4.73763">
        <ele>173</ele>
        <time>2017-07-20T09:59:39Z</time>
      </trkpt>
      <trkpt lat="45.92809" lon="4.7376">
        <ele>173</ele>
        <time>2017-07-20T09:59:41Z</time>
      </trkpt>
      <trkpt lat="45.92806" lon="4.73757">
        <ele>173</ele>
        <time>2017-07-20T09:59:42Z</time>
      </trkpt>
      <trkpt lat="45.928" lon="4.73751">
        <ele>173</ele>
        <time>2017-07-20T09:59:44Z</time>
      </trkpt>
      <trkpt lat="45.92798" lon="4.73747">
        <ele>172</ele>
        <time>2017-07-20T09:59:45Z</time>
      </trkpt>
      <trkpt lat="45.92793" lon="4.73741">
        <ele>172</ele>
        <time>2017-07-20T09:59:47Z</time>
      </trkpt>
      <trkpt lat="45.92791" lon="4.73738">
        <ele>172</ele>
        <time>2017-07-20T09:59:48Z</time>
      </trkpt>
      <trkpt lat="45.92785" lon="4.7373">
        <ele>172</ele>
        <time>2017-07-20T09:59:51Z</time>
      </trkpt>
      <trkpt lat="45.92783" lon="4.73728">
        <ele>172</ele>
        <time>2017-07-20T09:59:52Z</time>
      </trkpt>
      <trkpt lat="45.92777" lon="4.73724">
        <ele>172</ele>
        <time>2017-07-20T09:59:55Z</time>
      </trkpt>
      <trkpt lat="45.92774" lon="4.73723">
        <ele>172</ele>
        <time>2017-07-20T09:59:56Z</time>
      </trkpt>
      <trkpt lat="45.92767" lon="4.73721">
        <ele>172</ele>
        <time>2017-07-20T09:59:58Z</time>
      </trkpt>
      <trkpt lat="45.92764" lon="4.7372">
        <ele>172</ele>
        <time>2017-07-20T09:59:59Z</time>
      </trkpt>
      <trkpt lat="45.92756" lon="4.73717">
        <ele>172</ele>
        <time>2017-07-20T10:00:02Z</time>
      </trkpt>
      <trkpt lat="45.92753" lon="4.73717">
        <ele>172</ele>
        <time>2017-07-20T10:00:03Z</time>
      </trkpt>
      <trkpt lat="45.92747" lon="4.73715">
        <ele>173</ele>
        <time>2017-07-20T10:00:05Z</time>
      </trkpt>
      <trkpt lat="45.92743" lon="4.73714">
        <ele>173</ele>
        <time>2017-07-20T10:00:06Z</time>
      </trkpt>
      <trkpt lat="45.92738" lon="4.73714">
        <ele>173</ele>
        <time>2017-07-20T10:00:07Z</time>
      </trkpt>
      <trkpt lat="45.92734" lon="4.73714">
        <ele>173</ele>
        <time>2017-07-20T10:00:08Z</time>
      </trkpt>
      <trkpt lat="45.92726" lon="4.73712">
        <ele>173</ele>
        <time>2017-07-20T10:00:10Z</time>
      </trkpt>
      <trkpt lat="45.92722" lon="4.7371">
        <ele>173</ele>
        <time>2017-07-20T10:00:11Z</time>
      </trkpt>
      <trkpt lat="45.92713" lon="4.73709">
        <ele>173</ele>
        <time>2017-07-20T10:00:13Z</time>
      </trkpt>
      <trkpt lat="45.9271" lon="4.73708">
        <ele>173</ele>
        <time>2017-07-20T10:00:14Z</time>
      </trkpt>
      <trkpt lat="45.92703" lon="4.73706">
        <ele>173</ele>
        <time>2017-07-20T10:00:16Z</time>
      </trkpt>
      <trkpt lat="45.927" lon="4.73705">
        <ele>173</ele>
        <time>2017-07-20T10:00:17Z</time>
      </trkpt>
      <trkpt lat="45.92693" lon="4.73702">
        <ele>173</ele>
        <time>2017-07-20T10:00:19Z</time>
      </trkpt>
      <trkpt lat="45.92688" lon="4.737">
        <ele>173</ele>
        <time>2017-07-20T10:00:20Z</time>
      </trkpt>
      <trkpt lat="45.9268" lon="4.73698">
        <ele>173</ele>
        <time>2017-07-20T10:00:22Z</time>
      </trkpt>
      <trkpt lat="45.92677" lon="4.73697">
        <ele>174</ele>
        <time>2017-07-20T10:00:23Z</time>
      </trkpt>
      <trkpt lat="45.9267" lon="4.73692">
        <ele>174</ele>
        <time>2017-07-20T10:00:25Z</time>
      </trkpt>
      <trkpt lat="45.92667" lon="4.7369">
        <ele>174</ele>
        <time>2017-07-20T10:00:26Z</time>
      </trkpt>
      <trkpt lat="45.92661" lon="4.73684">
        <ele>173</ele>
        <time>2017-07-20T10:00:28Z</time>
      </trkpt>
      <trkpt lat="45.92659" lon="4.73681">
        <ele>173</ele>
        <time>2017-07-20T10:00:29Z</time>
      </trkpt>
      <trkpt lat="45.92652" lon="4.73673">
        <ele>173</ele>
        <time>2017-07-20T10:00:31Z</time>
      </trkpt>
      <trkpt lat="45.92649" lon="4.73669">
        <ele>173</ele>
        <time>2017-07-20T10:00:32Z</time>
      </trkpt>
      <trkpt lat="45.92644" lon="4.73662">
        <ele>173</ele>
        <time>2017-07-20T10:00:34Z</time>
      </trkpt>
      <trkpt lat="45.92642" lon="4.73658">
        <ele>173</ele>
        <time>2017-07-20T10:00:35Z</time>
      </trkpt>
      <trkpt lat="45.92639" lon="4.7365">
        <ele>173</ele>
        <time>2017-07-20T10:00:37Z</time>
      </trkpt>
      <trkpt lat="45.92636" lon="4.73646">
        <ele>173</ele>
        <time>2017-07-20T10:00:38Z</time>
      </trkpt>
      <trkpt lat="45.92634" lon="4.73641">
        <ele>173</ele>
        <time>2017-07-20T10:00:39Z</time>
      </trkpt>
      <trkpt lat="45.92631" lon="4.73635">
        <ele>173</ele>
        <time>2017-07-20T10:00:40Z</time>
      </trkpt>
      <trkpt lat="45.92625" lon="4.73626">
        <ele>173</ele>
        <time>2017-07-20T10:00:42Z</time>
      </trkpt>
      <trkpt lat="45.92622" lon="4.73623">
        <ele>173</ele>
        <time>2017-07-20T10:00:43Z</time>
      </trkpt>
      <trkpt lat="45.92614" lon="4.7362">
        <ele>173</ele>
        <time>2017-07-20T10:00:45Z</time>
      </trkpt>
      <trkpt lat="45.92609" lon="4.73619">
        <ele>173</ele>
        <time>2017-07-20T10:00:46Z</time>
      </trkpt>
      <trkpt lat="45.92602" lon="4.73619">
        <ele>173</ele>
        <time>2017-07-20T10:00:48Z</time>
      </trkpt>
      <trkpt lat="45.92599" lon="4.7362">
        <ele>173</ele>
        <time>2017-07-20T10:00:49Z</time>
      </trkpt>
      <trkpt lat="45.92592" lon="4.73622">
        <ele>173</ele>
        <time>2017-07-20T10:00:51Z</time>
      </trkpt>
      <trkpt lat="45.92589" lon="4.73624">
        <ele>173</ele>
        <time>2017-07-20T10:00:52Z</time>
      </trkpt>
      <trkpt lat="45.92586" lon="4.73625">
        <ele>172</ele>
        <time>2017-07-20T10:00:53Z</time>
      </trkpt>
      <trkpt lat="45.9258" lon="4.73628">
        <ele>173</ele>
        <time>2017-07-20T10:00:54Z</time>
      </trkpt>
      <trkpt lat="45.92573" lon="4.7363">
        <ele>173</ele>
        <time>2017-07-20T10:00:56Z</time>
      </trkpt>
      <trkpt lat="45.92569" lon="4.73631">
        <ele>173</ele>
        <time>2017-07-20T10:00:57Z</time>
      </trkpt>
      <trkpt lat="45.92561" lon="4.7363">
        <ele>173</ele>
        <time>2017-07-20T10:00:59Z</time>
      </trkpt>
      <trkpt lat="45.92555" lon="4.73633">
        <ele>173</ele>
        <time>2017-07-20T10:01:00Z</time>
      </trkpt>
      <trkpt lat="45.92551" lon="4.73635">
        <ele>173</ele>
        <time>2017-07-20T10:01:01Z</time>
      </trkpt>
      <trkpt lat="45.92544" lon="4.73634">
        <ele>173</ele>
        <time>2017-07-20T10:01:02Z</time>
      </trkpt>
      <trkpt lat="45.92536" lon="4.73639">
        <ele>173</ele>
        <time>2017-07-20T10:01:05Z</time>
      </trkpt>
      <trkpt lat="45.92533" lon="4.73639">
        <ele>173</ele>
        <time>2017-07-20T10:01:06Z</time>
      </trkpt>
      <trkpt lat="45.92525" lon="4.7364">
        <ele>173</ele>
        <time>2017-07-20T10:01:08Z</time>
      </trkpt>
      <trkpt lat="45.92522" lon="4.73639">
        <ele>173</ele>
        <time>2017-07-20T10:01:09Z</time>
      </trkpt>
      <trkpt lat="45.92515" lon="4.73639">
        <ele>173</ele>
        <time>2017-07-20T10:01:11Z</time>
      </trkpt>
      <trkpt lat="45.9251" lon="4.73639">
        <ele>174</ele>
        <time>2017-07-20T10:01:12Z</time>
      </trkpt>
      <trkpt lat="45.92504" lon="4.73639">
        <ele>174</ele>
        <time>2017-07-20T10:01:13Z</time>
      </trkpt>
      <trkpt lat="45.925" lon="4.7364">
        <ele>174</ele>
        <time>2017-07-20T10:01:14Z</time>
      </trkpt>
      <trkpt lat="45.92495" lon="4.7364">
        <ele>174</ele>
        <time>2017-07-20T10:01:15Z</time>
      </trkpt>
      <trkpt lat="45.9249" lon="4.7364">
        <ele>174</ele>
        <time>2017-07-20T10:01:16Z</time>
      </trkpt>
      <trkpt lat="45.92481" lon="4.73641">
        <ele>174</ele>
        <time>2017-07-20T10:01:18Z</time>
      </trkpt>
      <trkpt lat="45.92476" lon="4.73644">
        <ele>174</ele>
        <time>2017-07-20T10:01:19Z</time>
      </trkpt>
      <trkpt lat="45.92471" lon="4.7365">
        <ele>174</ele>
        <time>2017-07-20T10:01:21Z</time>
      </trkpt>
      <trkpt lat="45.92469" lon="4.73654">
        <ele>174</ele>
        <time>2017-07-20T10:01:22Z</time>
      </trkpt>
      <trkpt lat="45.92465" lon="4.73663">
        <ele>174</ele>
        <time>2017-07-20T10:01:25Z</time>
      </trkpt>
      <trkpt lat="45.92465" lon="4.73666">
        <ele>174</ele>
        <time>2017-07-20T10:01:26Z</time>
      </trkpt>
      <trkpt lat="45.92463" lon="4.73676">
        <ele>174</ele>
        <time>2017-07-20T10:01:29Z</time>
      </trkpt>
      <trkpt lat="45.92463" lon="4.73681">
        <ele>174</ele>
        <time>2017-07-20T10:01:30Z</time>
      </trkpt>
      <trkpt lat="45.92463" lon="4.73689">
        <ele>174</ele>
        <time>2017-07-20T10:01:32Z</time>
      </trkpt>
      <trkpt lat="45.92462" lon="4.73695">
        <ele>174</ele>
        <time>2017-07-20T10:01:33Z</time>
      </trkpt>
      <trkpt lat="45.92461" lon="4.73699">
        <ele>174</ele>
        <time>2017-07-20T10:02:55.499Z</time>
      </trkpt>
    </trkseg>
  </trk>
</gpx>